<?xml version="1.0" encoding="UTF-8" standalone="no" ?>
<gpx xmlns="http://www.topografix.com/GPX/1/1" xmlns:xsi="http://www.w3.org/2001/XMLSchema-instance" xsi:schemaLocation="http://www.topografix.com/GPX/1/1 http://www.topografix.com/GPX/1/1/gpx.xsd" version="1.1" creator="VisuGPX - https://www.visugpx.com">
  <metadata>
    <name>2eme journée Thodure</name>
    <desc><![CDATA[2eme journée Thodure]]></desc>
  </metadata>
  <trk>
    <name><![CDATA[2eme journée Thodure_1]]></name>
    <trkseg>
      <trkpt lat="45.30624" lon="5.14096">
        <ele>397.3</ele>
        <time>2014-06-01T09:59:54Z</time>
      </trkpt>
      <trkpt lat="45.30622" lon="5.14105">
        <ele>396.50292038929</ele>
        <time>2014-06-01T09:59:59Z</time>
      </trkpt>
      <trkpt lat="45.30624" lon="5.14116">
        <ele>395.70584077858</ele>
        <time>2014-06-01T10:00:04Z</time>
      </trkpt>
      <trkpt lat="45.30624" lon="5.14117">
        <ele>394.90876116787</ele>
        <time>2014-06-01T10:00:09Z</time>
      </trkpt>
      <trkpt lat="45.30623" lon="5.14118">
        <ele>394.11168155716</ele>
        <time>2014-06-01T10:00:14Z</time>
      </trkpt>
      <trkpt lat="45.30623" lon="5.14124">
        <ele>393.31460194645</ele>
        <time>2014-06-01T10:00:19Z</time>
      </trkpt>
      <trkpt lat="45.30621" lon="5.14127">
        <ele>392.51752233574</ele>
        <time>2014-06-01T10:00:24Z</time>
      </trkpt>
      <trkpt lat="45.30619" lon="5.14127">
        <ele>391.72044272503</ele>
        <time>2014-06-01T10:00:29Z</time>
      </trkpt>
      <trkpt lat="45.30613" lon="5.14127">
        <ele>390.92336311431</ele>
        <time>2014-06-01T10:00:34Z</time>
      </trkpt>
      <trkpt lat="45.30609" lon="5.14122">
        <ele>390.1262835036</ele>
        <time>2014-06-01T10:00:39Z</time>
      </trkpt>
      <trkpt lat="45.30605" lon="5.1411">
        <ele>389.32920389289</ele>
        <time>2014-06-01T10:00:44Z</time>
      </trkpt>
      <trkpt lat="45.30604" lon="5.14106">
        <ele>388.53212428218</ele>
        <time>2014-06-01T10:00:49Z</time>
      </trkpt>
      <trkpt lat="45.30604" lon="5.14109">
        <ele>387.73504467147</ele>
        <time>2014-06-01T10:00:54Z</time>
      </trkpt>
      <trkpt lat="45.30604" lon="5.14109">
        <ele>386.93796506076</ele>
        <time>2014-06-01T10:00:59Z</time>
      </trkpt>
      <trkpt lat="45.30602" lon="5.14105">
        <ele>386.14088545005</ele>
        <time>2014-06-01T10:01:04Z</time>
      </trkpt>
      <trkpt lat="45.30601" lon="5.14104">
        <ele>386.14088545005</ele>
        <time>2014-06-01T10:01:09Z</time>
      </trkpt>
      <trkpt lat="45.30601" lon="5.14103">
        <ele>386.14088545005</ele>
        <time>2014-06-01T10:01:14Z</time>
      </trkpt>
      <trkpt lat="45.306" lon="5.14102">
        <ele>386.14088545005</ele>
        <time>2014-06-01T10:01:19Z</time>
      </trkpt>
      <trkpt lat="45.306" lon="5.14102">
        <ele>386.14088545005</ele>
        <time>2014-06-01T10:01:24Z</time>
      </trkpt>
      <trkpt lat="45.306" lon="5.14101">
        <ele>386.14088545005</ele>
        <time>2014-06-01T10:01:29Z</time>
      </trkpt>
      <trkpt lat="45.30599" lon="5.14102">
        <ele>386.14088545005</ele>
        <time>2014-06-01T10:01:34Z</time>
      </trkpt>
      <trkpt lat="45.30599" lon="5.14102">
        <ele>386.14088545005</ele>
        <time>2014-06-01T10:01:39Z</time>
      </trkpt>
      <trkpt lat="45.306" lon="5.14101">
        <ele>386.14088545005</ele>
        <time>2014-06-01T10:01:44Z</time>
      </trkpt>
      <trkpt lat="45.306" lon="5.14101">
        <ele>386.14088545005</ele>
        <time>2014-06-01T10:01:49Z</time>
      </trkpt>
      <trkpt lat="45.306" lon="5.14101">
        <ele>386.14088545005</ele>
        <time>2014-06-01T10:01:54Z</time>
      </trkpt>
      <trkpt lat="45.306" lon="5.14101">
        <ele>386.14088545005</ele>
        <time>2014-06-01T10:01:59Z</time>
      </trkpt>
      <trkpt lat="45.306" lon="5.14101">
        <ele>386.14088545005</ele>
        <time>2014-06-01T10:02:04Z</time>
      </trkpt>
      <trkpt lat="45.306" lon="5.14102">
        <ele>386.14088545005</ele>
        <time>2014-06-01T10:02:09Z</time>
      </trkpt>
      <trkpt lat="45.306" lon="5.14103">
        <ele>386.14088545005</ele>
        <time>2014-06-01T10:02:14Z</time>
      </trkpt>
      <trkpt lat="45.306" lon="5.14104">
        <ele>386.14088545005</ele>
        <time>2014-06-01T10:02:19Z</time>
      </trkpt>
      <trkpt lat="45.306" lon="5.14104">
        <ele>386.14088545005</ele>
        <time>2014-06-01T10:02:24Z</time>
      </trkpt>
      <trkpt lat="45.306" lon="5.14104">
        <ele>386.14088545005</ele>
        <time>2014-06-01T10:02:29Z</time>
      </trkpt>
      <trkpt lat="45.306" lon="5.14104">
        <ele>386.14088545005</ele>
        <time>2014-06-01T10:02:34Z</time>
      </trkpt>
      <trkpt lat="45.30598" lon="5.141">
        <ele>383.74277906431</ele>
        <time>2014-06-01T10:02:39Z</time>
      </trkpt>
      <trkpt lat="45.30596" lon="5.14095">
        <ele>383.74277906431</ele>
        <time>2014-06-01T10:02:44Z</time>
      </trkpt>
      <trkpt lat="45.30593" lon="5.14094">
        <ele>383.74277906431</ele>
        <time>2014-06-01T10:02:49Z</time>
      </trkpt>
      <trkpt lat="45.30594" lon="5.14094">
        <ele>383.74277906431</ele>
        <time>2014-06-01T10:02:54Z</time>
      </trkpt>
      <trkpt lat="45.30594" lon="5.14094">
        <ele>383.74277906431</ele>
        <time>2014-06-01T10:02:59Z</time>
      </trkpt>
      <trkpt lat="45.30593" lon="5.14095">
        <ele>383.74277906431</ele>
        <time>2014-06-01T10:03:04Z</time>
      </trkpt>
      <trkpt lat="45.30591" lon="5.14095">
        <ele>383.56334232798</ele>
        <time>2014-06-01T10:03:09Z</time>
      </trkpt>
      <trkpt lat="45.30591" lon="5.14095">
        <ele>383.56334232798</ele>
        <time>2014-06-01T10:03:14Z</time>
      </trkpt>
      <trkpt lat="45.30591" lon="5.14095">
        <ele>383.56334232798</ele>
        <time>2014-06-01T10:03:19Z</time>
      </trkpt>
      <trkpt lat="45.3059" lon="5.14092">
        <ele>383.56334232798</ele>
        <time>2014-06-01T10:03:24Z</time>
      </trkpt>
      <trkpt lat="45.30586" lon="5.14088">
        <ele>383.56334232798</ele>
        <time>2014-06-01T10:03:29Z</time>
      </trkpt>
      <trkpt lat="45.30581" lon="5.14082">
        <ele>385.4189427555</ele>
        <time>2014-06-01T10:03:34Z</time>
      </trkpt>
      <trkpt lat="45.30577" lon="5.14077">
        <ele>385.4189427555</ele>
        <time>2014-06-01T10:03:39Z</time>
      </trkpt>
      <trkpt lat="45.30575" lon="5.14073">
        <ele>386.91180691876</ele>
        <time>2014-06-01T10:03:44Z</time>
      </trkpt>
      <trkpt lat="45.30574" lon="5.14073">
        <ele>386.91180691876</ele>
        <time>2014-06-01T10:03:49Z</time>
      </trkpt>
      <trkpt lat="45.30575" lon="5.14071">
        <ele>386.91180691876</ele>
        <time>2014-06-01T10:03:54Z</time>
      </trkpt>
      <trkpt lat="45.30575" lon="5.14072">
        <ele>386.91180691876</ele>
        <time>2014-06-01T10:03:59Z</time>
      </trkpt>
      <trkpt lat="45.30576" lon="5.14071">
        <ele>386.91180691876</ele>
        <time>2014-06-01T10:04:04Z</time>
      </trkpt>
      <trkpt lat="45.30577" lon="5.14069">
        <ele>386.91180691876</ele>
        <time>2014-06-01T10:04:09Z</time>
      </trkpt>
      <trkpt lat="45.30576" lon="5.1407">
        <ele>386.91180691876</ele>
        <time>2014-06-01T10:04:14Z</time>
      </trkpt>
      <trkpt lat="45.30575" lon="5.1407">
        <ele>386.91180691876</ele>
        <time>2014-06-01T10:04:19Z</time>
      </trkpt>
      <trkpt lat="45.30575" lon="5.14069">
        <ele>386.91180691876</ele>
        <time>2014-06-01T10:04:24Z</time>
      </trkpt>
      <trkpt lat="45.30575" lon="5.14069">
        <ele>389.35009498857</ele>
        <time>2014-06-01T10:04:29Z</time>
      </trkpt>
      <trkpt lat="45.30574" lon="5.1407">
        <ele>389.35009498857</ele>
        <time>2014-06-01T10:04:34Z</time>
      </trkpt>
      <trkpt lat="45.30577" lon="5.14068">
        <ele>389.35009498857</ele>
        <time>2014-06-01T10:04:39Z</time>
      </trkpt>
      <trkpt lat="45.30578" lon="5.14069">
        <ele>389.35009498857</ele>
        <time>2014-06-01T10:04:44Z</time>
      </trkpt>
      <trkpt lat="45.30579" lon="5.14069">
        <ele>389.35009498857</ele>
        <time>2014-06-01T10:04:49Z</time>
      </trkpt>
      <trkpt lat="45.30581" lon="5.14072">
        <ele>391.19490460285</ele>
        <time>2014-06-01T10:04:54Z</time>
      </trkpt>
      <trkpt lat="45.30584" lon="5.1408">
        <ele>391.19490460285</ele>
        <time>2014-06-01T10:04:59Z</time>
      </trkpt>
      <trkpt lat="45.30589" lon="5.14088">
        <ele>392.67539503483</ele>
        <time>2014-06-01T10:05:04Z</time>
      </trkpt>
      <trkpt lat="45.30593" lon="5.14094">
        <ele>392.67539503483</ele>
        <time>2014-06-01T10:05:09Z</time>
      </trkpt>
      <trkpt lat="45.30593" lon="5.14095">
        <ele>392.67539503483</ele>
        <time>2014-06-01T10:05:14Z</time>
      </trkpt>
      <trkpt lat="45.30592" lon="5.14095">
        <ele>392.67539503483</ele>
        <time>2014-06-01T10:05:19Z</time>
      </trkpt>
      <trkpt lat="45.30591" lon="5.14095">
        <ele>392.67539503483</ele>
        <time>2014-06-01T10:05:24Z</time>
      </trkpt>
      <trkpt lat="45.30592" lon="5.14094">
        <ele>393.88673336831</ele>
        <time>2014-06-01T10:05:29Z</time>
      </trkpt>
      <trkpt lat="45.30592" lon="5.14095">
        <ele>393.88673336831</ele>
        <time>2014-06-01T10:05:34Z</time>
      </trkpt>
      <trkpt lat="45.30592" lon="5.14095">
        <ele>393.88673336831</ele>
        <time>2014-06-01T10:05:39Z</time>
      </trkpt>
      <trkpt lat="45.30593" lon="5.14094">
        <ele>393.88673336831</ele>
        <time>2014-06-01T10:05:44Z</time>
      </trkpt>
      <trkpt lat="45.30593" lon="5.14094">
        <ele>393.88673336831</ele>
        <time>2014-06-01T10:05:49Z</time>
      </trkpt>
      <trkpt lat="45.30593" lon="5.14095">
        <ele>393.88673336831</ele>
        <time>2014-06-01T10:05:54Z</time>
      </trkpt>
      <trkpt lat="45.30593" lon="5.14094">
        <ele>393.88673336831</ele>
        <time>2014-06-01T10:05:59Z</time>
      </trkpt>
      <trkpt lat="45.30593" lon="5.14094">
        <ele>393.88673336831</ele>
        <time>2014-06-01T10:06:04Z</time>
      </trkpt>
      <trkpt lat="45.30593" lon="5.14094">
        <ele>393.88673336831</ele>
        <time>2014-06-01T10:06:09Z</time>
      </trkpt>
      <trkpt lat="45.30593" lon="5.14096">
        <ele>393.88673336831</ele>
        <time>2014-06-01T10:06:14Z</time>
      </trkpt>
      <trkpt lat="45.30592" lon="5.14096">
        <ele>393.88673336831</ele>
        <time>2014-06-01T10:06:19Z</time>
      </trkpt>
      <trkpt lat="45.30592" lon="5.14096">
        <ele>393.88673336831</ele>
        <time>2014-06-01T10:06:24Z</time>
      </trkpt>
      <trkpt lat="45.30592" lon="5.14095">
        <ele>393.88673336831</ele>
        <time>2014-06-01T10:06:29Z</time>
      </trkpt>
      <trkpt lat="45.30592" lon="5.14095">
        <ele>393.88673336831</ele>
        <time>2014-06-01T10:06:34Z</time>
      </trkpt>
      <trkpt lat="45.30595" lon="5.14098">
        <ele>395.33808731917</ele>
        <time>2014-06-01T10:06:39Z</time>
      </trkpt>
      <trkpt lat="45.30595" lon="5.14099">
        <ele>395.33808731917</ele>
        <time>2014-06-01T10:06:44Z</time>
      </trkpt>
      <trkpt lat="45.30598" lon="5.14102">
        <ele>395.33808731917</ele>
        <time>2014-06-01T10:06:49Z</time>
      </trkpt>
      <trkpt lat="45.30598" lon="5.14103">
        <ele>395.33808731917</ele>
        <time>2014-06-01T10:06:54Z</time>
      </trkpt>
      <trkpt lat="45.30598" lon="5.14102">
        <ele>395.33808731917</ele>
        <time>2014-06-01T10:06:59Z</time>
      </trkpt>
      <trkpt lat="45.30598" lon="5.14102">
        <ele>395.33808731917</ele>
        <time>2014-06-01T10:07:04Z</time>
      </trkpt>
      <trkpt lat="45.30603" lon="5.14105">
        <ele>396.527952444</ele>
        <time>2014-06-01T10:07:09Z</time>
      </trkpt>
      <trkpt lat="45.30604" lon="5.14105">
        <ele>396.527952444</ele>
        <time>2014-06-01T10:07:14Z</time>
      </trkpt>
      <trkpt lat="45.30604" lon="5.14105">
        <ele>396.527952444</ele>
        <time>2014-06-01T10:07:19Z</time>
      </trkpt>
      <trkpt lat="45.30605" lon="5.14106">
        <ele>396.527952444</ele>
        <time>2014-06-01T10:07:24Z</time>
      </trkpt>
      <trkpt lat="45.30604" lon="5.14105">
        <ele>396.527952444</ele>
        <time>2014-06-01T10:07:29Z</time>
      </trkpt>
      <trkpt lat="45.30603" lon="5.14105">
        <ele>396.527952444</ele>
        <time>2014-06-01T10:07:34Z</time>
      </trkpt>
      <trkpt lat="45.30602" lon="5.14105">
        <ele>396.527952444</ele>
        <time>2014-06-01T10:07:39Z</time>
      </trkpt>
      <trkpt lat="45.30602" lon="5.14104">
        <ele>396.527952444</ele>
        <time>2014-06-01T10:07:44Z</time>
      </trkpt>
      <trkpt lat="45.30602" lon="5.14103">
        <ele>396.527952444</ele>
        <time>2014-06-01T10:07:49Z</time>
      </trkpt>
      <trkpt lat="45.30603" lon="5.14103">
        <ele>396.527952444</ele>
        <time>2014-06-01T10:07:54Z</time>
      </trkpt>
      <trkpt lat="45.30603" lon="5.14103">
        <ele>396.527952444</ele>
        <time>2014-06-01T10:07:59Z</time>
      </trkpt>
      <trkpt lat="45.30603" lon="5.14104">
        <ele>396.527952444</ele>
        <time>2014-06-01T10:08:04Z</time>
      </trkpt>
      <trkpt lat="45.30604" lon="5.14104">
        <ele>396.527952444</ele>
        <time>2014-06-01T10:08:09Z</time>
      </trkpt>
      <trkpt lat="45.30605" lon="5.14104">
        <ele>396.96529977949</ele>
        <time>2014-06-01T10:08:14Z</time>
      </trkpt>
      <trkpt lat="45.30606" lon="5.14105">
        <ele>396.96529977949</ele>
        <time>2014-06-01T10:08:19Z</time>
      </trkpt>
      <trkpt lat="45.30606" lon="5.14105">
        <ele>396.96529977949</ele>
        <time>2014-06-01T10:08:24Z</time>
      </trkpt>
      <trkpt lat="45.30606" lon="5.14104">
        <ele>396.96529977949</ele>
        <time>2014-06-01T10:08:29Z</time>
      </trkpt>
      <trkpt lat="45.30606" lon="5.14104">
        <ele>396.96529977949</ele>
        <time>2014-06-01T10:08:34Z</time>
      </trkpt>
      <trkpt lat="45.30605" lon="5.14104">
        <ele>396.96529977949</ele>
        <time>2014-06-01T10:08:39Z</time>
      </trkpt>
      <trkpt lat="45.30605" lon="5.14105">
        <ele>396.96529977949</ele>
        <time>2014-06-01T10:08:44Z</time>
      </trkpt>
      <trkpt lat="45.30601" lon="5.14103">
        <ele>396.96529977949</ele>
        <time>2014-06-01T10:08:49Z</time>
      </trkpt>
      <trkpt lat="45.306" lon="5.141">
        <ele>397.02974531651</ele>
        <time>2014-06-01T10:08:54Z</time>
      </trkpt>
      <trkpt lat="45.30601" lon="5.141">
        <ele>397.02974531651</ele>
        <time>2014-06-01T10:08:59Z</time>
      </trkpt>
      <trkpt lat="45.30601" lon="5.141">
        <ele>397.02974531651</ele>
        <time>2014-06-01T10:09:04Z</time>
      </trkpt>
      <trkpt lat="45.30601" lon="5.141">
        <ele>397.02974531651</ele>
        <time>2014-06-01T10:09:09Z</time>
      </trkpt>
      <trkpt lat="45.30601" lon="5.141">
        <ele>397.02974531651</ele>
        <time>2014-06-01T10:09:14Z</time>
      </trkpt>
      <trkpt lat="45.30601" lon="5.141">
        <ele>397.02974531651</ele>
        <time>2014-06-01T10:09:19Z</time>
      </trkpt>
      <trkpt lat="45.306" lon="5.14098">
        <ele>397.02974531651</ele>
        <time>2014-06-01T10:09:24Z</time>
      </trkpt>
      <trkpt lat="45.30595" lon="5.14093">
        <ele>397.02974531651</ele>
        <time>2014-06-01T10:09:29Z</time>
      </trkpt>
      <trkpt lat="45.30591" lon="5.14087">
        <ele>396.76248625642</ele>
        <time>2014-06-01T10:09:34Z</time>
      </trkpt>
      <trkpt lat="45.30585" lon="5.14082">
        <ele>396.76248625642</ele>
        <time>2014-06-01T10:09:39Z</time>
      </trkpt>
      <trkpt lat="45.30579" lon="5.14075">
        <ele>395.79132591838</ele>
        <time>2014-06-01T10:09:44Z</time>
      </trkpt>
      <trkpt lat="45.30576" lon="5.14065">
        <ele>395.79132591838</ele>
        <time>2014-06-01T10:09:49Z</time>
      </trkpt>
      <trkpt lat="45.30573" lon="5.14057">
        <ele>394.84382136623</ele>
        <time>2014-06-01T10:09:54Z</time>
      </trkpt>
      <trkpt lat="45.30572" lon="5.14052">
        <ele>394.84382136623</ele>
        <time>2014-06-01T10:09:59Z</time>
      </trkpt>
      <trkpt lat="45.30574" lon="5.14058">
        <ele>394.84382136623</ele>
        <time>2014-06-01T10:10:04Z</time>
      </trkpt>
      <trkpt lat="45.30578" lon="5.14068">
        <ele>394.01132962471</ele>
        <time>2014-06-01T10:10:09Z</time>
      </trkpt>
      <trkpt lat="45.30581" lon="5.14073">
        <ele>394.01132962471</ele>
        <time>2014-06-01T10:10:14Z</time>
      </trkpt>
      <trkpt lat="45.30586" lon="5.14081">
        <ele>392.90018690099</ele>
        <time>2014-06-01T10:10:19Z</time>
      </trkpt>
      <trkpt lat="45.30592" lon="5.14091">
        <ele>391.73562999426</ele>
        <time>2014-06-01T10:10:24Z</time>
      </trkpt>
      <trkpt lat="45.30597" lon="5.14098">
        <ele>391.73562999426</ele>
        <time>2014-06-01T10:10:29Z</time>
      </trkpt>
      <trkpt lat="45.30602" lon="5.14103">
        <ele>390.69572553878</ele>
        <time>2014-06-01T10:10:34Z</time>
      </trkpt>
      <trkpt lat="45.30607" lon="5.1411">
        <ele>390.69572553878</ele>
        <time>2014-06-01T10:10:39Z</time>
      </trkpt>
      <trkpt lat="45.30614" lon="5.14116">
        <ele>390.45674089588</ele>
        <time>2014-06-01T10:10:44Z</time>
      </trkpt>
      <trkpt lat="45.3062" lon="5.14123">
        <ele>390.45674089588</ele>
        <time>2014-06-01T10:10:49Z</time>
      </trkpt>
      <trkpt lat="45.30624" lon="5.1413">
        <ele>390.09494299166</ele>
        <time>2014-06-01T10:10:54Z</time>
      </trkpt>
      <trkpt lat="45.3063" lon="5.14137">
        <ele>390.09494299166</ele>
        <time>2014-06-01T10:10:59Z</time>
      </trkpt>
      <trkpt lat="45.30634" lon="5.14144">
        <ele>389.6878242119</ele>
        <time>2014-06-01T10:11:04Z</time>
      </trkpt>
      <trkpt lat="45.30639" lon="5.14152">
        <ele>389.6878242119</ele>
        <time>2014-06-01T10:11:09Z</time>
      </trkpt>
      <trkpt lat="45.30643" lon="5.1416">
        <ele>389.12467802215</ele>
        <time>2014-06-01T10:11:14Z</time>
      </trkpt>
      <trkpt lat="45.30647" lon="5.14166">
        <ele>389.12467802215</ele>
        <time>2014-06-01T10:11:19Z</time>
      </trkpt>
      <trkpt lat="45.30653" lon="5.14173">
        <ele>388.36573225151</ele>
        <time>2014-06-01T10:11:24Z</time>
      </trkpt>
      <trkpt lat="45.30653" lon="5.1418">
        <ele>388.36573225151</ele>
        <time>2014-06-01T10:11:29Z</time>
      </trkpt>
      <trkpt lat="45.30652" lon="5.14189">
        <ele>388.42572448058</ele>
        <time>2014-06-01T10:11:34Z</time>
      </trkpt>
      <trkpt lat="45.30649" lon="5.14196">
        <ele>388.42572448058</ele>
        <time>2014-06-01T10:11:39Z</time>
      </trkpt>
      <trkpt lat="45.30645" lon="5.14203">
        <ele>388.08207746316</ele>
        <time>2014-06-01T10:11:44Z</time>
      </trkpt>
      <trkpt lat="45.30641" lon="5.1421">
        <ele>388.08207746316</ele>
        <time>2014-06-01T10:11:49Z</time>
      </trkpt>
      <trkpt lat="45.30636" lon="5.14218">
        <ele>388.0086202792</ele>
        <time>2014-06-01T10:11:54Z</time>
      </trkpt>
      <trkpt lat="45.30633" lon="5.14225">
        <ele>388.0086202792</ele>
        <time>2014-06-01T10:11:59Z</time>
      </trkpt>
      <trkpt lat="45.3063" lon="5.14234">
        <ele>388.24996859793</ele>
        <time>2014-06-01T10:12:04Z</time>
      </trkpt>
      <trkpt lat="45.30627" lon="5.14243">
        <ele>388.24996859793</ele>
        <time>2014-06-01T10:12:09Z</time>
      </trkpt>
      <trkpt lat="45.30624" lon="5.14253">
        <ele>388.34588166439</ele>
        <time>2014-06-01T10:12:14Z</time>
      </trkpt>
      <trkpt lat="45.30623" lon="5.14266">
        <ele>388.61346412821</ele>
        <time>2014-06-01T10:12:19Z</time>
      </trkpt>
      <trkpt lat="45.30623" lon="5.14275">
        <ele>388.61346412821</ele>
        <time>2014-06-01T10:12:24Z</time>
      </trkpt>
      <trkpt lat="45.30621" lon="5.14287">
        <ele>389.27483898882</ele>
        <time>2014-06-01T10:12:29Z</time>
      </trkpt>
      <trkpt lat="45.3062" lon="5.14295">
        <ele>389.27483898882</ele>
        <time>2014-06-01T10:12:34Z</time>
      </trkpt>
      <trkpt lat="45.30617" lon="5.14304">
        <ele>389.77337261541</ele>
        <time>2014-06-01T10:12:39Z</time>
      </trkpt>
      <trkpt lat="45.30615" lon="5.1431">
        <ele>389.77337261541</ele>
        <time>2014-06-01T10:12:44Z</time>
      </trkpt>
      <trkpt lat="45.30614" lon="5.14316">
        <ele>389.81389740177</ele>
        <time>2014-06-01T10:12:49Z</time>
      </trkpt>
      <trkpt lat="45.3061" lon="5.14327">
        <ele>389.81389740177</ele>
        <time>2014-06-01T10:12:54Z</time>
      </trkpt>
      <trkpt lat="45.30609" lon="5.14334">
        <ele>389.94250264362</ele>
        <time>2014-06-01T10:12:59Z</time>
      </trkpt>
      <trkpt lat="45.30606" lon="5.14343">
        <ele>389.94250264362</ele>
        <time>2014-06-01T10:13:04Z</time>
      </trkpt>
      <trkpt lat="45.30603" lon="5.14356">
        <ele>389.74744124578</ele>
        <time>2014-06-01T10:13:09Z</time>
      </trkpt>
      <trkpt lat="45.30599" lon="5.14365">
        <ele>389.74744124578</ele>
        <time>2014-06-01T10:13:14Z</time>
      </trkpt>
      <trkpt lat="45.30597" lon="5.14369">
        <ele>389.85498470423</ele>
        <time>2014-06-01T10:13:19Z</time>
      </trkpt>
      <trkpt lat="45.30593" lon="5.14373">
        <ele>389.85498470423</ele>
        <time>2014-06-01T10:13:24Z</time>
      </trkpt>
      <trkpt lat="45.30589" lon="5.14382">
        <ele>389.80875365711</ele>
        <time>2014-06-01T10:13:29Z</time>
      </trkpt>
      <trkpt lat="45.30584" lon="5.14389">
        <ele>389.80875365711</ele>
        <time>2014-06-01T10:13:34Z</time>
      </trkpt>
      <trkpt lat="45.30577" lon="5.14398">
        <ele>389.24764085256</ele>
        <time>2014-06-01T10:13:39Z</time>
      </trkpt>
      <trkpt lat="45.30573" lon="5.14403">
        <ele>389.24764085256</ele>
        <time>2014-06-01T10:13:44Z</time>
      </trkpt>
      <trkpt lat="45.30568" lon="5.14409">
        <ele>388.34752779802</ele>
        <time>2014-06-01T10:13:49Z</time>
      </trkpt>
      <trkpt lat="45.30562" lon="5.14414">
        <ele>388.34752779802</ele>
        <time>2014-06-01T10:13:54Z</time>
      </trkpt>
      <trkpt lat="45.30555" lon="5.1442">
        <ele>387.81254678173</ele>
        <time>2014-06-01T10:13:59Z</time>
      </trkpt>
      <trkpt lat="45.30551" lon="5.14426">
        <ele>387.81254678173</ele>
        <time>2014-06-01T10:14:04Z</time>
      </trkpt>
      <trkpt lat="45.30546" lon="5.14432">
        <ele>387.88792229486</ele>
        <time>2014-06-01T10:14:09Z</time>
      </trkpt>
      <trkpt lat="45.30542" lon="5.14441">
        <ele>387.88792229486</ele>
        <time>2014-06-01T10:14:14Z</time>
      </trkpt>
      <trkpt lat="45.3054" lon="5.1445">
        <ele>387.99695580589</ele>
        <time>2014-06-01T10:14:19Z</time>
      </trkpt>
      <trkpt lat="45.30537" lon="5.14454">
        <ele>387.99695580589</ele>
        <time>2014-06-01T10:14:24Z</time>
      </trkpt>
      <trkpt lat="45.30534" lon="5.14458">
        <ele>387.99695580589</ele>
        <time>2014-06-01T10:14:29Z</time>
      </trkpt>
      <trkpt lat="45.30531" lon="5.14462">
        <ele>388.81716852303</ele>
        <time>2014-06-01T10:14:34Z</time>
      </trkpt>
      <trkpt lat="45.30529" lon="5.14466">
        <ele>388.81716852303</ele>
        <time>2014-06-01T10:14:39Z</time>
      </trkpt>
      <trkpt lat="45.30525" lon="5.14471">
        <ele>388.81716852303</ele>
        <time>2014-06-01T10:14:44Z</time>
      </trkpt>
      <trkpt lat="45.30522" lon="5.1448">
        <ele>388.80506345544</ele>
        <time>2014-06-01T10:14:49Z</time>
      </trkpt>
      <trkpt lat="45.30519" lon="5.14488">
        <ele>388.80506345544</ele>
        <time>2014-06-01T10:14:54Z</time>
      </trkpt>
      <trkpt lat="45.30517" lon="5.14496">
        <ele>390.05562328685</ele>
        <time>2014-06-01T10:14:59Z</time>
      </trkpt>
      <trkpt lat="45.30514" lon="5.14504">
        <ele>390.05562328685</ele>
        <time>2014-06-01T10:15:04Z</time>
      </trkpt>
      <trkpt lat="45.30511" lon="5.14513">
        <ele>391.77934557241</ele>
        <time>2014-06-01T10:15:09Z</time>
      </trkpt>
      <trkpt lat="45.30509" lon="5.14521">
        <ele>391.77934557241</ele>
        <time>2014-06-01T10:15:14Z</time>
      </trkpt>
      <trkpt lat="45.30505" lon="5.14533">
        <ele>393.09759393262</ele>
        <time>2014-06-01T10:15:19Z</time>
      </trkpt>
      <trkpt lat="45.30502" lon="5.14546">
        <ele>394.18431675949</ele>
        <time>2014-06-01T10:15:24Z</time>
      </trkpt>
      <trkpt lat="45.30499" lon="5.1456">
        <ele>395.03765569377</ele>
        <time>2014-06-01T10:15:29Z</time>
      </trkpt>
      <trkpt lat="45.30495" lon="5.14573">
        <ele>395.82347139312</ele>
        <time>2014-06-01T10:15:34Z</time>
      </trkpt>
      <trkpt lat="45.30493" lon="5.14586">
        <ele>395.82347139312</ele>
        <time>2014-06-01T10:15:39Z</time>
      </trkpt>
      <trkpt lat="45.3049" lon="5.14599">
        <ele>396.0922755122</ele>
        <time>2014-06-01T10:15:44Z</time>
      </trkpt>
      <trkpt lat="45.30488" lon="5.1461">
        <ele>396.0922755122</ele>
        <time>2014-06-01T10:15:49Z</time>
      </trkpt>
      <trkpt lat="45.30488" lon="5.14621">
        <ele>396.24629277438</ele>
        <time>2014-06-01T10:15:54Z</time>
      </trkpt>
      <trkpt lat="45.30489" lon="5.14632">
        <ele>396.24629277438</ele>
        <time>2014-06-01T10:15:59Z</time>
      </trkpt>
      <trkpt lat="45.30492" lon="5.14642">
        <ele>395.67681137691</ele>
        <time>2014-06-01T10:16:04Z</time>
      </trkpt>
      <trkpt lat="45.30496" lon="5.14655">
        <ele>395.09250400025</ele>
        <time>2014-06-01T10:16:09Z</time>
      </trkpt>
      <trkpt lat="45.30498" lon="5.14667">
        <ele>395.09250400025</ele>
        <time>2014-06-01T10:16:14Z</time>
      </trkpt>
      <trkpt lat="45.30502" lon="5.14677">
        <ele>394.15187303322</ele>
        <time>2014-06-01T10:16:19Z</time>
      </trkpt>
      <trkpt lat="45.30505" lon="5.14686">
        <ele>394.15187303322</ele>
        <time>2014-06-01T10:16:24Z</time>
      </trkpt>
      <trkpt lat="45.30507" lon="5.14693">
        <ele>393.2186918307</ele>
        <time>2014-06-01T10:16:29Z</time>
      </trkpt>
      <trkpt lat="45.3051" lon="5.14701">
        <ele>393.2186918307</ele>
        <time>2014-06-01T10:16:34Z</time>
      </trkpt>
      <trkpt lat="45.30513" lon="5.1471">
        <ele>392.08667245368</ele>
        <time>2014-06-01T10:16:39Z</time>
      </trkpt>
      <trkpt lat="45.30516" lon="5.14719">
        <ele>392.08667245368</ele>
        <time>2014-06-01T10:16:44Z</time>
      </trkpt>
      <trkpt lat="45.30518" lon="5.14729">
        <ele>391.1657687129</ele>
        <time>2014-06-01T10:16:49Z</time>
      </trkpt>
      <trkpt lat="45.30517" lon="5.14739">
        <ele>391.1657687129</ele>
        <time>2014-06-01T10:16:54Z</time>
      </trkpt>
      <trkpt lat="45.30516" lon="5.1475">
        <ele>390.56196857534</ele>
        <time>2014-06-01T10:16:59Z</time>
      </trkpt>
      <trkpt lat="45.30514" lon="5.14761">
        <ele>390.56196857534</ele>
        <time>2014-06-01T10:17:04Z</time>
      </trkpt>
      <trkpt lat="45.30513" lon="5.1477">
        <ele>390.08815163009</ele>
        <time>2014-06-01T10:17:09Z</time>
      </trkpt>
      <trkpt lat="45.3051" lon="5.14781">
        <ele>390.08815163009</ele>
        <time>2014-06-01T10:17:14Z</time>
      </trkpt>
      <trkpt lat="45.30508" lon="5.14791">
        <ele>389.30500032354</ele>
        <time>2014-06-01T10:17:19Z</time>
      </trkpt>
      <trkpt lat="45.30505" lon="5.14801">
        <ele>389.30500032354</ele>
        <time>2014-06-01T10:17:24Z</time>
      </trkpt>
      <trkpt lat="45.30503" lon="5.14812">
        <ele>388.49269891298</ele>
        <time>2014-06-01T10:17:29Z</time>
      </trkpt>
      <trkpt lat="45.305" lon="5.14821">
        <ele>388.49269891298</ele>
        <time>2014-06-01T10:17:34Z</time>
      </trkpt>
      <trkpt lat="45.30497" lon="5.14831">
        <ele>387.59740822221</ele>
        <time>2014-06-01T10:17:39Z</time>
      </trkpt>
      <trkpt lat="45.30495" lon="5.14841">
        <ele>387.59740822221</ele>
        <time>2014-06-01T10:17:44Z</time>
      </trkpt>
      <trkpt lat="45.30494" lon="5.14851">
        <ele>386.64366032436</ele>
        <time>2014-06-01T10:17:49Z</time>
      </trkpt>
      <trkpt lat="45.30494" lon="5.1486">
        <ele>386.64366032436</ele>
        <time>2014-06-01T10:17:54Z</time>
      </trkpt>
      <trkpt lat="45.30496" lon="5.1487">
        <ele>385.84524721318</ele>
        <time>2014-06-01T10:17:59Z</time>
      </trkpt>
      <trkpt lat="45.30499" lon="5.14879">
        <ele>385.84524721318</ele>
        <time>2014-06-01T10:18:04Z</time>
      </trkpt>
      <trkpt lat="45.30503" lon="5.14888">
        <ele>385.03077324185</ele>
        <time>2014-06-01T10:18:09Z</time>
      </trkpt>
      <trkpt lat="45.30505" lon="5.14897">
        <ele>385.03077324185</ele>
        <time>2014-06-01T10:18:14Z</time>
      </trkpt>
      <trkpt lat="45.30508" lon="5.14906">
        <ele>384.2480371378</ele>
        <time>2014-06-01T10:18:19Z</time>
      </trkpt>
      <trkpt lat="45.30511" lon="5.14915">
        <ele>384.2480371378</ele>
        <time>2014-06-01T10:18:24Z</time>
      </trkpt>
      <trkpt lat="45.30514" lon="5.14924">
        <ele>383.59924837361</ele>
        <time>2014-06-01T10:18:29Z</time>
      </trkpt>
      <trkpt lat="45.30516" lon="5.14933">
        <ele>383.59924837361</ele>
        <time>2014-06-01T10:18:34Z</time>
      </trkpt>
      <trkpt lat="45.30517" lon="5.14942">
        <ele>383.03203067225</ele>
        <time>2014-06-01T10:18:39Z</time>
      </trkpt>
      <trkpt lat="45.30517" lon="5.14951">
        <ele>383.03203067225</ele>
        <time>2014-06-01T10:18:44Z</time>
      </trkpt>
      <trkpt lat="45.30517" lon="5.1496">
        <ele>382.45431755159</ele>
        <time>2014-06-01T10:18:49Z</time>
      </trkpt>
      <trkpt lat="45.30516" lon="5.1497">
        <ele>382.45431755159</ele>
        <time>2014-06-01T10:18:54Z</time>
      </trkpt>
      <trkpt lat="45.30516" lon="5.14979">
        <ele>381.85410781288</ele>
        <time>2014-06-01T10:18:59Z</time>
      </trkpt>
      <trkpt lat="45.30515" lon="5.14988">
        <ele>381.85410781288</ele>
        <time>2014-06-01T10:19:04Z</time>
      </trkpt>
      <trkpt lat="45.30515" lon="5.14998">
        <ele>381.42364973036</ele>
        <time>2014-06-01T10:19:09Z</time>
      </trkpt>
      <trkpt lat="45.30514" lon="5.15007">
        <ele>381.42364973036</ele>
        <time>2014-06-01T10:19:14Z</time>
      </trkpt>
      <trkpt lat="45.30514" lon="5.15017">
        <ele>380.94798694051</ele>
        <time>2014-06-01T10:19:19Z</time>
      </trkpt>
      <trkpt lat="45.30514" lon="5.15027">
        <ele>380.94798694051</ele>
        <time>2014-06-01T10:19:24Z</time>
      </trkpt>
      <trkpt lat="45.30515" lon="5.15037">
        <ele>380.66367193519</ele>
        <time>2014-06-01T10:19:29Z</time>
      </trkpt>
      <trkpt lat="45.30517" lon="5.15046">
        <ele>380.66367193519</ele>
        <time>2014-06-01T10:19:34Z</time>
      </trkpt>
      <trkpt lat="45.30519" lon="5.15055">
        <ele>380.36864775008</ele>
        <time>2014-06-01T10:19:39Z</time>
      </trkpt>
      <trkpt lat="45.30522" lon="5.15064">
        <ele>380.36864775008</ele>
        <time>2014-06-01T10:19:44Z</time>
      </trkpt>
      <trkpt lat="45.30524" lon="5.15074">
        <ele>379.9198031063</ele>
        <time>2014-06-01T10:19:49Z</time>
      </trkpt>
      <trkpt lat="45.30525" lon="5.15083">
        <ele>379.9198031063</ele>
        <time>2014-06-01T10:19:54Z</time>
      </trkpt>
      <trkpt lat="45.30526" lon="5.15093">
        <ele>379.67661882316</ele>
        <time>2014-06-01T10:19:59Z</time>
      </trkpt>
      <trkpt lat="45.30526" lon="5.15103">
        <ele>379.67661882316</ele>
        <time>2014-06-01T10:20:04Z</time>
      </trkpt>
      <trkpt lat="45.30525" lon="5.15112">
        <ele>379.49404344878</ele>
        <time>2014-06-01T10:20:09Z</time>
      </trkpt>
      <trkpt lat="45.30523" lon="5.15122">
        <ele>379.49404344878</ele>
        <time>2014-06-01T10:20:14Z</time>
      </trkpt>
      <trkpt lat="45.30522" lon="5.15131">
        <ele>379.39660192766</ele>
        <time>2014-06-01T10:20:19Z</time>
      </trkpt>
      <trkpt lat="45.30522" lon="5.1514">
        <ele>379.39660192766</ele>
        <time>2014-06-01T10:20:24Z</time>
      </trkpt>
      <trkpt lat="45.3052" lon="5.15148">
        <ele>379.16139303492</ele>
        <time>2014-06-01T10:20:29Z</time>
      </trkpt>
      <trkpt lat="45.3052" lon="5.15154">
        <ele>379.16139303492</ele>
        <time>2014-06-01T10:20:34Z</time>
      </trkpt>
      <trkpt lat="45.30519" lon="5.15165">
        <ele>379.07297420628</ele>
        <time>2014-06-01T10:20:39Z</time>
      </trkpt>
      <trkpt lat="45.3052" lon="5.15176">
        <ele>379.07297420628</ele>
        <time>2014-06-01T10:20:44Z</time>
      </trkpt>
      <trkpt lat="45.30521" lon="5.15188">
        <ele>378.81734092226</ele>
        <time>2014-06-01T10:20:49Z</time>
      </trkpt>
      <trkpt lat="45.30522" lon="5.15199">
        <ele>378.81734092226</ele>
        <time>2014-06-01T10:20:54Z</time>
      </trkpt>
      <trkpt lat="45.30522" lon="5.15207">
        <ele>378.81079720091</ele>
        <time>2014-06-01T10:20:59Z</time>
      </trkpt>
      <trkpt lat="45.30522" lon="5.15208">
        <ele>378.81079720091</ele>
        <time>2014-06-01T10:21:04Z</time>
      </trkpt>
      <trkpt lat="45.30522" lon="5.15211">
        <ele>378.81079720091</ele>
        <time>2014-06-01T10:21:09Z</time>
      </trkpt>
      <trkpt lat="45.30523" lon="5.15219">
        <ele>378.81079720091</ele>
        <time>2014-06-01T10:21:14Z</time>
      </trkpt>
      <trkpt lat="45.30522" lon="5.15228">
        <ele>379.0776388665</ele>
        <time>2014-06-01T10:21:19Z</time>
      </trkpt>
      <trkpt lat="45.30522" lon="5.15237">
        <ele>379.0776388665</ele>
        <time>2014-06-01T10:21:24Z</time>
      </trkpt>
      <trkpt lat="45.30522" lon="5.15248">
        <ele>379.36566987617</ele>
        <time>2014-06-01T10:21:29Z</time>
      </trkpt>
      <trkpt lat="45.30522" lon="5.15259">
        <ele>379.36566987617</ele>
        <time>2014-06-01T10:21:34Z</time>
      </trkpt>
      <trkpt lat="45.30522" lon="5.1527">
        <ele>379.3979392607</ele>
        <time>2014-06-01T10:21:39Z</time>
      </trkpt>
      <trkpt lat="45.30522" lon="5.15281">
        <ele>379.3979392607</ele>
        <time>2014-06-01T10:21:44Z</time>
      </trkpt>
      <trkpt lat="45.30521" lon="5.15292">
        <ele>379.39431156307</ele>
        <time>2014-06-01T10:21:49Z</time>
      </trkpt>
      <trkpt lat="45.30521" lon="5.15302">
        <ele>379.39431156307</ele>
        <time>2014-06-01T10:21:54Z</time>
      </trkpt>
      <trkpt lat="45.3052" lon="5.15312">
        <ele>379.28461864589</ele>
        <time>2014-06-01T10:21:59Z</time>
      </trkpt>
      <trkpt lat="45.30519" lon="5.15323">
        <ele>379.28461864589</ele>
        <time>2014-06-01T10:22:04Z</time>
      </trkpt>
      <trkpt lat="45.30518" lon="5.15333">
        <ele>379.24923180566</ele>
        <time>2014-06-01T10:22:09Z</time>
      </trkpt>
      <trkpt lat="45.30517" lon="5.15343">
        <ele>379.24923180566</ele>
        <time>2014-06-01T10:22:14Z</time>
      </trkpt>
      <trkpt lat="45.30516" lon="5.15352">
        <ele>379.28203533558</ele>
        <time>2014-06-01T10:22:19Z</time>
      </trkpt>
      <trkpt lat="45.30515" lon="5.15361">
        <ele>379.28203533558</ele>
        <time>2014-06-01T10:22:24Z</time>
      </trkpt>
      <trkpt lat="45.30513" lon="5.15369">
        <ele>379.42042104636</ele>
        <time>2014-06-01T10:22:29Z</time>
      </trkpt>
      <trkpt lat="45.30512" lon="5.15377">
        <ele>379.42042104636</ele>
        <time>2014-06-01T10:22:34Z</time>
      </trkpt>
      <trkpt lat="45.3051" lon="5.15385">
        <ele>379.42473439071</ele>
        <time>2014-06-01T10:22:39Z</time>
      </trkpt>
      <trkpt lat="45.30508" lon="5.15394">
        <ele>379.42473439071</ele>
        <time>2014-06-01T10:22:44Z</time>
      </trkpt>
      <trkpt lat="45.30506" lon="5.15403">
        <ele>379.40496767994</ele>
        <time>2014-06-01T10:22:49Z</time>
      </trkpt>
      <trkpt lat="45.30503" lon="5.15412">
        <ele>379.40496767994</ele>
        <time>2014-06-01T10:22:54Z</time>
      </trkpt>
      <trkpt lat="45.30501" lon="5.15422">
        <ele>379.46311597918</ele>
        <time>2014-06-01T10:22:59Z</time>
      </trkpt>
      <trkpt lat="45.30499" lon="5.15431">
        <ele>379.46311597918</ele>
        <time>2014-06-01T10:23:04Z</time>
      </trkpt>
      <trkpt lat="45.30496" lon="5.15439">
        <ele>379.57808944971</ele>
        <time>2014-06-01T10:23:09Z</time>
      </trkpt>
      <trkpt lat="45.30495" lon="5.15449">
        <ele>379.57808944971</ele>
        <time>2014-06-01T10:23:14Z</time>
      </trkpt>
      <trkpt lat="45.30492" lon="5.15458">
        <ele>379.87442701025</ele>
        <time>2014-06-01T10:23:19Z</time>
      </trkpt>
      <trkpt lat="45.3049" lon="5.15466">
        <ele>379.87442701025</ele>
        <time>2014-06-01T10:23:24Z</time>
      </trkpt>
      <trkpt lat="45.30488" lon="5.15475">
        <ele>380.03429619287</ele>
        <time>2014-06-01T10:23:29Z</time>
      </trkpt>
      <trkpt lat="45.30486" lon="5.15484">
        <ele>380.03429619287</ele>
        <time>2014-06-01T10:23:34Z</time>
      </trkpt>
      <trkpt lat="45.30484" lon="5.15492">
        <ele>380.09536468985</ele>
        <time>2014-06-01T10:23:39Z</time>
      </trkpt>
      <trkpt lat="45.30483" lon="5.15496">
        <ele>380.09536468985</ele>
        <time>2014-06-01T10:23:44Z</time>
      </trkpt>
      <trkpt lat="45.30483" lon="5.15503">
        <ele>380.09536468985</ele>
        <time>2014-06-01T10:23:49Z</time>
      </trkpt>
      <trkpt lat="45.30482" lon="5.15511">
        <ele>379.9774349714</ele>
        <time>2014-06-01T10:23:54Z</time>
      </trkpt>
      <trkpt lat="45.3048" lon="5.15515">
        <ele>379.9774349714</ele>
        <time>2014-06-01T10:23:59Z</time>
      </trkpt>
      <trkpt lat="45.30478" lon="5.15522">
        <ele>379.9774349714</ele>
        <time>2014-06-01T10:24:04Z</time>
      </trkpt>
      <trkpt lat="45.30477" lon="5.15529">
        <ele>379.93849100642</ele>
        <time>2014-06-01T10:24:09Z</time>
      </trkpt>
      <trkpt lat="45.30473" lon="5.15536">
        <ele>379.93849100642</ele>
        <time>2014-06-01T10:24:14Z</time>
      </trkpt>
      <trkpt lat="45.30467" lon="5.15546">
        <ele>380.49139882408</ele>
        <time>2014-06-01T10:24:19Z</time>
      </trkpt>
      <trkpt lat="45.30463" lon="5.15557">
        <ele>380.49139882408</ele>
        <time>2014-06-01T10:24:24Z</time>
      </trkpt>
      <trkpt lat="45.30459" lon="5.15568">
        <ele>381.11438818465</ele>
        <time>2014-06-01T10:24:29Z</time>
      </trkpt>
      <trkpt lat="45.30455" lon="5.15577">
        <ele>381.11438818465</ele>
        <time>2014-06-01T10:24:34Z</time>
      </trkpt>
      <trkpt lat="45.30451" lon="5.15586">
        <ele>381.82873281003</ele>
        <time>2014-06-01T10:24:39Z</time>
      </trkpt>
      <trkpt lat="45.30447" lon="5.15595">
        <ele>381.82873281003</ele>
        <time>2014-06-01T10:24:44Z</time>
      </trkpt>
      <trkpt lat="45.30443" lon="5.15605">
        <ele>382.74045027579</ele>
        <time>2014-06-01T10:24:49Z</time>
      </trkpt>
      <trkpt lat="45.3044" lon="5.15614">
        <ele>382.74045027579</ele>
        <time>2014-06-01T10:24:54Z</time>
      </trkpt>
      <trkpt lat="45.30437" lon="5.15623">
        <ele>383.41360299262</ele>
        <time>2014-06-01T10:24:59Z</time>
      </trkpt>
      <trkpt lat="45.30432" lon="5.15629">
        <ele>383.41360299262</ele>
        <time>2014-06-01T10:25:04Z</time>
      </trkpt>
      <trkpt lat="45.30426" lon="5.15624">
        <ele>384.25269288797</ele>
        <time>2014-06-01T10:25:09Z</time>
      </trkpt>
      <trkpt lat="45.30421" lon="5.15616">
        <ele>384.25269288797</ele>
        <time>2014-06-01T10:25:14Z</time>
      </trkpt>
      <trkpt lat="45.30415" lon="5.1561">
        <ele>385.14169001508</ele>
        <time>2014-06-01T10:25:19Z</time>
      </trkpt>
      <trkpt lat="45.30409" lon="5.15607">
        <ele>385.14169001508</ele>
        <time>2014-06-01T10:25:24Z</time>
      </trkpt>
      <trkpt lat="45.30402" lon="5.15604">
        <ele>385.38179128787</ele>
        <time>2014-06-01T10:25:29Z</time>
      </trkpt>
      <trkpt lat="45.30396" lon="5.156">
        <ele>385.38179128787</ele>
        <time>2014-06-01T10:25:34Z</time>
      </trkpt>
      <trkpt lat="45.30389" lon="5.15597">
        <ele>385.65415576416</ele>
        <time>2014-06-01T10:25:39Z</time>
      </trkpt>
      <trkpt lat="45.30378" lon="5.15594">
        <ele>385.75342856111</ele>
        <time>2014-06-01T10:25:44Z</time>
      </trkpt>
      <trkpt lat="45.30358" lon="5.15586">
        <ele>386.05222762183</ele>
        <time>2014-06-01T10:25:49Z</time>
      </trkpt>
      <trkpt lat="45.30339" lon="5.15573">
        <ele>386.57803158122</ele>
        <time>2014-06-01T10:25:54Z</time>
      </trkpt>
      <trkpt lat="45.30327" lon="5.15558">
        <ele>387.62962912665</ele>
        <time>2014-06-01T10:25:59Z</time>
      </trkpt>
      <trkpt lat="45.30316" lon="5.15535">
        <ele>388.63184338721</ele>
        <time>2014-06-01T10:26:04Z</time>
      </trkpt>
      <trkpt lat="45.30309" lon="5.15522">
        <ele>389.70074300121</ele>
        <time>2014-06-01T10:26:09Z</time>
      </trkpt>
      <trkpt lat="45.30305" lon="5.15511">
        <ele>389.70074300121</ele>
        <time>2014-06-01T10:26:14Z</time>
      </trkpt>
      <trkpt lat="45.303" lon="5.155">
        <ele>390.84282223803</ele>
        <time>2014-06-01T10:26:19Z</time>
      </trkpt>
      <trkpt lat="45.30295" lon="5.1549">
        <ele>390.84282223803</ele>
        <time>2014-06-01T10:26:24Z</time>
      </trkpt>
      <trkpt lat="45.30291" lon="5.15482">
        <ele>391.81891654301</ele>
        <time>2014-06-01T10:26:29Z</time>
      </trkpt>
      <trkpt lat="45.30288" lon="5.15472">
        <ele>391.81891654301</ele>
        <time>2014-06-01T10:26:34Z</time>
      </trkpt>
      <trkpt lat="45.30285" lon="5.15462">
        <ele>392.76834151395</ele>
        <time>2014-06-01T10:26:39Z</time>
      </trkpt>
      <trkpt lat="45.30282" lon="5.15455">
        <ele>392.76834151395</ele>
        <time>2014-06-01T10:26:44Z</time>
      </trkpt>
      <trkpt lat="45.3028" lon="5.15448">
        <ele>393.56086666374</ele>
        <time>2014-06-01T10:26:49Z</time>
      </trkpt>
      <trkpt lat="45.30276" lon="5.1544">
        <ele>393.56086666374</ele>
        <time>2014-06-01T10:26:54Z</time>
      </trkpt>
      <trkpt lat="45.30273" lon="5.1543">
        <ele>394.29254888351</ele>
        <time>2014-06-01T10:26:59Z</time>
      </trkpt>
      <trkpt lat="45.30271" lon="5.15423">
        <ele>394.29254888351</ele>
        <time>2014-06-01T10:27:04Z</time>
      </trkpt>
      <trkpt lat="45.30268" lon="5.15417">
        <ele>394.28875383357</ele>
        <time>2014-06-01T10:27:09Z</time>
      </trkpt>
      <trkpt lat="45.30266" lon="5.15409">
        <ele>394.28875383357</ele>
        <time>2014-06-01T10:27:14Z</time>
      </trkpt>
      <trkpt lat="45.30264" lon="5.15402">
        <ele>394.2957593352</ele>
        <time>2014-06-01T10:27:19Z</time>
      </trkpt>
      <trkpt lat="45.30262" lon="5.15395">
        <ele>394.2957593352</ele>
        <time>2014-06-01T10:27:24Z</time>
      </trkpt>
      <trkpt lat="45.30259" lon="5.15387">
        <ele>393.98174387423</ele>
        <time>2014-06-01T10:27:29Z</time>
      </trkpt>
      <trkpt lat="45.30255" lon="5.15377">
        <ele>393.98174387423</ele>
        <time>2014-06-01T10:27:34Z</time>
      </trkpt>
      <trkpt lat="45.30251" lon="5.15364">
        <ele>394.87054697117</ele>
        <time>2014-06-01T10:27:39Z</time>
      </trkpt>
      <trkpt lat="45.30246" lon="5.15359">
        <ele>394.87054697117</ele>
        <time>2014-06-01T10:27:44Z</time>
      </trkpt>
      <trkpt lat="45.30243" lon="5.15354">
        <ele>395.24334645223</ele>
        <time>2014-06-01T10:27:49Z</time>
      </trkpt>
      <trkpt lat="45.30239" lon="5.15345">
        <ele>395.24334645223</ele>
        <time>2014-06-01T10:27:54Z</time>
      </trkpt>
      <trkpt lat="45.30234" lon="5.15336">
        <ele>396.0744127068</ele>
        <time>2014-06-01T10:27:59Z</time>
      </trkpt>
      <trkpt lat="45.3023" lon="5.15326">
        <ele>396.0744127068</ele>
        <time>2014-06-01T10:28:04Z</time>
      </trkpt>
      <trkpt lat="45.30226" lon="5.15318">
        <ele>397.16991382895</ele>
        <time>2014-06-01T10:28:09Z</time>
      </trkpt>
      <trkpt lat="45.30223" lon="5.15314">
        <ele>397.16991382895</ele>
        <time>2014-06-01T10:28:14Z</time>
      </trkpt>
      <trkpt lat="45.30221" lon="5.15308">
        <ele>397.16991382895</ele>
        <time>2014-06-01T10:28:19Z</time>
      </trkpt>
      <trkpt lat="45.30217" lon="5.15301">
        <ele>398.50810181675</ele>
        <time>2014-06-01T10:28:24Z</time>
      </trkpt>
      <trkpt lat="45.30212" lon="5.15292">
        <ele>398.50810181675</ele>
        <time>2014-06-01T10:28:29Z</time>
      </trkpt>
      <trkpt lat="45.30208" lon="5.15284">
        <ele>399.43410571145</ele>
        <time>2014-06-01T10:28:34Z</time>
      </trkpt>
      <trkpt lat="45.30203" lon="5.15276">
        <ele>399.43410571145</ele>
        <time>2014-06-01T10:28:39Z</time>
      </trkpt>
      <trkpt lat="45.30198" lon="5.15268">
        <ele>400.89880052508</ele>
        <time>2014-06-01T10:28:44Z</time>
      </trkpt>
      <trkpt lat="45.30194" lon="5.15258">
        <ele>400.89880052508</ele>
        <time>2014-06-01T10:28:49Z</time>
      </trkpt>
      <trkpt lat="45.3019" lon="5.1525">
        <ele>402.52797580589</ele>
        <time>2014-06-01T10:28:54Z</time>
      </trkpt>
      <trkpt lat="45.30187" lon="5.15242">
        <ele>402.52797580589</ele>
        <time>2014-06-01T10:28:59Z</time>
      </trkpt>
      <trkpt lat="45.30184" lon="5.15235">
        <ele>404.07539685327</ele>
        <time>2014-06-01T10:29:04Z</time>
      </trkpt>
      <trkpt lat="45.3018" lon="5.15227">
        <ele>404.07539685327</ele>
        <time>2014-06-01T10:29:09Z</time>
      </trkpt>
      <trkpt lat="45.30177" lon="5.15219">
        <ele>405.55820860426</ele>
        <time>2014-06-01T10:29:14Z</time>
      </trkpt>
      <trkpt lat="45.30175" lon="5.15212">
        <ele>405.55820860426</ele>
        <time>2014-06-01T10:29:19Z</time>
      </trkpt>
      <trkpt lat="45.30172" lon="5.15203">
        <ele>407.25195572553</ele>
        <time>2014-06-01T10:29:24Z</time>
      </trkpt>
      <trkpt lat="45.30169" lon="5.15194">
        <ele>407.25195572553</ele>
        <time>2014-06-01T10:29:29Z</time>
      </trkpt>
      <trkpt lat="45.30166" lon="5.15188">
        <ele>408.89262364754</ele>
        <time>2014-06-01T10:29:34Z</time>
      </trkpt>
      <trkpt lat="45.30163" lon="5.15183">
        <ele>408.89262364754</ele>
        <time>2014-06-01T10:29:39Z</time>
      </trkpt>
      <trkpt lat="45.30161" lon="5.15173">
        <ele>410.68257454748</ele>
        <time>2014-06-01T10:29:44Z</time>
      </trkpt>
      <trkpt lat="45.30157" lon="5.15162">
        <ele>410.68257454748</ele>
        <time>2014-06-01T10:29:49Z</time>
      </trkpt>
      <trkpt lat="45.30152" lon="5.15151">
        <ele>412.34781168832</ele>
        <time>2014-06-01T10:29:54Z</time>
      </trkpt>
      <trkpt lat="45.30149" lon="5.15142">
        <ele>412.34781168832</ele>
        <time>2014-06-01T10:29:59Z</time>
      </trkpt>
      <trkpt lat="45.30145" lon="5.15136">
        <ele>413.30344260249</ele>
        <time>2014-06-01T10:30:04Z</time>
      </trkpt>
      <trkpt lat="45.30142" lon="5.1513">
        <ele>413.30344260249</ele>
        <time>2014-06-01T10:30:09Z</time>
      </trkpt>
      <trkpt lat="45.30139" lon="5.15124">
        <ele>413.6869540863</ele>
        <time>2014-06-01T10:30:14Z</time>
      </trkpt>
      <trkpt lat="45.30136" lon="5.15117">
        <ele>413.6869540863</ele>
        <time>2014-06-01T10:30:19Z</time>
      </trkpt>
      <trkpt lat="45.30131" lon="5.15108">
        <ele>414.72269536263</ele>
        <time>2014-06-01T10:30:24Z</time>
      </trkpt>
      <trkpt lat="45.30126" lon="5.15101">
        <ele>414.72269536263</ele>
        <time>2014-06-01T10:30:29Z</time>
      </trkpt>
      <trkpt lat="45.30122" lon="5.15094">
        <ele>415.48249821173</ele>
        <time>2014-06-01T10:30:34Z</time>
      </trkpt>
      <trkpt lat="45.30119" lon="5.15088">
        <ele>415.48249821173</ele>
        <time>2014-06-01T10:30:39Z</time>
      </trkpt>
      <trkpt lat="45.30115" lon="5.15085">
        <ele>415.84221094769</ele>
        <time>2014-06-01T10:30:44Z</time>
      </trkpt>
      <trkpt lat="45.30111" lon="5.15083">
        <ele>415.84221094769</ele>
        <time>2014-06-01T10:30:49Z</time>
      </trkpt>
      <trkpt lat="45.30108" lon="5.15081">
        <ele>415.84221094769</ele>
        <time>2014-06-01T10:30:54Z</time>
      </trkpt>
      <trkpt lat="45.30105" lon="5.15079">
        <ele>414.96742086294</ele>
        <time>2014-06-01T10:30:59Z</time>
      </trkpt>
      <trkpt lat="45.30102" lon="5.15075">
        <ele>414.96742086294</ele>
        <time>2014-06-01T10:31:04Z</time>
      </trkpt>
      <trkpt lat="45.30099" lon="5.15069">
        <ele>414.96742086294</ele>
        <time>2014-06-01T10:31:09Z</time>
      </trkpt>
      <trkpt lat="45.30094" lon="5.15059">
        <ele>415.59052593741</ele>
        <time>2014-06-01T10:31:14Z</time>
      </trkpt>
      <trkpt lat="45.3009" lon="5.15045">
        <ele>416.8811798385</ele>
        <time>2014-06-01T10:31:19Z</time>
      </trkpt>
      <trkpt lat="45.30086" lon="5.15034">
        <ele>418.01056196744</ele>
        <time>2014-06-01T10:31:24Z</time>
      </trkpt>
      <trkpt lat="45.30083" lon="5.1503">
        <ele>418.01056196744</ele>
        <time>2014-06-01T10:31:29Z</time>
      </trkpt>
      <trkpt lat="45.3008" lon="5.15026">
        <ele>418.01056196744</ele>
        <time>2014-06-01T10:31:34Z</time>
      </trkpt>
      <trkpt lat="45.30077" lon="5.15024">
        <ele>417.548303778</ele>
        <time>2014-06-01T10:31:39Z</time>
      </trkpt>
      <trkpt lat="45.30075" lon="5.15021">
        <ele>417.548303778</ele>
        <time>2014-06-01T10:31:44Z</time>
      </trkpt>
      <trkpt lat="45.30072" lon="5.15018">
        <ele>417.548303778</ele>
        <time>2014-06-01T10:31:49Z</time>
      </trkpt>
      <trkpt lat="45.3007" lon="5.15012">
        <ele>416.53709826524</ele>
        <time>2014-06-01T10:31:54Z</time>
      </trkpt>
      <trkpt lat="45.30068" lon="5.15008">
        <ele>416.53709826524</ele>
        <time>2014-06-01T10:31:59Z</time>
      </trkpt>
      <trkpt lat="45.30066" lon="5.15">
        <ele>415.5699081162</ele>
        <time>2014-06-01T10:32:04Z</time>
      </trkpt>
      <trkpt lat="45.30063" lon="5.14985">
        <ele>416.24806341611</ele>
        <time>2014-06-01T10:32:09Z</time>
      </trkpt>
      <trkpt lat="45.3006" lon="5.14973">
        <ele>416.24806341611</ele>
        <time>2014-06-01T10:32:14Z</time>
      </trkpt>
      <trkpt lat="45.30055" lon="5.14961">
        <ele>417.44217372067</ele>
        <time>2014-06-01T10:32:19Z</time>
      </trkpt>
      <trkpt lat="45.3005" lon="5.1495">
        <ele>417.44217372067</ele>
        <time>2014-06-01T10:32:24Z</time>
      </trkpt>
      <trkpt lat="45.30046" lon="5.14939">
        <ele>420.2084422221</ele>
        <time>2014-06-01T10:32:29Z</time>
      </trkpt>
      <trkpt lat="45.30042" lon="5.14928">
        <ele>420.2084422221</ele>
        <time>2014-06-01T10:32:34Z</time>
      </trkpt>
      <trkpt lat="45.3004" lon="5.14926">
        <ele>422.95584585835</ele>
        <time>2014-06-01T10:32:39Z</time>
      </trkpt>
      <trkpt lat="45.30035" lon="5.14923">
        <ele>422.95584585835</ele>
        <time>2014-06-01T10:32:44Z</time>
      </trkpt>
      <trkpt lat="45.30031" lon="5.14919">
        <ele>424.23913791573</ele>
        <time>2014-06-01T10:32:49Z</time>
      </trkpt>
      <trkpt lat="45.30028" lon="5.14913">
        <ele>424.23913791573</ele>
        <time>2014-06-01T10:32:54Z</time>
      </trkpt>
      <trkpt lat="45.30024" lon="5.14909">
        <ele>425.10125348482</ele>
        <time>2014-06-01T10:32:59Z</time>
      </trkpt>
      <trkpt lat="45.30021" lon="5.14902">
        <ele>425.10125348482</ele>
        <time>2014-06-01T10:33:04Z</time>
      </trkpt>
      <trkpt lat="45.30018" lon="5.14891">
        <ele>426.59618853582</ele>
        <time>2014-06-01T10:33:09Z</time>
      </trkpt>
      <trkpt lat="45.30016" lon="5.14884">
        <ele>426.59618853582</ele>
        <time>2014-06-01T10:33:14Z</time>
      </trkpt>
      <trkpt lat="45.30014" lon="5.14876">
        <ele>427.47942145407</ele>
        <time>2014-06-01T10:33:19Z</time>
      </trkpt>
      <trkpt lat="45.30013" lon="5.14871">
        <ele>427.47942145407</ele>
        <time>2014-06-01T10:33:24Z</time>
      </trkpt>
      <trkpt lat="45.30011" lon="5.14866">
        <ele>427.47942145407</ele>
        <time>2014-06-01T10:33:29Z</time>
      </trkpt>
      <trkpt lat="45.30009" lon="5.14859">
        <ele>427.40663998898</ele>
        <time>2014-06-01T10:33:34Z</time>
      </trkpt>
      <trkpt lat="45.30006" lon="5.14848">
        <ele>427.40663998898</ele>
        <time>2014-06-01T10:33:39Z</time>
      </trkpt>
      <trkpt lat="45.30005" lon="5.1484">
        <ele>427.70442289895</ele>
        <time>2014-06-01T10:33:44Z</time>
      </trkpt>
      <trkpt lat="45.30005" lon="5.14837">
        <ele>427.70442289895</ele>
        <time>2014-06-01T10:33:49Z</time>
      </trkpt>
      <trkpt lat="45.30004" lon="5.14831">
        <ele>427.70442289895</ele>
        <time>2014-06-01T10:33:54Z</time>
      </trkpt>
      <trkpt lat="45.30003" lon="5.14824">
        <ele>427.8427017558</ele>
        <time>2014-06-01T10:33:59Z</time>
      </trkpt>
      <trkpt lat="45.3" lon="5.14809">
        <ele>428.71429394572</ele>
        <time>2014-06-01T10:34:04Z</time>
      </trkpt>
      <trkpt lat="45.29998" lon="5.14798">
        <ele>428.71429394572</ele>
        <time>2014-06-01T10:34:09Z</time>
      </trkpt>
      <trkpt lat="45.29997" lon="5.1479">
        <ele>428.57918197166</ele>
        <time>2014-06-01T10:34:14Z</time>
      </trkpt>
      <trkpt lat="45.29996" lon="5.14782">
        <ele>428.57918197166</ele>
        <time>2014-06-01T10:34:19Z</time>
      </trkpt>
      <trkpt lat="45.29995" lon="5.14775">
        <ele>428.75348201242</ele>
        <time>2014-06-01T10:34:24Z</time>
      </trkpt>
      <trkpt lat="45.29994" lon="5.14767">
        <ele>428.75348201242</ele>
        <time>2014-06-01T10:34:29Z</time>
      </trkpt>
      <trkpt lat="45.29992" lon="5.14758">
        <ele>428.04908382204</ele>
        <time>2014-06-01T10:34:34Z</time>
      </trkpt>
      <trkpt lat="45.29989" lon="5.14748">
        <ele>428.04908382204</ele>
        <time>2014-06-01T10:34:39Z</time>
      </trkpt>
      <trkpt lat="45.29986" lon="5.14737">
        <ele>427.5148812506</ele>
        <time>2014-06-01T10:34:44Z</time>
      </trkpt>
      <trkpt lat="45.29982" lon="5.14729">
        <ele>427.5148812506</ele>
        <time>2014-06-01T10:34:49Z</time>
      </trkpt>
      <trkpt lat="45.29977" lon="5.14717">
        <ele>428.64102206909</ele>
        <time>2014-06-01T10:34:54Z</time>
      </trkpt>
      <trkpt lat="45.29973" lon="5.14706">
        <ele>429.83480649168</ele>
        <time>2014-06-01T10:34:59Z</time>
      </trkpt>
      <trkpt lat="45.29968" lon="5.14698">
        <ele>429.83480649168</ele>
        <time>2014-06-01T10:35:04Z</time>
      </trkpt>
      <trkpt lat="45.29963" lon="5.14693">
        <ele>432.50255915993</ele>
        <time>2014-06-01T10:35:09Z</time>
      </trkpt>
      <trkpt lat="45.29957" lon="5.14688">
        <ele>432.50255915993</ele>
        <time>2014-06-01T10:35:14Z</time>
      </trkpt>
      <trkpt lat="45.2995" lon="5.14684">
        <ele>435.30590627618</ele>
        <time>2014-06-01T10:35:19Z</time>
      </trkpt>
      <trkpt lat="45.29945" lon="5.14677">
        <ele>435.30590627618</ele>
        <time>2014-06-01T10:35:24Z</time>
      </trkpt>
      <trkpt lat="45.29943" lon="5.14673">
        <ele>439.28137369701</ele>
        <time>2014-06-01T10:35:29Z</time>
      </trkpt>
      <trkpt lat="45.29942" lon="5.14665">
        <ele>439.28137369701</ele>
        <time>2014-06-01T10:35:34Z</time>
      </trkpt>
      <trkpt lat="45.2994" lon="5.14659">
        <ele>442.46061202617</ele>
        <time>2014-06-01T10:35:39Z</time>
      </trkpt>
      <trkpt lat="45.29936" lon="5.14657">
        <ele>442.46061202617</ele>
        <time>2014-06-01T10:35:44Z</time>
      </trkpt>
      <trkpt lat="45.2993" lon="5.14657">
        <ele>445.05410634604</ele>
        <time>2014-06-01T10:35:49Z</time>
      </trkpt>
      <trkpt lat="45.29925" lon="5.14656">
        <ele>445.05410634604</ele>
        <time>2014-06-01T10:35:54Z</time>
      </trkpt>
      <trkpt lat="45.2992" lon="5.14654">
        <ele>447.44591807718</ele>
        <time>2014-06-01T10:35:59Z</time>
      </trkpt>
      <trkpt lat="45.29915" lon="5.14654">
        <ele>447.44591807718</ele>
        <time>2014-06-01T10:36:04Z</time>
      </trkpt>
      <trkpt lat="45.2991" lon="5.14653">
        <ele>449.21432345733</ele>
        <time>2014-06-01T10:36:09Z</time>
      </trkpt>
      <trkpt lat="45.29905" lon="5.1465">
        <ele>449.21432345733</ele>
        <time>2014-06-01T10:36:14Z</time>
      </trkpt>
      <trkpt lat="45.29901" lon="5.14649">
        <ele>450.61889779421</ele>
        <time>2014-06-01T10:36:19Z</time>
      </trkpt>
      <trkpt lat="45.29893" lon="5.14647">
        <ele>450.61889779421</ele>
        <time>2014-06-01T10:36:24Z</time>
      </trkpt>
      <trkpt lat="45.29887" lon="5.14645">
        <ele>452.57856537065</ele>
        <time>2014-06-01T10:36:29Z</time>
      </trkpt>
      <trkpt lat="45.2988" lon="5.14643">
        <ele>452.57856537065</ele>
        <time>2014-06-01T10:36:34Z</time>
      </trkpt>
      <trkpt lat="45.29874" lon="5.14636">
        <ele>454.93448771486</ele>
        <time>2014-06-01T10:36:39Z</time>
      </trkpt>
      <trkpt lat="45.29872" lon="5.14626">
        <ele>454.93448771486</ele>
        <time>2014-06-01T10:36:44Z</time>
      </trkpt>
      <trkpt lat="45.29871" lon="5.14618">
        <ele>456.97642795296</ele>
        <time>2014-06-01T10:36:49Z</time>
      </trkpt>
      <trkpt lat="45.2987" lon="5.14614">
        <ele>456.97642795296</ele>
        <time>2014-06-01T10:36:54Z</time>
      </trkpt>
      <trkpt lat="45.2987" lon="5.14609">
        <ele>456.97642795296</ele>
        <time>2014-06-01T10:36:59Z</time>
      </trkpt>
      <trkpt lat="45.29869" lon="5.14599">
        <ele>458.88312952287</ele>
        <time>2014-06-01T10:37:04Z</time>
      </trkpt>
      <trkpt lat="45.29869" lon="5.14589">
        <ele>458.88312952287</ele>
        <time>2014-06-01T10:37:09Z</time>
      </trkpt>
      <trkpt lat="45.29868" lon="5.14578">
        <ele>460.82066830149</ele>
        <time>2014-06-01T10:37:14Z</time>
      </trkpt>
      <trkpt lat="45.29868" lon="5.14569">
        <ele>460.82066830149</ele>
        <time>2014-06-01T10:37:19Z</time>
      </trkpt>
      <trkpt lat="45.29869" lon="5.14559">
        <ele>462.79880796694</ele>
        <time>2014-06-01T10:37:24Z</time>
      </trkpt>
      <trkpt lat="45.29869" lon="5.1455">
        <ele>462.79880796694</ele>
        <time>2014-06-01T10:37:29Z</time>
      </trkpt>
      <trkpt lat="45.29869" lon="5.14542">
        <ele>464.23571039539</ele>
        <time>2014-06-01T10:37:34Z</time>
      </trkpt>
      <trkpt lat="45.29867" lon="5.14534">
        <ele>464.23571039539</ele>
        <time>2014-06-01T10:37:39Z</time>
      </trkpt>
      <trkpt lat="45.29867" lon="5.14523">
        <ele>465.70353794717</ele>
        <time>2014-06-01T10:37:44Z</time>
      </trkpt>
      <trkpt lat="45.29867" lon="5.1451">
        <ele>467.40096234522</ele>
        <time>2014-06-01T10:37:49Z</time>
      </trkpt>
      <trkpt lat="45.2987" lon="5.14497">
        <ele>469.19445247452</ele>
        <time>2014-06-01T10:37:54Z</time>
      </trkpt>
      <trkpt lat="45.29872" lon="5.14488">
        <ele>469.19445247452</ele>
        <time>2014-06-01T10:37:59Z</time>
      </trkpt>
      <trkpt lat="45.29874" lon="5.14479">
        <ele>471.08979490562</ele>
        <time>2014-06-01T10:38:04Z</time>
      </trkpt>
      <trkpt lat="45.29877" lon="5.14471">
        <ele>471.08979490562</ele>
        <time>2014-06-01T10:38:09Z</time>
      </trkpt>
      <trkpt lat="45.29877" lon="5.14462">
        <ele>472.93361937858</ele>
        <time>2014-06-01T10:38:14Z</time>
      </trkpt>
      <trkpt lat="45.29878" lon="5.14448">
        <ele>474.78579767712</ele>
        <time>2014-06-01T10:38:19Z</time>
      </trkpt>
      <trkpt lat="45.29886" lon="5.1441">
        <ele>476.55774293096</ele>
        <time>2014-06-01T10:38:24Z</time>
      </trkpt>
      <trkpt lat="45.29887" lon="5.14394">
        <ele>478.08120657402</ele>
        <time>2014-06-01T10:38:29Z</time>
      </trkpt>
      <trkpt lat="45.29886" lon="5.14388">
        <ele>478.08120657402</ele>
        <time>2014-06-01T10:38:34Z</time>
      </trkpt>
      <trkpt lat="45.29887" lon="5.14382">
        <ele>478.08120657402</ele>
        <time>2014-06-01T10:38:39Z</time>
      </trkpt>
      <trkpt lat="45.2989" lon="5.14375">
        <ele>479.14342131457</ele>
        <time>2014-06-01T10:38:44Z</time>
      </trkpt>
      <trkpt lat="45.29893" lon="5.14367">
        <ele>479.14342131457</ele>
        <time>2014-06-01T10:38:49Z</time>
      </trkpt>
      <trkpt lat="45.29893" lon="5.14358">
        <ele>479.66389649391</ele>
        <time>2014-06-01T10:38:54Z</time>
      </trkpt>
      <trkpt lat="45.29889" lon="5.14352">
        <ele>479.66389649391</ele>
        <time>2014-06-01T10:38:59Z</time>
      </trkpt>
      <trkpt lat="45.2989" lon="5.14344">
        <ele>479.64168517517</ele>
        <time>2014-06-01T10:39:04Z</time>
      </trkpt>
      <trkpt lat="45.29892" lon="5.14334">
        <ele>479.64168517517</ele>
        <time>2014-06-01T10:39:09Z</time>
      </trkpt>
      <trkpt lat="45.29894" lon="5.14326">
        <ele>479.94214506329</ele>
        <time>2014-06-01T10:39:14Z</time>
      </trkpt>
      <trkpt lat="45.29896" lon="5.14317">
        <ele>479.94214506329</ele>
        <time>2014-06-01T10:39:19Z</time>
      </trkpt>
      <trkpt lat="45.29895" lon="5.14308">
        <ele>479.5936232247</ele>
        <time>2014-06-01T10:39:24Z</time>
      </trkpt>
      <trkpt lat="45.29893" lon="5.14304">
        <ele>479.5936232247</ele>
        <time>2014-06-01T10:39:29Z</time>
      </trkpt>
      <trkpt lat="45.29894" lon="5.14298">
        <ele>479.5936232247</ele>
        <time>2014-06-01T10:39:34Z</time>
      </trkpt>
      <trkpt lat="45.29896" lon="5.1429">
        <ele>478.74969317676</ele>
        <time>2014-06-01T10:39:39Z</time>
      </trkpt>
      <trkpt lat="45.29895" lon="5.14285">
        <ele>478.74969317676</ele>
        <time>2014-06-01T10:39:44Z</time>
      </trkpt>
      <trkpt lat="45.29894" lon="5.1428">
        <ele>478.74969317676</ele>
        <time>2014-06-01T10:39:49Z</time>
      </trkpt>
      <trkpt lat="45.29895" lon="5.14272">
        <ele>476.74701201925</ele>
        <time>2014-06-01T10:39:54Z</time>
      </trkpt>
      <trkpt lat="45.29898" lon="5.14265">
        <ele>476.74701201925</ele>
        <time>2014-06-01T10:39:59Z</time>
      </trkpt>
      <trkpt lat="45.29898" lon="5.14259">
        <ele>473.07506931904</ele>
        <time>2014-06-01T10:40:04Z</time>
      </trkpt>
      <trkpt lat="45.29899" lon="5.14254">
        <ele>473.07506931904</ele>
        <time>2014-06-01T10:40:09Z</time>
      </trkpt>
      <trkpt lat="45.29899" lon="5.14244">
        <ele>469.71537823891</ele>
        <time>2014-06-01T10:40:14Z</time>
      </trkpt>
      <trkpt lat="45.29901" lon="5.14235">
        <ele>469.71537823891</ele>
        <time>2014-06-01T10:40:19Z</time>
      </trkpt>
      <trkpt lat="45.29902" lon="5.14229">
        <ele>465.90892850264</ele>
        <time>2014-06-01T10:40:24Z</time>
      </trkpt>
      <trkpt lat="45.29904" lon="5.1422">
        <ele>465.90892850264</ele>
        <time>2014-06-01T10:40:29Z</time>
      </trkpt>
      <trkpt lat="45.29905" lon="5.14204">
        <ele>463.79259587582</ele>
        <time>2014-06-01T10:40:34Z</time>
      </trkpt>
      <trkpt lat="45.29907" lon="5.14192">
        <ele>463.79259587582</ele>
        <time>2014-06-01T10:40:39Z</time>
      </trkpt>
      <trkpt lat="45.29908" lon="5.14179">
        <ele>463.02120861395</ele>
        <time>2014-06-01T10:40:44Z</time>
      </trkpt>
      <trkpt lat="45.29909" lon="5.14165">
        <ele>462.72339582699</ele>
        <time>2014-06-01T10:40:49Z</time>
      </trkpt>
      <trkpt lat="45.2991" lon="5.14152">
        <ele>462.49381028016</ele>
        <time>2014-06-01T10:40:54Z</time>
      </trkpt>
      <trkpt lat="45.29911" lon="5.14138">
        <ele>463.2391089371</ele>
        <time>2014-06-01T10:40:59Z</time>
      </trkpt>
      <trkpt lat="45.29913" lon="5.14126">
        <ele>463.51948632843</ele>
        <time>2014-06-01T10:41:04Z</time>
      </trkpt>
      <trkpt lat="45.29914" lon="5.14114">
        <ele>463.51948632843</ele>
        <time>2014-06-01T10:41:09Z</time>
      </trkpt>
      <trkpt lat="45.29915" lon="5.14106">
        <ele>464.20694831338</ele>
        <time>2014-06-01T10:41:14Z</time>
      </trkpt>
      <trkpt lat="45.29919" lon="5.14103">
        <ele>464.20694831338</ele>
        <time>2014-06-01T10:41:19Z</time>
      </trkpt>
      <trkpt lat="45.2992" lon="5.14093">
        <ele>464.00412251679</ele>
        <time>2014-06-01T10:41:24Z</time>
      </trkpt>
      <trkpt lat="45.29921" lon="5.14086">
        <ele>464.00412251679</ele>
        <time>2014-06-01T10:41:29Z</time>
      </trkpt>
      <trkpt lat="45.29923" lon="5.14078">
        <ele>463.2100444951</ele>
        <time>2014-06-01T10:41:34Z</time>
      </trkpt>
      <trkpt lat="45.29925" lon="5.1407">
        <ele>463.2100444951</ele>
        <time>2014-06-01T10:41:39Z</time>
      </trkpt>
      <trkpt lat="45.29927" lon="5.14058">
        <ele>462.80943938594</ele>
        <time>2014-06-01T10:41:44Z</time>
      </trkpt>
      <trkpt lat="45.29927" lon="5.14051">
        <ele>462.80943938594</ele>
        <time>2014-06-01T10:41:49Z</time>
      </trkpt>
      <trkpt lat="45.2993" lon="5.14044">
        <ele>461.59501013257</ele>
        <time>2014-06-01T10:41:54Z</time>
      </trkpt>
      <trkpt lat="45.29932" lon="5.14039">
        <ele>461.59501013257</ele>
        <time>2014-06-01T10:41:59Z</time>
      </trkpt>
      <trkpt lat="45.29935" lon="5.14033">
        <ele>460.16520444076</ele>
        <time>2014-06-01T10:42:04Z</time>
      </trkpt>
      <trkpt lat="45.29938" lon="5.14027">
        <ele>460.16520444076</ele>
        <time>2014-06-01T10:42:09Z</time>
      </trkpt>
      <trkpt lat="45.2994" lon="5.1402">
        <ele>457.96530270322</ele>
        <time>2014-06-01T10:42:14Z</time>
      </trkpt>
      <trkpt lat="45.2994" lon="5.14016">
        <ele>457.96530270322</ele>
        <time>2014-06-01T10:42:19Z</time>
      </trkpt>
      <trkpt lat="45.29941" lon="5.14007">
        <ele>456.50089240868</ele>
        <time>2014-06-01T10:42:24Z</time>
      </trkpt>
      <trkpt lat="45.29942" lon="5.13997">
        <ele>456.50089240868</ele>
        <time>2014-06-01T10:42:29Z</time>
      </trkpt>
      <trkpt lat="45.29944" lon="5.13991">
        <ele>454.9742423293</ele>
        <time>2014-06-01T10:42:34Z</time>
      </trkpt>
      <trkpt lat="45.29948" lon="5.13986">
        <ele>454.9742423293</ele>
        <time>2014-06-01T10:42:39Z</time>
      </trkpt>
      <trkpt lat="45.29949" lon="5.13978">
        <ele>455.74461894073</ele>
        <time>2014-06-01T10:42:44Z</time>
      </trkpt>
      <trkpt lat="45.29949" lon="5.13975">
        <ele>455.74461894073</ele>
        <time>2014-06-01T10:42:49Z</time>
      </trkpt>
      <trkpt lat="45.2995" lon="5.13968">
        <ele>455.74461894073</ele>
        <time>2014-06-01T10:42:54Z</time>
      </trkpt>
      <trkpt lat="45.29951" lon="5.13963">
        <ele>455.52955316771</ele>
        <time>2014-06-01T10:42:59Z</time>
      </trkpt>
      <trkpt lat="45.29951" lon="5.13952">
        <ele>455.52955316771</ele>
        <time>2014-06-01T10:43:04Z</time>
      </trkpt>
      <trkpt lat="45.29952" lon="5.13939">
        <ele>455.54158581232</ele>
        <time>2014-06-01T10:43:09Z</time>
      </trkpt>
      <trkpt lat="45.29954" lon="5.13935">
        <ele>455.54158581232</ele>
        <time>2014-06-01T10:43:14Z</time>
      </trkpt>
      <trkpt lat="45.29953" lon="5.13927">
        <ele>455.90902727888</ele>
        <time>2014-06-01T10:43:19Z</time>
      </trkpt>
      <trkpt lat="45.29953" lon="5.13922">
        <ele>455.90902727888</ele>
        <time>2014-06-01T10:43:24Z</time>
      </trkpt>
      <trkpt lat="45.29956" lon="5.13916">
        <ele>455.90902727888</ele>
        <time>2014-06-01T10:43:29Z</time>
      </trkpt>
      <trkpt lat="45.2996" lon="5.13908">
        <ele>455.33733129733</ele>
        <time>2014-06-01T10:43:34Z</time>
      </trkpt>
      <trkpt lat="45.29963" lon="5.13899">
        <ele>455.33733129733</ele>
        <time>2014-06-01T10:43:39Z</time>
      </trkpt>
      <trkpt lat="45.29964" lon="5.13883">
        <ele>455.6414705652</ele>
        <time>2014-06-01T10:43:44Z</time>
      </trkpt>
      <trkpt lat="45.29966" lon="5.13874">
        <ele>455.6414705652</ele>
        <time>2014-06-01T10:43:49Z</time>
      </trkpt>
      <trkpt lat="45.29966" lon="5.13867">
        <ele>455.02742649366</ele>
        <time>2014-06-01T10:43:54Z</time>
      </trkpt>
      <trkpt lat="45.29967" lon="5.1386">
        <ele>455.02742649366</ele>
        <time>2014-06-01T10:43:59Z</time>
      </trkpt>
      <trkpt lat="45.29968" lon="5.13854">
        <ele>453.72327697087</ele>
        <time>2014-06-01T10:44:04Z</time>
      </trkpt>
      <trkpt lat="45.2997" lon="5.13843">
        <ele>453.72327697087</ele>
        <time>2014-06-01T10:44:09Z</time>
      </trkpt>
      <trkpt lat="45.29971" lon="5.13831">
        <ele>453.54179688962</ele>
        <time>2014-06-01T10:44:14Z</time>
      </trkpt>
      <trkpt lat="45.29973" lon="5.13825">
        <ele>453.54179688962</ele>
        <time>2014-06-01T10:44:19Z</time>
      </trkpt>
      <trkpt lat="45.29976" lon="5.13815">
        <ele>454.32912193973</ele>
        <time>2014-06-01T10:44:24Z</time>
      </trkpt>
      <trkpt lat="45.29978" lon="5.13806">
        <ele>454.32912193973</ele>
        <time>2014-06-01T10:44:29Z</time>
      </trkpt>
      <trkpt lat="45.2998" lon="5.138">
        <ele>454.91667734115</ele>
        <time>2014-06-01T10:44:34Z</time>
      </trkpt>
      <trkpt lat="45.29985" lon="5.13793">
        <ele>454.91667734115</ele>
        <time>2014-06-01T10:44:39Z</time>
      </trkpt>
      <trkpt lat="45.29988" lon="5.1379">
        <ele>454.74099349035</ele>
        <time>2014-06-01T10:44:44Z</time>
      </trkpt>
      <trkpt lat="45.29994" lon="5.13784">
        <ele>454.74099349035</ele>
        <time>2014-06-01T10:44:49Z</time>
      </trkpt>
      <trkpt lat="45.29998" lon="5.13777">
        <ele>455.08343592012</ele>
        <time>2014-06-01T10:44:54Z</time>
      </trkpt>
      <trkpt lat="45.3" lon="5.13768">
        <ele>455.08343592012</ele>
        <time>2014-06-01T10:44:59Z</time>
      </trkpt>
      <trkpt lat="45.30003" lon="5.13756">
        <ele>455.3139097286</ele>
        <time>2014-06-01T10:45:04Z</time>
      </trkpt>
      <trkpt lat="45.30006" lon="5.13747">
        <ele>455.3139097286</ele>
        <time>2014-06-01T10:45:09Z</time>
      </trkpt>
      <trkpt lat="45.30007" lon="5.13737">
        <ele>455.52617356759</ele>
        <time>2014-06-01T10:45:14Z</time>
      </trkpt>
      <trkpt lat="45.3001" lon="5.13733">
        <ele>455.52617356759</ele>
        <time>2014-06-01T10:45:19Z</time>
      </trkpt>
      <trkpt lat="45.3001" lon="5.13728">
        <ele>455.52617356759</ele>
        <time>2014-06-01T10:45:24Z</time>
      </trkpt>
      <trkpt lat="45.30011" lon="5.13722">
        <ele>453.80393940926</ele>
        <time>2014-06-01T10:45:29Z</time>
      </trkpt>
      <trkpt lat="45.30011" lon="5.13713">
        <ele>453.80393940926</ele>
        <time>2014-06-01T10:45:34Z</time>
      </trkpt>
      <trkpt lat="45.3001" lon="5.13706">
        <ele>451.85013121963</ele>
        <time>2014-06-01T10:45:39Z</time>
      </trkpt>
      <trkpt lat="45.30007" lon="5.13694">
        <ele>450.73877306005</ele>
        <time>2014-06-01T10:45:44Z</time>
      </trkpt>
      <trkpt lat="45.30004" lon="5.13681">
        <ele>449.45941409395</ele>
        <time>2014-06-01T10:45:49Z</time>
      </trkpt>
      <trkpt lat="45.30004" lon="5.13672">
        <ele>449.45941409395</ele>
        <time>2014-06-01T10:45:54Z</time>
      </trkpt>
      <trkpt lat="45.30003" lon="5.13661">
        <ele>448.17147208335</ele>
        <time>2014-06-01T10:45:59Z</time>
      </trkpt>
      <trkpt lat="45.30005" lon="5.13653">
        <ele>448.17147208335</ele>
        <time>2014-06-01T10:46:04Z</time>
      </trkpt>
      <trkpt lat="45.30005" lon="5.13647">
        <ele>445.78324158265</ele>
        <time>2014-06-01T10:46:09Z</time>
      </trkpt>
      <trkpt lat="45.30005" lon="5.13643">
        <ele>445.78324158265</ele>
        <time>2014-06-01T10:46:14Z</time>
      </trkpt>
      <trkpt lat="45.30004" lon="5.13636">
        <ele>445.78324158265</ele>
        <time>2014-06-01T10:46:19Z</time>
      </trkpt>
      <trkpt lat="45.30005" lon="5.13632">
        <ele>441.7905998278</ele>
        <time>2014-06-01T10:46:24Z</time>
      </trkpt>
      <trkpt lat="45.30003" lon="5.13624">
        <ele>441.7905998278</ele>
        <time>2014-06-01T10:46:29Z</time>
      </trkpt>
      <trkpt lat="45.30001" lon="5.13616">
        <ele>437.83487919029</ele>
        <time>2014-06-01T10:46:34Z</time>
      </trkpt>
      <trkpt lat="45.29998" lon="5.13606">
        <ele>437.83487919029</ele>
        <time>2014-06-01T10:46:39Z</time>
      </trkpt>
      <trkpt lat="45.29996" lon="5.13593">
        <ele>434.2981418303</ele>
        <time>2014-06-01T10:46:44Z</time>
      </trkpt>
      <trkpt lat="45.29996" lon="5.1358">
        <ele>430.94221766058</ele>
        <time>2014-06-01T10:46:49Z</time>
      </trkpt>
      <trkpt lat="45.29997" lon="5.13567">
        <ele>428.28074118752</ele>
        <time>2014-06-01T10:46:54Z</time>
      </trkpt>
      <trkpt lat="45.29999" lon="5.13551">
        <ele>426.31193878724</ele>
        <time>2014-06-01T10:46:59Z</time>
      </trkpt>
      <trkpt lat="45.3" lon="5.13541">
        <ele>426.31193878724</ele>
        <time>2014-06-01T10:47:04Z</time>
      </trkpt>
      <trkpt lat="45.3" lon="5.13529">
        <ele>426.12730382866</ele>
        <time>2014-06-01T10:47:09Z</time>
      </trkpt>
      <trkpt lat="45.29999" lon="5.13511">
        <ele>428.89150950395</ele>
        <time>2014-06-01T10:47:14Z</time>
      </trkpt>
      <trkpt lat="45.29995" lon="5.13493">
        <ele>433.05244064996</ele>
        <time>2014-06-01T10:47:19Z</time>
      </trkpt>
      <trkpt lat="45.29992" lon="5.13479">
        <ele>436.62035304813</ele>
        <time>2014-06-01T10:47:24Z</time>
      </trkpt>
      <trkpt lat="45.2999" lon="5.13467">
        <ele>436.62035304813</ele>
        <time>2014-06-01T10:47:29Z</time>
      </trkpt>
      <trkpt lat="45.29989" lon="5.13457">
        <ele>439.52583088655</ele>
        <time>2014-06-01T10:47:34Z</time>
      </trkpt>
      <trkpt lat="45.29987" lon="5.1345">
        <ele>439.52583088655</ele>
        <time>2014-06-01T10:47:39Z</time>
      </trkpt>
      <trkpt lat="45.29986" lon="5.13444">
        <ele>442.22518761881</ele>
        <time>2014-06-01T10:47:44Z</time>
      </trkpt>
      <trkpt lat="45.29985" lon="5.13436">
        <ele>442.22518761881</ele>
        <time>2014-06-01T10:47:49Z</time>
      </trkpt>
      <trkpt lat="45.29985" lon="5.13429">
        <ele>443.26835348067</ele>
        <time>2014-06-01T10:47:54Z</time>
      </trkpt>
      <trkpt lat="45.29984" lon="5.13417">
        <ele>443.26835348067</ele>
        <time>2014-06-01T10:47:59Z</time>
      </trkpt>
      <trkpt lat="45.29983" lon="5.13403">
        <ele>445.62538203889</ele>
        <time>2014-06-01T10:48:04Z</time>
      </trkpt>
      <trkpt lat="45.29982" lon="5.13388">
        <ele>448.65790604031</ele>
        <time>2014-06-01T10:48:09Z</time>
      </trkpt>
      <trkpt lat="45.29981" lon="5.13374">
        <ele>451.84469082331</ele>
        <time>2014-06-01T10:48:14Z</time>
      </trkpt>
      <trkpt lat="45.2998" lon="5.13362">
        <ele>451.84469082331</ele>
        <time>2014-06-01T10:48:19Z</time>
      </trkpt>
      <trkpt lat="45.29979" lon="5.13352">
        <ele>454.9618585729</ele>
        <time>2014-06-01T10:48:24Z</time>
      </trkpt>
      <trkpt lat="45.29978" lon="5.13342">
        <ele>454.9618585729</ele>
        <time>2014-06-01T10:48:29Z</time>
      </trkpt>
      <trkpt lat="45.29978" lon="5.13331">
        <ele>458.04728491814</ele>
        <time>2014-06-01T10:48:34Z</time>
      </trkpt>
      <trkpt lat="45.29975" lon="5.13322">
        <ele>458.04728491814</ele>
        <time>2014-06-01T10:48:39Z</time>
      </trkpt>
      <trkpt lat="45.29976" lon="5.13309">
        <ele>461.29482022473</ele>
        <time>2014-06-01T10:48:44Z</time>
      </trkpt>
      <trkpt lat="45.29973" lon="5.133">
        <ele>461.29482022473</ele>
        <time>2014-06-01T10:48:49Z</time>
      </trkpt>
      <trkpt lat="45.29971" lon="5.1329">
        <ele>464.48027488121</ele>
        <time>2014-06-01T10:48:54Z</time>
      </trkpt>
      <trkpt lat="45.29969" lon="5.13283">
        <ele>464.48027488121</ele>
        <time>2014-06-01T10:48:59Z</time>
      </trkpt>
      <trkpt lat="45.29967" lon="5.13274">
        <ele>466.83425194828</ele>
        <time>2014-06-01T10:49:04Z</time>
      </trkpt>
      <trkpt lat="45.29966" lon="5.13262">
        <ele>466.83425194828</ele>
        <time>2014-06-01T10:49:09Z</time>
      </trkpt>
      <trkpt lat="45.29964" lon="5.1325">
        <ele>469.2172157031</ele>
        <time>2014-06-01T10:49:14Z</time>
      </trkpt>
      <trkpt lat="45.29963" lon="5.13238">
        <ele>469.2172157031</ele>
        <time>2014-06-01T10:49:19Z</time>
      </trkpt>
      <trkpt lat="45.29962" lon="5.13227">
        <ele>471.51864793258</ele>
        <time>2014-06-01T10:49:24Z</time>
      </trkpt>
      <trkpt lat="45.2996" lon="5.13219">
        <ele>471.51864793258</ele>
        <time>2014-06-01T10:49:29Z</time>
      </trkpt>
      <trkpt lat="45.29958" lon="5.13214">
        <ele>472.69986921557</ele>
        <time>2014-06-01T10:49:34Z</time>
      </trkpt>
      <trkpt lat="45.29955" lon="5.13208">
        <ele>472.69986921557</ele>
        <time>2014-06-01T10:49:39Z</time>
      </trkpt>
      <trkpt lat="45.29951" lon="5.13203">
        <ele>473.27179218062</ele>
        <time>2014-06-01T10:49:44Z</time>
      </trkpt>
      <trkpt lat="45.29947" lon="5.13197">
        <ele>473.27179218062</ele>
        <time>2014-06-01T10:49:49Z</time>
      </trkpt>
      <trkpt lat="45.29945" lon="5.13193">
        <ele>472.75858346892</ele>
        <time>2014-06-01T10:49:54Z</time>
      </trkpt>
      <trkpt lat="45.29945" lon="5.13185">
        <ele>472.75858346892</ele>
        <time>2014-06-01T10:49:59Z</time>
      </trkpt>
      <trkpt lat="45.29945" lon="5.13179">
        <ele>471.93314097294</ele>
        <time>2014-06-01T10:50:04Z</time>
      </trkpt>
      <trkpt lat="45.29947" lon="5.1317">
        <ele>471.93314097294</ele>
        <time>2014-06-01T10:50:09Z</time>
      </trkpt>
      <trkpt lat="45.29947" lon="5.13164">
        <ele>470.86414403606</ele>
        <time>2014-06-01T10:50:14Z</time>
      </trkpt>
      <trkpt lat="45.29949" lon="5.13157">
        <ele>470.86414403606</ele>
        <time>2014-06-01T10:50:19Z</time>
      </trkpt>
      <trkpt lat="45.2995" lon="5.13149">
        <ele>469.87547302392</ele>
        <time>2014-06-01T10:50:24Z</time>
      </trkpt>
      <trkpt lat="45.29951" lon="5.13141">
        <ele>469.87547302392</ele>
        <time>2014-06-01T10:50:29Z</time>
      </trkpt>
      <trkpt lat="45.2995" lon="5.13128">
        <ele>469.38242243975</ele>
        <time>2014-06-01T10:50:34Z</time>
      </trkpt>
      <trkpt lat="45.29951" lon="5.13112">
        <ele>469.36500210939</ele>
        <time>2014-06-01T10:50:39Z</time>
      </trkpt>
      <trkpt lat="45.29949" lon="5.13098">
        <ele>468.90997443763</ele>
        <time>2014-06-01T10:50:44Z</time>
      </trkpt>
      <trkpt lat="45.29948" lon="5.13086">
        <ele>468.61362073072</ele>
        <time>2014-06-01T10:50:49Z</time>
      </trkpt>
      <trkpt lat="45.29946" lon="5.13073">
        <ele>468.17780009295</ele>
        <time>2014-06-01T10:50:54Z</time>
      </trkpt>
      <trkpt lat="45.29945" lon="5.13063">
        <ele>468.17780009295</ele>
        <time>2014-06-01T10:50:59Z</time>
      </trkpt>
      <trkpt lat="45.29943" lon="5.13053">
        <ele>467.24026601637</ele>
        <time>2014-06-01T10:51:04Z</time>
      </trkpt>
      <trkpt lat="45.29943" lon="5.13044">
        <ele>467.24026601637</ele>
        <time>2014-06-01T10:51:09Z</time>
      </trkpt>
      <trkpt lat="45.29942" lon="5.13035">
        <ele>465.95682264123</ele>
        <time>2014-06-01T10:51:14Z</time>
      </trkpt>
      <trkpt lat="45.29941" lon="5.13024">
        <ele>465.95682264123</ele>
        <time>2014-06-01T10:51:19Z</time>
      </trkpt>
      <trkpt lat="45.29941" lon="5.13012">
        <ele>464.9916403212</ele>
        <time>2014-06-01T10:51:24Z</time>
      </trkpt>
      <trkpt lat="45.29942" lon="5.13002">
        <ele>464.9916403212</ele>
        <time>2014-06-01T10:51:29Z</time>
      </trkpt>
      <trkpt lat="45.29943" lon="5.12991">
        <ele>464.55572316693</ele>
        <time>2014-06-01T10:51:34Z</time>
      </trkpt>
      <trkpt lat="45.29942" lon="5.12976">
        <ele>464.42518328507</ele>
        <time>2014-06-01T10:51:39Z</time>
      </trkpt>
      <trkpt lat="45.29943" lon="5.12965">
        <ele>464.42518328507</ele>
        <time>2014-06-01T10:51:44Z</time>
      </trkpt>
      <trkpt lat="45.29944" lon="5.12953">
        <ele>464.34849538077</ele>
        <time>2014-06-01T10:51:49Z</time>
      </trkpt>
      <trkpt lat="45.29947" lon="5.12947">
        <ele>464.34849538077</ele>
        <time>2014-06-01T10:51:54Z</time>
      </trkpt>
      <trkpt lat="45.29947" lon="5.12937">
        <ele>464.38068193466</ele>
        <time>2014-06-01T10:51:59Z</time>
      </trkpt>
      <trkpt lat="45.29949" lon="5.12929">
        <ele>464.38068193466</ele>
        <time>2014-06-01T10:52:04Z</time>
      </trkpt>
      <trkpt lat="45.29949" lon="5.12917">
        <ele>463.96714575431</ele>
        <time>2014-06-01T10:52:09Z</time>
      </trkpt>
      <trkpt lat="45.29951" lon="5.12905">
        <ele>463.96714575431</ele>
        <time>2014-06-01T10:52:14Z</time>
      </trkpt>
      <trkpt lat="45.29952" lon="5.12894">
        <ele>463.76257130473</ele>
        <time>2014-06-01T10:52:19Z</time>
      </trkpt>
      <trkpt lat="45.29953" lon="5.12882">
        <ele>463.76257130473</ele>
        <time>2014-06-01T10:52:24Z</time>
      </trkpt>
      <trkpt lat="45.29955" lon="5.12873">
        <ele>463.33534963773</ele>
        <time>2014-06-01T10:52:29Z</time>
      </trkpt>
      <trkpt lat="45.29956" lon="5.12866">
        <ele>463.33534963773</ele>
        <time>2014-06-01T10:52:34Z</time>
      </trkpt>
      <trkpt lat="45.29957" lon="5.12858">
        <ele>463.0355616032</ele>
        <time>2014-06-01T10:52:39Z</time>
      </trkpt>
      <trkpt lat="45.29958" lon="5.12846">
        <ele>463.0355616032</ele>
        <time>2014-06-01T10:52:44Z</time>
      </trkpt>
      <trkpt lat="45.2996" lon="5.12839">
        <ele>463.36012512018</ele>
        <time>2014-06-01T10:52:49Z</time>
      </trkpt>
      <trkpt lat="45.29963" lon="5.12832">
        <ele>463.36012512018</ele>
        <time>2014-06-01T10:52:54Z</time>
      </trkpt>
      <trkpt lat="45.29965" lon="5.12824">
        <ele>463.71566751338</ele>
        <time>2014-06-01T10:52:59Z</time>
      </trkpt>
      <trkpt lat="45.29968" lon="5.12815">
        <ele>463.71566751338</ele>
        <time>2014-06-01T10:53:04Z</time>
      </trkpt>
      <trkpt lat="45.29972" lon="5.12807">
        <ele>463.24965817855</ele>
        <time>2014-06-01T10:53:09Z</time>
      </trkpt>
      <trkpt lat="45.29974" lon="5.12798">
        <ele>463.24965817855</ele>
        <time>2014-06-01T10:53:14Z</time>
      </trkpt>
      <trkpt lat="45.29977" lon="5.12788">
        <ele>462.55793655421</ele>
        <time>2014-06-01T10:53:19Z</time>
      </trkpt>
      <trkpt lat="45.2998" lon="5.12777">
        <ele>462.55793655421</ele>
        <time>2014-06-01T10:53:24Z</time>
      </trkpt>
      <trkpt lat="45.29982" lon="5.12766">
        <ele>462.43816426132</ele>
        <time>2014-06-01T10:53:29Z</time>
      </trkpt>
      <trkpt lat="45.29984" lon="5.12756">
        <ele>462.43816426132</ele>
        <time>2014-06-01T10:53:34Z</time>
      </trkpt>
      <trkpt lat="45.29987" lon="5.12747">
        <ele>462.22989143799</ele>
        <time>2014-06-01T10:53:39Z</time>
      </trkpt>
      <trkpt lat="45.29991" lon="5.12738">
        <ele>462.22989143799</ele>
        <time>2014-06-01T10:53:44Z</time>
      </trkpt>
      <trkpt lat="45.29995" lon="5.1273">
        <ele>462.35899767595</ele>
        <time>2014-06-01T10:53:49Z</time>
      </trkpt>
      <trkpt lat="45.29999" lon="5.12721">
        <ele>462.35899767595</ele>
        <time>2014-06-01T10:53:54Z</time>
      </trkpt>
      <trkpt lat="45.3" lon="5.12714">
        <ele>463.29115161758</ele>
        <time>2014-06-01T10:53:59Z</time>
      </trkpt>
      <trkpt lat="45.29999" lon="5.1271">
        <ele>463.29115161758</ele>
        <time>2014-06-01T10:54:04Z</time>
      </trkpt>
      <trkpt lat="45.30001" lon="5.12706">
        <ele>463.29115161758</ele>
        <time>2014-06-01T10:54:09Z</time>
      </trkpt>
      <trkpt lat="45.30004" lon="5.12703">
        <ele>463.49561573695</ele>
        <time>2014-06-01T10:54:14Z</time>
      </trkpt>
      <trkpt lat="45.30006" lon="5.12702">
        <ele>463.49561573695</ele>
        <time>2014-06-01T10:54:19Z</time>
      </trkpt>
      <trkpt lat="45.3001" lon="5.127">
        <ele>463.49561573695</ele>
        <time>2014-06-01T10:54:24Z</time>
      </trkpt>
      <trkpt lat="45.30012" lon="5.12699">
        <ele>463.49561573695</ele>
        <time>2014-06-01T10:54:29Z</time>
      </trkpt>
      <trkpt lat="45.30018" lon="5.12698">
        <ele>462.83869775212</ele>
        <time>2014-06-01T10:54:34Z</time>
      </trkpt>
      <trkpt lat="45.30022" lon="5.12696">
        <ele>462.83869775212</ele>
        <time>2014-06-01T10:54:39Z</time>
      </trkpt>
      <trkpt lat="45.30031" lon="5.12691">
        <ele>461.87623270404</ele>
        <time>2014-06-01T10:54:44Z</time>
      </trkpt>
      <trkpt lat="45.30038" lon="5.12686">
        <ele>461.87623270404</ele>
        <time>2014-06-01T10:54:49Z</time>
      </trkpt>
      <trkpt lat="45.3004" lon="5.12684">
        <ele>461.42668086961</ele>
        <time>2014-06-01T10:54:54Z</time>
      </trkpt>
      <trkpt lat="45.30044" lon="5.1268">
        <ele>461.42668086961</ele>
        <time>2014-06-01T10:54:59Z</time>
      </trkpt>
      <trkpt lat="45.30049" lon="5.12673">
        <ele>460.84902352615</ele>
        <time>2014-06-01T10:55:04Z</time>
      </trkpt>
      <trkpt lat="45.30055" lon="5.12666">
        <ele>460.84902352615</ele>
        <time>2014-06-01T10:55:09Z</time>
      </trkpt>
      <trkpt lat="45.30063" lon="5.1266">
        <ele>460.01080264739</ele>
        <time>2014-06-01T10:55:14Z</time>
      </trkpt>
      <trkpt lat="45.30072" lon="5.12655">
        <ele>459.55376347294</ele>
        <time>2014-06-01T10:55:19Z</time>
      </trkpt>
      <trkpt lat="45.30077" lon="5.12646">
        <ele>459.55376347294</ele>
        <time>2014-06-01T10:55:24Z</time>
      </trkpt>
      <trkpt lat="45.30082" lon="5.12637">
        <ele>459.66787921285</ele>
        <time>2014-06-01T10:55:29Z</time>
      </trkpt>
      <trkpt lat="45.30087" lon="5.12631">
        <ele>459.66787921285</ele>
        <time>2014-06-01T10:55:34Z</time>
      </trkpt>
      <trkpt lat="45.30091" lon="5.12625">
        <ele>459.90783761048</ele>
        <time>2014-06-01T10:55:39Z</time>
      </trkpt>
      <trkpt lat="45.30095" lon="5.12618">
        <ele>459.90783761048</ele>
        <time>2014-06-01T10:55:44Z</time>
      </trkpt>
      <trkpt lat="45.30099" lon="5.1261">
        <ele>459.64446955014</ele>
        <time>2014-06-01T10:55:49Z</time>
      </trkpt>
      <trkpt lat="45.30103" lon="5.12601">
        <ele>459.64446955014</ele>
        <time>2014-06-01T10:55:54Z</time>
      </trkpt>
      <trkpt lat="45.30107" lon="5.1259">
        <ele>459.49231147456</ele>
        <time>2014-06-01T10:55:59Z</time>
      </trkpt>
      <trkpt lat="45.30112" lon="5.12581">
        <ele>459.49231147456</ele>
        <time>2014-06-01T10:56:04Z</time>
      </trkpt>
      <trkpt lat="45.30118" lon="5.12575">
        <ele>459.81864416411</ele>
        <time>2014-06-01T10:56:09Z</time>
      </trkpt>
      <trkpt lat="45.30122" lon="5.12567">
        <ele>459.81864416411</ele>
        <time>2014-06-01T10:56:14Z</time>
      </trkpt>
      <trkpt lat="45.30125" lon="5.12556">
        <ele>460.01125024283</ele>
        <time>2014-06-01T10:56:19Z</time>
      </trkpt>
      <trkpt lat="45.30132" lon="5.12552">
        <ele>460.01125024283</ele>
        <time>2014-06-01T10:56:24Z</time>
      </trkpt>
      <trkpt lat="45.30138" lon="5.12546">
        <ele>459.92114349327</ele>
        <time>2014-06-01T10:56:29Z</time>
      </trkpt>
      <trkpt lat="45.30141" lon="5.12535">
        <ele>459.92114349327</ele>
        <time>2014-06-01T10:56:34Z</time>
      </trkpt>
      <trkpt lat="45.30143" lon="5.12524">
        <ele>459.38221553048</ele>
        <time>2014-06-01T10:56:39Z</time>
      </trkpt>
      <trkpt lat="45.30148" lon="5.12516">
        <ele>459.38221553048</ele>
        <time>2014-06-01T10:56:44Z</time>
      </trkpt>
      <trkpt lat="45.30151" lon="5.12508">
        <ele>458.90469446223</ele>
        <time>2014-06-01T10:56:49Z</time>
      </trkpt>
      <trkpt lat="45.30155" lon="5.12503">
        <ele>458.90469446223</ele>
        <time>2014-06-01T10:56:54Z</time>
      </trkpt>
      <trkpt lat="45.30158" lon="5.12498">
        <ele>457.00120427573</ele>
        <time>2014-06-01T10:56:59Z</time>
      </trkpt>
      <trkpt lat="45.30161" lon="5.12492">
        <ele>457.00120427573</ele>
        <time>2014-06-01T10:57:04Z</time>
      </trkpt>
      <trkpt lat="45.30163" lon="5.12485">
        <ele>455.07893203833</ele>
        <time>2014-06-01T10:57:09Z</time>
      </trkpt>
      <trkpt lat="45.30166" lon="5.12477">
        <ele>455.07893203833</ele>
        <time>2014-06-01T10:57:14Z</time>
      </trkpt>
      <trkpt lat="45.30168" lon="5.12468">
        <ele>452.65471414828</ele>
        <time>2014-06-01T10:57:19Z</time>
      </trkpt>
      <trkpt lat="45.30171" lon="5.12459">
        <ele>452.65471414828</ele>
        <time>2014-06-01T10:57:24Z</time>
      </trkpt>
      <trkpt lat="45.30172" lon="5.12449">
        <ele>449.98836666682</ele>
        <time>2014-06-01T10:57:29Z</time>
      </trkpt>
      <trkpt lat="45.30176" lon="5.12443">
        <ele>449.98836666682</ele>
        <time>2014-06-01T10:57:34Z</time>
      </trkpt>
      <trkpt lat="45.30179" lon="5.12434">
        <ele>448.31558716165</ele>
        <time>2014-06-01T10:57:39Z</time>
      </trkpt>
      <trkpt lat="45.30182" lon="5.12428">
        <ele>448.31558716165</ele>
        <time>2014-06-01T10:57:44Z</time>
      </trkpt>
      <trkpt lat="45.30187" lon="5.12423">
        <ele>445.89619709374</ele>
        <time>2014-06-01T10:57:49Z</time>
      </trkpt>
      <trkpt lat="45.3019" lon="5.12417">
        <ele>445.89619709374</ele>
        <time>2014-06-01T10:57:54Z</time>
      </trkpt>
      <trkpt lat="45.30195" lon="5.12411">
        <ele>442.93564082423</ele>
        <time>2014-06-01T10:57:59Z</time>
      </trkpt>
      <trkpt lat="45.30199" lon="5.12402">
        <ele>442.93564082423</ele>
        <time>2014-06-01T10:58:04Z</time>
      </trkpt>
      <trkpt lat="45.30199" lon="5.12389">
        <ele>443.93460287383</ele>
        <time>2014-06-01T10:58:09Z</time>
      </trkpt>
      <trkpt lat="45.30201" lon="5.12377">
        <ele>443.93460287383</ele>
        <time>2014-06-01T10:58:14Z</time>
      </trkpt>
      <trkpt lat="45.30207" lon="5.12369">
        <ele>445.01052904217</ele>
        <time>2014-06-01T10:58:19Z</time>
      </trkpt>
      <trkpt lat="45.30215" lon="5.12361">
        <ele>446.26941246595</ele>
        <time>2014-06-01T10:58:24Z</time>
      </trkpt>
      <trkpt lat="45.30215" lon="5.12352">
        <ele>446.26941246595</ele>
        <time>2014-06-01T10:58:29Z</time>
      </trkpt>
      <trkpt lat="45.30216" lon="5.1235">
        <ele>446.26941246595</ele>
        <time>2014-06-01T10:58:34Z</time>
      </trkpt>
      <trkpt lat="45.30213" lon="5.12343">
        <ele>447.85209073787</ele>
        <time>2014-06-01T10:58:39Z</time>
      </trkpt>
      <trkpt lat="45.30209" lon="5.12335">
        <ele>447.85209073787</ele>
        <time>2014-06-01T10:58:44Z</time>
      </trkpt>
      <trkpt lat="45.30205" lon="5.12326">
        <ele>449.28281059485</ele>
        <time>2014-06-01T10:58:49Z</time>
      </trkpt>
      <trkpt lat="45.302" lon="5.12319">
        <ele>449.28281059485</ele>
        <time>2014-06-01T10:58:54Z</time>
      </trkpt>
      <trkpt lat="45.30197" lon="5.12311">
        <ele>449.93379729897</ele>
        <time>2014-06-01T10:58:59Z</time>
      </trkpt>
      <trkpt lat="45.30192" lon="5.12301">
        <ele>449.93379729897</ele>
        <time>2014-06-01T10:59:04Z</time>
      </trkpt>
      <trkpt lat="45.30188" lon="5.12291">
        <ele>450.26314378488</ele>
        <time>2014-06-01T10:59:09Z</time>
      </trkpt>
      <trkpt lat="45.30185" lon="5.12281">
        <ele>450.26314378488</ele>
        <time>2014-06-01T10:59:14Z</time>
      </trkpt>
      <trkpt lat="45.30182" lon="5.12271">
        <ele>450.85469345484</ele>
        <time>2014-06-01T10:59:19Z</time>
      </trkpt>
      <trkpt lat="45.3018" lon="5.1226">
        <ele>450.85469345484</ele>
        <time>2014-06-01T10:59:24Z</time>
      </trkpt>
      <trkpt lat="45.30178" lon="5.12248">
        <ele>452.09013151313</ele>
        <time>2014-06-01T10:59:29Z</time>
      </trkpt>
      <trkpt lat="45.30178" lon="5.12238">
        <ele>452.09013151313</ele>
        <time>2014-06-01T10:59:34Z</time>
      </trkpt>
      <trkpt lat="45.30178" lon="5.12227">
        <ele>453.54309719583</ele>
        <time>2014-06-01T10:59:39Z</time>
      </trkpt>
      <trkpt lat="45.30178" lon="5.12217">
        <ele>453.54309719583</ele>
        <time>2014-06-01T10:59:44Z</time>
      </trkpt>
      <trkpt lat="45.30178" lon="5.12207">
        <ele>455.03411699817</ele>
        <time>2014-06-01T10:59:49Z</time>
      </trkpt>
      <trkpt lat="45.30178" lon="5.12196">
        <ele>455.03411699817</ele>
        <time>2014-06-01T10:59:54Z</time>
      </trkpt>
      <trkpt lat="45.30178" lon="5.12185">
        <ele>456.62739600836</ele>
        <time>2014-06-01T10:59:59Z</time>
      </trkpt>
      <trkpt lat="45.30179" lon="5.12174">
        <ele>456.62739600836</ele>
        <time>2014-06-01T11:00:04Z</time>
      </trkpt>
      <trkpt lat="45.30179" lon="5.12164">
        <ele>458.36776198039</ele>
        <time>2014-06-01T11:00:09Z</time>
      </trkpt>
      <trkpt lat="45.3018" lon="5.12154">
        <ele>458.36776198039</ele>
        <time>2014-06-01T11:00:14Z</time>
      </trkpt>
      <trkpt lat="45.3018" lon="5.12144">
        <ele>460.12345405156</ele>
        <time>2014-06-01T11:00:19Z</time>
      </trkpt>
      <trkpt lat="45.3018" lon="5.12134">
        <ele>460.12345405156</ele>
        <time>2014-06-01T11:00:24Z</time>
      </trkpt>
      <trkpt lat="45.30181" lon="5.12124">
        <ele>461.84446610892</ele>
        <time>2014-06-01T11:00:29Z</time>
      </trkpt>
      <trkpt lat="45.30181" lon="5.12113">
        <ele>461.84446610892</ele>
        <time>2014-06-01T11:00:34Z</time>
      </trkpt>
      <trkpt lat="45.30182" lon="5.12103">
        <ele>463.55669332015</ele>
        <time>2014-06-01T11:00:39Z</time>
      </trkpt>
      <trkpt lat="45.30182" lon="5.12093">
        <ele>463.55669332015</ele>
        <time>2014-06-01T11:00:44Z</time>
      </trkpt>
      <trkpt lat="45.30183" lon="5.12083">
        <ele>465.16895005359</ele>
        <time>2014-06-01T11:00:49Z</time>
      </trkpt>
      <trkpt lat="45.30184" lon="5.12073">
        <ele>465.16895005359</ele>
        <time>2014-06-01T11:00:54Z</time>
      </trkpt>
      <trkpt lat="45.30185" lon="5.12064">
        <ele>466.74123586214</ele>
        <time>2014-06-01T11:00:59Z</time>
      </trkpt>
      <trkpt lat="45.30186" lon="5.12055">
        <ele>466.74123586214</ele>
        <time>2014-06-01T11:01:04Z</time>
      </trkpt>
      <trkpt lat="45.30188" lon="5.12045">
        <ele>467.88261272676</ele>
        <time>2014-06-01T11:01:09Z</time>
      </trkpt>
      <trkpt lat="45.30188" lon="5.12037">
        <ele>467.88261272676</ele>
        <time>2014-06-01T11:01:14Z</time>
      </trkpt>
      <trkpt lat="45.30189" lon="5.12027">
        <ele>468.70774385564</ele>
        <time>2014-06-01T11:01:19Z</time>
      </trkpt>
      <trkpt lat="45.3019" lon="5.12017">
        <ele>468.70774385564</ele>
        <time>2014-06-01T11:01:24Z</time>
      </trkpt>
      <trkpt lat="45.30191" lon="5.12007">
        <ele>469.4391555651</ele>
        <time>2014-06-01T11:01:29Z</time>
      </trkpt>
      <trkpt lat="45.30191" lon="5.11997">
        <ele>469.4391555651</ele>
        <time>2014-06-01T11:01:34Z</time>
      </trkpt>
      <trkpt lat="45.30191" lon="5.11986">
        <ele>470.06723401125</ele>
        <time>2014-06-01T11:01:39Z</time>
      </trkpt>
      <trkpt lat="45.3019" lon="5.11976">
        <ele>470.06723401125</ele>
        <time>2014-06-01T11:01:44Z</time>
      </trkpt>
      <trkpt lat="45.30189" lon="5.11966">
        <ele>470.46818078987</ele>
        <time>2014-06-01T11:01:49Z</time>
      </trkpt>
      <trkpt lat="45.30194" lon="5.11961">
        <ele>470.46818078987</ele>
        <time>2014-06-01T11:01:54Z</time>
      </trkpt>
      <trkpt lat="45.30202" lon="5.11963">
        <ele>470.57126655349</ele>
        <time>2014-06-01T11:01:59Z</time>
      </trkpt>
      <trkpt lat="45.30207" lon="5.11964">
        <ele>470.57126655349</ele>
        <time>2014-06-01T11:02:04Z</time>
      </trkpt>
      <trkpt lat="45.30215" lon="5.11965">
        <ele>470.6577593198</ele>
        <time>2014-06-01T11:02:09Z</time>
      </trkpt>
      <trkpt lat="45.30222" lon="5.11965">
        <ele>470.6577593198</ele>
        <time>2014-06-01T11:02:14Z</time>
      </trkpt>
      <trkpt lat="45.3023" lon="5.11965">
        <ele>470.68577128833</ele>
        <time>2014-06-01T11:02:19Z</time>
      </trkpt>
      <trkpt lat="45.30238" lon="5.11963">
        <ele>470.68577128833</ele>
        <time>2014-06-01T11:02:24Z</time>
      </trkpt>
      <trkpt lat="45.30244" lon="5.11959">
        <ele>470.47262986386</ele>
        <time>2014-06-01T11:02:29Z</time>
      </trkpt>
      <trkpt lat="45.3025" lon="5.11954">
        <ele>470.47262986386</ele>
        <time>2014-06-01T11:02:34Z</time>
      </trkpt>
      <trkpt lat="45.30256" lon="5.11949">
        <ele>470.22452405023</ele>
        <time>2014-06-01T11:02:39Z</time>
      </trkpt>
      <trkpt lat="45.30263" lon="5.11942">
        <ele>470.22452405023</ele>
        <time>2014-06-01T11:02:44Z</time>
      </trkpt>
      <trkpt lat="45.30269" lon="5.11937">
        <ele>469.90208494384</ele>
        <time>2014-06-01T11:02:49Z</time>
      </trkpt>
      <trkpt lat="45.3027" lon="5.11938">
        <ele>469.90208494384</ele>
        <time>2014-06-01T11:02:54Z</time>
      </trkpt>
      <trkpt lat="45.30276" lon="5.11945">
        <ele>469.41145890036</ele>
        <time>2014-06-01T11:02:59Z</time>
      </trkpt>
      <trkpt lat="45.30278" lon="5.11956">
        <ele>469.41145890036</ele>
        <time>2014-06-01T11:03:04Z</time>
      </trkpt>
      <trkpt lat="45.30278" lon="5.11967">
        <ele>468.98325291407</ele>
        <time>2014-06-01T11:03:09Z</time>
      </trkpt>
      <trkpt lat="45.30279" lon="5.11977">
        <ele>468.98325291407</ele>
        <time>2014-06-01T11:03:14Z</time>
      </trkpt>
      <trkpt lat="45.30279" lon="5.11987">
        <ele>468.60042140259</ele>
        <time>2014-06-01T11:03:19Z</time>
      </trkpt>
      <trkpt lat="45.30279" lon="5.11997">
        <ele>468.60042140259</ele>
        <time>2014-06-01T11:03:24Z</time>
      </trkpt>
      <trkpt lat="45.30282" lon="5.11997">
        <ele>467.78591897609</ele>
        <time>2014-06-01T11:03:29Z</time>
      </trkpt>
      <trkpt lat="45.30286" lon="5.11993">
        <ele>467.78591897609</ele>
        <time>2014-06-01T11:03:34Z</time>
      </trkpt>
      <trkpt lat="45.3029" lon="5.11987">
        <ele>466.34396408356</ele>
        <time>2014-06-01T11:03:39Z</time>
      </trkpt>
      <trkpt lat="45.30296" lon="5.11981">
        <ele>466.34396408356</ele>
        <time>2014-06-01T11:03:44Z</time>
      </trkpt>
      <trkpt lat="45.30303" lon="5.11974">
        <ele>465.03164914292</ele>
        <time>2014-06-01T11:03:49Z</time>
      </trkpt>
      <trkpt lat="45.30308" lon="5.11967">
        <ele>465.03164914292</ele>
        <time>2014-06-01T11:03:54Z</time>
      </trkpt>
      <trkpt lat="45.30315" lon="5.11959">
        <ele>463.71423944879</ele>
        <time>2014-06-01T11:03:59Z</time>
      </trkpt>
      <trkpt lat="45.3032" lon="5.11951">
        <ele>463.71423944879</ele>
        <time>2014-06-01T11:04:04Z</time>
      </trkpt>
      <trkpt lat="45.30325" lon="5.11943">
        <ele>462.36777382737</ele>
        <time>2014-06-01T11:04:09Z</time>
      </trkpt>
      <trkpt lat="45.30331" lon="5.11935">
        <ele>462.36777382737</ele>
        <time>2014-06-01T11:04:14Z</time>
      </trkpt>
      <trkpt lat="45.30335" lon="5.1193">
        <ele>460.72511458348</ele>
        <time>2014-06-01T11:04:19Z</time>
      </trkpt>
      <trkpt lat="45.30341" lon="5.11923">
        <ele>460.72511458348</ele>
        <time>2014-06-01T11:04:24Z</time>
      </trkpt>
      <trkpt lat="45.30346" lon="5.11915">
        <ele>458.91422591253</ele>
        <time>2014-06-01T11:04:29Z</time>
      </trkpt>
      <trkpt lat="45.30354" lon="5.11908">
        <ele>457.34231226598</ele>
        <time>2014-06-01T11:04:34Z</time>
      </trkpt>
      <trkpt lat="45.3036" lon="5.11904">
        <ele>457.34231226598</ele>
        <time>2014-06-01T11:04:39Z</time>
      </trkpt>
      <trkpt lat="45.30363" lon="5.11896">
        <ele>454.65659334815</ele>
        <time>2014-06-01T11:04:44Z</time>
      </trkpt>
      <trkpt lat="45.30369" lon="5.11893">
        <ele>454.65659334815</ele>
        <time>2014-06-01T11:04:49Z</time>
      </trkpt>
      <trkpt lat="45.30377" lon="5.11892">
        <ele>452.89244268185</ele>
        <time>2014-06-01T11:04:54Z</time>
      </trkpt>
      <trkpt lat="45.30383" lon="5.11889">
        <ele>452.89244268185</ele>
        <time>2014-06-01T11:04:59Z</time>
      </trkpt>
      <trkpt lat="45.30391" lon="5.11886">
        <ele>450.83464877013</ele>
        <time>2014-06-01T11:05:04Z</time>
      </trkpt>
      <trkpt lat="45.30395" lon="5.11884">
        <ele>450.83464877013</ele>
        <time>2014-06-01T11:05:09Z</time>
      </trkpt>
      <trkpt lat="45.30397" lon="5.11879">
        <ele>450.83464877013</ele>
        <time>2014-06-01T11:05:14Z</time>
      </trkpt>
      <trkpt lat="45.30401" lon="5.11869">
        <ele>448.45323286251</ele>
        <time>2014-06-01T11:05:19Z</time>
      </trkpt>
      <trkpt lat="45.30404" lon="5.11862">
        <ele>448.45323286251</ele>
        <time>2014-06-01T11:05:24Z</time>
      </trkpt>
      <trkpt lat="45.30406" lon="5.11855">
        <ele>446.60028898973</ele>
        <time>2014-06-01T11:05:29Z</time>
      </trkpt>
      <trkpt lat="45.30409" lon="5.11846">
        <ele>446.60028898973</ele>
        <time>2014-06-01T11:05:34Z</time>
      </trkpt>
      <trkpt lat="45.3041" lon="5.11837">
        <ele>444.76670952975</ele>
        <time>2014-06-01T11:05:39Z</time>
      </trkpt>
      <trkpt lat="45.30413" lon="5.11828">
        <ele>444.76670952975</ele>
        <time>2014-06-01T11:05:44Z</time>
      </trkpt>
      <trkpt lat="45.30414" lon="5.11819">
        <ele>442.63912097577</ele>
        <time>2014-06-01T11:05:49Z</time>
      </trkpt>
      <trkpt lat="45.30413" lon="5.11807">
        <ele>442.63912097577</ele>
        <time>2014-06-01T11:05:54Z</time>
      </trkpt>
      <trkpt lat="45.30412" lon="5.11795">
        <ele>440.83575616602</ele>
        <time>2014-06-01T11:05:59Z</time>
      </trkpt>
      <trkpt lat="45.3041" lon="5.11784">
        <ele>440.83575616602</ele>
        <time>2014-06-01T11:06:04Z</time>
      </trkpt>
      <trkpt lat="45.30407" lon="5.11775">
        <ele>439.85632527347</ele>
        <time>2014-06-01T11:06:09Z</time>
      </trkpt>
      <trkpt lat="45.30405" lon="5.11766">
        <ele>439.85632527347</ele>
        <time>2014-06-01T11:06:14Z</time>
      </trkpt>
      <trkpt lat="45.30402" lon="5.11756">
        <ele>439.44081972047</ele>
        <time>2014-06-01T11:06:19Z</time>
      </trkpt>
      <trkpt lat="45.304" lon="5.11745">
        <ele>439.44081972047</ele>
        <time>2014-06-01T11:06:24Z</time>
      </trkpt>
      <trkpt lat="45.30398" lon="5.11738">
        <ele>438.88545249985</ele>
        <time>2014-06-01T11:06:29Z</time>
      </trkpt>
      <trkpt lat="45.30396" lon="5.11731">
        <ele>438.88545249985</ele>
        <time>2014-06-01T11:06:34Z</time>
      </trkpt>
      <trkpt lat="45.30395" lon="5.11722">
        <ele>438.460705265</ele>
        <time>2014-06-01T11:06:39Z</time>
      </trkpt>
      <trkpt lat="45.30395" lon="5.11712">
        <ele>438.460705265</ele>
        <time>2014-06-01T11:06:44Z</time>
      </trkpt>
      <trkpt lat="45.30393" lon="5.117">
        <ele>437.84025182532</ele>
        <time>2014-06-01T11:06:49Z</time>
      </trkpt>
      <trkpt lat="45.30391" lon="5.1169">
        <ele>437.84025182532</ele>
        <time>2014-06-01T11:06:54Z</time>
      </trkpt>
      <trkpt lat="45.30391" lon="5.11681">
        <ele>436.24659877459</ele>
        <time>2014-06-01T11:06:59Z</time>
      </trkpt>
      <trkpt lat="45.3039" lon="5.11673">
        <ele>436.24659877459</ele>
        <time>2014-06-01T11:07:04Z</time>
      </trkpt>
      <trkpt lat="45.30387" lon="5.11663">
        <ele>435.42628268108</ele>
        <time>2014-06-01T11:07:09Z</time>
      </trkpt>
      <trkpt lat="45.30385" lon="5.11652">
        <ele>435.42628268108</ele>
        <time>2014-06-01T11:07:14Z</time>
      </trkpt>
      <trkpt lat="45.30384" lon="5.11641">
        <ele>434.28596988936</ele>
        <time>2014-06-01T11:07:19Z</time>
      </trkpt>
      <trkpt lat="45.30383" lon="5.1163">
        <ele>434.28596988936</ele>
        <time>2014-06-01T11:07:24Z</time>
      </trkpt>
      <trkpt lat="45.30382" lon="5.11619">
        <ele>433.44188844471</ele>
        <time>2014-06-01T11:07:29Z</time>
      </trkpt>
      <trkpt lat="45.30381" lon="5.11606">
        <ele>433.44188844471</ele>
        <time>2014-06-01T11:07:34Z</time>
      </trkpt>
      <trkpt lat="45.30379" lon="5.11592">
        <ele>433.34877569537</ele>
        <time>2014-06-01T11:07:39Z</time>
      </trkpt>
      <trkpt lat="45.30377" lon="5.1158">
        <ele>433.34877569537</ele>
        <time>2014-06-01T11:07:44Z</time>
      </trkpt>
      <trkpt lat="45.30377" lon="5.11572">
        <ele>433.08552721077</ele>
        <time>2014-06-01T11:07:49Z</time>
      </trkpt>
      <trkpt lat="45.30376" lon="5.11564">
        <ele>433.08552721077</ele>
        <time>2014-06-01T11:07:54Z</time>
      </trkpt>
      <trkpt lat="45.30375" lon="5.11555">
        <ele>432.85110245729</ele>
        <time>2014-06-01T11:07:59Z</time>
      </trkpt>
      <trkpt lat="45.30373" lon="5.11544">
        <ele>432.85110245729</ele>
        <time>2014-06-01T11:08:04Z</time>
      </trkpt>
      <trkpt lat="45.30372" lon="5.11535">
        <ele>432.13795054996</ele>
        <time>2014-06-01T11:08:09Z</time>
      </trkpt>
      <trkpt lat="45.3037" lon="5.11525">
        <ele>432.13795054996</ele>
        <time>2014-06-01T11:08:14Z</time>
      </trkpt>
      <trkpt lat="45.30368" lon="5.11516">
        <ele>431.94701027813</ele>
        <time>2014-06-01T11:08:19Z</time>
      </trkpt>
      <trkpt lat="45.30363" lon="5.11508">
        <ele>431.94701027813</ele>
        <time>2014-06-01T11:08:24Z</time>
      </trkpt>
      <trkpt lat="45.30361" lon="5.11503">
        <ele>431.07131700457</ele>
        <time>2014-06-01T11:08:29Z</time>
      </trkpt>
      <trkpt lat="45.30359" lon="5.11496">
        <ele>431.07131700457</ele>
        <time>2014-06-01T11:08:34Z</time>
      </trkpt>
      <trkpt lat="45.30355" lon="5.1149">
        <ele>429.7634861168</ele>
        <time>2014-06-01T11:08:39Z</time>
      </trkpt>
      <trkpt lat="45.30352" lon="5.11483">
        <ele>429.7634861168</ele>
        <time>2014-06-01T11:08:44Z</time>
      </trkpt>
      <trkpt lat="45.3035" lon="5.11476">
        <ele>427.81198579194</ele>
        <time>2014-06-01T11:08:49Z</time>
      </trkpt>
      <trkpt lat="45.30345" lon="5.11466">
        <ele>427.81198579194</ele>
        <time>2014-06-01T11:08:54Z</time>
      </trkpt>
      <trkpt lat="45.30342" lon="5.11456">
        <ele>428.04890893271</ele>
        <time>2014-06-01T11:08:59Z</time>
      </trkpt>
      <trkpt lat="45.30341" lon="5.11439">
        <ele>428.6390796563</ele>
        <time>2014-06-01T11:09:04Z</time>
      </trkpt>
      <trkpt lat="45.3034" lon="5.11431">
        <ele>428.6390796563</ele>
        <time>2014-06-01T11:09:09Z</time>
      </trkpt>
      <trkpt lat="45.3034" lon="5.11424">
        <ele>428.01079604392</ele>
        <time>2014-06-01T11:09:14Z</time>
      </trkpt>
      <trkpt lat="45.30339" lon="5.11414">
        <ele>428.01079604392</ele>
        <time>2014-06-01T11:09:19Z</time>
      </trkpt>
      <trkpt lat="45.30337" lon="5.11405">
        <ele>427.36283695591</ele>
        <time>2014-06-01T11:09:24Z</time>
      </trkpt>
      <trkpt lat="45.30334" lon="5.11395">
        <ele>427.36283695591</ele>
        <time>2014-06-01T11:09:29Z</time>
      </trkpt>
      <trkpt lat="45.30333" lon="5.11385">
        <ele>426.88363226582</ele>
        <time>2014-06-01T11:09:34Z</time>
      </trkpt>
      <trkpt lat="45.3033" lon="5.11374">
        <ele>426.88363226582</ele>
        <time>2014-06-01T11:09:39Z</time>
      </trkpt>
      <trkpt lat="45.30328" lon="5.11365">
        <ele>426.04112572353</ele>
        <time>2014-06-01T11:09:44Z</time>
      </trkpt>
      <trkpt lat="45.30327" lon="5.11353">
        <ele>426.04112572353</ele>
        <time>2014-06-01T11:09:49Z</time>
      </trkpt>
      <trkpt lat="45.30327" lon="5.11341">
        <ele>425.95738804679</ele>
        <time>2014-06-01T11:09:54Z</time>
      </trkpt>
      <trkpt lat="45.30327" lon="5.11328">
        <ele>426.01263932016</ele>
        <time>2014-06-01T11:09:59Z</time>
      </trkpt>
      <trkpt lat="45.30328" lon="5.11313">
        <ele>426.28072776795</ele>
        <time>2014-06-01T11:10:04Z</time>
      </trkpt>
      <trkpt lat="45.30328" lon="5.11301">
        <ele>426.28072776795</ele>
        <time>2014-06-01T11:10:09Z</time>
      </trkpt>
      <trkpt lat="45.30328" lon="5.11291">
        <ele>426.84388772963</ele>
        <time>2014-06-01T11:10:14Z</time>
      </trkpt>
      <trkpt lat="45.30325" lon="5.11285">
        <ele>426.84388772963</ele>
        <time>2014-06-01T11:10:19Z</time>
      </trkpt>
      <trkpt lat="45.30318" lon="5.11283">
        <ele>428.15218148738</ele>
        <time>2014-06-01T11:10:24Z</time>
      </trkpt>
      <trkpt lat="45.30312" lon="5.11283">
        <ele>428.15218148738</ele>
        <time>2014-06-01T11:10:29Z</time>
      </trkpt>
      <trkpt lat="45.30306" lon="5.11279">
        <ele>429.06413799115</ele>
        <time>2014-06-01T11:10:34Z</time>
      </trkpt>
      <trkpt lat="45.303" lon="5.11274">
        <ele>429.06413799115</ele>
        <time>2014-06-01T11:10:39Z</time>
      </trkpt>
      <trkpt lat="45.30294" lon="5.11268">
        <ele>429.9788038045</ele>
        <time>2014-06-01T11:10:44Z</time>
      </trkpt>
      <trkpt lat="45.30288" lon="5.11263">
        <ele>429.9788038045</ele>
        <time>2014-06-01T11:10:49Z</time>
      </trkpt>
      <trkpt lat="45.3028" lon="5.11263">
        <ele>431.35241520083</ele>
        <time>2014-06-01T11:10:54Z</time>
      </trkpt>
      <trkpt lat="45.30273" lon="5.11264">
        <ele>431.35241520083</ele>
        <time>2014-06-01T11:10:59Z</time>
      </trkpt>
      <trkpt lat="45.30265" lon="5.11263">
        <ele>433.08766374019</ele>
        <time>2014-06-01T11:11:04Z</time>
      </trkpt>
      <trkpt lat="45.30245" lon="5.11265">
        <ele>434.92051245633</ele>
        <time>2014-06-01T11:11:09Z</time>
      </trkpt>
      <trkpt lat="45.3022" lon="5.11265">
        <ele>436.85112079109</ele>
        <time>2014-06-01T11:11:14Z</time>
      </trkpt>
      <trkpt lat="45.30205" lon="5.11265">
        <ele>438.64888376954</ele>
        <time>2014-06-01T11:11:19Z</time>
      </trkpt>
      <trkpt lat="45.30197" lon="5.11264">
        <ele>438.64888376954</ele>
        <time>2014-06-01T11:11:24Z</time>
      </trkpt>
      <trkpt lat="45.3019" lon="5.11264">
        <ele>440.48972233532</ele>
        <time>2014-06-01T11:11:29Z</time>
      </trkpt>
      <trkpt lat="45.30181" lon="5.11263">
        <ele>442.08989382121</ele>
        <time>2014-06-01T11:11:34Z</time>
      </trkpt>
      <trkpt lat="45.30174" lon="5.11261">
        <ele>442.08989382121</ele>
        <time>2014-06-01T11:11:39Z</time>
      </trkpt>
      <trkpt lat="45.30172" lon="5.11259">
        <ele>443.43229795045</ele>
        <time>2014-06-01T11:11:44Z</time>
      </trkpt>
      <trkpt lat="45.30173" lon="5.11259">
        <ele>443.43229795045</ele>
        <time>2014-06-01T11:11:49Z</time>
      </trkpt>
      <trkpt lat="45.30173" lon="5.11259">
        <ele>443.43229795045</ele>
        <time>2014-06-01T11:11:54Z</time>
      </trkpt>
      <trkpt lat="45.30173" lon="5.11259">
        <ele>443.43229795045</ele>
        <time>2014-06-01T11:11:59Z</time>
      </trkpt>
      <trkpt lat="45.30173" lon="5.11259">
        <ele>443.43229795045</ele>
        <time>2014-06-01T11:12:04Z</time>
      </trkpt>
      <trkpt lat="45.30173" lon="5.11259">
        <ele>443.43229795045</ele>
        <time>2014-06-01T11:12:09Z</time>
      </trkpt>
      <trkpt lat="45.30173" lon="5.11259">
        <ele>443.43229795045</ele>
        <time>2014-06-01T11:12:14Z</time>
      </trkpt>
      <trkpt lat="45.30173" lon="5.11259">
        <ele>443.43229795045</ele>
        <time>2014-06-01T11:12:19Z</time>
      </trkpt>
      <trkpt lat="45.30173" lon="5.11259">
        <ele>443.43229795045</ele>
        <time>2014-06-01T11:12:24Z</time>
      </trkpt>
      <trkpt lat="45.30172" lon="5.11258">
        <ele>443.43229795045</ele>
        <time>2014-06-01T11:12:29Z</time>
      </trkpt>
      <trkpt lat="45.30166" lon="5.11257">
        <ele>443.43229795045</ele>
        <time>2014-06-01T11:12:34Z</time>
      </trkpt>
      <trkpt lat="45.30159" lon="5.11254">
        <ele>444.63165594395</ele>
        <time>2014-06-01T11:12:39Z</time>
      </trkpt>
      <trkpt lat="45.30152" lon="5.11253">
        <ele>444.63165594395</ele>
        <time>2014-06-01T11:12:44Z</time>
      </trkpt>
      <trkpt lat="45.30144" lon="5.11252">
        <ele>445.33365383581</ele>
        <time>2014-06-01T11:12:49Z</time>
      </trkpt>
      <trkpt lat="45.30137" lon="5.11249">
        <ele>445.33365383581</ele>
        <time>2014-06-01T11:12:54Z</time>
      </trkpt>
      <trkpt lat="45.30131" lon="5.11247">
        <ele>446.49413925884</ele>
        <time>2014-06-01T11:12:59Z</time>
      </trkpt>
      <trkpt lat="45.30123" lon="5.11244">
        <ele>446.49413925884</ele>
        <time>2014-06-01T11:13:04Z</time>
      </trkpt>
      <trkpt lat="45.30114" lon="5.11242">
        <ele>447.12416180808</ele>
        <time>2014-06-01T11:13:09Z</time>
      </trkpt>
      <trkpt lat="45.3011" lon="5.11238">
        <ele>447.12416180808</ele>
        <time>2014-06-01T11:13:14Z</time>
      </trkpt>
      <trkpt lat="45.30106" lon="5.11229">
        <ele>447.53399939228</ele>
        <time>2014-06-01T11:13:19Z</time>
      </trkpt>
      <trkpt lat="45.30105" lon="5.11218">
        <ele>447.53399939228</ele>
        <time>2014-06-01T11:13:24Z</time>
      </trkpt>
      <trkpt lat="45.30106" lon="5.11209">
        <ele>447.85337670033</ele>
        <time>2014-06-01T11:13:30Z</time>
      </trkpt>
      <trkpt lat="45.30108" lon="5.11201">
        <ele>447.85337670033</ele>
        <time>2014-06-01T11:13:34Z</time>
      </trkpt>
      <trkpt lat="45.30111" lon="5.11193">
        <ele>448.40463838352</ele>
        <time>2014-06-01T11:13:39Z</time>
      </trkpt>
      <trkpt lat="45.30109" lon="5.11191">
        <ele>448.40463838352</ele>
        <time>2014-06-01T11:13:44Z</time>
      </trkpt>
      <trkpt lat="45.3011" lon="5.11185">
        <ele>448.40463838352</ele>
        <time>2014-06-01T11:13:49Z</time>
      </trkpt>
      <trkpt lat="45.3011" lon="5.11175">
        <ele>448.46274396858</ele>
        <time>2014-06-01T11:13:54Z</time>
      </trkpt>
      <trkpt lat="45.30108" lon="5.11165">
        <ele>448.46274396858</ele>
        <time>2014-06-01T11:13:59Z</time>
      </trkpt>
      <trkpt lat="45.30106" lon="5.11158">
        <ele>448.68324765131</ele>
        <time>2014-06-01T11:14:04Z</time>
      </trkpt>
      <trkpt lat="45.30102" lon="5.11151">
        <ele>448.68324765131</ele>
        <time>2014-06-01T11:14:09Z</time>
      </trkpt>
      <trkpt lat="45.30098" lon="5.11147">
        <ele>448.60678890225</ele>
        <time>2014-06-01T11:14:14Z</time>
      </trkpt>
      <trkpt lat="45.30093" lon="5.11142">
        <ele>448.60678890225</ele>
        <time>2014-06-01T11:14:19Z</time>
      </trkpt>
      <trkpt lat="45.30088" lon="5.11139">
        <ele>448.28426327152</ele>
        <time>2014-06-01T11:14:24Z</time>
      </trkpt>
      <trkpt lat="45.30086" lon="5.11137">
        <ele>448.28426327152</ele>
        <time>2014-06-01T11:14:29Z</time>
      </trkpt>
      <trkpt lat="45.30085" lon="5.11138">
        <ele>448.28426327152</ele>
        <time>2014-06-01T11:14:34Z</time>
      </trkpt>
      <trkpt lat="45.30084" lon="5.11137">
        <ele>448.28426327152</ele>
        <time>2014-06-01T11:14:39Z</time>
      </trkpt>
      <trkpt lat="45.30079" lon="5.11135">
        <ele>448.08066513214</ele>
        <time>2014-06-01T11:14:44Z</time>
      </trkpt>
      <trkpt lat="45.30075" lon="5.11134">
        <ele>448.08066513214</ele>
        <time>2014-06-01T11:14:49Z</time>
      </trkpt>
      <trkpt lat="45.30069" lon="5.11135">
        <ele>447.23869028538</ele>
        <time>2014-06-01T11:14:54Z</time>
      </trkpt>
      <trkpt lat="45.30063" lon="5.11131">
        <ele>447.23869028538</ele>
        <time>2014-06-01T11:14:59Z</time>
      </trkpt>
      <trkpt lat="45.30058" lon="5.11132">
        <ele>445.24587968422</ele>
        <time>2014-06-01T11:15:04Z</time>
      </trkpt>
      <trkpt lat="45.30053" lon="5.11135">
        <ele>445.24587968422</ele>
        <time>2014-06-01T11:15:09Z</time>
      </trkpt>
      <trkpt lat="45.30049" lon="5.11136">
        <ele>445.24587968422</ele>
        <time>2014-06-01T11:15:14Z</time>
      </trkpt>
      <trkpt lat="45.30045" lon="5.11137">
        <ele>442.36567606536</ele>
        <time>2014-06-01T11:15:19Z</time>
      </trkpt>
      <trkpt lat="45.3004" lon="5.11142">
        <ele>442.36567606536</ele>
        <time>2014-06-01T11:15:24Z</time>
      </trkpt>
      <trkpt lat="45.30038" lon="5.11148">
        <ele>439.60848931225</ele>
        <time>2014-06-01T11:15:29Z</time>
      </trkpt>
      <trkpt lat="45.30037" lon="5.11154">
        <ele>439.60848931225</ele>
        <time>2014-06-01T11:15:34Z</time>
      </trkpt>
      <trkpt lat="45.30036" lon="5.1116">
        <ele>435.76291880831</ele>
        <time>2014-06-01T11:15:39Z</time>
      </trkpt>
      <trkpt lat="45.30034" lon="5.1117">
        <ele>435.76291880831</ele>
        <time>2014-06-01T11:15:44Z</time>
      </trkpt>
      <trkpt lat="45.30032" lon="5.1118">
        <ele>432.60622825761</ele>
        <time>2014-06-01T11:15:49Z</time>
      </trkpt>
      <trkpt lat="45.30028" lon="5.11191">
        <ele>432.60622825761</ele>
        <time>2014-06-01T11:15:54Z</time>
      </trkpt>
      <trkpt lat="45.30026" lon="5.11202">
        <ele>429.44855166779</ele>
        <time>2014-06-01T11:15:59Z</time>
      </trkpt>
      <trkpt lat="45.30023" lon="5.11213">
        <ele>429.44855166779</ele>
        <time>2014-06-01T11:16:04Z</time>
      </trkpt>
      <trkpt lat="45.30019" lon="5.11224">
        <ele>426.57294960114</ele>
        <time>2014-06-01T11:16:09Z</time>
      </trkpt>
      <trkpt lat="45.30016" lon="5.11235">
        <ele>426.57294960114</ele>
        <time>2014-06-01T11:16:14Z</time>
      </trkpt>
      <trkpt lat="45.30013" lon="5.11244">
        <ele>423.57789856284</ele>
        <time>2014-06-01T11:16:19Z</time>
      </trkpt>
      <trkpt lat="45.30009" lon="5.11252">
        <ele>423.57789856284</ele>
        <time>2014-06-01T11:16:24Z</time>
      </trkpt>
      <trkpt lat="45.30007" lon="5.11259">
        <ele>420.86979898164</ele>
        <time>2014-06-01T11:16:29Z</time>
      </trkpt>
      <trkpt lat="45.30005" lon="5.11268">
        <ele>420.86979898164</ele>
        <time>2014-06-01T11:16:34Z</time>
      </trkpt>
      <trkpt lat="45.30003" lon="5.11277">
        <ele>417.51285574884</ele>
        <time>2014-06-01T11:16:39Z</time>
      </trkpt>
      <trkpt lat="45.30004" lon="5.11279">
        <ele>417.51285574884</ele>
        <time>2014-06-01T11:16:44Z</time>
      </trkpt>
      <trkpt lat="45.30004" lon="5.11279">
        <ele>417.51285574884</ele>
        <time>2014-06-01T11:16:49Z</time>
      </trkpt>
      <trkpt lat="45.30004" lon="5.1128">
        <ele>417.51285574884</ele>
        <time>2014-06-01T11:16:54Z</time>
      </trkpt>
      <trkpt lat="45.30003" lon="5.11277">
        <ele>417.51285574884</ele>
        <time>2014-06-01T11:16:59Z</time>
      </trkpt>
      <trkpt lat="45.30003" lon="5.11278">
        <ele>417.51285574884</ele>
        <time>2014-06-01T11:17:04Z</time>
      </trkpt>
      <trkpt lat="45.30003" lon="5.11276">
        <ele>417.51285574884</ele>
        <time>2014-06-01T11:17:09Z</time>
      </trkpt>
      <trkpt lat="45.30003" lon="5.11276">
        <ele>417.51285574884</ele>
        <time>2014-06-01T11:17:14Z</time>
      </trkpt>
      <trkpt lat="45.30003" lon="5.11276">
        <ele>417.51285574884</ele>
        <time>2014-06-01T11:17:19Z</time>
      </trkpt>
      <trkpt lat="45.30002" lon="5.11277">
        <ele>417.51285574884</ele>
        <time>2014-06-01T11:17:24Z</time>
      </trkpt>
      <trkpt lat="45.30002" lon="5.11277">
        <ele>417.51285574884</ele>
        <time>2014-06-01T11:17:29Z</time>
      </trkpt>
      <trkpt lat="45.30001" lon="5.11279">
        <ele>414.70248628942</ele>
        <time>2014-06-01T11:17:34Z</time>
      </trkpt>
      <trkpt lat="45.29995" lon="5.11283">
        <ele>414.70248628942</ele>
        <time>2014-06-01T11:17:39Z</time>
      </trkpt>
      <trkpt lat="45.2999" lon="5.11283">
        <ele>412.2908394049</ele>
        <time>2014-06-01T11:17:44Z</time>
      </trkpt>
      <trkpt lat="45.29985" lon="5.11281">
        <ele>412.2908394049</ele>
        <time>2014-06-01T11:17:49Z</time>
      </trkpt>
      <trkpt lat="45.29979" lon="5.11281">
        <ele>409.9090641158</ele>
        <time>2014-06-01T11:17:54Z</time>
      </trkpt>
      <trkpt lat="45.29971" lon="5.11284">
        <ele>409.9090641158</ele>
        <time>2014-06-01T11:17:59Z</time>
      </trkpt>
      <trkpt lat="45.29963" lon="5.11287">
        <ele>407.66189309816</ele>
        <time>2014-06-01T11:18:04Z</time>
      </trkpt>
      <trkpt lat="45.29956" lon="5.11289">
        <ele>407.66189309816</ele>
        <time>2014-06-01T11:18:09Z</time>
      </trkpt>
      <trkpt lat="45.29949" lon="5.11291">
        <ele>405.42964299935</ele>
        <time>2014-06-01T11:18:14Z</time>
      </trkpt>
      <trkpt lat="45.29942" lon="5.11292">
        <ele>405.42964299935</ele>
        <time>2014-06-01T11:18:19Z</time>
      </trkpt>
      <trkpt lat="45.29934" lon="5.11294">
        <ele>403.57676642208</ele>
        <time>2014-06-01T11:18:24Z</time>
      </trkpt>
      <trkpt lat="45.29927" lon="5.11296">
        <ele>403.57676642208</ele>
        <time>2014-06-01T11:18:29Z</time>
      </trkpt>
      <trkpt lat="45.29919" lon="5.11298">
        <ele>402.00736410865</ele>
        <time>2014-06-01T11:18:34Z</time>
      </trkpt>
      <trkpt lat="45.29917" lon="5.11298">
        <ele>402.00736410865</ele>
        <time>2014-06-01T11:18:39Z</time>
      </trkpt>
      <trkpt lat="45.29912" lon="5.11299">
        <ele>402.00736410865</ele>
        <time>2014-06-01T11:18:44Z</time>
      </trkpt>
      <trkpt lat="45.29906" lon="5.11302">
        <ele>400.83336221526</ele>
        <time>2014-06-01T11:18:49Z</time>
      </trkpt>
      <trkpt lat="45.29899" lon="5.11304">
        <ele>400.83336221526</ele>
        <time>2014-06-01T11:18:54Z</time>
      </trkpt>
      <trkpt lat="45.29892" lon="5.11306">
        <ele>399.8833693584</ele>
        <time>2014-06-01T11:18:59Z</time>
      </trkpt>
      <trkpt lat="45.29885" lon="5.11307">
        <ele>399.8833693584</ele>
        <time>2014-06-01T11:19:04Z</time>
      </trkpt>
      <trkpt lat="45.29878" lon="5.11308">
        <ele>399.15631063211</ele>
        <time>2014-06-01T11:19:09Z</time>
      </trkpt>
      <trkpt lat="45.29871" lon="5.11308">
        <ele>399.15631063211</ele>
        <time>2014-06-01T11:19:14Z</time>
      </trkpt>
      <trkpt lat="45.29864" lon="5.11306">
        <ele>398.82334032981</ele>
        <time>2014-06-01T11:19:19Z</time>
      </trkpt>
      <trkpt lat="45.29857" lon="5.11306">
        <ele>398.82334032981</ele>
        <time>2014-06-01T11:19:24Z</time>
      </trkpt>
      <trkpt lat="45.29851" lon="5.11305">
        <ele>398.75356630361</ele>
        <time>2014-06-01T11:19:29Z</time>
      </trkpt>
      <trkpt lat="45.29844" lon="5.11305">
        <ele>398.75356630361</ele>
        <time>2014-06-01T11:19:34Z</time>
      </trkpt>
      <trkpt lat="45.29837" lon="5.11305">
        <ele>398.9401305394</ele>
        <time>2014-06-01T11:19:39Z</time>
      </trkpt>
      <trkpt lat="45.2983" lon="5.11304">
        <ele>398.9401305394</ele>
        <time>2014-06-01T11:19:44Z</time>
      </trkpt>
      <trkpt lat="45.29823" lon="5.11305">
        <ele>399.51995510939</ele>
        <time>2014-06-01T11:19:49Z</time>
      </trkpt>
      <trkpt lat="45.29816" lon="5.11304">
        <ele>399.51995510939</ele>
        <time>2014-06-01T11:19:54Z</time>
      </trkpt>
      <trkpt lat="45.29809" lon="5.11304">
        <ele>400.44576930359</ele>
        <time>2014-06-01T11:19:59Z</time>
      </trkpt>
      <trkpt lat="45.29802" lon="5.11304">
        <ele>400.44576930359</ele>
        <time>2014-06-01T11:20:04Z</time>
      </trkpt>
      <trkpt lat="45.29795" lon="5.11301">
        <ele>401.51420318188</ele>
        <time>2014-06-01T11:20:09Z</time>
      </trkpt>
      <trkpt lat="45.29788" lon="5.11298">
        <ele>401.51420318188</ele>
        <time>2014-06-01T11:20:14Z</time>
      </trkpt>
      <trkpt lat="45.29781" lon="5.11296">
        <ele>402.9398791634</ele>
        <time>2014-06-01T11:20:19Z</time>
      </trkpt>
      <trkpt lat="45.29774" lon="5.11293">
        <ele>402.9398791634</ele>
        <time>2014-06-01T11:20:24Z</time>
      </trkpt>
      <trkpt lat="45.29768" lon="5.11291">
        <ele>404.57474794605</ele>
        <time>2014-06-01T11:20:29Z</time>
      </trkpt>
      <trkpt lat="45.29761" lon="5.11287">
        <ele>404.57474794605</ele>
        <time>2014-06-01T11:20:34Z</time>
      </trkpt>
      <trkpt lat="45.29754" lon="5.11285">
        <ele>405.90634449568</ele>
        <time>2014-06-01T11:20:39Z</time>
      </trkpt>
      <trkpt lat="45.29749" lon="5.1128">
        <ele>405.90634449568</ele>
        <time>2014-06-01T11:20:44Z</time>
      </trkpt>
      <trkpt lat="45.29743" lon="5.11278">
        <ele>407.38301678281</ele>
        <time>2014-06-01T11:20:49Z</time>
      </trkpt>
      <trkpt lat="45.29738" lon="5.11275">
        <ele>407.38301678281</ele>
        <time>2014-06-01T11:20:54Z</time>
      </trkpt>
      <trkpt lat="45.29734" lon="5.11272">
        <ele>409.43420764904</ele>
        <time>2014-06-01T11:20:59Z</time>
      </trkpt>
      <trkpt lat="45.2973" lon="5.11268">
        <ele>409.43420764904</ele>
        <time>2014-06-01T11:21:04Z</time>
      </trkpt>
      <trkpt lat="45.29725" lon="5.11264">
        <ele>411.17365762419</ele>
        <time>2014-06-01T11:21:09Z</time>
      </trkpt>
      <trkpt lat="45.29721" lon="5.11258">
        <ele>411.17365762419</ele>
        <time>2014-06-01T11:21:14Z</time>
      </trkpt>
      <trkpt lat="45.29716" lon="5.11252">
        <ele>413.26549517775</ele>
        <time>2014-06-01T11:21:19Z</time>
      </trkpt>
      <trkpt lat="45.29711" lon="5.11246">
        <ele>413.26549517775</ele>
        <time>2014-06-01T11:21:24Z</time>
      </trkpt>
      <trkpt lat="45.29704" lon="5.11242">
        <ele>415.50272309809</ele>
        <time>2014-06-01T11:21:29Z</time>
      </trkpt>
      <trkpt lat="45.29699" lon="5.11238">
        <ele>415.50272309809</ele>
        <time>2014-06-01T11:21:34Z</time>
      </trkpt>
      <trkpt lat="45.29693" lon="5.11234">
        <ele>417.82294351208</ele>
        <time>2014-06-01T11:21:39Z</time>
      </trkpt>
      <trkpt lat="45.29686" lon="5.11229">
        <ele>417.82294351208</ele>
        <time>2014-06-01T11:21:44Z</time>
      </trkpt>
      <trkpt lat="45.29679" lon="5.11227">
        <ele>419.96647200016</ele>
        <time>2014-06-01T11:21:49Z</time>
      </trkpt>
      <trkpt lat="45.29673" lon="5.11222">
        <ele>419.96647200016</ele>
        <time>2014-06-01T11:21:54Z</time>
      </trkpt>
      <trkpt lat="45.29667" lon="5.11217">
        <ele>422.1544860738</ele>
        <time>2014-06-01T11:21:59Z</time>
      </trkpt>
      <trkpt lat="45.29662" lon="5.11211">
        <ele>422.1544860738</ele>
        <time>2014-06-01T11:22:04Z</time>
      </trkpt>
      <trkpt lat="45.29656" lon="5.11202">
        <ele>425.19720801927</ele>
        <time>2014-06-01T11:22:09Z</time>
      </trkpt>
      <trkpt lat="45.2965" lon="5.11193">
        <ele>425.19720801927</ele>
        <time>2014-06-01T11:22:14Z</time>
      </trkpt>
      <trkpt lat="45.29645" lon="5.11185">
        <ele>428.61816525089</ele>
        <time>2014-06-01T11:22:19Z</time>
      </trkpt>
      <trkpt lat="45.29641" lon="5.11178">
        <ele>428.61816525089</ele>
        <time>2014-06-01T11:22:24Z</time>
      </trkpt>
      <trkpt lat="45.29637" lon="5.11167">
        <ele>431.67237399163</ele>
        <time>2014-06-01T11:22:29Z</time>
      </trkpt>
      <trkpt lat="45.29632" lon="5.11156">
        <ele>435.16956021921</ele>
        <time>2014-06-01T11:22:34Z</time>
      </trkpt>
      <trkpt lat="45.29627" lon="5.11149">
        <ele>435.16956021921</ele>
        <time>2014-06-01T11:22:39Z</time>
      </trkpt>
      <trkpt lat="45.29623" lon="5.11142">
        <ele>438.43223965756</ele>
        <time>2014-06-01T11:22:44Z</time>
      </trkpt>
      <trkpt lat="45.29619" lon="5.11136">
        <ele>438.43223965756</ele>
        <time>2014-06-01T11:22:49Z</time>
      </trkpt>
      <trkpt lat="45.29615" lon="5.11131">
        <ele>440.6318257237</ele>
        <time>2014-06-01T11:22:54Z</time>
      </trkpt>
      <trkpt lat="45.29611" lon="5.11128">
        <ele>440.6318257237</ele>
        <time>2014-06-01T11:22:59Z</time>
      </trkpt>
      <trkpt lat="45.29607" lon="5.11123">
        <ele>441.96936249459</ele>
        <time>2014-06-01T11:23:04Z</time>
      </trkpt>
      <trkpt lat="45.29603" lon="5.11114">
        <ele>441.96936249459</ele>
        <time>2014-06-01T11:23:09Z</time>
      </trkpt>
      <trkpt lat="45.29597" lon="5.11104">
        <ele>444.36311932763</ele>
        <time>2014-06-01T11:23:14Z</time>
      </trkpt>
      <trkpt lat="45.2959" lon="5.11098">
        <ele>444.36311932763</ele>
        <time>2014-06-01T11:23:19Z</time>
      </trkpt>
      <trkpt lat="45.29583" lon="5.11092">
        <ele>446.96490786792</ele>
        <time>2014-06-01T11:23:24Z</time>
      </trkpt>
      <trkpt lat="45.29575" lon="5.11086">
        <ele>446.96490786792</ele>
        <time>2014-06-01T11:23:29Z</time>
      </trkpt>
      <trkpt lat="45.29567" lon="5.11081">
        <ele>449.5937743153</ele>
        <time>2014-06-01T11:23:34Z</time>
      </trkpt>
      <trkpt lat="45.29559" lon="5.11079">
        <ele>449.5937743153</ele>
        <time>2014-06-01T11:23:39Z</time>
      </trkpt>
      <trkpt lat="45.29551" lon="5.11077">
        <ele>452.0678151045</ele>
        <time>2014-06-01T11:23:44Z</time>
      </trkpt>
      <trkpt lat="45.29544" lon="5.11077">
        <ele>452.0678151045</ele>
        <time>2014-06-01T11:23:49Z</time>
      </trkpt>
      <trkpt lat="45.29536" lon="5.11074">
        <ele>454.30563600088</ele>
        <time>2014-06-01T11:23:54Z</time>
      </trkpt>
      <trkpt lat="45.2953" lon="5.11069">
        <ele>454.30563600088</ele>
        <time>2014-06-01T11:23:59Z</time>
      </trkpt>
      <trkpt lat="45.29522" lon="5.11068">
        <ele>456.66506417149</ele>
        <time>2014-06-01T11:24:04Z</time>
      </trkpt>
      <trkpt lat="45.29514" lon="5.11067">
        <ele>456.66506417149</ele>
        <time>2014-06-01T11:24:09Z</time>
      </trkpt>
      <trkpt lat="45.29506" lon="5.11068">
        <ele>458.8434554126</ele>
        <time>2014-06-01T11:24:14Z</time>
      </trkpt>
      <trkpt lat="45.29499" lon="5.11069">
        <ele>458.8434554126</ele>
        <time>2014-06-01T11:24:19Z</time>
      </trkpt>
      <trkpt lat="45.29492" lon="5.11069">
        <ele>460.74849147612</ele>
        <time>2014-06-01T11:24:24Z</time>
      </trkpt>
      <trkpt lat="45.29485" lon="5.11069">
        <ele>460.74849147612</ele>
        <time>2014-06-01T11:24:29Z</time>
      </trkpt>
      <trkpt lat="45.29478" lon="5.1107">
        <ele>462.68473984122</ele>
        <time>2014-06-01T11:24:34Z</time>
      </trkpt>
      <trkpt lat="45.29471" lon="5.11071">
        <ele>462.68473984122</ele>
        <time>2014-06-01T11:24:39Z</time>
      </trkpt>
      <trkpt lat="45.29464" lon="5.11071">
        <ele>464.51661608972</ele>
        <time>2014-06-01T11:24:44Z</time>
      </trkpt>
      <trkpt lat="45.29457" lon="5.11071">
        <ele>464.51661608972</ele>
        <time>2014-06-01T11:24:49Z</time>
      </trkpt>
      <trkpt lat="45.2945" lon="5.11071">
        <ele>466.16224613818</ele>
        <time>2014-06-01T11:24:54Z</time>
      </trkpt>
      <trkpt lat="45.29444" lon="5.11072">
        <ele>466.16224613818</ele>
        <time>2014-06-01T11:24:59Z</time>
      </trkpt>
      <trkpt lat="45.29437" lon="5.11072">
        <ele>467.64738651562</ele>
        <time>2014-06-01T11:25:04Z</time>
      </trkpt>
      <trkpt lat="45.29431" lon="5.11073">
        <ele>467.64738651562</ele>
        <time>2014-06-01T11:25:09Z</time>
      </trkpt>
      <trkpt lat="45.29424" lon="5.11073">
        <ele>468.89568046053</ele>
        <time>2014-06-01T11:25:14Z</time>
      </trkpt>
      <trkpt lat="45.29418" lon="5.11071">
        <ele>468.89568046053</ele>
        <time>2014-06-01T11:25:19Z</time>
      </trkpt>
      <trkpt lat="45.29412" lon="5.11066">
        <ele>469.80841771417</ele>
        <time>2014-06-01T11:25:24Z</time>
      </trkpt>
      <trkpt lat="45.29409" lon="5.11058">
        <ele>469.80841771417</ele>
        <time>2014-06-01T11:25:29Z</time>
      </trkpt>
      <trkpt lat="45.29404" lon="5.1105">
        <ele>470.54025198413</ele>
        <time>2014-06-01T11:25:34Z</time>
      </trkpt>
      <trkpt lat="45.294" lon="5.11042">
        <ele>470.54025198413</ele>
        <time>2014-06-01T11:25:39Z</time>
      </trkpt>
      <trkpt lat="45.29396" lon="5.11034">
        <ele>470.91810701938</ele>
        <time>2014-06-01T11:25:44Z</time>
      </trkpt>
      <trkpt lat="45.29391" lon="5.11027">
        <ele>470.91810701938</ele>
        <time>2014-06-01T11:25:49Z</time>
      </trkpt>
      <trkpt lat="45.29386" lon="5.11021">
        <ele>470.88364286237</ele>
        <time>2014-06-01T11:25:54Z</time>
      </trkpt>
      <trkpt lat="45.29381" lon="5.11015">
        <ele>470.88364286237</ele>
        <time>2014-06-01T11:25:59Z</time>
      </trkpt>
      <trkpt lat="45.29375" lon="5.11008">
        <ele>470.74437315886</ele>
        <time>2014-06-01T11:26:04Z</time>
      </trkpt>
      <trkpt lat="45.29369" lon="5.11001">
        <ele>470.74437315886</ele>
        <time>2014-06-01T11:26:09Z</time>
      </trkpt>
      <trkpt lat="45.29364" lon="5.10993">
        <ele>470.84327510324</ele>
        <time>2014-06-01T11:26:14Z</time>
      </trkpt>
      <trkpt lat="45.29359" lon="5.10987">
        <ele>470.84327510324</ele>
        <time>2014-06-01T11:26:19Z</time>
      </trkpt>
      <trkpt lat="45.29354" lon="5.1098">
        <ele>470.76259174681</ele>
        <time>2014-06-01T11:26:24Z</time>
      </trkpt>
      <trkpt lat="45.29348" lon="5.10974">
        <ele>470.76259174681</ele>
        <time>2014-06-01T11:26:29Z</time>
      </trkpt>
      <trkpt lat="45.29342" lon="5.1097">
        <ele>470.47611316592</ele>
        <time>2014-06-01T11:26:34Z</time>
      </trkpt>
      <trkpt lat="45.29337" lon="5.10963">
        <ele>470.47611316592</ele>
        <time>2014-06-01T11:26:39Z</time>
      </trkpt>
      <trkpt lat="45.29333" lon="5.10955">
        <ele>470.06106901941</ele>
        <time>2014-06-01T11:26:44Z</time>
      </trkpt>
      <trkpt lat="45.29328" lon="5.10947">
        <ele>470.06106901941</ele>
        <time>2014-06-01T11:26:49Z</time>
      </trkpt>
      <trkpt lat="45.29323" lon="5.1094">
        <ele>469.69029587524</ele>
        <time>2014-06-01T11:26:54Z</time>
      </trkpt>
      <trkpt lat="45.29317" lon="5.10935">
        <ele>469.69029587524</ele>
        <time>2014-06-01T11:26:59Z</time>
      </trkpt>
      <trkpt lat="45.29312" lon="5.10931">
        <ele>468.44299896798</ele>
        <time>2014-06-01T11:27:04Z</time>
      </trkpt>
      <trkpt lat="45.29305" lon="5.10929">
        <ele>468.44299896798</ele>
        <time>2014-06-01T11:27:09Z</time>
      </trkpt>
      <trkpt lat="45.293" lon="5.10925">
        <ele>466.70784288208</ele>
        <time>2014-06-01T11:27:14Z</time>
      </trkpt>
      <trkpt lat="45.29295" lon="5.10919">
        <ele>466.70784288208</ele>
        <time>2014-06-01T11:27:19Z</time>
      </trkpt>
      <trkpt lat="45.29288" lon="5.10914">
        <ele>464.80305867775</ele>
        <time>2014-06-01T11:27:24Z</time>
      </trkpt>
      <trkpt lat="45.29282" lon="5.10911">
        <ele>464.80305867775</ele>
        <time>2014-06-01T11:27:29Z</time>
      </trkpt>
      <trkpt lat="45.29278" lon="5.10906">
        <ele>462.80776928866</ele>
        <time>2014-06-01T11:27:34Z</time>
      </trkpt>
      <trkpt lat="45.29271" lon="5.10901">
        <ele>462.80776928866</ele>
        <time>2014-06-01T11:27:39Z</time>
      </trkpt>
      <trkpt lat="45.29266" lon="5.10889">
        <ele>461.67455539183</ele>
        <time>2014-06-01T11:27:44Z</time>
      </trkpt>
      <trkpt lat="45.29262" lon="5.10879">
        <ele>461.67455539183</ele>
        <time>2014-06-01T11:27:49Z</time>
      </trkpt>
      <trkpt lat="45.29259" lon="5.10872">
        <ele>460.17949771193</ele>
        <time>2014-06-01T11:27:54Z</time>
      </trkpt>
      <trkpt lat="45.29256" lon="5.10865">
        <ele>460.17949771193</ele>
        <time>2014-06-01T11:27:59Z</time>
      </trkpt>
      <trkpt lat="45.29253" lon="5.10855">
        <ele>458.73148958762</ele>
        <time>2014-06-01T11:28:04Z</time>
      </trkpt>
      <trkpt lat="45.2925" lon="5.10844">
        <ele>458.73148958762</ele>
        <time>2014-06-01T11:28:09Z</time>
      </trkpt>
      <trkpt lat="45.29246" lon="5.10835">
        <ele>457.03181681623</ele>
        <time>2014-06-01T11:28:14Z</time>
      </trkpt>
      <trkpt lat="45.29242" lon="5.10827">
        <ele>457.03181681623</ele>
        <time>2014-06-01T11:28:19Z</time>
      </trkpt>
      <trkpt lat="45.2924" lon="5.10816">
        <ele>456.13010875613</ele>
        <time>2014-06-01T11:28:24Z</time>
      </trkpt>
      <trkpt lat="45.29238" lon="5.10805">
        <ele>456.13010875613</ele>
        <time>2014-06-01T11:28:29Z</time>
      </trkpt>
      <trkpt lat="45.29238" lon="5.10795">
        <ele>455.13747731511</ele>
        <time>2014-06-01T11:28:34Z</time>
      </trkpt>
      <trkpt lat="45.29237" lon="5.10784">
        <ele>455.13747731511</ele>
        <time>2014-06-01T11:28:39Z</time>
      </trkpt>
      <trkpt lat="45.29236" lon="5.10774">
        <ele>454.51302813752</ele>
        <time>2014-06-01T11:28:44Z</time>
      </trkpt>
      <trkpt lat="45.29233" lon="5.10768">
        <ele>454.51302813752</ele>
        <time>2014-06-01T11:28:49Z</time>
      </trkpt>
      <trkpt lat="45.29229" lon="5.10762">
        <ele>453.97481034127</ele>
        <time>2014-06-01T11:28:54Z</time>
      </trkpt>
      <trkpt lat="45.29224" lon="5.10756">
        <ele>453.97481034127</ele>
        <time>2014-06-01T11:28:59Z</time>
      </trkpt>
      <trkpt lat="45.29219" lon="5.10748">
        <ele>453.5205872533</ele>
        <time>2014-06-01T11:29:04Z</time>
      </trkpt>
      <trkpt lat="45.29216" lon="5.1074">
        <ele>453.5205872533</ele>
        <time>2014-06-01T11:29:09Z</time>
      </trkpt>
      <trkpt lat="45.29212" lon="5.10731">
        <ele>453.16230518557</ele>
        <time>2014-06-01T11:29:14Z</time>
      </trkpt>
      <trkpt lat="45.2921" lon="5.10721">
        <ele>453.16230518557</ele>
        <time>2014-06-01T11:29:19Z</time>
      </trkpt>
      <trkpt lat="45.29206" lon="5.10712">
        <ele>452.85296319102</ele>
        <time>2014-06-01T11:29:24Z</time>
      </trkpt>
      <trkpt lat="45.29202" lon="5.10704">
        <ele>452.85296319102</ele>
        <time>2014-06-01T11:29:29Z</time>
      </trkpt>
      <trkpt lat="45.292" lon="5.10693">
        <ele>452.7504772958</ele>
        <time>2014-06-01T11:29:34Z</time>
      </trkpt>
      <trkpt lat="45.29201" lon="5.10687">
        <ele>452.7504772958</ele>
        <time>2014-06-01T11:29:39Z</time>
      </trkpt>
      <trkpt lat="45.29207" lon="5.10681">
        <ele>452.55368704797</ele>
        <time>2014-06-01T11:29:44Z</time>
      </trkpt>
      <trkpt lat="45.29214" lon="5.10678">
        <ele>452.55368704797</ele>
        <time>2014-06-01T11:29:49Z</time>
      </trkpt>
      <trkpt lat="45.29216" lon="5.10679">
        <ele>452.55368704797</ele>
        <time>2014-06-01T11:29:54Z</time>
      </trkpt>
      <trkpt lat="45.29216" lon="5.10678">
        <ele>452.30071657866</ele>
        <time>2014-06-01T11:29:59Z</time>
      </trkpt>
      <trkpt lat="45.29216" lon="5.10677">
        <ele>452.30071657866</ele>
        <time>2014-06-01T11:30:04Z</time>
      </trkpt>
      <trkpt lat="45.29219" lon="5.10676">
        <ele>452.30071657866</ele>
        <time>2014-06-01T11:30:09Z</time>
      </trkpt>
      <trkpt lat="45.29219" lon="5.10676">
        <ele>452.30071657866</ele>
        <time>2014-06-01T11:30:14Z</time>
      </trkpt>
      <trkpt lat="45.29219" lon="5.10676">
        <ele>452.30071657866</ele>
        <time>2014-06-01T11:30:19Z</time>
      </trkpt>
      <trkpt lat="45.29216" lon="5.10678">
        <ele>452.30071657866</ele>
        <time>2014-06-01T11:30:24Z</time>
      </trkpt>
      <trkpt lat="45.29209" lon="5.10681">
        <ele>452.25748160353</ele>
        <time>2014-06-01T11:30:29Z</time>
      </trkpt>
      <trkpt lat="45.29203" lon="5.10685">
        <ele>452.25748160353</ele>
        <time>2014-06-01T11:30:34Z</time>
      </trkpt>
      <trkpt lat="45.29196" lon="5.10683">
        <ele>451.9923139417</ele>
        <time>2014-06-01T11:30:39Z</time>
      </trkpt>
      <trkpt lat="45.29192" lon="5.10676">
        <ele>451.9923139417</ele>
        <time>2014-06-01T11:30:44Z</time>
      </trkpt>
      <trkpt lat="45.29188" lon="5.1067">
        <ele>451.23544251696</ele>
        <time>2014-06-01T11:30:49Z</time>
      </trkpt>
      <trkpt lat="45.29184" lon="5.10661">
        <ele>451.23544251696</ele>
        <time>2014-06-01T11:30:54Z</time>
      </trkpt>
      <trkpt lat="45.2918" lon="5.10652">
        <ele>450.68929407983</ele>
        <time>2014-06-01T11:30:59Z</time>
      </trkpt>
      <trkpt lat="45.29177" lon="5.10643">
        <ele>450.68929407983</ele>
        <time>2014-06-01T11:31:04Z</time>
      </trkpt>
      <trkpt lat="45.29174" lon="5.10632">
        <ele>450.34106331742</ele>
        <time>2014-06-01T11:31:09Z</time>
      </trkpt>
      <trkpt lat="45.29171" lon="5.10623">
        <ele>450.34106331742</ele>
        <time>2014-06-01T11:31:14Z</time>
      </trkpt>
      <trkpt lat="45.29167" lon="5.10615">
        <ele>450.14938107655</ele>
        <time>2014-06-01T11:31:19Z</time>
      </trkpt>
      <trkpt lat="45.29163" lon="5.10605">
        <ele>450.14938107655</ele>
        <time>2014-06-01T11:31:24Z</time>
      </trkpt>
      <trkpt lat="45.2916" lon="5.10596">
        <ele>449.68625350432</ele>
        <time>2014-06-01T11:31:29Z</time>
      </trkpt>
      <trkpt lat="45.29158" lon="5.10585">
        <ele>449.68625350432</ele>
        <time>2014-06-01T11:31:34Z</time>
      </trkpt>
      <trkpt lat="45.29158" lon="5.10574">
        <ele>449.18985667342</ele>
        <time>2014-06-01T11:31:39Z</time>
      </trkpt>
      <trkpt lat="45.29157" lon="5.10563">
        <ele>449.18985667342</ele>
        <time>2014-06-01T11:31:44Z</time>
      </trkpt>
      <trkpt lat="45.29156" lon="5.10552">
        <ele>448.75114644446</ele>
        <time>2014-06-01T11:31:49Z</time>
      </trkpt>
      <trkpt lat="45.29155" lon="5.10542">
        <ele>448.75114644446</ele>
        <time>2014-06-01T11:31:54Z</time>
      </trkpt>
      <trkpt lat="45.29154" lon="5.10532">
        <ele>448.36765487122</ele>
        <time>2014-06-01T11:31:59Z</time>
      </trkpt>
      <trkpt lat="45.29153" lon="5.10521">
        <ele>448.36765487122</ele>
        <time>2014-06-01T11:32:04Z</time>
      </trkpt>
      <trkpt lat="45.29153" lon="5.10511">
        <ele>448.16653038641</ele>
        <time>2014-06-01T11:32:09Z</time>
      </trkpt>
      <trkpt lat="45.29151" lon="5.105">
        <ele>448.16653038641</ele>
        <time>2014-06-01T11:32:14Z</time>
      </trkpt>
      <trkpt lat="45.29148" lon="5.10489">
        <ele>447.97674134398</ele>
        <time>2014-06-01T11:32:19Z</time>
      </trkpt>
      <trkpt lat="45.29146" lon="5.10479">
        <ele>447.97674134398</ele>
        <time>2014-06-01T11:32:24Z</time>
      </trkpt>
      <trkpt lat="45.29144" lon="5.10469">
        <ele>447.42351963718</ele>
        <time>2014-06-01T11:32:29Z</time>
      </trkpt>
      <trkpt lat="45.29143" lon="5.1046">
        <ele>447.42351963718</ele>
        <time>2014-06-01T11:32:34Z</time>
      </trkpt>
      <trkpt lat="45.2914" lon="5.1045">
        <ele>446.63611566298</ele>
        <time>2014-06-01T11:32:39Z</time>
      </trkpt>
      <trkpt lat="45.29137" lon="5.1044">
        <ele>446.63611566298</ele>
        <time>2014-06-01T11:32:44Z</time>
      </trkpt>
      <trkpt lat="45.29134" lon="5.1043">
        <ele>445.87895809806</ele>
        <time>2014-06-01T11:32:49Z</time>
      </trkpt>
      <trkpt lat="45.29131" lon="5.10422">
        <ele>445.87895809806</ele>
        <time>2014-06-01T11:32:54Z</time>
      </trkpt>
      <trkpt lat="45.29127" lon="5.10413">
        <ele>444.79160520203</ele>
        <time>2014-06-01T11:32:59Z</time>
      </trkpt>
      <trkpt lat="45.29125" lon="5.10403">
        <ele>444.79160520203</ele>
        <time>2014-06-01T11:33:04Z</time>
      </trkpt>
      <trkpt lat="45.29121" lon="5.10394">
        <ele>443.50208098825</ele>
        <time>2014-06-01T11:33:09Z</time>
      </trkpt>
      <trkpt lat="45.29118" lon="5.10384">
        <ele>443.50208098825</ele>
        <time>2014-06-01T11:33:14Z</time>
      </trkpt>
      <trkpt lat="45.29115" lon="5.10375">
        <ele>442.50416635157</ele>
        <time>2014-06-01T11:33:19Z</time>
      </trkpt>
      <trkpt lat="45.29111" lon="5.10366">
        <ele>442.50416635157</ele>
        <time>2014-06-01T11:33:24Z</time>
      </trkpt>
      <trkpt lat="45.29108" lon="5.10358">
        <ele>441.6347778285</ele>
        <time>2014-06-01T11:33:29Z</time>
      </trkpt>
      <trkpt lat="45.29105" lon="5.10348">
        <ele>441.6347778285</ele>
        <time>2014-06-01T11:33:34Z</time>
      </trkpt>
      <trkpt lat="45.29103" lon="5.10339">
        <ele>441.03057833298</ele>
        <time>2014-06-01T11:33:39Z</time>
      </trkpt>
      <trkpt lat="45.29102" lon="5.10329">
        <ele>441.03057833298</ele>
        <time>2014-06-01T11:33:44Z</time>
      </trkpt>
      <trkpt lat="45.29102" lon="5.10319">
        <ele>440.70206503116</ele>
        <time>2014-06-01T11:33:49Z</time>
      </trkpt>
      <trkpt lat="45.29102" lon="5.10309">
        <ele>440.70206503116</ele>
        <time>2014-06-01T11:33:54Z</time>
      </trkpt>
      <trkpt lat="45.291" lon="5.10299">
        <ele>440.00959944056</ele>
        <time>2014-06-01T11:33:59Z</time>
      </trkpt>
      <trkpt lat="45.29099" lon="5.10288">
        <ele>440.00959944056</ele>
        <time>2014-06-01T11:34:04Z</time>
      </trkpt>
      <trkpt lat="45.29097" lon="5.10276">
        <ele>439.38465368103</ele>
        <time>2014-06-01T11:34:09Z</time>
      </trkpt>
      <trkpt lat="45.29095" lon="5.10264">
        <ele>439.38465368103</ele>
        <time>2014-06-01T11:34:14Z</time>
      </trkpt>
      <trkpt lat="45.29093" lon="5.10252">
        <ele>439.41407727565</ele>
        <time>2014-06-01T11:34:19Z</time>
      </trkpt>
      <trkpt lat="45.2909" lon="5.10242">
        <ele>439.41407727565</ele>
        <time>2014-06-01T11:34:24Z</time>
      </trkpt>
      <trkpt lat="45.29087" lon="5.10231">
        <ele>439.67415365229</ele>
        <time>2014-06-01T11:34:29Z</time>
      </trkpt>
      <trkpt lat="45.29084" lon="5.10222">
        <ele>439.67415365229</ele>
        <time>2014-06-01T11:34:34Z</time>
      </trkpt>
      <trkpt lat="45.29081" lon="5.10213">
        <ele>440.11744343526</ele>
        <time>2014-06-01T11:34:39Z</time>
      </trkpt>
      <trkpt lat="45.29078" lon="5.10205">
        <ele>440.11744343526</ele>
        <time>2014-06-01T11:34:44Z</time>
      </trkpt>
      <trkpt lat="45.29074" lon="5.10196">
        <ele>440.6417744918</ele>
        <time>2014-06-01T11:34:49Z</time>
      </trkpt>
      <trkpt lat="45.29071" lon="5.10189">
        <ele>440.6417744918</ele>
        <time>2014-06-01T11:34:54Z</time>
      </trkpt>
      <trkpt lat="45.29068" lon="5.1018">
        <ele>441.00809285119</ele>
        <time>2014-06-01T11:34:59Z</time>
      </trkpt>
      <trkpt lat="45.29066" lon="5.10172">
        <ele>441.00809285119</ele>
        <time>2014-06-01T11:35:04Z</time>
      </trkpt>
      <trkpt lat="45.29063" lon="5.10163">
        <ele>441.29794341526</ele>
        <time>2014-06-01T11:35:09Z</time>
      </trkpt>
      <trkpt lat="45.29058" lon="5.10159">
        <ele>441.29794341526</ele>
        <time>2014-06-01T11:35:14Z</time>
      </trkpt>
      <trkpt lat="45.29059" lon="5.1016">
        <ele>441.29794341526</ele>
        <time>2014-06-01T11:35:19Z</time>
      </trkpt>
      <trkpt lat="45.29059" lon="5.10159">
        <ele>441.29794341526</ele>
        <time>2014-06-01T11:35:24Z</time>
      </trkpt>
      <trkpt lat="45.29061" lon="5.10155">
        <ele>441.61588856715</ele>
        <time>2014-06-01T11:35:29Z</time>
      </trkpt>
      <trkpt lat="45.29062" lon="5.10156">
        <ele>441.61588856715</ele>
        <time>2014-06-01T11:35:34Z</time>
      </trkpt>
      <trkpt lat="45.29063" lon="5.10155">
        <ele>441.61588856715</ele>
        <time>2014-06-01T11:35:39Z</time>
      </trkpt>
      <trkpt lat="45.29063" lon="5.10155">
        <ele>441.61588856715</ele>
        <time>2014-06-01T11:35:44Z</time>
      </trkpt>
      <trkpt lat="45.29062" lon="5.10153">
        <ele>441.61588856715</ele>
        <time>2014-06-01T11:35:49Z</time>
      </trkpt>
      <trkpt lat="45.29058" lon="5.10149">
        <ele>441.61588856715</ele>
        <time>2014-06-01T11:35:54Z</time>
      </trkpt>
      <trkpt lat="45.29052" lon="5.10146">
        <ele>442.44781142183</ele>
        <time>2014-06-01T11:35:59Z</time>
      </trkpt>
      <trkpt lat="45.29047" lon="5.10143">
        <ele>442.44781142183</ele>
        <time>2014-06-01T11:36:04Z</time>
      </trkpt>
      <trkpt lat="45.29041" lon="5.10139">
        <ele>443.42101685792</ele>
        <time>2014-06-01T11:36:09Z</time>
      </trkpt>
      <trkpt lat="45.29035" lon="5.10135">
        <ele>443.42101685792</ele>
        <time>2014-06-01T11:36:14Z</time>
      </trkpt>
      <trkpt lat="45.29029" lon="5.1013">
        <ele>444.63653635651</ele>
        <time>2014-06-01T11:36:19Z</time>
      </trkpt>
      <trkpt lat="45.29023" lon="5.10123">
        <ele>444.63653635651</ele>
        <time>2014-06-01T11:36:24Z</time>
      </trkpt>
      <trkpt lat="45.29015" lon="5.10111">
        <ele>446.02878959367</ele>
        <time>2014-06-01T11:36:29Z</time>
      </trkpt>
      <trkpt lat="45.28996" lon="5.10085">
        <ele>447.57977591501</ele>
        <time>2014-06-01T11:36:34Z</time>
      </trkpt>
      <trkpt lat="45.28978" lon="5.10059">
        <ele>449.20035372131</ele>
        <time>2014-06-01T11:36:39Z</time>
      </trkpt>
      <trkpt lat="45.28962" lon="5.10035">
        <ele>450.70690707033</ele>
        <time>2014-06-01T11:36:44Z</time>
      </trkpt>
      <trkpt lat="45.28941" lon="5.10007">
        <ele>451.92969033959</ele>
        <time>2014-06-01T11:36:49Z</time>
      </trkpt>
      <trkpt lat="45.28925" lon="5.09975">
        <ele>453.07257366185</ele>
        <time>2014-06-01T11:36:54Z</time>
      </trkpt>
      <trkpt lat="45.28919" lon="5.09967">
        <ele>453.07257366185</ele>
        <time>2014-06-01T11:36:59Z</time>
      </trkpt>
      <trkpt lat="45.28916" lon="5.09959">
        <ele>454.23828925371</ele>
        <time>2014-06-01T11:37:04Z</time>
      </trkpt>
      <trkpt lat="45.28913" lon="5.09952">
        <ele>454.23828925371</ele>
        <time>2014-06-01T11:37:09Z</time>
      </trkpt>
      <trkpt lat="45.28908" lon="5.09943">
        <ele>455.78144692004</ele>
        <time>2014-06-01T11:37:14Z</time>
      </trkpt>
      <trkpt lat="45.28903" lon="5.09935">
        <ele>455.78144692004</ele>
        <time>2014-06-01T11:37:19Z</time>
      </trkpt>
      <trkpt lat="45.28898" lon="5.09928">
        <ele>456.61735227515</ele>
        <time>2014-06-01T11:37:24Z</time>
      </trkpt>
      <trkpt lat="45.28893" lon="5.0992">
        <ele>456.61735227515</ele>
        <time>2014-06-01T11:37:29Z</time>
      </trkpt>
      <trkpt lat="45.28888" lon="5.09912">
        <ele>457.32829651</ele>
        <time>2014-06-01T11:37:34Z</time>
      </trkpt>
      <trkpt lat="45.28886" lon="5.09901">
        <ele>457.32829651</ele>
        <time>2014-06-01T11:37:39Z</time>
      </trkpt>
      <trkpt lat="45.28883" lon="5.09891">
        <ele>458.09396918336</ele>
        <time>2014-06-01T11:37:44Z</time>
      </trkpt>
      <trkpt lat="45.2888" lon="5.0988">
        <ele>458.09396918336</ele>
        <time>2014-06-01T11:37:49Z</time>
      </trkpt>
      <trkpt lat="45.28877" lon="5.09869">
        <ele>459.26815338022</ele>
        <time>2014-06-01T11:37:54Z</time>
      </trkpt>
      <trkpt lat="45.2887" lon="5.09845">
        <ele>460.50027846182</ele>
        <time>2014-06-01T11:37:59Z</time>
      </trkpt>
      <trkpt lat="45.28857" lon="5.09809">
        <ele>461.71045784736</ele>
        <time>2014-06-01T11:38:04Z</time>
      </trkpt>
      <trkpt lat="45.28844" lon="5.0977">
        <ele>462.8680751048</ele>
        <time>2014-06-01T11:38:09Z</time>
      </trkpt>
      <trkpt lat="45.28829" lon="5.09726">
        <ele>463.9017855637</ele>
        <time>2014-06-01T11:38:14Z</time>
      </trkpt>
      <trkpt lat="45.28815" lon="5.09687">
        <ele>464.73153128606</ele>
        <time>2014-06-01T11:38:19Z</time>
      </trkpt>
      <trkpt lat="45.28796" lon="5.09657">
        <ele>465.47116087367</ele>
        <time>2014-06-01T11:38:24Z</time>
      </trkpt>
      <trkpt lat="45.28781" lon="5.09634">
        <ele>465.89506344556</ele>
        <time>2014-06-01T11:38:29Z</time>
      </trkpt>
      <trkpt lat="45.28774" lon="5.09625">
        <ele>466.31399038704</ele>
        <time>2014-06-01T11:38:34Z</time>
      </trkpt>
      <trkpt lat="45.2877" lon="5.09618">
        <ele>466.31399038704</ele>
        <time>2014-06-01T11:38:39Z</time>
      </trkpt>
      <trkpt lat="45.28765" lon="5.0961">
        <ele>466.29542126283</ele>
        <time>2014-06-01T11:38:44Z</time>
      </trkpt>
      <trkpt lat="45.2876" lon="5.09605">
        <ele>466.29542126283</ele>
        <time>2014-06-01T11:38:49Z</time>
      </trkpt>
      <trkpt lat="45.28756" lon="5.09602">
        <ele>465.72814800924</ele>
        <time>2014-06-01T11:38:54Z</time>
      </trkpt>
      <trkpt lat="45.28754" lon="5.09599">
        <ele>465.72814800924</ele>
        <time>2014-06-01T11:38:59Z</time>
      </trkpt>
      <trkpt lat="45.28751" lon="5.09597">
        <ele>465.72814800924</ele>
        <time>2014-06-01T11:39:04Z</time>
      </trkpt>
      <trkpt lat="45.28744" lon="5.09591">
        <ele>464.61162861888</ele>
        <time>2014-06-01T11:39:09Z</time>
      </trkpt>
      <trkpt lat="45.2874" lon="5.09584">
        <ele>464.61162861888</ele>
        <time>2014-06-01T11:39:14Z</time>
      </trkpt>
      <trkpt lat="45.28734" lon="5.09581">
        <ele>462.774034179</ele>
        <time>2014-06-01T11:39:19Z</time>
      </trkpt>
      <trkpt lat="45.28728" lon="5.09578">
        <ele>462.774034179</ele>
        <time>2014-06-01T11:39:24Z</time>
      </trkpt>
      <trkpt lat="45.28724" lon="5.09571">
        <ele>460.53379635226</ele>
        <time>2014-06-01T11:39:29Z</time>
      </trkpt>
      <trkpt lat="45.28719" lon="5.09566">
        <ele>460.53379635226</ele>
        <time>2014-06-01T11:39:34Z</time>
      </trkpt>
      <trkpt lat="45.28714" lon="5.0956">
        <ele>459.05178118055</ele>
        <time>2014-06-01T11:39:39Z</time>
      </trkpt>
      <trkpt lat="45.28709" lon="5.09556">
        <ele>459.05178118055</ele>
        <time>2014-06-01T11:39:44Z</time>
      </trkpt>
      <trkpt lat="45.28703" lon="5.09552">
        <ele>458.07563947924</ele>
        <time>2014-06-01T11:39:49Z</time>
      </trkpt>
      <trkpt lat="45.28698" lon="5.09546">
        <ele>458.07563947924</ele>
        <time>2014-06-01T11:39:54Z</time>
      </trkpt>
      <trkpt lat="45.28694" lon="5.09541">
        <ele>456.89456750703</ele>
        <time>2014-06-01T11:39:59Z</time>
      </trkpt>
      <trkpt lat="45.28688" lon="5.09533">
        <ele>456.89456750703</ele>
        <time>2014-06-01T11:40:04Z</time>
      </trkpt>
      <trkpt lat="45.28683" lon="5.09525">
        <ele>456.52222253462</ele>
        <time>2014-06-01T11:40:09Z</time>
      </trkpt>
      <trkpt lat="45.28676" lon="5.09518">
        <ele>456.52222253462</ele>
        <time>2014-06-01T11:40:14Z</time>
      </trkpt>
      <trkpt lat="45.28672" lon="5.09516">
        <ele>456.64173661217</ele>
        <time>2014-06-01T11:40:19Z</time>
      </trkpt>
      <trkpt lat="45.28671" lon="5.09516">
        <ele>456.64173661217</ele>
        <time>2014-06-01T11:40:24Z</time>
      </trkpt>
      <trkpt lat="45.2867" lon="5.09514">
        <ele>456.64173661217</ele>
        <time>2014-06-01T11:40:29Z</time>
      </trkpt>
      <trkpt lat="45.28669" lon="5.0951">
        <ele>456.64173661217</ele>
        <time>2014-06-01T11:40:34Z</time>
      </trkpt>
      <trkpt lat="45.28666" lon="5.09506">
        <ele>456.88605210495</ele>
        <time>2014-06-01T11:40:39Z</time>
      </trkpt>
      <trkpt lat="45.28667" lon="5.09504">
        <ele>456.88605210495</ele>
        <time>2014-06-01T11:40:44Z</time>
      </trkpt>
      <trkpt lat="45.28667" lon="5.09502">
        <ele>456.88605210495</ele>
        <time>2014-06-01T11:40:49Z</time>
      </trkpt>
      <trkpt lat="45.28667" lon="5.09502">
        <ele>456.88605210495</ele>
        <time>2014-06-01T11:40:54Z</time>
      </trkpt>
      <trkpt lat="45.28667" lon="5.09502">
        <ele>456.88605210495</ele>
        <time>2014-06-01T11:40:59Z</time>
      </trkpt>
      <trkpt lat="45.28667" lon="5.09502">
        <ele>456.88605210495</ele>
        <time>2014-06-01T11:41:04Z</time>
      </trkpt>
      <trkpt lat="45.28667" lon="5.09502">
        <ele>456.88605210495</ele>
        <time>2014-06-01T11:41:09Z</time>
      </trkpt>
      <trkpt lat="45.28667" lon="5.09502">
        <ele>456.88605210495</ele>
        <time>2014-06-01T11:41:14Z</time>
      </trkpt>
      <trkpt lat="45.28667" lon="5.09502">
        <ele>456.88605210495</ele>
        <time>2014-06-01T11:41:19Z</time>
      </trkpt>
      <trkpt lat="45.28667" lon="5.09502">
        <ele>456.88605210495</ele>
        <time>2014-06-01T11:41:24Z</time>
      </trkpt>
      <trkpt lat="45.28667" lon="5.09502">
        <ele>456.88605210495</ele>
        <time>2014-06-01T11:41:29Z</time>
      </trkpt>
      <trkpt lat="45.28667" lon="5.09502">
        <ele>456.88605210495</ele>
        <time>2014-06-01T11:41:34Z</time>
      </trkpt>
      <trkpt lat="45.28667" lon="5.09502">
        <ele>456.88605210495</ele>
        <time>2014-06-01T11:41:39Z</time>
      </trkpt>
      <trkpt lat="45.28667" lon="5.09502">
        <ele>456.88605210495</ele>
        <time>2014-06-01T11:41:44Z</time>
      </trkpt>
      <trkpt lat="45.28667" lon="5.09502">
        <ele>456.88605210495</ele>
        <time>2014-06-01T11:41:49Z</time>
      </trkpt>
      <trkpt lat="45.28667" lon="5.09502">
        <ele>456.88605210495</ele>
        <time>2014-06-01T11:41:54Z</time>
      </trkpt>
      <trkpt lat="45.28667" lon="5.09502">
        <ele>456.88605210495</ele>
        <time>2014-06-01T11:41:59Z</time>
      </trkpt>
      <trkpt lat="45.28667" lon="5.09502">
        <ele>456.88605210495</ele>
        <time>2014-06-01T11:42:04Z</time>
      </trkpt>
      <trkpt lat="45.28667" lon="5.09502">
        <ele>456.88605210495</ele>
        <time>2014-06-01T11:42:09Z</time>
      </trkpt>
      <trkpt lat="45.28667" lon="5.09502">
        <ele>456.88605210495</ele>
        <time>2014-06-01T11:42:14Z</time>
      </trkpt>
      <trkpt lat="45.28668" lon="5.09505">
        <ele>456.88605210495</ele>
        <time>2014-06-01T11:42:19Z</time>
      </trkpt>
      <trkpt lat="45.28668" lon="5.09506">
        <ele>456.88605210495</ele>
        <time>2014-06-01T11:42:24Z</time>
      </trkpt>
      <trkpt lat="45.28668" lon="5.09506">
        <ele>456.88605210495</ele>
        <time>2014-06-01T11:42:29Z</time>
      </trkpt>
      <trkpt lat="45.28668" lon="5.09506">
        <ele>456.88605210495</ele>
        <time>2014-06-01T11:42:34Z</time>
      </trkpt>
      <trkpt lat="45.28668" lon="5.09506">
        <ele>456.88605210495</ele>
        <time>2014-06-01T11:42:39Z</time>
      </trkpt>
      <trkpt lat="45.28668" lon="5.09506">
        <ele>456.88605210495</ele>
        <time>2014-06-01T11:42:44Z</time>
      </trkpt>
      <trkpt lat="45.28668" lon="5.09506">
        <ele>456.88605210495</ele>
        <time>2014-06-01T11:42:49Z</time>
      </trkpt>
      <trkpt lat="45.28667" lon="5.09506">
        <ele>456.88605210495</ele>
        <time>2014-06-01T11:42:54Z</time>
      </trkpt>
      <trkpt lat="45.28665" lon="5.09505">
        <ele>458.18287239682</ele>
        <time>2014-06-01T11:42:59Z</time>
      </trkpt>
      <trkpt lat="45.28664" lon="5.09505">
        <ele>458.18287239682</ele>
        <time>2014-06-01T11:43:04Z</time>
      </trkpt>
      <trkpt lat="45.28664" lon="5.09505">
        <ele>458.18287239682</ele>
        <time>2014-06-01T11:43:09Z</time>
      </trkpt>
      <trkpt lat="45.28664" lon="5.09504">
        <ele>458.18287239682</ele>
        <time>2014-06-01T11:43:14Z</time>
      </trkpt>
      <trkpt lat="45.28663" lon="5.09503">
        <ele>458.18287239682</ele>
        <time>2014-06-01T11:43:19Z</time>
      </trkpt>
      <trkpt lat="45.28661" lon="5.09503">
        <ele>458.18287239682</ele>
        <time>2014-06-01T11:43:24Z</time>
      </trkpt>
      <trkpt lat="45.2866" lon="5.09503">
        <ele>458.18287239682</ele>
        <time>2014-06-01T11:43:29Z</time>
      </trkpt>
      <trkpt lat="45.28656" lon="5.095">
        <ele>459.54415000884</ele>
        <time>2014-06-01T11:43:34Z</time>
      </trkpt>
      <trkpt lat="45.28651" lon="5.09499">
        <ele>459.54415000884</ele>
        <time>2014-06-01T11:43:39Z</time>
      </trkpt>
      <trkpt lat="45.28646" lon="5.09499">
        <ele>460.34243969276</ele>
        <time>2014-06-01T11:43:44Z</time>
      </trkpt>
      <trkpt lat="45.2864" lon="5.095">
        <ele>460.34243969276</ele>
        <time>2014-06-01T11:43:49Z</time>
      </trkpt>
      <trkpt lat="45.28633" lon="5.09498">
        <ele>460.66086454294</ele>
        <time>2014-06-01T11:43:54Z</time>
      </trkpt>
      <trkpt lat="45.28629" lon="5.09491">
        <ele>460.66086454294</ele>
        <time>2014-06-01T11:43:59Z</time>
      </trkpt>
      <trkpt lat="45.28629" lon="5.09491">
        <ele>460.66086454294</ele>
        <time>2014-06-01T11:44:04Z</time>
      </trkpt>
      <trkpt lat="45.28628" lon="5.09489">
        <ele>460.66086454294</ele>
        <time>2014-06-01T11:44:09Z</time>
      </trkpt>
      <trkpt lat="45.28628" lon="5.09479">
        <ele>460.18867782685</ele>
        <time>2014-06-01T11:44:14Z</time>
      </trkpt>
      <trkpt lat="45.2863" lon="5.09471">
        <ele>460.18867782685</ele>
        <time>2014-06-01T11:44:19Z</time>
      </trkpt>
      <trkpt lat="45.28633" lon="5.09467">
        <ele>459.21661318366</ele>
        <time>2014-06-01T11:44:24Z</time>
      </trkpt>
      <trkpt lat="45.28636" lon="5.09461">
        <ele>459.21661318366</ele>
        <time>2014-06-01T11:44:29Z</time>
      </trkpt>
      <trkpt lat="45.28638" lon="5.09452">
        <ele>458.67834828591</ele>
        <time>2014-06-01T11:44:34Z</time>
      </trkpt>
      <trkpt lat="45.2864" lon="5.09446">
        <ele>458.67834828591</ele>
        <time>2014-06-01T11:44:39Z</time>
      </trkpt>
      <trkpt lat="45.28643" lon="5.0944">
        <ele>457.4201809048</ele>
        <time>2014-06-01T11:44:44Z</time>
      </trkpt>
      <trkpt lat="45.28647" lon="5.09433">
        <ele>457.4201809048</ele>
        <time>2014-06-01T11:44:49Z</time>
      </trkpt>
      <trkpt lat="45.28652" lon="5.09426">
        <ele>455.83067334263</ele>
        <time>2014-06-01T11:44:54Z</time>
      </trkpt>
      <trkpt lat="45.28656" lon="5.09418">
        <ele>455.83067334263</ele>
        <time>2014-06-01T11:44:59Z</time>
      </trkpt>
      <trkpt lat="45.28661" lon="5.0941">
        <ele>454.78953709075</ele>
        <time>2014-06-01T11:45:04Z</time>
      </trkpt>
      <trkpt lat="45.28664" lon="5.09402">
        <ele>454.78953709075</ele>
        <time>2014-06-01T11:45:09Z</time>
      </trkpt>
      <trkpt lat="45.28669" lon="5.09394">
        <ele>453.4674085776</ele>
        <time>2014-06-01T11:45:14Z</time>
      </trkpt>
      <trkpt lat="45.28673" lon="5.09387">
        <ele>453.4674085776</ele>
        <time>2014-06-01T11:45:19Z</time>
      </trkpt>
      <trkpt lat="45.28676" lon="5.09381">
        <ele>451.64420288184</ele>
        <time>2014-06-01T11:45:24Z</time>
      </trkpt>
      <trkpt lat="45.28679" lon="5.09375">
        <ele>451.64420288184</ele>
        <time>2014-06-01T11:45:29Z</time>
      </trkpt>
      <trkpt lat="45.28682" lon="5.09366">
        <ele>450.12612021827</ele>
        <time>2014-06-01T11:45:34Z</time>
      </trkpt>
      <trkpt lat="45.28687" lon="5.09358">
        <ele>450.12612021827</ele>
        <time>2014-06-01T11:45:39Z</time>
      </trkpt>
      <trkpt lat="45.2869" lon="5.09348">
        <ele>449.1259965056</ele>
        <time>2014-06-01T11:45:44Z</time>
      </trkpt>
      <trkpt lat="45.28694" lon="5.09336">
        <ele>448.58009925663</ele>
        <time>2014-06-01T11:45:49Z</time>
      </trkpt>
      <trkpt lat="45.28696" lon="5.09321">
        <ele>448.7738869916</ele>
        <time>2014-06-01T11:45:54Z</time>
      </trkpt>
      <trkpt lat="45.28697" lon="5.09309">
        <ele>448.7738869916</ele>
        <time>2014-06-01T11:45:59Z</time>
      </trkpt>
      <trkpt lat="45.28697" lon="5.09299">
        <ele>448.94650197252</ele>
        <time>2014-06-01T11:46:04Z</time>
      </trkpt>
      <trkpt lat="45.28697" lon="5.0929">
        <ele>448.94650197252</ele>
        <time>2014-06-01T11:46:09Z</time>
      </trkpt>
      <trkpt lat="45.28697" lon="5.0928">
        <ele>449.24321604586</ele>
        <time>2014-06-01T11:46:14Z</time>
      </trkpt>
      <trkpt lat="45.287" lon="5.09273">
        <ele>449.24321604586</ele>
        <time>2014-06-01T11:46:19Z</time>
      </trkpt>
      <trkpt lat="45.28702" lon="5.09263">
        <ele>449.74056594497</ele>
        <time>2014-06-01T11:46:24Z</time>
      </trkpt>
      <trkpt lat="45.28705" lon="5.09254">
        <ele>449.74056594497</ele>
        <time>2014-06-01T11:46:29Z</time>
      </trkpt>
      <trkpt lat="45.28708" lon="5.09244">
        <ele>450.17738460311</ele>
        <time>2014-06-01T11:46:34Z</time>
      </trkpt>
      <trkpt lat="45.28709" lon="5.09231">
        <ele>450.71531657916</ele>
        <time>2014-06-01T11:46:39Z</time>
      </trkpt>
      <trkpt lat="45.28711" lon="5.09218">
        <ele>451.46056926271</ele>
        <time>2014-06-01T11:46:44Z</time>
      </trkpt>
      <trkpt lat="45.28712" lon="5.09207">
        <ele>451.46056926271</ele>
        <time>2014-06-01T11:46:49Z</time>
      </trkpt>
      <trkpt lat="45.28711" lon="5.09197">
        <ele>451.9777178333</ele>
        <time>2014-06-01T11:46:54Z</time>
      </trkpt>
      <trkpt lat="45.28712" lon="5.09187">
        <ele>451.9777178333</ele>
        <time>2014-06-01T11:46:59Z</time>
      </trkpt>
      <trkpt lat="45.28713" lon="5.09175">
        <ele>452.55566795249</ele>
        <time>2014-06-01T11:47:04Z</time>
      </trkpt>
      <trkpt lat="45.28713" lon="5.09163">
        <ele>452.55566795249</ele>
        <time>2014-06-01T11:47:09Z</time>
      </trkpt>
      <trkpt lat="45.28712" lon="5.09153">
        <ele>453.10163275185</ele>
        <time>2014-06-01T11:47:14Z</time>
      </trkpt>
      <trkpt lat="45.28711" lon="5.09144">
        <ele>453.10163275185</ele>
        <time>2014-06-01T11:47:19Z</time>
      </trkpt>
      <trkpt lat="45.2871" lon="5.09134">
        <ele>453.50089469869</ele>
        <time>2014-06-01T11:47:24Z</time>
      </trkpt>
      <trkpt lat="45.2871" lon="5.09122">
        <ele>453.50089469869</ele>
        <time>2014-06-01T11:47:29Z</time>
      </trkpt>
      <trkpt lat="45.28709" lon="5.09111">
        <ele>454.02225594362</ele>
        <time>2014-06-01T11:47:34Z</time>
      </trkpt>
      <trkpt lat="45.28708" lon="5.09099">
        <ele>454.02225594362</ele>
        <time>2014-06-01T11:47:39Z</time>
      </trkpt>
      <trkpt lat="45.28707" lon="5.09088">
        <ele>454.61179443627</ele>
        <time>2014-06-01T11:47:44Z</time>
      </trkpt>
      <trkpt lat="45.28705" lon="5.09077">
        <ele>454.61179443627</ele>
        <time>2014-06-01T11:47:49Z</time>
      </trkpt>
      <trkpt lat="45.28704" lon="5.09066">
        <ele>455.23377231457</ele>
        <time>2014-06-01T11:47:54Z</time>
      </trkpt>
      <trkpt lat="45.28703" lon="5.09056">
        <ele>455.23377231457</ele>
        <time>2014-06-01T11:47:59Z</time>
      </trkpt>
      <trkpt lat="45.287" lon="5.09046">
        <ele>455.86940561398</ele>
        <time>2014-06-01T11:48:04Z</time>
      </trkpt>
      <trkpt lat="45.28698" lon="5.09032">
        <ele>456.42920992123</ele>
        <time>2014-06-01T11:48:09Z</time>
      </trkpt>
      <trkpt lat="45.28693" lon="5.08999">
        <ele>457.00343876336</ele>
        <time>2014-06-01T11:48:14Z</time>
      </trkpt>
      <trkpt lat="45.28689" lon="5.08962">
        <ele>457.54599775023</ele>
        <time>2014-06-01T11:48:19Z</time>
      </trkpt>
      <trkpt lat="45.2869" lon="5.08931">
        <ele>457.92782667881</ele>
        <time>2014-06-01T11:48:24Z</time>
      </trkpt>
      <trkpt lat="45.28691" lon="5.08916">
        <ele>458.13070312484</ele>
        <time>2014-06-01T11:48:29Z</time>
      </trkpt>
      <trkpt lat="45.2869" lon="5.08913">
        <ele>458.13070312484</ele>
        <time>2014-06-01T11:48:34Z</time>
      </trkpt>
      <trkpt lat="45.28689" lon="5.08912">
        <ele>458.13070312484</ele>
        <time>2014-06-01T11:48:39Z</time>
      </trkpt>
      <trkpt lat="45.28683" lon="5.08912">
        <ele>458.55619795751</ele>
        <time>2014-06-01T11:48:44Z</time>
      </trkpt>
      <trkpt lat="45.28676" lon="5.08913">
        <ele>458.55619795751</ele>
        <time>2014-06-01T11:48:49Z</time>
      </trkpt>
      <trkpt lat="45.28669" lon="5.08912">
        <ele>458.85523384784</ele>
        <time>2014-06-01T11:48:54Z</time>
      </trkpt>
      <trkpt lat="45.28662" lon="5.08911">
        <ele>458.85523384784</ele>
        <time>2014-06-01T11:48:59Z</time>
      </trkpt>
      <trkpt lat="45.28655" lon="5.08912">
        <ele>458.96416286893</ele>
        <time>2014-06-01T11:49:04Z</time>
      </trkpt>
      <trkpt lat="45.28648" lon="5.08912">
        <ele>458.96416286893</ele>
        <time>2014-06-01T11:49:09Z</time>
      </trkpt>
      <trkpt lat="45.2864" lon="5.08913">
        <ele>459.04074396521</ele>
        <time>2014-06-01T11:49:14Z</time>
      </trkpt>
      <trkpt lat="45.28632" lon="5.08913">
        <ele>459.04074396521</ele>
        <time>2014-06-01T11:49:19Z</time>
      </trkpt>
      <trkpt lat="45.28625" lon="5.08916">
        <ele>459.10156843119</ele>
        <time>2014-06-01T11:49:24Z</time>
      </trkpt>
      <trkpt lat="45.28617" lon="5.08916">
        <ele>459.10156843119</ele>
        <time>2014-06-01T11:49:29Z</time>
      </trkpt>
      <trkpt lat="45.28595" lon="5.08919">
        <ele>459.09002638458</ele>
        <time>2014-06-01T11:49:34Z</time>
      </trkpt>
      <trkpt lat="45.2857" lon="5.08925">
        <ele>459.040363141</ele>
        <time>2014-06-01T11:49:39Z</time>
      </trkpt>
      <trkpt lat="45.28545" lon="5.08927">
        <ele>458.8259174735</ele>
        <time>2014-06-01T11:49:44Z</time>
      </trkpt>
      <trkpt lat="45.28519" lon="5.08929">
        <ele>458.70450564573</ele>
        <time>2014-06-01T11:49:49Z</time>
      </trkpt>
      <trkpt lat="45.28491" lon="5.08935">
        <ele>458.52566243547</ele>
        <time>2014-06-01T11:49:54Z</time>
      </trkpt>
      <trkpt lat="45.28465" lon="5.08939">
        <ele>458.38073028432</ele>
        <time>2014-06-01T11:49:59Z</time>
      </trkpt>
      <trkpt lat="45.28446" lon="5.08942">
        <ele>458.16691449706</ele>
        <time>2014-06-01T11:50:04Z</time>
      </trkpt>
      <trkpt lat="45.28437" lon="5.08944">
        <ele>457.97651894813</ele>
        <time>2014-06-01T11:50:09Z</time>
      </trkpt>
      <trkpt lat="45.2843" lon="5.08943">
        <ele>457.97651894813</ele>
        <time>2014-06-01T11:50:14Z</time>
      </trkpt>
      <trkpt lat="45.28423" lon="5.08943">
        <ele>457.73648560521</ele>
        <time>2014-06-01T11:50:19Z</time>
      </trkpt>
      <trkpt lat="45.28414" lon="5.08944">
        <ele>457.552199828</ele>
        <time>2014-06-01T11:50:24Z</time>
      </trkpt>
      <trkpt lat="45.28406" lon="5.08945">
        <ele>457.552199828</ele>
        <time>2014-06-01T11:50:29Z</time>
      </trkpt>
      <trkpt lat="45.28398" lon="5.08945">
        <ele>457.43468380044</ele>
        <time>2014-06-01T11:50:34Z</time>
      </trkpt>
      <trkpt lat="45.28391" lon="5.08945">
        <ele>457.43468380044</ele>
        <time>2014-06-01T11:50:39Z</time>
      </trkpt>
      <trkpt lat="45.28384" lon="5.08944">
        <ele>457.235439586</ele>
        <time>2014-06-01T11:50:44Z</time>
      </trkpt>
      <trkpt lat="45.28378" lon="5.08939">
        <ele>457.235439586</ele>
        <time>2014-06-01T11:50:49Z</time>
      </trkpt>
      <trkpt lat="45.28377" lon="5.08929">
        <ele>457.1197377859</ele>
        <time>2014-06-01T11:50:54Z</time>
      </trkpt>
      <trkpt lat="45.28378" lon="5.08918">
        <ele>457.1197377859</ele>
        <time>2014-06-01T11:50:59Z</time>
      </trkpt>
      <trkpt lat="45.28378" lon="5.08907">
        <ele>457.09635859563</ele>
        <time>2014-06-01T11:51:04Z</time>
      </trkpt>
      <trkpt lat="45.28379" lon="5.08896">
        <ele>457.09635859563</ele>
        <time>2014-06-01T11:51:09Z</time>
      </trkpt>
      <trkpt lat="45.28379" lon="5.08885">
        <ele>457.21640653694</ele>
        <time>2014-06-01T11:51:14Z</time>
      </trkpt>
      <trkpt lat="45.28379" lon="5.08877">
        <ele>457.21640653694</ele>
        <time>2014-06-01T11:51:19Z</time>
      </trkpt>
      <trkpt lat="45.28379" lon="5.08865">
        <ele>457.4259466346</ele>
        <time>2014-06-01T11:51:24Z</time>
      </trkpt>
      <trkpt lat="45.28379" lon="5.08855">
        <ele>457.4259466346</ele>
        <time>2014-06-01T11:51:29Z</time>
      </trkpt>
      <trkpt lat="45.28379" lon="5.08845">
        <ele>457.47299432887</ele>
        <time>2014-06-01T11:51:34Z</time>
      </trkpt>
      <trkpt lat="45.28379" lon="5.08836">
        <ele>457.47299432887</ele>
        <time>2014-06-01T11:51:39Z</time>
      </trkpt>
      <trkpt lat="45.28378" lon="5.08824">
        <ele>457.49921625874</ele>
        <time>2014-06-01T11:51:44Z</time>
      </trkpt>
      <trkpt lat="45.28376" lon="5.08816">
        <ele>457.49921625874</ele>
        <time>2014-06-01T11:51:49Z</time>
      </trkpt>
      <trkpt lat="45.28375" lon="5.08807">
        <ele>457.07389268904</ele>
        <time>2014-06-01T11:51:54Z</time>
      </trkpt>
      <trkpt lat="45.28375" lon="5.08797">
        <ele>457.07389268904</ele>
        <time>2014-06-01T11:51:59Z</time>
      </trkpt>
      <trkpt lat="45.28377" lon="5.08784">
        <ele>456.73592824529</ele>
        <time>2014-06-01T11:52:04Z</time>
      </trkpt>
      <trkpt lat="45.28379" lon="5.08775">
        <ele>456.73592824529</ele>
        <time>2014-06-01T11:52:09Z</time>
      </trkpt>
      <trkpt lat="45.28379" lon="5.08763">
        <ele>456.59528785133</ele>
        <time>2014-06-01T11:52:14Z</time>
      </trkpt>
      <trkpt lat="45.28382" lon="5.08749">
        <ele>456.46507388163</ele>
        <time>2014-06-01T11:52:19Z</time>
      </trkpt>
      <trkpt lat="45.28383" lon="5.08741">
        <ele>456.46507388163</ele>
        <time>2014-06-01T11:52:24Z</time>
      </trkpt>
      <trkpt lat="45.28384" lon="5.08731">
        <ele>456.2153115965</ele>
        <time>2014-06-01T11:52:29Z</time>
      </trkpt>
      <trkpt lat="45.28385" lon="5.08719">
        <ele>456.2153115965</ele>
        <time>2014-06-01T11:52:34Z</time>
      </trkpt>
      <trkpt lat="45.28387" lon="5.08708">
        <ele>456.01411995621</ele>
        <time>2014-06-01T11:52:39Z</time>
      </trkpt>
      <trkpt lat="45.28388" lon="5.08698">
        <ele>456.01411995621</ele>
        <time>2014-06-01T11:52:44Z</time>
      </trkpt>
      <trkpt lat="45.28388" lon="5.08689">
        <ele>456.00270806576</ele>
        <time>2014-06-01T11:52:49Z</time>
      </trkpt>
      <trkpt lat="45.28389" lon="5.08678">
        <ele>456.00270806576</ele>
        <time>2014-06-01T11:52:54Z</time>
      </trkpt>
      <trkpt lat="45.28388" lon="5.08668">
        <ele>455.82138820595</ele>
        <time>2014-06-01T11:52:59Z</time>
      </trkpt>
      <trkpt lat="45.28386" lon="5.08659">
        <ele>455.82138820595</ele>
        <time>2014-06-01T11:53:04Z</time>
      </trkpt>
      <trkpt lat="45.28384" lon="5.08652">
        <ele>454.77707842665</ele>
        <time>2014-06-01T11:53:09Z</time>
      </trkpt>
      <trkpt lat="45.28382" lon="5.08646">
        <ele>454.77707842665</ele>
        <time>2014-06-01T11:53:14Z</time>
      </trkpt>
      <trkpt lat="45.28379" lon="5.08635">
        <ele>453.57024634118</ele>
        <time>2014-06-01T11:53:19Z</time>
      </trkpt>
      <trkpt lat="45.28378" lon="5.08627">
        <ele>453.57024634118</ele>
        <time>2014-06-01T11:53:24Z</time>
      </trkpt>
      <trkpt lat="45.28376" lon="5.08618">
        <ele>452.04331285191</ele>
        <time>2014-06-01T11:53:29Z</time>
      </trkpt>
      <trkpt lat="45.28375" lon="5.0861">
        <ele>452.04331285191</ele>
        <time>2014-06-01T11:53:34Z</time>
      </trkpt>
      <trkpt lat="45.28374" lon="5.086">
        <ele>450.64199658414</ele>
        <time>2014-06-01T11:53:39Z</time>
      </trkpt>
      <trkpt lat="45.28374" lon="5.08589">
        <ele>450.64199658414</ele>
        <time>2014-06-01T11:53:44Z</time>
      </trkpt>
      <trkpt lat="45.28373" lon="5.08579">
        <ele>449.17361396004</ele>
        <time>2014-06-01T11:53:49Z</time>
      </trkpt>
      <trkpt lat="45.28374" lon="5.08566">
        <ele>449.17361396004</ele>
        <time>2014-06-01T11:53:54Z</time>
      </trkpt>
      <trkpt lat="45.28375" lon="5.08553">
        <ele>448.72795446777</ele>
        <time>2014-06-01T11:53:59Z</time>
      </trkpt>
      <trkpt lat="45.28377" lon="5.0854">
        <ele>448.66896352552</ele>
        <time>2014-06-01T11:54:04Z</time>
      </trkpt>
      <trkpt lat="45.28376" lon="5.08527">
        <ele>448.66896352552</ele>
        <time>2014-06-01T11:54:09Z</time>
      </trkpt>
      <trkpt lat="45.28375" lon="5.08515">
        <ele>448.99702854779</ele>
        <time>2014-06-01T11:54:14Z</time>
      </trkpt>
      <trkpt lat="45.28374" lon="5.08504">
        <ele>448.99702854779</ele>
        <time>2014-06-01T11:54:19Z</time>
      </trkpt>
      <trkpt lat="45.28375" lon="5.08494">
        <ele>449.48079448564</ele>
        <time>2014-06-01T11:54:24Z</time>
      </trkpt>
      <trkpt lat="45.28374" lon="5.08491">
        <ele>449.48079448564</ele>
        <time>2014-06-01T11:54:29Z</time>
      </trkpt>
      <trkpt lat="45.28374" lon="5.0849">
        <ele>449.48079448564</ele>
        <time>2014-06-01T11:54:34Z</time>
      </trkpt>
      <trkpt lat="45.28374" lon="5.0849">
        <ele>449.48079448564</ele>
        <time>2014-06-01T11:54:39Z</time>
      </trkpt>
      <trkpt lat="45.28374" lon="5.0849">
        <ele>449.48079448564</ele>
        <time>2014-06-01T11:54:44Z</time>
      </trkpt>
      <trkpt lat="45.28374" lon="5.0849">
        <ele>449.48079448564</ele>
        <time>2014-06-01T11:54:49Z</time>
      </trkpt>
      <trkpt lat="45.28373" lon="5.0849">
        <ele>449.48079448564</ele>
        <time>2014-06-01T11:54:54Z</time>
      </trkpt>
      <trkpt lat="45.28373" lon="5.08489">
        <ele>449.48079448564</ele>
        <time>2014-06-01T11:54:59Z</time>
      </trkpt>
      <trkpt lat="45.28373" lon="5.08489">
        <ele>449.48079448564</ele>
        <time>2014-06-01T11:55:04Z</time>
      </trkpt>
      <trkpt lat="45.28373" lon="5.08489">
        <ele>449.48079448564</ele>
        <time>2014-06-01T11:55:09Z</time>
      </trkpt>
      <trkpt lat="45.28373" lon="5.0849">
        <ele>449.48079448564</ele>
        <time>2014-06-01T11:55:14Z</time>
      </trkpt>
      <trkpt lat="45.28373" lon="5.08489">
        <ele>449.48079448564</ele>
        <time>2014-06-01T11:55:19Z</time>
      </trkpt>
      <trkpt lat="45.28373" lon="5.08489">
        <ele>449.48079448564</ele>
        <time>2014-06-01T11:55:24Z</time>
      </trkpt>
      <trkpt lat="45.28373" lon="5.08489">
        <ele>449.48079448564</ele>
        <time>2014-06-01T11:55:29Z</time>
      </trkpt>
      <trkpt lat="45.28373" lon="5.08489">
        <ele>449.48079448564</ele>
        <time>2014-06-01T11:55:34Z</time>
      </trkpt>
      <trkpt lat="45.28373" lon="5.08491">
        <ele>449.48079448564</ele>
        <time>2014-06-01T11:55:39Z</time>
      </trkpt>
      <trkpt lat="45.28374" lon="5.08493">
        <ele>449.48079448564</ele>
        <time>2014-06-01T11:55:44Z</time>
      </trkpt>
      <trkpt lat="45.28374" lon="5.08493">
        <ele>449.48079448564</ele>
        <time>2014-06-01T11:55:49Z</time>
      </trkpt>
      <trkpt lat="45.28374" lon="5.08493">
        <ele>449.48079448564</ele>
        <time>2014-06-01T11:55:55Z</time>
      </trkpt>
      <trkpt lat="45.28374" lon="5.08493">
        <ele>449.48079448564</ele>
        <time>2014-06-01T11:55:59Z</time>
      </trkpt>
      <trkpt lat="45.28374" lon="5.08494">
        <ele>449.48079448564</ele>
        <time>2014-06-01T11:56:04Z</time>
      </trkpt>
      <trkpt lat="45.28374" lon="5.08494">
        <ele>449.48079448564</ele>
        <time>2014-06-01T11:56:09Z</time>
      </trkpt>
      <trkpt lat="45.28374" lon="5.08494">
        <ele>449.48079448564</ele>
        <time>2014-06-01T11:56:14Z</time>
      </trkpt>
      <trkpt lat="45.28378" lon="5.08488">
        <ele>449.80454230773</ele>
        <time>2014-06-01T11:56:19Z</time>
      </trkpt>
      <trkpt lat="45.2838" lon="5.0848">
        <ele>449.80454230773</ele>
        <time>2014-06-01T11:56:24Z</time>
      </trkpt>
      <trkpt lat="45.28382" lon="5.0847">
        <ele>450.09407899983</ele>
        <time>2014-06-01T11:56:29Z</time>
      </trkpt>
      <trkpt lat="45.28382" lon="5.08458">
        <ele>450.09407899983</ele>
        <time>2014-06-01T11:56:34Z</time>
      </trkpt>
      <trkpt lat="45.28383" lon="5.08448">
        <ele>450.56691299428</ele>
        <time>2014-06-01T11:56:39Z</time>
      </trkpt>
      <trkpt lat="45.28386" lon="5.08432">
        <ele>450.93405847153</ele>
        <time>2014-06-01T11:56:44Z</time>
      </trkpt>
      <trkpt lat="45.28396" lon="5.08394">
        <ele>451.2594925109</ele>
        <time>2014-06-01T11:56:49Z</time>
      </trkpt>
      <trkpt lat="45.28407" lon="5.08365">
        <ele>451.51613034675</ele>
        <time>2014-06-01T11:56:54Z</time>
      </trkpt>
      <trkpt lat="45.2842" lon="5.08328">
        <ele>451.69347341227</ele>
        <time>2014-06-01T11:56:59Z</time>
      </trkpt>
      <trkpt lat="45.28431" lon="5.08298">
        <ele>451.82524660418</ele>
        <time>2014-06-01T11:57:04Z</time>
      </trkpt>
      <trkpt lat="45.28439" lon="5.08273">
        <ele>451.95723609252</ele>
        <time>2014-06-01T11:57:09Z</time>
      </trkpt>
      <trkpt lat="45.2845" lon="5.0824">
        <ele>452.10304422354</ele>
        <time>2014-06-01T11:57:14Z</time>
      </trkpt>
      <trkpt lat="45.28458" lon="5.08211">
        <ele>452.30406244546</ele>
        <time>2014-06-01T11:57:19Z</time>
      </trkpt>
      <trkpt lat="45.28461" lon="5.08201">
        <ele>452.30406244546</ele>
        <time>2014-06-01T11:57:24Z</time>
      </trkpt>
      <trkpt lat="45.28462" lon="5.08195">
        <ele>452.36791573926</ele>
        <time>2014-06-01T11:57:29Z</time>
      </trkpt>
      <trkpt lat="45.28465" lon="5.0819">
        <ele>452.36791573926</ele>
        <time>2014-06-01T11:57:34Z</time>
      </trkpt>
      <trkpt lat="45.28468" lon="5.08183">
        <ele>452.07352032786</ele>
        <time>2014-06-01T11:57:39Z</time>
      </trkpt>
      <trkpt lat="45.28469" lon="5.08174">
        <ele>452.07352032786</ele>
        <time>2014-06-01T11:57:44Z</time>
      </trkpt>
      <trkpt lat="45.28466" lon="5.08165">
        <ele>452.15376982214</ele>
        <time>2014-06-01T11:57:49Z</time>
      </trkpt>
      <trkpt lat="45.28462" lon="5.08154">
        <ele>452.15376982214</ele>
        <time>2014-06-01T11:57:54Z</time>
      </trkpt>
      <trkpt lat="45.28458" lon="5.08146">
        <ele>451.35558741648</ele>
        <time>2014-06-01T11:57:59Z</time>
      </trkpt>
      <trkpt lat="45.28453" lon="5.08136">
        <ele>451.35558741648</ele>
        <time>2014-06-01T11:58:04Z</time>
      </trkpt>
      <trkpt lat="45.28449" lon="5.08126">
        <ele>451.12882984935</ele>
        <time>2014-06-01T11:58:09Z</time>
      </trkpt>
      <trkpt lat="45.28443" lon="5.08116">
        <ele>450.94180504948</ele>
        <time>2014-06-01T11:58:14Z</time>
      </trkpt>
      <trkpt lat="45.28438" lon="5.08106">
        <ele>450.94180504948</ele>
        <time>2014-06-01T11:58:19Z</time>
      </trkpt>
      <trkpt lat="45.28433" lon="5.08096">
        <ele>451.03673792906</ele>
        <time>2014-06-01T11:58:24Z</time>
      </trkpt>
      <trkpt lat="45.28429" lon="5.08086">
        <ele>451.03673792906</ele>
        <time>2014-06-01T11:58:29Z</time>
      </trkpt>
      <trkpt lat="45.28426" lon="5.08075">
        <ele>451.42110539727</ele>
        <time>2014-06-01T11:58:34Z</time>
      </trkpt>
      <trkpt lat="45.28421" lon="5.08064">
        <ele>451.42110539727</ele>
        <time>2014-06-01T11:58:39Z</time>
      </trkpt>
      <trkpt lat="45.28418" lon="5.08054">
        <ele>452.0145617959</ele>
        <time>2014-06-01T11:58:44Z</time>
      </trkpt>
      <trkpt lat="45.28414" lon="5.08044">
        <ele>452.0145617959</ele>
        <time>2014-06-01T11:58:49Z</time>
      </trkpt>
      <trkpt lat="45.2841" lon="5.08037">
        <ele>452.2809293257</ele>
        <time>2014-06-01T11:58:54Z</time>
      </trkpt>
      <trkpt lat="45.28407" lon="5.08028">
        <ele>452.2809293257</ele>
        <time>2014-06-01T11:58:59Z</time>
      </trkpt>
      <trkpt lat="45.28404" lon="5.08018">
        <ele>452.63224696924</ele>
        <time>2014-06-01T11:59:04Z</time>
      </trkpt>
      <trkpt lat="45.28401" lon="5.08008">
        <ele>452.63224696924</ele>
        <time>2014-06-01T11:59:10Z</time>
      </trkpt>
      <trkpt lat="45.28398" lon="5.07998">
        <ele>452.98890656881</ele>
        <time>2014-06-01T11:59:14Z</time>
      </trkpt>
      <trkpt lat="45.28395" lon="5.07989">
        <ele>452.98890656881</ele>
        <time>2014-06-01T11:59:19Z</time>
      </trkpt>
      <trkpt lat="45.28393" lon="5.07979">
        <ele>453.34920658296</ele>
        <time>2014-06-01T11:59:24Z</time>
      </trkpt>
      <trkpt lat="45.2839" lon="5.07971">
        <ele>453.34920658296</ele>
        <time>2014-06-01T11:59:29Z</time>
      </trkpt>
      <trkpt lat="45.28387" lon="5.07962">
        <ele>453.84128104448</ele>
        <time>2014-06-01T11:59:34Z</time>
      </trkpt>
      <trkpt lat="45.28385" lon="5.07954">
        <ele>453.84128104448</ele>
        <time>2014-06-01T11:59:39Z</time>
      </trkpt>
      <trkpt lat="45.28382" lon="5.07945">
        <ele>454.25204932197</ele>
        <time>2014-06-01T11:59:44Z</time>
      </trkpt>
      <trkpt lat="45.2838" lon="5.07935">
        <ele>454.25204932197</ele>
        <time>2014-06-01T11:59:49Z</time>
      </trkpt>
      <trkpt lat="45.28378" lon="5.07926">
        <ele>454.67255983684</ele>
        <time>2014-06-01T11:59:54Z</time>
      </trkpt>
      <trkpt lat="45.28376" lon="5.07916">
        <ele>454.67255983684</ele>
        <time>2014-06-01T11:59:59Z</time>
      </trkpt>
      <trkpt lat="45.28374" lon="5.07907">
        <ele>454.92777314544</ele>
        <time>2014-06-01T12:00:04Z</time>
      </trkpt>
      <trkpt lat="45.28371" lon="5.07898">
        <ele>454.92777314544</ele>
        <time>2014-06-01T12:00:09Z</time>
      </trkpt>
      <trkpt lat="45.28366" lon="5.07891">
        <ele>455.0865790796</ele>
        <time>2014-06-01T12:00:14Z</time>
      </trkpt>
      <trkpt lat="45.28362" lon="5.07883">
        <ele>455.0865790796</ele>
        <time>2014-06-01T12:00:19Z</time>
      </trkpt>
      <trkpt lat="45.28359" lon="5.07874">
        <ele>455.29957423363</ele>
        <time>2014-06-01T12:00:24Z</time>
      </trkpt>
      <trkpt lat="45.28354" lon="5.07866">
        <ele>455.29957423363</ele>
        <time>2014-06-01T12:00:29Z</time>
      </trkpt>
      <trkpt lat="45.28351" lon="5.07857">
        <ele>455.40353724228</ele>
        <time>2014-06-01T12:00:34Z</time>
      </trkpt>
      <trkpt lat="45.28347" lon="5.07849">
        <ele>455.40353724228</ele>
        <time>2014-06-01T12:00:39Z</time>
      </trkpt>
      <trkpt lat="45.28343" lon="5.0784">
        <ele>455.50697257736</ele>
        <time>2014-06-01T12:00:44Z</time>
      </trkpt>
      <trkpt lat="45.2834" lon="5.07831">
        <ele>455.50697257736</ele>
        <time>2014-06-01T12:00:49Z</time>
      </trkpt>
      <trkpt lat="45.28337" lon="5.07821">
        <ele>455.63838888806</ele>
        <time>2014-06-01T12:00:54Z</time>
      </trkpt>
      <trkpt lat="45.28336" lon="5.07812">
        <ele>455.63838888806</ele>
        <time>2014-06-01T12:00:59Z</time>
      </trkpt>
      <trkpt lat="45.28335" lon="5.07801">
        <ele>455.95385051943</ele>
        <time>2014-06-01T12:01:04Z</time>
      </trkpt>
      <trkpt lat="45.28334" lon="5.07791">
        <ele>455.95385051943</ele>
        <time>2014-06-01T12:01:09Z</time>
      </trkpt>
      <trkpt lat="45.28332" lon="5.07781">
        <ele>456.55423616349</ele>
        <time>2014-06-01T12:01:14Z</time>
      </trkpt>
      <trkpt lat="45.2833" lon="5.07769">
        <ele>456.55423616349</ele>
        <time>2014-06-01T12:01:19Z</time>
      </trkpt>
      <trkpt lat="45.28329" lon="5.07759">
        <ele>457.2728439783</ele>
        <time>2014-06-01T12:01:24Z</time>
      </trkpt>
      <trkpt lat="45.28329" lon="5.0775">
        <ele>457.2728439783</ele>
        <time>2014-06-01T12:01:29Z</time>
      </trkpt>
      <trkpt lat="45.28328" lon="5.07742">
        <ele>457.82521725082</ele>
        <time>2014-06-01T12:01:34Z</time>
      </trkpt>
      <trkpt lat="45.28327" lon="5.07733">
        <ele>457.82521725082</ele>
        <time>2014-06-01T12:01:39Z</time>
      </trkpt>
      <trkpt lat="45.28326" lon="5.07723">
        <ele>458.23651699756</ele>
        <time>2014-06-01T12:01:44Z</time>
      </trkpt>
      <trkpt lat="45.28324" lon="5.07712">
        <ele>458.23651699756</ele>
        <time>2014-06-01T12:01:49Z</time>
      </trkpt>
      <trkpt lat="45.28322" lon="5.077">
        <ele>458.37196381424</ele>
        <time>2014-06-01T12:01:54Z</time>
      </trkpt>
      <trkpt lat="45.2832" lon="5.0769">
        <ele>458.37196381424</ele>
        <time>2014-06-01T12:01:59Z</time>
      </trkpt>
      <trkpt lat="45.28319" lon="5.07679">
        <ele>458.49658786029</ele>
        <time>2014-06-01T12:02:04Z</time>
      </trkpt>
      <trkpt lat="45.28316" lon="5.07669">
        <ele>458.49658786029</ele>
        <time>2014-06-01T12:02:09Z</time>
      </trkpt>
      <trkpt lat="45.28314" lon="5.07659">
        <ele>458.40926956872</ele>
        <time>2014-06-01T12:02:14Z</time>
      </trkpt>
      <trkpt lat="45.28312" lon="5.07649">
        <ele>458.40926956872</ele>
        <time>2014-06-01T12:02:19Z</time>
      </trkpt>
      <trkpt lat="45.28311" lon="5.07638">
        <ele>458.28456708376</ele>
        <time>2014-06-01T12:02:24Z</time>
      </trkpt>
      <trkpt lat="45.28309" lon="5.07628">
        <ele>458.28456708376</ele>
        <time>2014-06-01T12:02:29Z</time>
      </trkpt>
      <trkpt lat="45.28307" lon="5.07619">
        <ele>457.99612580134</ele>
        <time>2014-06-01T12:02:34Z</time>
      </trkpt>
      <trkpt lat="45.28306" lon="5.07609">
        <ele>457.99612580134</ele>
        <time>2014-06-01T12:02:39Z</time>
      </trkpt>
      <trkpt lat="45.28304" lon="5.07598">
        <ele>457.68675608816</ele>
        <time>2014-06-01T12:02:44Z</time>
      </trkpt>
      <trkpt lat="45.28303" lon="5.07588">
        <ele>457.68675608816</ele>
        <time>2014-06-01T12:02:49Z</time>
      </trkpt>
      <trkpt lat="45.28302" lon="5.07578">
        <ele>457.4023886604</ele>
        <time>2014-06-01T12:02:54Z</time>
      </trkpt>
      <trkpt lat="45.28301" lon="5.07568">
        <ele>457.4023886604</ele>
        <time>2014-06-01T12:02:59Z</time>
      </trkpt>
      <trkpt lat="45.28299" lon="5.07558">
        <ele>457.02700211772</ele>
        <time>2014-06-01T12:03:04Z</time>
      </trkpt>
      <trkpt lat="45.28297" lon="5.07547">
        <ele>457.02700211772</ele>
        <time>2014-06-01T12:03:09Z</time>
      </trkpt>
      <trkpt lat="45.28296" lon="5.07537">
        <ele>456.74158532605</ele>
        <time>2014-06-01T12:03:14Z</time>
      </trkpt>
      <trkpt lat="45.28295" lon="5.07527">
        <ele>456.74158532605</ele>
        <time>2014-06-01T12:03:19Z</time>
      </trkpt>
      <trkpt lat="45.28293" lon="5.07517">
        <ele>456.2668398748</ele>
        <time>2014-06-01T12:03:24Z</time>
      </trkpt>
      <trkpt lat="45.2829" lon="5.07509">
        <ele>456.2668398748</ele>
        <time>2014-06-01T12:03:29Z</time>
      </trkpt>
      <trkpt lat="45.28288" lon="5.07501">
        <ele>455.08511476868</ele>
        <time>2014-06-01T12:03:34Z</time>
      </trkpt>
      <trkpt lat="45.28286" lon="5.07492">
        <ele>455.08511476868</ele>
        <time>2014-06-01T12:03:39Z</time>
      </trkpt>
      <trkpt lat="45.28283" lon="5.07484">
        <ele>454.18869571448</ele>
        <time>2014-06-01T12:03:44Z</time>
      </trkpt>
      <trkpt lat="45.28279" lon="5.07476">
        <ele>454.18869571448</ele>
        <time>2014-06-01T12:03:49Z</time>
      </trkpt>
      <trkpt lat="45.28273" lon="5.07471">
        <ele>453.50179486565</ele>
        <time>2014-06-01T12:03:54Z</time>
      </trkpt>
      <trkpt lat="45.28267" lon="5.07465">
        <ele>453.50179486565</ele>
        <time>2014-06-01T12:03:59Z</time>
      </trkpt>
      <trkpt lat="45.28261" lon="5.0746">
        <ele>452.93917278666</ele>
        <time>2014-06-01T12:04:04Z</time>
      </trkpt>
      <trkpt lat="45.28256" lon="5.07451">
        <ele>452.93917278666</ele>
        <time>2014-06-01T12:04:09Z</time>
      </trkpt>
      <trkpt lat="45.28257" lon="5.07449">
        <ele>452.94027832098</ele>
        <time>2014-06-01T12:04:14Z</time>
      </trkpt>
      <trkpt lat="45.28256" lon="5.07448">
        <ele>452.94027832098</ele>
        <time>2014-06-01T12:04:19Z</time>
      </trkpt>
      <trkpt lat="45.28256" lon="5.07448">
        <ele>452.94027832098</ele>
        <time>2014-06-01T12:04:24Z</time>
      </trkpt>
      <trkpt lat="45.28256" lon="5.07448">
        <ele>452.94027832098</ele>
        <time>2014-06-01T12:04:29Z</time>
      </trkpt>
      <trkpt lat="45.28256" lon="5.07447">
        <ele>452.94027832098</ele>
        <time>2014-06-01T12:04:34Z</time>
      </trkpt>
      <trkpt lat="45.28256" lon="5.07445">
        <ele>452.94027832098</ele>
        <time>2014-06-01T12:04:39Z</time>
      </trkpt>
      <trkpt lat="45.28256" lon="5.07446">
        <ele>452.94027832098</ele>
        <time>2014-06-01T12:04:44Z</time>
      </trkpt>
      <trkpt lat="45.28253" lon="5.07445">
        <ele>452.94027832098</ele>
        <time>2014-06-01T12:04:49Z</time>
      </trkpt>
      <trkpt lat="45.28251" lon="5.07443">
        <ele>452.94027832098</ele>
        <time>2014-06-01T12:04:54Z</time>
      </trkpt>
      <trkpt lat="45.28252" lon="5.07444">
        <ele>452.72895776729</ele>
        <time>2014-06-01T12:04:59Z</time>
      </trkpt>
      <trkpt lat="45.28252" lon="5.07447">
        <ele>452.72895776729</ele>
        <time>2014-06-01T12:05:04Z</time>
      </trkpt>
      <trkpt lat="45.28252" lon="5.07448">
        <ele>452.72895776729</ele>
        <time>2014-06-01T12:05:09Z</time>
      </trkpt>
      <trkpt lat="45.28251" lon="5.07447">
        <ele>452.72895776729</ele>
        <time>2014-06-01T12:05:14Z</time>
      </trkpt>
      <trkpt lat="45.28251" lon="5.07447">
        <ele>452.72895776729</ele>
        <time>2014-06-01T12:05:19Z</time>
      </trkpt>
      <trkpt lat="45.28253" lon="5.07447">
        <ele>452.72895776729</ele>
        <time>2014-06-01T12:05:24Z</time>
      </trkpt>
      <trkpt lat="45.28254" lon="5.07451">
        <ele>452.72895776729</ele>
        <time>2014-06-01T12:05:29Z</time>
      </trkpt>
      <trkpt lat="45.28254" lon="5.07452">
        <ele>452.14867287735</ele>
        <time>2014-06-01T12:05:34Z</time>
      </trkpt>
      <trkpt lat="45.28254" lon="5.07453">
        <ele>452.14867287735</ele>
        <time>2014-06-01T12:05:39Z</time>
      </trkpt>
      <trkpt lat="45.28256" lon="5.07453">
        <ele>452.14867287735</ele>
        <time>2014-06-01T12:05:44Z</time>
      </trkpt>
      <trkpt lat="45.28256" lon="5.07452">
        <ele>452.14867287735</ele>
        <time>2014-06-01T12:05:49Z</time>
      </trkpt>
      <trkpt lat="45.28255" lon="5.0745">
        <ele>452.14867287735</ele>
        <time>2014-06-01T12:05:54Z</time>
      </trkpt>
      <trkpt lat="45.28255" lon="5.0745">
        <ele>452.14867287735</ele>
        <time>2014-06-01T12:05:59Z</time>
      </trkpt>
      <trkpt lat="45.28255" lon="5.07449">
        <ele>452.14867287735</ele>
        <time>2014-06-01T12:06:04Z</time>
      </trkpt>
      <trkpt lat="45.28257" lon="5.07452">
        <ele>452.14867287735</ele>
        <time>2014-06-01T12:06:09Z</time>
      </trkpt>
      <trkpt lat="45.2826" lon="5.07457">
        <ele>451.31478820512</ele>
        <time>2014-06-01T12:06:14Z</time>
      </trkpt>
      <trkpt lat="45.28259" lon="5.07458">
        <ele>451.31478820512</ele>
        <time>2014-06-01T12:06:19Z</time>
      </trkpt>
      <trkpt lat="45.28259" lon="5.0746">
        <ele>451.31478820512</ele>
        <time>2014-06-01T12:06:24Z</time>
      </trkpt>
      <trkpt lat="45.28259" lon="5.0746">
        <ele>451.31478820512</ele>
        <time>2014-06-01T12:06:29Z</time>
      </trkpt>
      <trkpt lat="45.28258" lon="5.07459">
        <ele>451.31478820512</ele>
        <time>2014-06-01T12:06:34Z</time>
      </trkpt>
      <trkpt lat="45.28258" lon="5.07459">
        <ele>451.31478820512</ele>
        <time>2014-06-01T12:06:39Z</time>
      </trkpt>
      <trkpt lat="45.28258" lon="5.07459">
        <ele>451.31478820512</ele>
        <time>2014-06-01T12:06:44Z</time>
      </trkpt>
      <trkpt lat="45.28267" lon="5.0745">
        <ele>454.90056879486</ele>
        <time>2014-06-01T13:34:55Z</time>
      </trkpt>
      <trkpt lat="45.28265" lon="5.07455">
        <ele>454.90056879486</ele>
        <time>2014-06-01T13:35:00Z</time>
      </trkpt>
      <trkpt lat="45.28264" lon="5.07455">
        <ele>454.90056879486</ele>
        <time>2014-06-01T13:35:05Z</time>
      </trkpt>
      <trkpt lat="45.28265" lon="5.07455">
        <ele>454.90056879486</ele>
        <time>2014-06-01T13:35:10Z</time>
      </trkpt>
      <trkpt lat="45.28265" lon="5.07455">
        <ele>454.90056879486</ele>
        <time>2014-06-01T13:35:15Z</time>
      </trkpt>
      <trkpt lat="45.28265" lon="5.07456">
        <ele>454.90056879486</ele>
        <time>2014-06-01T13:35:20Z</time>
      </trkpt>
      <trkpt lat="45.28261" lon="5.07457">
        <ele>455.09721019731</ele>
        <time>2014-06-01T13:35:25Z</time>
      </trkpt>
      <trkpt lat="45.2826" lon="5.07457">
        <ele>455.09721019731</ele>
        <time>2014-06-01T13:35:30Z</time>
      </trkpt>
      <trkpt lat="45.28259" lon="5.07456">
        <ele>455.09721019731</ele>
        <time>2014-06-01T13:35:35Z</time>
      </trkpt>
      <trkpt lat="45.28259" lon="5.07456">
        <ele>455.09721019731</ele>
        <time>2014-06-01T13:35:40Z</time>
      </trkpt>
      <trkpt lat="45.28258" lon="5.07456">
        <ele>455.09721019731</ele>
        <time>2014-06-01T13:35:45Z</time>
      </trkpt>
      <trkpt lat="45.28257" lon="5.07455">
        <ele>455.09721019731</ele>
        <time>2014-06-01T13:35:50Z</time>
      </trkpt>
      <trkpt lat="45.28256" lon="5.07455">
        <ele>455.09721019731</ele>
        <time>2014-06-01T13:35:55Z</time>
      </trkpt>
      <trkpt lat="45.28256" lon="5.07455">
        <ele>455.09721019731</ele>
        <time>2014-06-01T13:36:00Z</time>
      </trkpt>
      <trkpt lat="45.28256" lon="5.07455">
        <ele>455.09721019731</ele>
        <time>2014-06-01T13:36:05Z</time>
      </trkpt>
      <trkpt lat="45.28256" lon="5.07455">
        <ele>455.09721019731</ele>
        <time>2014-06-01T13:36:10Z</time>
      </trkpt>
      <trkpt lat="45.28256" lon="5.07455">
        <ele>455.09721019731</ele>
        <time>2014-06-01T13:36:15Z</time>
      </trkpt>
      <trkpt lat="45.28256" lon="5.07455">
        <ele>455.09721019731</ele>
        <time>2014-06-01T13:36:20Z</time>
      </trkpt>
      <trkpt lat="45.28256" lon="5.07455">
        <ele>455.09721019731</ele>
        <time>2014-06-01T13:36:25Z</time>
      </trkpt>
      <trkpt lat="45.28256" lon="5.07455">
        <ele>455.09721019731</ele>
        <time>2014-06-01T13:36:30Z</time>
      </trkpt>
      <trkpt lat="45.28257" lon="5.07455">
        <ele>455.09721019731</ele>
        <time>2014-06-01T13:36:35Z</time>
      </trkpt>
      <trkpt lat="45.28256" lon="5.07453">
        <ele>455.09721019731</ele>
        <time>2014-06-01T13:36:40Z</time>
      </trkpt>
      <trkpt lat="45.28257" lon="5.07456">
        <ele>456.37136137066</ele>
        <time>2014-06-01T13:36:45Z</time>
      </trkpt>
      <trkpt lat="45.28258" lon="5.07457">
        <ele>456.37136137066</ele>
        <time>2014-06-01T13:36:50Z</time>
      </trkpt>
      <trkpt lat="45.28258" lon="5.07457">
        <ele>456.37136137066</ele>
        <time>2014-06-01T13:36:55Z</time>
      </trkpt>
      <trkpt lat="45.28258" lon="5.07457">
        <ele>456.37136137066</ele>
        <time>2014-06-01T13:37:00Z</time>
      </trkpt>
      <trkpt lat="45.28259" lon="5.07455">
        <ele>456.37136137066</ele>
        <time>2014-06-01T13:37:05Z</time>
      </trkpt>
      <trkpt lat="45.28259" lon="5.07452">
        <ele>456.37136137066</ele>
        <time>2014-06-01T13:37:10Z</time>
      </trkpt>
      <trkpt lat="45.28253" lon="5.07447">
        <ele>458.11339633317</ele>
        <time>2014-06-01T13:37:15Z</time>
      </trkpt>
      <trkpt lat="45.28247" lon="5.07441">
        <ele>458.11339633317</ele>
        <time>2014-06-01T13:37:20Z</time>
      </trkpt>
      <trkpt lat="45.28243" lon="5.07432">
        <ele>460.03750366171</ele>
        <time>2014-06-01T13:37:25Z</time>
      </trkpt>
      <trkpt lat="45.28239" lon="5.07426">
        <ele>460.03750366171</ele>
        <time>2014-06-01T13:37:30Z</time>
      </trkpt>
      <trkpt lat="45.2824" lon="5.07426">
        <ele>460.03750366171</ele>
        <time>2014-06-01T13:37:35Z</time>
      </trkpt>
      <trkpt lat="45.28237" lon="5.0742">
        <ele>461.88190557353</ele>
        <time>2014-06-01T13:37:40Z</time>
      </trkpt>
      <trkpt lat="45.28233" lon="5.07412">
        <ele>461.88190557353</ele>
        <time>2014-06-01T13:37:45Z</time>
      </trkpt>
      <trkpt lat="45.28231" lon="5.07408">
        <ele>463.65049857922</ele>
        <time>2014-06-01T13:37:50Z</time>
      </trkpt>
      <trkpt lat="45.28231" lon="5.07408">
        <ele>463.65049857922</ele>
        <time>2014-06-01T13:37:55Z</time>
      </trkpt>
      <trkpt lat="45.28232" lon="5.07406">
        <ele>463.65049857922</ele>
        <time>2014-06-01T13:38:00Z</time>
      </trkpt>
      <trkpt lat="45.28228" lon="5.07399">
        <ele>463.65049857922</ele>
        <time>2014-06-01T13:38:05Z</time>
      </trkpt>
      <trkpt lat="45.28223" lon="5.07393">
        <ele>465.37135876599</ele>
        <time>2014-06-01T13:38:10Z</time>
      </trkpt>
      <trkpt lat="45.28218" lon="5.07388">
        <ele>465.37135876599</ele>
        <time>2014-06-01T13:38:15Z</time>
      </trkpt>
      <trkpt lat="45.28215" lon="5.0738">
        <ele>466.65813520981</ele>
        <time>2014-06-01T13:38:20Z</time>
      </trkpt>
      <trkpt lat="45.28212" lon="5.07371">
        <ele>466.65813520981</ele>
        <time>2014-06-01T13:38:25Z</time>
      </trkpt>
      <trkpt lat="45.28208" lon="5.07363">
        <ele>467.53431416914</ele>
        <time>2014-06-01T13:38:30Z</time>
      </trkpt>
      <trkpt lat="45.28204" lon="5.07354">
        <ele>467.53431416914</ele>
        <time>2014-06-01T13:38:35Z</time>
      </trkpt>
      <trkpt lat="45.28201" lon="5.07345">
        <ele>467.90589180649</ele>
        <time>2014-06-01T13:38:40Z</time>
      </trkpt>
      <trkpt lat="45.28198" lon="5.07337">
        <ele>467.90589180649</ele>
        <time>2014-06-01T13:38:45Z</time>
      </trkpt>
      <trkpt lat="45.28196" lon="5.07328">
        <ele>467.78919392421</ele>
        <time>2014-06-01T13:38:50Z</time>
      </trkpt>
      <trkpt lat="45.28193" lon="5.07319">
        <ele>467.78919392421</ele>
        <time>2014-06-01T13:38:55Z</time>
      </trkpt>
      <trkpt lat="45.28189" lon="5.0731">
        <ele>467.48220813692</ele>
        <time>2014-06-01T13:39:00Z</time>
      </trkpt>
      <trkpt lat="45.28185" lon="5.07301">
        <ele>467.48220813692</ele>
        <time>2014-06-01T13:39:05Z</time>
      </trkpt>
      <trkpt lat="45.28182" lon="5.07293">
        <ele>467.04992121874</ele>
        <time>2014-06-01T13:39:10Z</time>
      </trkpt>
      <trkpt lat="45.28179" lon="5.07284">
        <ele>467.04992121874</ele>
        <time>2014-06-01T13:39:15Z</time>
      </trkpt>
      <trkpt lat="45.28177" lon="5.07274">
        <ele>466.52012037565</ele>
        <time>2014-06-01T13:39:20Z</time>
      </trkpt>
      <trkpt lat="45.28175" lon="5.07264">
        <ele>466.52012037565</ele>
        <time>2014-06-01T13:39:25Z</time>
      </trkpt>
      <trkpt lat="45.28173" lon="5.07254">
        <ele>465.80078398293</ele>
        <time>2014-06-01T13:39:30Z</time>
      </trkpt>
      <trkpt lat="45.28172" lon="5.07244">
        <ele>465.80078398293</ele>
        <time>2014-06-01T13:39:35Z</time>
      </trkpt>
      <trkpt lat="45.28174" lon="5.07234">
        <ele>464.97126948719</ele>
        <time>2014-06-01T13:39:40Z</time>
      </trkpt>
      <trkpt lat="45.28175" lon="5.07224">
        <ele>464.97126948719</ele>
        <time>2014-06-01T13:39:45Z</time>
      </trkpt>
      <trkpt lat="45.28176" lon="5.07213">
        <ele>464.14716818577</ele>
        <time>2014-06-01T13:39:50Z</time>
      </trkpt>
      <trkpt lat="45.28177" lon="5.07203">
        <ele>464.14716818577</ele>
        <time>2014-06-01T13:39:55Z</time>
      </trkpt>
      <trkpt lat="45.28178" lon="5.07194">
        <ele>463.29830665644</ele>
        <time>2014-06-01T13:40:00Z</time>
      </trkpt>
      <trkpt lat="45.2818" lon="5.07184">
        <ele>463.29830665644</ele>
        <time>2014-06-01T13:40:05Z</time>
      </trkpt>
      <trkpt lat="45.28183" lon="5.07175">
        <ele>462.47297508372</ele>
        <time>2014-06-01T13:40:10Z</time>
      </trkpt>
      <trkpt lat="45.28185" lon="5.07165">
        <ele>462.47297508372</ele>
        <time>2014-06-01T13:40:15Z</time>
      </trkpt>
      <trkpt lat="45.28187" lon="5.07156">
        <ele>461.60167553821</ele>
        <time>2014-06-01T13:40:20Z</time>
      </trkpt>
      <trkpt lat="45.2819" lon="5.07148">
        <ele>461.60167553821</ele>
        <time>2014-06-01T13:40:25Z</time>
      </trkpt>
      <trkpt lat="45.28192" lon="5.0714">
        <ele>460.7582715775</ele>
        <time>2014-06-01T13:40:30Z</time>
      </trkpt>
      <trkpt lat="45.28192" lon="5.07131">
        <ele>460.7582715775</ele>
        <time>2014-06-01T13:40:35Z</time>
      </trkpt>
      <trkpt lat="45.28193" lon="5.07121">
        <ele>459.89992946019</ele>
        <time>2014-06-01T13:40:40Z</time>
      </trkpt>
      <trkpt lat="45.28192" lon="5.07112">
        <ele>459.89992946019</ele>
        <time>2014-06-01T13:40:45Z</time>
      </trkpt>
      <trkpt lat="45.28191" lon="5.07102">
        <ele>459.04653519331</ele>
        <time>2014-06-01T13:40:50Z</time>
      </trkpt>
      <trkpt lat="45.28188" lon="5.07093">
        <ele>459.04653519331</ele>
        <time>2014-06-01T13:40:55Z</time>
      </trkpt>
      <trkpt lat="45.28186" lon="5.07083">
        <ele>458.24324077953</ele>
        <time>2014-06-01T13:41:00Z</time>
      </trkpt>
      <trkpt lat="45.28183" lon="5.07072">
        <ele>458.24324077953</ele>
        <time>2014-06-01T13:41:05Z</time>
      </trkpt>
      <trkpt lat="45.28182" lon="5.07064">
        <ele>457.586367965</ele>
        <time>2014-06-01T13:41:10Z</time>
      </trkpt>
      <trkpt lat="45.28181" lon="5.07054">
        <ele>457.586367965</ele>
        <time>2014-06-01T13:41:15Z</time>
      </trkpt>
      <trkpt lat="45.28182" lon="5.07045">
        <ele>456.98987672145</ele>
        <time>2014-06-01T13:41:20Z</time>
      </trkpt>
      <trkpt lat="45.28183" lon="5.07037">
        <ele>456.98987672145</ele>
        <time>2014-06-01T13:41:25Z</time>
      </trkpt>
      <trkpt lat="45.28185" lon="5.07035">
        <ele>456.98987672145</ele>
        <time>2014-06-01T13:41:30Z</time>
      </trkpt>
      <trkpt lat="45.28188" lon="5.07039">
        <ele>456.37687716774</ele>
        <time>2014-06-01T13:41:35Z</time>
      </trkpt>
      <trkpt lat="45.28188" lon="5.07048">
        <ele>456.37687716774</ele>
        <time>2014-06-01T13:41:40Z</time>
      </trkpt>
      <trkpt lat="45.28187" lon="5.07057">
        <ele>455.65008459909</ele>
        <time>2014-06-01T13:41:45Z</time>
      </trkpt>
      <trkpt lat="45.28188" lon="5.07057">
        <ele>455.65008459909</ele>
        <time>2014-06-01T13:41:50Z</time>
      </trkpt>
      <trkpt lat="45.28188" lon="5.07056">
        <ele>455.65008459909</ele>
        <time>2014-06-01T13:41:55Z</time>
      </trkpt>
      <trkpt lat="45.28188" lon="5.07055">
        <ele>455.65008459909</ele>
        <time>2014-06-01T13:42:00Z</time>
      </trkpt>
      <trkpt lat="45.28187" lon="5.07051">
        <ele>455.65008459909</ele>
        <time>2014-06-01T13:42:05Z</time>
      </trkpt>
      <trkpt lat="45.28187" lon="5.07045">
        <ele>454.98598724134</ele>
        <time>2014-06-01T13:42:10Z</time>
      </trkpt>
      <trkpt lat="45.28183" lon="5.07036">
        <ele>454.98598724134</ele>
        <time>2014-06-01T13:42:15Z</time>
      </trkpt>
      <trkpt lat="45.28182" lon="5.07025">
        <ele>454.42054059884</ele>
        <time>2014-06-01T13:42:20Z</time>
      </trkpt>
      <trkpt lat="45.28182" lon="5.07015">
        <ele>454.42054059884</ele>
        <time>2014-06-01T13:42:25Z</time>
      </trkpt>
      <trkpt lat="45.28183" lon="5.07004">
        <ele>453.87643340008</ele>
        <time>2014-06-01T13:42:30Z</time>
      </trkpt>
      <trkpt lat="45.28184" lon="5.06994">
        <ele>453.87643340008</ele>
        <time>2014-06-01T13:42:36Z</time>
      </trkpt>
      <trkpt lat="45.28184" lon="5.06986">
        <ele>453.35217347252</ele>
        <time>2014-06-01T13:42:40Z</time>
      </trkpt>
      <trkpt lat="45.28185" lon="5.06976">
        <ele>453.35217347252</ele>
        <time>2014-06-01T13:42:45Z</time>
      </trkpt>
      <trkpt lat="45.28185" lon="5.06965">
        <ele>452.93029478954</ele>
        <time>2014-06-01T13:42:50Z</time>
      </trkpt>
      <trkpt lat="45.28185" lon="5.06955">
        <ele>452.93029478954</ele>
        <time>2014-06-01T13:42:55Z</time>
      </trkpt>
      <trkpt lat="45.28186" lon="5.06945">
        <ele>452.6049177317</ele>
        <time>2014-06-01T13:43:00Z</time>
      </trkpt>
      <trkpt lat="45.28189" lon="5.06935">
        <ele>452.6049177317</ele>
        <time>2014-06-01T13:43:05Z</time>
      </trkpt>
      <trkpt lat="45.28189" lon="5.06924">
        <ele>452.2589532718</ele>
        <time>2014-06-01T13:43:10Z</time>
      </trkpt>
      <trkpt lat="45.28189" lon="5.06914">
        <ele>452.2589532718</ele>
        <time>2014-06-01T13:43:15Z</time>
      </trkpt>
      <trkpt lat="45.28189" lon="5.06904">
        <ele>451.95134461783</ele>
        <time>2014-06-01T13:43:20Z</time>
      </trkpt>
      <trkpt lat="45.28189" lon="5.06894">
        <ele>451.95134461783</ele>
        <time>2014-06-01T13:43:25Z</time>
      </trkpt>
      <trkpt lat="45.28188" lon="5.06885">
        <ele>451.78064308369</ele>
        <time>2014-06-01T13:43:30Z</time>
      </trkpt>
      <trkpt lat="45.28188" lon="5.06874">
        <ele>451.78064308369</ele>
        <time>2014-06-01T13:43:35Z</time>
      </trkpt>
      <trkpt lat="45.28187" lon="5.06866">
        <ele>451.62620167659</ele>
        <time>2014-06-01T13:43:40Z</time>
      </trkpt>
      <trkpt lat="45.28187" lon="5.06856">
        <ele>451.62620167659</ele>
        <time>2014-06-01T13:43:45Z</time>
      </trkpt>
      <trkpt lat="45.28186" lon="5.06846">
        <ele>451.63216357023</ele>
        <time>2014-06-01T13:43:50Z</time>
      </trkpt>
      <trkpt lat="45.28185" lon="5.06837">
        <ele>451.63216357023</ele>
        <time>2014-06-01T13:43:55Z</time>
      </trkpt>
      <trkpt lat="45.28182" lon="5.06825">
        <ele>451.77579848773</ele>
        <time>2014-06-01T13:44:00Z</time>
      </trkpt>
      <trkpt lat="45.28179" lon="5.06816">
        <ele>451.77579848773</ele>
        <time>2014-06-01T13:44:05Z</time>
      </trkpt>
      <trkpt lat="45.28176" lon="5.06808">
        <ele>452.02030139444</ele>
        <time>2014-06-01T13:44:10Z</time>
      </trkpt>
      <trkpt lat="45.28172" lon="5.06802">
        <ele>452.02030139444</ele>
        <time>2014-06-01T13:44:15Z</time>
      </trkpt>
      <trkpt lat="45.28167" lon="5.06794">
        <ele>452.43279814177</ele>
        <time>2014-06-01T13:44:20Z</time>
      </trkpt>
      <trkpt lat="45.28162" lon="5.06786">
        <ele>452.43279814177</ele>
        <time>2014-06-01T13:44:25Z</time>
      </trkpt>
      <trkpt lat="45.28156" lon="5.06779">
        <ele>452.94313414307</ele>
        <time>2014-06-01T13:44:30Z</time>
      </trkpt>
      <trkpt lat="45.2815" lon="5.06773">
        <ele>452.94313414307</ele>
        <time>2014-06-01T13:44:35Z</time>
      </trkpt>
      <trkpt lat="45.28145" lon="5.06767">
        <ele>453.55846822156</ele>
        <time>2014-06-01T13:44:40Z</time>
      </trkpt>
      <trkpt lat="45.28139" lon="5.0676">
        <ele>453.55846822156</ele>
        <time>2014-06-01T13:44:45Z</time>
      </trkpt>
      <trkpt lat="45.28134" lon="5.06754">
        <ele>454.22528500614</ele>
        <time>2014-06-01T13:44:50Z</time>
      </trkpt>
      <trkpt lat="45.2813" lon="5.06748">
        <ele>454.22528500614</ele>
        <time>2014-06-01T13:44:55Z</time>
      </trkpt>
      <trkpt lat="45.28124" lon="5.06742">
        <ele>454.89293990746</ele>
        <time>2014-06-01T13:45:00Z</time>
      </trkpt>
      <trkpt lat="45.2812" lon="5.06736">
        <ele>454.89293990746</ele>
        <time>2014-06-01T13:45:05Z</time>
      </trkpt>
      <trkpt lat="45.28114" lon="5.06731">
        <ele>455.25889086009</ele>
        <time>2014-06-01T13:45:10Z</time>
      </trkpt>
      <trkpt lat="45.28108" lon="5.06726">
        <ele>455.25889086009</ele>
        <time>2014-06-01T13:45:15Z</time>
      </trkpt>
      <trkpt lat="45.28102" lon="5.06721">
        <ele>455.44838692019</ele>
        <time>2014-06-01T13:45:20Z</time>
      </trkpt>
      <trkpt lat="45.281" lon="5.06711">
        <ele>455.44838692019</ele>
        <time>2014-06-01T13:45:25Z</time>
      </trkpt>
      <trkpt lat="45.28104" lon="5.06702">
        <ele>455.47390835756</ele>
        <time>2014-06-01T13:45:30Z</time>
      </trkpt>
      <trkpt lat="45.28109" lon="5.06694">
        <ele>455.47390835756</ele>
        <time>2014-06-01T13:45:35Z</time>
      </trkpt>
      <trkpt lat="45.28112" lon="5.06684">
        <ele>455.43860669253</ele>
        <time>2014-06-01T13:45:40Z</time>
      </trkpt>
      <trkpt lat="45.28116" lon="5.06675">
        <ele>455.43860669253</ele>
        <time>2014-06-01T13:45:45Z</time>
      </trkpt>
      <trkpt lat="45.28119" lon="5.06667">
        <ele>455.15165431701</ele>
        <time>2014-06-01T13:45:50Z</time>
      </trkpt>
      <trkpt lat="45.28123" lon="5.06658">
        <ele>455.15165431701</ele>
        <time>2014-06-01T13:45:55Z</time>
      </trkpt>
      <trkpt lat="45.28126" lon="5.06649">
        <ele>454.67934905692</ele>
        <time>2014-06-01T13:46:00Z</time>
      </trkpt>
      <trkpt lat="45.28129" lon="5.06639">
        <ele>454.67934905692</ele>
        <time>2014-06-01T13:46:05Z</time>
      </trkpt>
      <trkpt lat="45.28132" lon="5.0663">
        <ele>453.99325952258</ele>
        <time>2014-06-01T13:46:10Z</time>
      </trkpt>
      <trkpt lat="45.28135" lon="5.06619">
        <ele>453.99325952258</ele>
        <time>2014-06-01T13:46:15Z</time>
      </trkpt>
      <trkpt lat="45.28138" lon="5.06612">
        <ele>453.52030254743</ele>
        <time>2014-06-01T13:46:20Z</time>
      </trkpt>
      <trkpt lat="45.28141" lon="5.06603">
        <ele>453.52030254743</ele>
        <time>2014-06-01T13:46:25Z</time>
      </trkpt>
      <trkpt lat="45.28145" lon="5.06592">
        <ele>453.12529484951</ele>
        <time>2014-06-01T13:46:30Z</time>
      </trkpt>
      <trkpt lat="45.28148" lon="5.06585">
        <ele>453.12529484951</ele>
        <time>2014-06-01T13:46:35Z</time>
      </trkpt>
      <trkpt lat="45.28152" lon="5.06576">
        <ele>452.69856966032</ele>
        <time>2014-06-01T13:46:40Z</time>
      </trkpt>
      <trkpt lat="45.28156" lon="5.06566">
        <ele>452.69856966032</ele>
        <time>2014-06-01T13:46:45Z</time>
      </trkpt>
      <trkpt lat="45.28158" lon="5.06559">
        <ele>452.27447325133</ele>
        <time>2014-06-01T13:46:50Z</time>
      </trkpt>
      <trkpt lat="45.28162" lon="5.06548">
        <ele>452.27447325133</ele>
        <time>2014-06-01T13:46:55Z</time>
      </trkpt>
      <trkpt lat="45.28165" lon="5.06541">
        <ele>451.82453925568</ele>
        <time>2014-06-01T13:47:00Z</time>
      </trkpt>
      <trkpt lat="45.28169" lon="5.0653">
        <ele>451.82453925568</ele>
        <time>2014-06-01T13:47:05Z</time>
      </trkpt>
      <trkpt lat="45.28171" lon="5.06522">
        <ele>451.4719883025</ele>
        <time>2014-06-01T13:47:10Z</time>
      </trkpt>
      <trkpt lat="45.28176" lon="5.06512">
        <ele>451.4719883025</ele>
        <time>2014-06-01T13:47:15Z</time>
      </trkpt>
      <trkpt lat="45.28178" lon="5.06505">
        <ele>451.01652747517</ele>
        <time>2014-06-01T13:47:20Z</time>
      </trkpt>
      <trkpt lat="45.28183" lon="5.06495">
        <ele>451.01652747517</ele>
        <time>2014-06-01T13:47:25Z</time>
      </trkpt>
      <trkpt lat="45.28186" lon="5.06487">
        <ele>450.39383379973</ele>
        <time>2014-06-01T13:47:30Z</time>
      </trkpt>
      <trkpt lat="45.28189" lon="5.06478">
        <ele>450.39383379973</ele>
        <time>2014-06-01T13:47:35Z</time>
      </trkpt>
      <trkpt lat="45.28193" lon="5.06469">
        <ele>449.79735902166</ele>
        <time>2014-06-01T13:47:40Z</time>
      </trkpt>
      <trkpt lat="45.28196" lon="5.06459">
        <ele>449.79735902166</ele>
        <time>2014-06-01T13:47:45Z</time>
      </trkpt>
      <trkpt lat="45.28198" lon="5.0645">
        <ele>449.15283925911</ele>
        <time>2014-06-01T13:47:51Z</time>
      </trkpt>
      <trkpt lat="45.28201" lon="5.06442">
        <ele>449.15283925911</ele>
        <time>2014-06-01T13:47:55Z</time>
      </trkpt>
      <trkpt lat="45.28204" lon="5.06433">
        <ele>448.65774527636</ele>
        <time>2014-06-01T13:48:00Z</time>
      </trkpt>
      <trkpt lat="45.28208" lon="5.06425">
        <ele>448.65774527636</ele>
        <time>2014-06-01T13:48:05Z</time>
      </trkpt>
      <trkpt lat="45.28212" lon="5.06416">
        <ele>448.25723386964</ele>
        <time>2014-06-01T13:48:10Z</time>
      </trkpt>
      <trkpt lat="45.28215" lon="5.06408">
        <ele>448.25723386964</ele>
        <time>2014-06-01T13:48:15Z</time>
      </trkpt>
      <trkpt lat="45.28218" lon="5.06398">
        <ele>447.81268407654</ele>
        <time>2014-06-01T13:48:20Z</time>
      </trkpt>
      <trkpt lat="45.28221" lon="5.06389">
        <ele>447.81268407654</ele>
        <time>2014-06-01T13:48:25Z</time>
      </trkpt>
      <trkpt lat="45.28224" lon="5.06381">
        <ele>447.28487811295</ele>
        <time>2014-06-01T13:48:30Z</time>
      </trkpt>
      <trkpt lat="45.28226" lon="5.06373">
        <ele>447.28487811295</ele>
        <time>2014-06-01T13:48:35Z</time>
      </trkpt>
      <trkpt lat="45.28229" lon="5.06364">
        <ele>446.72567037879</ele>
        <time>2014-06-01T13:48:40Z</time>
      </trkpt>
      <trkpt lat="45.28233" lon="5.06355">
        <ele>446.72567037879</ele>
        <time>2014-06-01T13:48:45Z</time>
      </trkpt>
      <trkpt lat="45.28237" lon="5.06346">
        <ele>446.12435691995</ele>
        <time>2014-06-01T13:48:50Z</time>
      </trkpt>
      <trkpt lat="45.2824" lon="5.06338">
        <ele>446.12435691995</ele>
        <time>2014-06-01T13:48:55Z</time>
      </trkpt>
      <trkpt lat="45.28243" lon="5.0633">
        <ele>445.48571810801</ele>
        <time>2014-06-01T13:49:00Z</time>
      </trkpt>
      <trkpt lat="45.28245" lon="5.06322">
        <ele>445.48571810801</ele>
        <time>2014-06-01T13:49:05Z</time>
      </trkpt>
      <trkpt lat="45.28248" lon="5.06313">
        <ele>444.85782061938</ele>
        <time>2014-06-01T13:49:10Z</time>
      </trkpt>
      <trkpt lat="45.28252" lon="5.06304">
        <ele>444.85782061938</ele>
        <time>2014-06-01T13:49:15Z</time>
      </trkpt>
      <trkpt lat="45.28258" lon="5.063">
        <ele>444.31388908438</ele>
        <time>2014-06-01T13:49:20Z</time>
      </trkpt>
      <trkpt lat="45.28263" lon="5.06299">
        <ele>444.31388908438</ele>
        <time>2014-06-01T13:49:25Z</time>
      </trkpt>
      <trkpt lat="45.28262" lon="5.06298">
        <ele>444.31388908438</ele>
        <time>2014-06-01T13:49:30Z</time>
      </trkpt>
      <trkpt lat="45.28267" lon="5.063">
        <ele>444.03717939816</ele>
        <time>2014-06-01T13:49:35Z</time>
      </trkpt>
      <trkpt lat="45.28272" lon="5.06306">
        <ele>444.03717939816</ele>
        <time>2014-06-01T13:49:40Z</time>
      </trkpt>
      <trkpt lat="45.28277" lon="5.0631">
        <ele>444.12353938943</ele>
        <time>2014-06-01T13:49:45Z</time>
      </trkpt>
      <trkpt lat="45.28279" lon="5.06312">
        <ele>444.12353938943</ele>
        <time>2014-06-01T13:49:50Z</time>
      </trkpt>
      <trkpt lat="45.28278" lon="5.06311">
        <ele>444.12353938943</ele>
        <time>2014-06-01T13:49:55Z</time>
      </trkpt>
      <trkpt lat="45.28278" lon="5.06313">
        <ele>444.12353938943</ele>
        <time>2014-06-01T13:50:00Z</time>
      </trkpt>
      <trkpt lat="45.28278" lon="5.06323">
        <ele>444.44343434919</ele>
        <time>2014-06-01T13:50:05Z</time>
      </trkpt>
      <trkpt lat="45.28283" lon="5.0633">
        <ele>444.44343434919</ele>
        <time>2014-06-01T13:50:10Z</time>
      </trkpt>
      <trkpt lat="45.28289" lon="5.06336">
        <ele>444.57308238451</ele>
        <time>2014-06-01T13:50:15Z</time>
      </trkpt>
      <trkpt lat="45.28295" lon="5.06342">
        <ele>444.57308238451</ele>
        <time>2014-06-01T13:50:20Z</time>
      </trkpt>
      <trkpt lat="45.283" lon="5.06348">
        <ele>444.78632808041</ele>
        <time>2014-06-01T13:50:25Z</time>
      </trkpt>
      <trkpt lat="45.28305" lon="5.06355">
        <ele>444.78632808041</ele>
        <time>2014-06-01T13:50:30Z</time>
      </trkpt>
      <trkpt lat="45.2831" lon="5.06362">
        <ele>445.04705543434</ele>
        <time>2014-06-01T13:50:35Z</time>
      </trkpt>
      <trkpt lat="45.28316" lon="5.06369">
        <ele>445.04705543434</ele>
        <time>2014-06-01T13:50:40Z</time>
      </trkpt>
      <trkpt lat="45.28321" lon="5.06376">
        <ele>445.408345494</ele>
        <time>2014-06-01T13:50:45Z</time>
      </trkpt>
      <trkpt lat="45.28326" lon="5.06383">
        <ele>445.408345494</ele>
        <time>2014-06-01T13:50:50Z</time>
      </trkpt>
      <trkpt lat="45.28332" lon="5.0639">
        <ele>445.65926061656</ele>
        <time>2014-06-01T13:50:55Z</time>
      </trkpt>
      <trkpt lat="45.28338" lon="5.06397">
        <ele>445.65926061656</ele>
        <time>2014-06-01T13:51:00Z</time>
      </trkpt>
      <trkpt lat="45.28343" lon="5.06404">
        <ele>445.8789994565</ele>
        <time>2014-06-01T13:51:05Z</time>
      </trkpt>
      <trkpt lat="45.28349" lon="5.06411">
        <ele>445.8789994565</ele>
        <time>2014-06-01T13:51:10Z</time>
      </trkpt>
      <trkpt lat="45.28354" lon="5.06419">
        <ele>445.98225067027</ele>
        <time>2014-06-01T13:51:15Z</time>
      </trkpt>
      <trkpt lat="45.2836" lon="5.06426">
        <ele>445.98225067027</ele>
        <time>2014-06-01T13:51:20Z</time>
      </trkpt>
      <trkpt lat="45.28367" lon="5.06425">
        <ele>445.74611715928</ele>
        <time>2014-06-01T13:51:25Z</time>
      </trkpt>
      <trkpt lat="45.28372" lon="5.06419">
        <ele>445.74611715928</ele>
        <time>2014-06-01T13:51:30Z</time>
      </trkpt>
      <trkpt lat="45.28375" lon="5.06412">
        <ele>445.51299019254</ele>
        <time>2014-06-01T13:51:35Z</time>
      </trkpt>
      <trkpt lat="45.2838" lon="5.06407">
        <ele>445.51299019254</ele>
        <time>2014-06-01T13:51:40Z</time>
      </trkpt>
      <trkpt lat="45.28385" lon="5.06401">
        <ele>445.35483880485</ele>
        <time>2014-06-01T13:51:45Z</time>
      </trkpt>
      <trkpt lat="45.2839" lon="5.06398">
        <ele>445.35483880485</ele>
        <time>2014-06-01T13:51:50Z</time>
      </trkpt>
      <trkpt lat="45.28393" lon="5.06393">
        <ele>444.06937894369</ele>
        <time>2014-06-01T13:51:55Z</time>
      </trkpt>
      <trkpt lat="45.28397" lon="5.06391">
        <ele>444.06937894369</ele>
        <time>2014-06-01T13:52:00Z</time>
      </trkpt>
      <trkpt lat="45.28403" lon="5.06388">
        <ele>442.07410555818</ele>
        <time>2014-06-01T13:52:05Z</time>
      </trkpt>
      <trkpt lat="45.28408" lon="5.06383">
        <ele>442.07410555818</ele>
        <time>2014-06-01T13:52:10Z</time>
      </trkpt>
      <trkpt lat="45.28413" lon="5.06378">
        <ele>439.91635010771</ele>
        <time>2014-06-01T13:52:15Z</time>
      </trkpt>
      <trkpt lat="45.2842" lon="5.06371">
        <ele>439.91635010771</ele>
        <time>2014-06-01T13:52:20Z</time>
      </trkpt>
      <trkpt lat="45.28426" lon="5.06366">
        <ele>438.33439857295</ele>
        <time>2014-06-01T13:52:25Z</time>
      </trkpt>
      <trkpt lat="45.28432" lon="5.06361">
        <ele>438.33439857295</ele>
        <time>2014-06-01T13:52:30Z</time>
      </trkpt>
      <trkpt lat="45.28437" lon="5.06359">
        <ele>436.45346307023</ele>
        <time>2014-06-01T13:52:35Z</time>
      </trkpt>
      <trkpt lat="45.28441" lon="5.06353">
        <ele>436.45346307023</ele>
        <time>2014-06-01T13:52:40Z</time>
      </trkpt>
      <trkpt lat="45.28445" lon="5.06345">
        <ele>434.31449586236</ele>
        <time>2014-06-01T13:52:45Z</time>
      </trkpt>
      <trkpt lat="45.28451" lon="5.06339">
        <ele>434.31449586236</ele>
        <time>2014-06-01T13:52:50Z</time>
      </trkpt>
      <trkpt lat="45.28458" lon="5.06334">
        <ele>431.37927522146</ele>
        <time>2014-06-01T13:52:55Z</time>
      </trkpt>
      <trkpt lat="45.28464" lon="5.06333">
        <ele>431.37927522146</ele>
        <time>2014-06-01T13:53:00Z</time>
      </trkpt>
      <trkpt lat="45.28469" lon="5.06324">
        <ele>428.50687476882</ele>
        <time>2014-06-01T13:53:05Z</time>
      </trkpt>
      <trkpt lat="45.28476" lon="5.0632">
        <ele>428.50687476882</ele>
        <time>2014-06-01T13:53:10Z</time>
      </trkpt>
      <trkpt lat="45.28482" lon="5.06314">
        <ele>426.26235754782</ele>
        <time>2014-06-01T13:53:15Z</time>
      </trkpt>
      <trkpt lat="45.2849" lon="5.06308">
        <ele>426.26235754782</ele>
        <time>2014-06-01T13:53:20Z</time>
      </trkpt>
      <trkpt lat="45.28499" lon="5.06302">
        <ele>424.11456720779</ele>
        <time>2014-06-01T13:53:25Z</time>
      </trkpt>
      <trkpt lat="45.28506" lon="5.06298">
        <ele>424.11456720779</ele>
        <time>2014-06-01T13:53:30Z</time>
      </trkpt>
      <trkpt lat="45.28515" lon="5.06295">
        <ele>422.63828830302</ele>
        <time>2014-06-01T13:53:35Z</time>
      </trkpt>
      <trkpt lat="45.28521" lon="5.06294">
        <ele>422.63828830302</ele>
        <time>2014-06-01T13:53:40Z</time>
      </trkpt>
      <trkpt lat="45.28525" lon="5.06293">
        <ele>422.4650573822</ele>
        <time>2014-06-01T13:53:45Z</time>
      </trkpt>
      <trkpt lat="45.28529" lon="5.06288">
        <ele>422.4650573822</ele>
        <time>2014-06-01T13:53:50Z</time>
      </trkpt>
      <trkpt lat="45.28534" lon="5.0628">
        <ele>422.50298673919</ele>
        <time>2014-06-01T13:53:55Z</time>
      </trkpt>
      <trkpt lat="45.28538" lon="5.06271">
        <ele>422.50298673919</ele>
        <time>2014-06-01T13:54:00Z</time>
      </trkpt>
      <trkpt lat="45.28541" lon="5.0627">
        <ele>422.85037851033</ele>
        <time>2014-06-01T13:54:05Z</time>
      </trkpt>
      <trkpt lat="45.28543" lon="5.06267">
        <ele>422.85037851033</ele>
        <time>2014-06-01T13:54:10Z</time>
      </trkpt>
      <trkpt lat="45.28547" lon="5.06259">
        <ele>422.91939415268</ele>
        <time>2014-06-01T13:54:15Z</time>
      </trkpt>
      <trkpt lat="45.2855" lon="5.06251">
        <ele>422.91939415268</ele>
        <time>2014-06-01T13:54:20Z</time>
      </trkpt>
      <trkpt lat="45.28553" lon="5.06244">
        <ele>422.61328584729</ele>
        <time>2014-06-01T13:54:25Z</time>
      </trkpt>
      <trkpt lat="45.28555" lon="5.06236">
        <ele>422.61328584729</ele>
        <time>2014-06-01T13:54:30Z</time>
      </trkpt>
      <trkpt lat="45.2856" lon="5.06228">
        <ele>422.2472923953</ele>
        <time>2014-06-01T13:54:35Z</time>
      </trkpt>
      <trkpt lat="45.28565" lon="5.06225">
        <ele>422.2472923953</ele>
        <time>2014-06-01T13:54:40Z</time>
      </trkpt>
      <trkpt lat="45.28568" lon="5.06219">
        <ele>421.10392523378</ele>
        <time>2014-06-01T13:54:45Z</time>
      </trkpt>
      <trkpt lat="45.28572" lon="5.06213">
        <ele>421.10392523378</ele>
        <time>2014-06-01T13:54:50Z</time>
      </trkpt>
      <trkpt lat="45.28576" lon="5.06206">
        <ele>419.87641875558</ele>
        <time>2014-06-01T13:54:55Z</time>
      </trkpt>
      <trkpt lat="45.2858" lon="5.06198">
        <ele>419.87641875558</ele>
        <time>2014-06-01T13:55:00Z</time>
      </trkpt>
      <trkpt lat="45.28582" lon="5.0619">
        <ele>418.26969254211</ele>
        <time>2014-06-01T13:55:05Z</time>
      </trkpt>
      <trkpt lat="45.28584" lon="5.0618">
        <ele>418.26969254211</ele>
        <time>2014-06-01T13:55:10Z</time>
      </trkpt>
      <trkpt lat="45.28586" lon="5.0617">
        <ele>417.06419998301</ele>
        <time>2014-06-01T13:55:15Z</time>
      </trkpt>
      <trkpt lat="45.28588" lon="5.06161">
        <ele>417.06419998301</ele>
        <time>2014-06-01T13:55:20Z</time>
      </trkpt>
      <trkpt lat="45.28589" lon="5.06151">
        <ele>415.62613952595</ele>
        <time>2014-06-01T13:55:25Z</time>
      </trkpt>
      <trkpt lat="45.28589" lon="5.06142">
        <ele>415.62613952595</ele>
        <time>2014-06-01T13:55:30Z</time>
      </trkpt>
      <trkpt lat="45.2859" lon="5.06133">
        <ele>414.43610169206</ele>
        <time>2014-06-01T13:55:35Z</time>
      </trkpt>
      <trkpt lat="45.28592" lon="5.06124">
        <ele>414.43610169206</ele>
        <time>2014-06-01T13:55:40Z</time>
      </trkpt>
      <trkpt lat="45.28594" lon="5.06117">
        <ele>412.9003049077</ele>
        <time>2014-06-01T13:55:45Z</time>
      </trkpt>
      <trkpt lat="45.28596" lon="5.0611">
        <ele>412.9003049077</ele>
        <time>2014-06-01T13:55:50Z</time>
      </trkpt>
      <trkpt lat="45.28599" lon="5.06102">
        <ele>411.14731077102</ele>
        <time>2014-06-01T13:55:55Z</time>
      </trkpt>
      <trkpt lat="45.28604" lon="5.06092">
        <ele>411.14731077102</ele>
        <time>2014-06-01T13:56:00Z</time>
      </trkpt>
      <trkpt lat="45.28608" lon="5.06082">
        <ele>409.46977291383</ele>
        <time>2014-06-01T13:56:05Z</time>
      </trkpt>
      <trkpt lat="45.28613" lon="5.06071">
        <ele>407.95108425976</ele>
        <time>2014-06-01T13:56:10Z</time>
      </trkpt>
      <trkpt lat="45.28616" lon="5.06065">
        <ele>407.95108425976</ele>
        <time>2014-06-01T13:56:15Z</time>
      </trkpt>
      <trkpt lat="45.2862" lon="5.06057">
        <ele>406.75448527052</ele>
        <time>2014-06-01T13:56:20Z</time>
      </trkpt>
      <trkpt lat="45.28625" lon="5.06045">
        <ele>406.63570088243</ele>
        <time>2014-06-01T13:56:25Z</time>
      </trkpt>
      <trkpt lat="45.2863" lon="5.0603">
        <ele>407.05201147745</ele>
        <time>2014-06-01T13:56:30Z</time>
      </trkpt>
      <trkpt lat="45.28633" lon="5.06019">
        <ele>407.05201147745</ele>
        <time>2014-06-01T13:56:35Z</time>
      </trkpt>
      <trkpt lat="45.28638" lon="5.06009">
        <ele>407.5423603136</ele>
        <time>2014-06-01T13:56:40Z</time>
      </trkpt>
      <trkpt lat="45.28644" lon="5.05997">
        <ele>408.74604435038</ele>
        <time>2014-06-01T13:56:45Z</time>
      </trkpt>
      <trkpt lat="45.28648" lon="5.05993">
        <ele>408.74604435038</ele>
        <time>2014-06-01T13:56:50Z</time>
      </trkpt>
      <trkpt lat="45.28653" lon="5.05986">
        <ele>409.42274469238</ele>
        <time>2014-06-01T13:56:55Z</time>
      </trkpt>
      <trkpt lat="45.28658" lon="5.05979">
        <ele>409.42274469238</ele>
        <time>2014-06-01T13:57:00Z</time>
      </trkpt>
      <trkpt lat="45.28662" lon="5.0597">
        <ele>409.73649450749</ele>
        <time>2014-06-01T13:57:05Z</time>
      </trkpt>
      <trkpt lat="45.28664" lon="5.05964">
        <ele>409.73649450749</ele>
        <time>2014-06-01T13:57:10Z</time>
      </trkpt>
      <trkpt lat="45.28669" lon="5.0596">
        <ele>409.56642927366</ele>
        <time>2014-06-01T13:57:15Z</time>
      </trkpt>
      <trkpt lat="45.28673" lon="5.05959">
        <ele>409.56642927366</ele>
        <time>2014-06-01T13:57:20Z</time>
      </trkpt>
      <trkpt lat="45.28678" lon="5.05956">
        <ele>409.10460494509</ele>
        <time>2014-06-01T13:57:25Z</time>
      </trkpt>
      <trkpt lat="45.28684" lon="5.05954">
        <ele>409.10460494509</ele>
        <time>2014-06-01T13:57:30Z</time>
      </trkpt>
      <trkpt lat="45.28688" lon="5.05957">
        <ele>409.07745535749</ele>
        <time>2014-06-01T13:57:35Z</time>
      </trkpt>
      <trkpt lat="45.28694" lon="5.05958">
        <ele>409.07745535749</ele>
        <time>2014-06-01T13:57:40Z</time>
      </trkpt>
      <trkpt lat="45.28701" lon="5.05953">
        <ele>408.83089813527</ele>
        <time>2014-06-01T13:57:45Z</time>
      </trkpt>
      <trkpt lat="45.28709" lon="5.05943">
        <ele>408.11988140476</ele>
        <time>2014-06-01T13:57:50Z</time>
      </trkpt>
      <trkpt lat="45.28717" lon="5.05935">
        <ele>407.87163189516</ele>
        <time>2014-06-01T13:57:55Z</time>
      </trkpt>
      <trkpt lat="45.28723" lon="5.05931">
        <ele>407.87163189516</ele>
        <time>2014-06-01T13:58:00Z</time>
      </trkpt>
      <trkpt lat="45.28727" lon="5.05928">
        <ele>407.32986855329</ele>
        <time>2014-06-01T13:58:05Z</time>
      </trkpt>
      <trkpt lat="45.28732" lon="5.05921">
        <ele>407.32986855329</ele>
        <time>2014-06-01T13:58:10Z</time>
      </trkpt>
      <trkpt lat="45.28736" lon="5.05912">
        <ele>406.2703256344</ele>
        <time>2014-06-01T13:58:15Z</time>
      </trkpt>
      <trkpt lat="45.28739" lon="5.05907">
        <ele>406.2703256344</ele>
        <time>2014-06-01T13:58:20Z</time>
      </trkpt>
      <trkpt lat="45.28744" lon="5.059">
        <ele>404.6019886596</ele>
        <time>2014-06-01T13:58:25Z</time>
      </trkpt>
      <trkpt lat="45.28748" lon="5.05894">
        <ele>404.6019886596</ele>
        <time>2014-06-01T13:58:30Z</time>
      </trkpt>
      <trkpt lat="45.28753" lon="5.05886">
        <ele>402.96282734756</ele>
        <time>2014-06-01T13:58:35Z</time>
      </trkpt>
      <trkpt lat="45.2876" lon="5.05878">
        <ele>401.67006320514</ele>
        <time>2014-06-01T13:58:40Z</time>
      </trkpt>
      <trkpt lat="45.28766" lon="5.05868">
        <ele>400.85813406488</ele>
        <time>2014-06-01T13:58:45Z</time>
      </trkpt>
      <trkpt lat="45.28773" lon="5.05861">
        <ele>400.85813406488</ele>
        <time>2014-06-01T13:58:50Z</time>
      </trkpt>
      <trkpt lat="45.28777" lon="5.05858">
        <ele>399.71353337569</ele>
        <time>2014-06-01T13:58:55Z</time>
      </trkpt>
      <trkpt lat="45.2878" lon="5.05854">
        <ele>399.71353337569</ele>
        <time>2014-06-01T13:59:00Z</time>
      </trkpt>
      <trkpt lat="45.28784" lon="5.05849">
        <ele>398.05990401894</ele>
        <time>2014-06-01T13:59:05Z</time>
      </trkpt>
      <trkpt lat="45.28789" lon="5.05844">
        <ele>398.05990401894</ele>
        <time>2014-06-01T13:59:10Z</time>
      </trkpt>
      <trkpt lat="45.28797" lon="5.05838">
        <ele>396.48465799336</ele>
        <time>2014-06-01T13:59:15Z</time>
      </trkpt>
      <trkpt lat="45.28806" lon="5.05832">
        <ele>395.05626173376</ele>
        <time>2014-06-01T13:59:20Z</time>
      </trkpt>
      <trkpt lat="45.28814" lon="5.05825">
        <ele>394.08272490318</ele>
        <time>2014-06-01T13:59:25Z</time>
      </trkpt>
      <trkpt lat="45.28819" lon="5.0582">
        <ele>394.08272490318</ele>
        <time>2014-06-01T13:59:30Z</time>
      </trkpt>
      <trkpt lat="45.28824" lon="5.05816">
        <ele>393.61756376473</ele>
        <time>2014-06-01T13:59:35Z</time>
      </trkpt>
      <trkpt lat="45.28831" lon="5.05809">
        <ele>393.61756376473</ele>
        <time>2014-06-01T13:59:40Z</time>
      </trkpt>
      <trkpt lat="45.28837" lon="5.05803">
        <ele>392.25337518661</ele>
        <time>2014-06-01T13:59:45Z</time>
      </trkpt>
      <trkpt lat="45.28845" lon="5.058">
        <ele>392.25337518661</ele>
        <time>2014-06-01T13:59:50Z</time>
      </trkpt>
      <trkpt lat="45.28851" lon="5.05795">
        <ele>390.95123345816</ele>
        <time>2014-06-01T13:59:55Z</time>
      </trkpt>
      <trkpt lat="45.28853" lon="5.05795">
        <ele>390.95123345816</ele>
        <time>2014-06-01T14:00:00Z</time>
      </trkpt>
      <trkpt lat="45.28857" lon="5.05793">
        <ele>390.95123345816</ele>
        <time>2014-06-01T14:00:05Z</time>
      </trkpt>
      <trkpt lat="45.28863" lon="5.05793">
        <ele>389.50615947006</ele>
        <time>2014-06-01T14:00:10Z</time>
      </trkpt>
      <trkpt lat="45.28871" lon="5.05791">
        <ele>389.50615947006</ele>
        <time>2014-06-01T14:00:15Z</time>
      </trkpt>
      <trkpt lat="45.28882" lon="5.05789">
        <ele>388.99682239175</ele>
        <time>2014-06-01T14:00:20Z</time>
      </trkpt>
      <trkpt lat="45.2889" lon="5.05791">
        <ele>388.99682239175</ele>
        <time>2014-06-01T14:00:25Z</time>
      </trkpt>
      <trkpt lat="45.28896" lon="5.05793">
        <ele>388.22947125219</ele>
        <time>2014-06-01T14:00:30Z</time>
      </trkpt>
      <trkpt lat="45.28901" lon="5.05794">
        <ele>388.22947125219</ele>
        <time>2014-06-01T14:00:35Z</time>
      </trkpt>
      <trkpt lat="45.28907" lon="5.05792">
        <ele>386.27168698074</ele>
        <time>2014-06-01T14:00:40Z</time>
      </trkpt>
      <trkpt lat="45.28914" lon="5.0579">
        <ele>386.27168698074</ele>
        <time>2014-06-01T14:00:45Z</time>
      </trkpt>
      <trkpt lat="45.28924" lon="5.05791">
        <ele>385.90897095368</ele>
        <time>2014-06-01T14:00:50Z</time>
      </trkpt>
      <trkpt lat="45.28932" lon="5.05792">
        <ele>385.90897095368</ele>
        <time>2014-06-01T14:00:55Z</time>
      </trkpt>
      <trkpt lat="45.28941" lon="5.05794">
        <ele>384.44310562995</ele>
        <time>2014-06-01T14:01:00Z</time>
      </trkpt>
      <trkpt lat="45.28949" lon="5.05795">
        <ele>384.44310562995</ele>
        <time>2014-06-01T14:01:05Z</time>
      </trkpt>
      <trkpt lat="45.28956" lon="5.05795">
        <ele>382.59092021654</ele>
        <time>2014-06-01T14:01:10Z</time>
      </trkpt>
      <trkpt lat="45.28964" lon="5.05794">
        <ele>382.59092021654</ele>
        <time>2014-06-01T14:01:15Z</time>
      </trkpt>
      <trkpt lat="45.28971" lon="5.05795">
        <ele>381.24822939844</ele>
        <time>2014-06-01T14:01:20Z</time>
      </trkpt>
      <trkpt lat="45.28979" lon="5.05796">
        <ele>381.24822939844</ele>
        <time>2014-06-01T14:01:25Z</time>
      </trkpt>
      <trkpt lat="45.28986" lon="5.05799">
        <ele>380.20595848228</ele>
        <time>2014-06-01T14:01:30Z</time>
      </trkpt>
      <trkpt lat="45.28991" lon="5.05799">
        <ele>380.20595848228</ele>
        <time>2014-06-01T14:01:35Z</time>
      </trkpt>
      <trkpt lat="45.28997" lon="5.05801">
        <ele>379.03893779997</ele>
        <time>2014-06-01T14:01:40Z</time>
      </trkpt>
      <trkpt lat="45.29001" lon="5.05801">
        <ele>379.03893779997</ele>
        <time>2014-06-01T14:01:45Z</time>
      </trkpt>
      <trkpt lat="45.29005" lon="5.05801">
        <ele>379.03893779997</ele>
        <time>2014-06-01T14:01:50Z</time>
      </trkpt>
      <trkpt lat="45.29011" lon="5.058">
        <ele>376.43121788444</ele>
        <time>2014-06-01T14:01:55Z</time>
      </trkpt>
      <trkpt lat="45.29014" lon="5.058">
        <ele>376.43121788444</ele>
        <time>2014-06-01T14:02:00Z</time>
      </trkpt>
      <trkpt lat="45.2902" lon="5.05798">
        <ele>373.31483436985</ele>
        <time>2014-06-01T14:02:05Z</time>
      </trkpt>
      <trkpt lat="45.29024" lon="5.05794">
        <ele>373.31483436985</ele>
        <time>2014-06-01T14:02:10Z</time>
      </trkpt>
      <trkpt lat="45.29029" lon="5.05788">
        <ele>370.07915683593</ele>
        <time>2014-06-01T14:02:15Z</time>
      </trkpt>
      <trkpt lat="45.29036" lon="5.05784">
        <ele>370.07915683593</ele>
        <time>2014-06-01T14:02:20Z</time>
      </trkpt>
      <trkpt lat="45.29041" lon="5.05778">
        <ele>367.58962808536</ele>
        <time>2014-06-01T14:02:25Z</time>
      </trkpt>
      <trkpt lat="45.29048" lon="5.05771">
        <ele>367.58962808536</ele>
        <time>2014-06-01T14:02:30Z</time>
      </trkpt>
      <trkpt lat="45.2905" lon="5.05767">
        <ele>364.77247008234</ele>
        <time>2014-06-01T14:02:35Z</time>
      </trkpt>
      <trkpt lat="45.29056" lon="5.0576">
        <ele>364.77247008234</ele>
        <time>2014-06-01T14:02:40Z</time>
      </trkpt>
      <trkpt lat="45.29061" lon="5.05757">
        <ele>362.26211498405</ele>
        <time>2014-06-01T14:02:45Z</time>
      </trkpt>
      <trkpt lat="45.29066" lon="5.05749">
        <ele>362.26211498405</ele>
        <time>2014-06-01T14:02:50Z</time>
      </trkpt>
      <trkpt lat="45.29068" lon="5.05745">
        <ele>359.50694234787</ele>
        <time>2014-06-01T14:02:55Z</time>
      </trkpt>
      <trkpt lat="45.29071" lon="5.05739">
        <ele>359.50694234787</ele>
        <time>2014-06-01T14:03:00Z</time>
      </trkpt>
      <trkpt lat="45.29076" lon="5.05732">
        <ele>357.46640517146</ele>
        <time>2014-06-01T14:03:05Z</time>
      </trkpt>
      <trkpt lat="45.29079" lon="5.05724">
        <ele>357.46640517146</ele>
        <time>2014-06-01T14:03:10Z</time>
      </trkpt>
      <trkpt lat="45.29081" lon="5.05719">
        <ele>354.89449416041</ele>
        <time>2014-06-01T14:03:15Z</time>
      </trkpt>
      <trkpt lat="45.29085" lon="5.05712">
        <ele>354.89449416041</ele>
        <time>2014-06-01T14:03:20Z</time>
      </trkpt>
      <trkpt lat="45.29088" lon="5.05708">
        <ele>352.25218948833</ele>
        <time>2014-06-01T14:03:25Z</time>
      </trkpt>
      <trkpt lat="45.29093" lon="5.05702">
        <ele>352.25218948833</ele>
        <time>2014-06-01T14:03:30Z</time>
      </trkpt>
      <trkpt lat="45.29102" lon="5.05696">
        <ele>350.34139042208</ele>
        <time>2014-06-01T14:03:35Z</time>
      </trkpt>
      <trkpt lat="45.29107" lon="5.05692">
        <ele>350.34139042208</ele>
        <time>2014-06-01T14:03:40Z</time>
      </trkpt>
      <trkpt lat="45.29112" lon="5.05687">
        <ele>348.40415718227</ele>
        <time>2014-06-01T14:03:45Z</time>
      </trkpt>
      <trkpt lat="45.29117" lon="5.05683">
        <ele>348.40415718227</ele>
        <time>2014-06-01T14:03:50Z</time>
      </trkpt>
      <trkpt lat="45.2912" lon="5.05681">
        <ele>346.38670407686</ele>
        <time>2014-06-01T14:03:55Z</time>
      </trkpt>
      <trkpt lat="45.29126" lon="5.05679">
        <ele>346.38670407686</ele>
        <time>2014-06-01T14:04:00Z</time>
      </trkpt>
      <trkpt lat="45.29129" lon="5.05677">
        <ele>343.64845512368</ele>
        <time>2014-06-01T14:04:05Z</time>
      </trkpt>
      <trkpt lat="45.29134" lon="5.05673">
        <ele>343.64845512368</ele>
        <time>2014-06-01T14:04:10Z</time>
      </trkpt>
      <trkpt lat="45.29141" lon="5.05668">
        <ele>340.80834873891</ele>
        <time>2014-06-01T14:04:15Z</time>
      </trkpt>
      <trkpt lat="45.29149" lon="5.05662">
        <ele>340.80834873891</ele>
        <time>2014-06-01T14:04:20Z</time>
      </trkpt>
      <trkpt lat="45.29154" lon="5.05661">
        <ele>338.1373965971</ele>
        <time>2014-06-01T14:04:25Z</time>
      </trkpt>
      <trkpt lat="45.2916" lon="5.05656">
        <ele>338.1373965971</ele>
        <time>2014-06-01T14:04:30Z</time>
      </trkpt>
      <trkpt lat="45.29163" lon="5.05652">
        <ele>335.56907028513</ele>
        <time>2014-06-01T14:04:35Z</time>
      </trkpt>
      <trkpt lat="45.29167" lon="5.05645">
        <ele>335.56907028513</ele>
        <time>2014-06-01T14:04:40Z</time>
      </trkpt>
      <trkpt lat="45.29169" lon="5.05641">
        <ele>333.04132803622</ele>
        <time>2014-06-01T14:04:45Z</time>
      </trkpt>
      <trkpt lat="45.29175" lon="5.05631">
        <ele>333.04132803622</ele>
        <time>2014-06-01T14:04:50Z</time>
      </trkpt>
      <trkpt lat="45.29178" lon="5.05625">
        <ele>330.39557948478</ele>
        <time>2014-06-01T14:04:55Z</time>
      </trkpt>
      <trkpt lat="45.29183" lon="5.05616">
        <ele>330.39557948478</ele>
        <time>2014-06-01T14:05:00Z</time>
      </trkpt>
      <trkpt lat="45.29186" lon="5.05609">
        <ele>327.8309681234</ele>
        <time>2014-06-01T14:05:05Z</time>
      </trkpt>
      <trkpt lat="45.29188" lon="5.05604">
        <ele>327.8309681234</ele>
        <time>2014-06-01T14:05:10Z</time>
      </trkpt>
      <trkpt lat="45.29189" lon="5.05604">
        <ele>327.8309681234</ele>
        <time>2014-06-01T14:05:15Z</time>
      </trkpt>
      <trkpt lat="45.29191" lon="5.05598">
        <ele>325.43078768359</ele>
        <time>2014-06-01T14:05:20Z</time>
      </trkpt>
      <trkpt lat="45.29194" lon="5.05592">
        <ele>325.43078768359</ele>
        <time>2014-06-01T14:05:25Z</time>
      </trkpt>
      <trkpt lat="45.29199" lon="5.05584">
        <ele>323.35810509569</ele>
        <time>2014-06-01T14:05:30Z</time>
      </trkpt>
      <trkpt lat="45.29204" lon="5.05578">
        <ele>323.35810509569</ele>
        <time>2014-06-01T14:05:35Z</time>
      </trkpt>
      <trkpt lat="45.29211" lon="5.05571">
        <ele>321.51798957545</ele>
        <time>2014-06-01T14:05:40Z</time>
      </trkpt>
      <trkpt lat="45.29216" lon="5.05566">
        <ele>321.51798957545</ele>
        <time>2014-06-01T14:05:45Z</time>
      </trkpt>
      <trkpt lat="45.29222" lon="5.05562">
        <ele>319.90819225039</ele>
        <time>2014-06-01T14:05:50Z</time>
      </trkpt>
      <trkpt lat="45.29227" lon="5.05559">
        <ele>319.90819225039</ele>
        <time>2014-06-01T14:05:55Z</time>
      </trkpt>
      <trkpt lat="45.29228" lon="5.05557">
        <ele>319.90819225039</ele>
        <time>2014-06-01T14:06:00Z</time>
      </trkpt>
      <trkpt lat="45.29231" lon="5.05551">
        <ele>318.64117311267</ele>
        <time>2014-06-01T14:06:05Z</time>
      </trkpt>
      <trkpt lat="45.29232" lon="5.05538">
        <ele>317.40215601423</ele>
        <time>2014-06-01T14:06:10Z</time>
      </trkpt>
      <trkpt lat="45.29234" lon="5.05529">
        <ele>317.40215601423</ele>
        <time>2014-06-01T14:06:15Z</time>
      </trkpt>
      <trkpt lat="45.29236" lon="5.05518">
        <ele>316.18755113334</ele>
        <time>2014-06-01T14:06:20Z</time>
      </trkpt>
      <trkpt lat="45.29239" lon="5.05508">
        <ele>316.18755113334</ele>
        <time>2014-06-01T14:06:25Z</time>
      </trkpt>
      <trkpt lat="45.29243" lon="5.05499">
        <ele>315.38299418436</ele>
        <time>2014-06-01T14:06:30Z</time>
      </trkpt>
      <trkpt lat="45.29247" lon="5.05491">
        <ele>315.38299418436</ele>
        <time>2014-06-01T14:06:35Z</time>
      </trkpt>
      <trkpt lat="45.29251" lon="5.05482">
        <ele>314.89783936467</ele>
        <time>2014-06-01T14:06:40Z</time>
      </trkpt>
      <trkpt lat="45.29254" lon="5.05475">
        <ele>314.89783936467</ele>
        <time>2014-06-01T14:06:45Z</time>
      </trkpt>
      <trkpt lat="45.29258" lon="5.05463">
        <ele>314.6903923662</ele>
        <time>2014-06-01T14:06:50Z</time>
      </trkpt>
      <trkpt lat="45.29261" lon="5.05455">
        <ele>314.6903923662</ele>
        <time>2014-06-01T14:06:55Z</time>
      </trkpt>
      <trkpt lat="45.29264" lon="5.05444">
        <ele>314.63474574221</ele>
        <time>2014-06-01T14:07:00Z</time>
      </trkpt>
      <trkpt lat="45.29267" lon="5.05437">
        <ele>314.63474574221</ele>
        <time>2014-06-01T14:07:05Z</time>
      </trkpt>
      <trkpt lat="45.29271" lon="5.05427">
        <ele>314.49851137612</ele>
        <time>2014-06-01T14:07:10Z</time>
      </trkpt>
      <trkpt lat="45.29271" lon="5.05421">
        <ele>314.49851137612</ele>
        <time>2014-06-01T14:07:15Z</time>
      </trkpt>
      <trkpt lat="45.29272" lon="5.05413">
        <ele>313.86484213142</ele>
        <time>2014-06-01T14:07:20Z</time>
      </trkpt>
      <trkpt lat="45.29273" lon="5.05404">
        <ele>313.86484213142</ele>
        <time>2014-06-01T14:07:25Z</time>
      </trkpt>
      <trkpt lat="45.29273" lon="5.05396">
        <ele>313.17035425166</ele>
        <time>2014-06-01T14:07:30Z</time>
      </trkpt>
      <trkpt lat="45.29272" lon="5.05387">
        <ele>313.17035425166</ele>
        <time>2014-06-01T14:07:35Z</time>
      </trkpt>
      <trkpt lat="45.29271" lon="5.05377">
        <ele>312.60361813947</ele>
        <time>2014-06-01T14:07:40Z</time>
      </trkpt>
      <trkpt lat="45.2927" lon="5.05367">
        <ele>312.60361813947</ele>
        <time>2014-06-01T14:07:45Z</time>
      </trkpt>
      <trkpt lat="45.29269" lon="5.05356">
        <ele>312.41108301117</ele>
        <time>2014-06-01T14:07:50Z</time>
      </trkpt>
      <trkpt lat="45.29267" lon="5.05345">
        <ele>312.41108301117</ele>
        <time>2014-06-01T14:07:55Z</time>
      </trkpt>
      <trkpt lat="45.29265" lon="5.05335">
        <ele>312.4165760572</ele>
        <time>2014-06-01T14:08:00Z</time>
      </trkpt>
      <trkpt lat="45.29261" lon="5.05327">
        <ele>312.4165760572</ele>
        <time>2014-06-01T14:08:05Z</time>
      </trkpt>
      <trkpt lat="45.29255" lon="5.05328">
        <ele>312.77340874432</ele>
        <time>2014-06-01T14:08:10Z</time>
      </trkpt>
      <trkpt lat="45.29252" lon="5.05336">
        <ele>312.77340874432</ele>
        <time>2014-06-01T14:08:15Z</time>
      </trkpt>
      <trkpt lat="45.29249" lon="5.05347">
        <ele>313.59388803433</ele>
        <time>2014-06-01T14:08:20Z</time>
      </trkpt>
      <trkpt lat="45.29247" lon="5.05356">
        <ele>313.59388803433</ele>
        <time>2014-06-01T14:08:25Z</time>
      </trkpt>
      <trkpt lat="45.29245" lon="5.05363">
        <ele>314.6782156812</ele>
        <time>2014-06-01T14:08:30Z</time>
      </trkpt>
      <trkpt lat="45.29241" lon="5.05371">
        <ele>314.6782156812</ele>
        <time>2014-06-01T14:08:35Z</time>
      </trkpt>
      <trkpt lat="45.29236" lon="5.05379">
        <ele>315.99914680659</ele>
        <time>2014-06-01T14:08:40Z</time>
      </trkpt>
      <trkpt lat="45.29231" lon="5.05387">
        <ele>315.99914680659</ele>
        <time>2014-06-01T14:08:45Z</time>
      </trkpt>
      <trkpt lat="45.29227" lon="5.05394">
        <ele>317.70381830105</ele>
        <time>2014-06-01T14:08:50Z</time>
      </trkpt>
      <trkpt lat="45.29222" lon="5.05401">
        <ele>317.70381830105</ele>
        <time>2014-06-01T14:08:55Z</time>
      </trkpt>
      <trkpt lat="45.29217" lon="5.05407">
        <ele>319.42322022689</ele>
        <time>2014-06-01T14:09:00Z</time>
      </trkpt>
      <trkpt lat="45.29212" lon="5.05415">
        <ele>319.42322022689</ele>
        <time>2014-06-01T14:09:05Z</time>
      </trkpt>
      <trkpt lat="45.29206" lon="5.05422">
        <ele>321.3775876656</ele>
        <time>2014-06-01T14:09:10Z</time>
      </trkpt>
      <trkpt lat="45.29202" lon="5.05428">
        <ele>321.3775876656</ele>
        <time>2014-06-01T14:09:15Z</time>
      </trkpt>
      <trkpt lat="45.29196" lon="5.05434">
        <ele>322.7472894761</ele>
        <time>2014-06-01T14:09:20Z</time>
      </trkpt>
      <trkpt lat="45.29195" lon="5.05435">
        <ele>322.7472894761</ele>
        <time>2014-06-01T14:09:25Z</time>
      </trkpt>
      <trkpt lat="45.29195" lon="5.05436">
        <ele>322.7472894761</ele>
        <time>2014-06-01T14:09:30Z</time>
      </trkpt>
      <trkpt lat="45.29194" lon="5.05436">
        <ele>322.7472894761</ele>
        <time>2014-06-01T14:09:35Z</time>
      </trkpt>
      <trkpt lat="45.29194" lon="5.05435">
        <ele>322.7472894761</ele>
        <time>2014-06-01T14:09:40Z</time>
      </trkpt>
      <trkpt lat="45.29194" lon="5.05427">
        <ele>324.27347762967</ele>
        <time>2014-06-01T14:09:45Z</time>
      </trkpt>
      <trkpt lat="45.29195" lon="5.0542">
        <ele>324.27347762967</ele>
        <time>2014-06-01T14:09:50Z</time>
      </trkpt>
      <trkpt lat="45.29195" lon="5.05414">
        <ele>326.23909856129</ele>
        <time>2014-06-01T14:09:55Z</time>
      </trkpt>
      <trkpt lat="45.29196" lon="5.05417">
        <ele>326.23909856129</ele>
        <time>2014-06-01T14:10:00Z</time>
      </trkpt>
      <trkpt lat="45.29195" lon="5.05421">
        <ele>326.23909856129</ele>
        <time>2014-06-01T14:10:05Z</time>
      </trkpt>
      <trkpt lat="45.29193" lon="5.05426">
        <ele>327.43534630826</ele>
        <time>2014-06-01T14:10:10Z</time>
      </trkpt>
      <trkpt lat="45.29192" lon="5.05432">
        <ele>327.43534630826</ele>
        <time>2014-06-01T14:10:15Z</time>
      </trkpt>
      <trkpt lat="45.29199" lon="5.05433">
        <ele>328.40185938158</ele>
        <time>2014-06-01T14:10:20Z</time>
      </trkpt>
      <trkpt lat="45.29204" lon="5.05425">
        <ele>328.40185938158</ele>
        <time>2014-06-01T14:10:25Z</time>
      </trkpt>
      <trkpt lat="45.2921" lon="5.05419">
        <ele>329.13510397475</ele>
        <time>2014-06-01T14:10:30Z</time>
      </trkpt>
      <trkpt lat="45.29216" lon="5.05413">
        <ele>329.13510397475</ele>
        <time>2014-06-01T14:10:35Z</time>
      </trkpt>
      <trkpt lat="45.29223" lon="5.05407">
        <ele>330.19471175016</ele>
        <time>2014-06-01T14:10:40Z</time>
      </trkpt>
      <trkpt lat="45.29228" lon="5.05399">
        <ele>330.19471175016</ele>
        <time>2014-06-01T14:10:45Z</time>
      </trkpt>
      <trkpt lat="45.29231" lon="5.05392">
        <ele>330.91679447855</ele>
        <time>2014-06-01T14:10:50Z</time>
      </trkpt>
      <trkpt lat="45.29237" lon="5.05385">
        <ele>330.91679447855</ele>
        <time>2014-06-01T14:10:55Z</time>
      </trkpt>
      <trkpt lat="45.29241" lon="5.05376">
        <ele>331.68176455136</ele>
        <time>2014-06-01T14:11:00Z</time>
      </trkpt>
      <trkpt lat="45.29246" lon="5.05367">
        <ele>331.68176455136</ele>
        <time>2014-06-01T14:11:05Z</time>
      </trkpt>
      <trkpt lat="45.29251" lon="5.05358">
        <ele>332.61160712912</ele>
        <time>2014-06-01T14:11:10Z</time>
      </trkpt>
      <trkpt lat="45.29253" lon="5.05349">
        <ele>332.61160712912</ele>
        <time>2014-06-01T14:11:15Z</time>
      </trkpt>
      <trkpt lat="45.29256" lon="5.0534">
        <ele>332.91119624366</ele>
        <time>2014-06-01T14:11:20Z</time>
      </trkpt>
      <trkpt lat="45.29257" lon="5.0533">
        <ele>332.91119624366</ele>
        <time>2014-06-01T14:11:25Z</time>
      </trkpt>
      <trkpt lat="45.29259" lon="5.0532">
        <ele>333.08514860855</ele>
        <time>2014-06-01T14:11:30Z</time>
      </trkpt>
      <trkpt lat="45.29258" lon="5.0531">
        <ele>333.08514860855</ele>
        <time>2014-06-01T14:11:35Z</time>
      </trkpt>
      <trkpt lat="45.29257" lon="5.053">
        <ele>332.88101053813</ele>
        <time>2014-06-01T14:11:40Z</time>
      </trkpt>
      <trkpt lat="45.29256" lon="5.05289">
        <ele>332.88101053813</ele>
        <time>2014-06-01T14:11:45Z</time>
      </trkpt>
      <trkpt lat="45.29254" lon="5.05279">
        <ele>332.23906054281</ele>
        <time>2014-06-01T14:11:50Z</time>
      </trkpt>
      <trkpt lat="45.29252" lon="5.0527">
        <ele>332.23906054281</ele>
        <time>2014-06-01T14:11:55Z</time>
      </trkpt>
      <trkpt lat="45.2925" lon="5.0526">
        <ele>331.58094081502</ele>
        <time>2014-06-01T14:12:00Z</time>
      </trkpt>
      <trkpt lat="45.29249" lon="5.05249">
        <ele>331.58094081502</ele>
        <time>2014-06-01T14:12:05Z</time>
      </trkpt>
      <trkpt lat="45.29248" lon="5.05238">
        <ele>330.90843338749</ele>
        <time>2014-06-01T14:12:10Z</time>
      </trkpt>
      <trkpt lat="45.29246" lon="5.05228">
        <ele>330.90843338749</ele>
        <time>2014-06-01T14:12:15Z</time>
      </trkpt>
      <trkpt lat="45.29244" lon="5.05217">
        <ele>330.30985090531</ele>
        <time>2014-06-01T14:12:20Z</time>
      </trkpt>
      <trkpt lat="45.29242" lon="5.05207">
        <ele>330.30985090531</ele>
        <time>2014-06-01T14:12:25Z</time>
      </trkpt>
      <trkpt lat="45.2924" lon="5.05197">
        <ele>329.50667348349</ele>
        <time>2014-06-01T14:12:30Z</time>
      </trkpt>
      <trkpt lat="45.29237" lon="5.05186">
        <ele>329.50667348349</ele>
        <time>2014-06-01T14:12:35Z</time>
      </trkpt>
      <trkpt lat="45.29236" lon="5.05176">
        <ele>328.71710853386</ele>
        <time>2014-06-01T14:12:40Z</time>
      </trkpt>
      <trkpt lat="45.29234" lon="5.05165">
        <ele>328.71710853386</ele>
        <time>2014-06-01T14:12:45Z</time>
      </trkpt>
      <trkpt lat="45.29231" lon="5.05155">
        <ele>327.91283114604</ele>
        <time>2014-06-01T14:12:50Z</time>
      </trkpt>
      <trkpt lat="45.29228" lon="5.05145">
        <ele>327.91283114604</ele>
        <time>2014-06-01T14:12:55Z</time>
      </trkpt>
      <trkpt lat="45.29226" lon="5.05135">
        <ele>327.19743881855</ele>
        <time>2014-06-01T14:13:00Z</time>
      </trkpt>
      <trkpt lat="45.29224" lon="5.05125">
        <ele>327.19743881855</ele>
        <time>2014-06-01T14:13:05Z</time>
      </trkpt>
      <trkpt lat="45.29221" lon="5.05116">
        <ele>326.4650018442</ele>
        <time>2014-06-01T14:13:10Z</time>
      </trkpt>
      <trkpt lat="45.29218" lon="5.05107">
        <ele>326.4650018442</ele>
        <time>2014-06-01T14:13:15Z</time>
      </trkpt>
      <trkpt lat="45.29215" lon="5.05097">
        <ele>325.83366330184</ele>
        <time>2014-06-01T14:13:20Z</time>
      </trkpt>
      <trkpt lat="45.29211" lon="5.0509">
        <ele>325.83366330184</ele>
        <time>2014-06-01T14:13:25Z</time>
      </trkpt>
      <trkpt lat="45.29208" lon="5.05081">
        <ele>325.00915853833</ele>
        <time>2014-06-01T14:13:30Z</time>
      </trkpt>
      <trkpt lat="45.29206" lon="5.05071">
        <ele>325.00915853833</ele>
        <time>2014-06-01T14:13:35Z</time>
      </trkpt>
      <trkpt lat="45.29203" lon="5.05061">
        <ele>324.09412595841</ele>
        <time>2014-06-01T14:13:40Z</time>
      </trkpt>
      <trkpt lat="45.29199" lon="5.05054">
        <ele>324.09412595841</ele>
        <time>2014-06-01T14:13:45Z</time>
      </trkpt>
      <trkpt lat="45.29196" lon="5.05045">
        <ele>322.92456321427</ele>
        <time>2014-06-01T14:13:50Z</time>
      </trkpt>
      <trkpt lat="45.29194" lon="5.05035">
        <ele>322.92456321427</ele>
        <time>2014-06-01T14:13:55Z</time>
      </trkpt>
      <trkpt lat="45.29191" lon="5.05024">
        <ele>321.78159765581</ele>
        <time>2014-06-01T14:14:00Z</time>
      </trkpt>
      <trkpt lat="45.29191" lon="5.05014">
        <ele>321.78159765581</ele>
        <time>2014-06-01T14:14:05Z</time>
      </trkpt>
      <trkpt lat="45.29191" lon="5.05008">
        <ele>320.60860982922</ele>
        <time>2014-06-01T14:14:10Z</time>
      </trkpt>
      <trkpt lat="45.29191" lon="5.04998">
        <ele>320.60860982922</ele>
        <time>2014-06-01T14:14:15Z</time>
      </trkpt>
      <trkpt lat="45.29191" lon="5.04987">
        <ele>319.64145959646</ele>
        <time>2014-06-01T14:14:20Z</time>
      </trkpt>
      <trkpt lat="45.29191" lon="5.04977">
        <ele>319.64145959646</ele>
        <time>2014-06-01T14:14:25Z</time>
      </trkpt>
      <trkpt lat="45.29193" lon="5.04968">
        <ele>318.56489562734</ele>
        <time>2014-06-01T14:14:30Z</time>
      </trkpt>
      <trkpt lat="45.29196" lon="5.04958">
        <ele>318.56489562734</ele>
        <time>2014-06-01T14:14:35Z</time>
      </trkpt>
      <trkpt lat="45.29199" lon="5.04948">
        <ele>317.49063783288</ele>
        <time>2014-06-01T14:14:40Z</time>
      </trkpt>
      <trkpt lat="45.29203" lon="5.04939">
        <ele>317.49063783288</ele>
        <time>2014-06-01T14:14:45Z</time>
      </trkpt>
      <trkpt lat="45.29208" lon="5.04931">
        <ele>316.52217981276</ele>
        <time>2014-06-01T14:14:50Z</time>
      </trkpt>
      <trkpt lat="45.29214" lon="5.04924">
        <ele>316.52217981276</ele>
        <time>2014-06-01T14:14:55Z</time>
      </trkpt>
      <trkpt lat="45.29221" lon="5.04917">
        <ele>315.51010679192</ele>
        <time>2014-06-01T14:15:00Z</time>
      </trkpt>
      <trkpt lat="45.29227" lon="5.04911">
        <ele>315.51010679192</ele>
        <time>2014-06-01T14:15:05Z</time>
      </trkpt>
      <trkpt lat="45.29233" lon="5.04905">
        <ele>314.40254235688</ele>
        <time>2014-06-01T14:15:10Z</time>
      </trkpt>
      <trkpt lat="45.29239" lon="5.049">
        <ele>314.40254235688</ele>
        <time>2014-06-01T14:15:15Z</time>
      </trkpt>
      <trkpt lat="45.29245" lon="5.04894">
        <ele>313.13724476013</ele>
        <time>2014-06-01T14:15:20Z</time>
      </trkpt>
      <trkpt lat="45.29251" lon="5.04887">
        <ele>313.13724476013</ele>
        <time>2014-06-01T14:15:25Z</time>
      </trkpt>
      <trkpt lat="45.29256" lon="5.04882">
        <ele>311.81547019343</ele>
        <time>2014-06-01T14:15:30Z</time>
      </trkpt>
      <trkpt lat="45.29262" lon="5.04875">
        <ele>311.81547019343</ele>
        <time>2014-06-01T14:15:35Z</time>
      </trkpt>
      <trkpt lat="45.29267" lon="5.04866">
        <ele>310.70408352793</ele>
        <time>2014-06-01T14:15:40Z</time>
      </trkpt>
      <trkpt lat="45.29272" lon="5.04858">
        <ele>310.70408352793</ele>
        <time>2014-06-01T14:15:45Z</time>
      </trkpt>
      <trkpt lat="45.29277" lon="5.0485">
        <ele>309.60296060159</ele>
        <time>2014-06-01T14:15:50Z</time>
      </trkpt>
      <trkpt lat="45.29282" lon="5.04839">
        <ele>308.42747183113</ele>
        <time>2014-06-01T14:15:55Z</time>
      </trkpt>
      <trkpt lat="45.29285" lon="5.04829">
        <ele>308.42747183113</ele>
        <time>2014-06-01T14:16:00Z</time>
      </trkpt>
      <trkpt lat="45.29287" lon="5.04819">
        <ele>307.07053093025</ele>
        <time>2014-06-01T14:16:05Z</time>
      </trkpt>
      <trkpt lat="45.2929" lon="5.04809">
        <ele>307.07053093025</ele>
        <time>2014-06-01T14:16:10Z</time>
      </trkpt>
      <trkpt lat="45.29292" lon="5.04799">
        <ele>305.85128579197</ele>
        <time>2014-06-01T14:16:15Z</time>
      </trkpt>
      <trkpt lat="45.29293" lon="5.04789">
        <ele>305.85128579197</ele>
        <time>2014-06-01T14:16:20Z</time>
      </trkpt>
      <trkpt lat="45.29295" lon="5.04779">
        <ele>304.74794186834</ele>
        <time>2014-06-01T14:16:25Z</time>
      </trkpt>
      <trkpt lat="45.29298" lon="5.04772">
        <ele>304.74794186834</ele>
        <time>2014-06-01T14:16:30Z</time>
      </trkpt>
      <trkpt lat="45.29298" lon="5.04761">
        <ele>303.50933220499</ele>
        <time>2014-06-01T14:16:35Z</time>
      </trkpt>
      <trkpt lat="45.29298" lon="5.0475">
        <ele>303.50933220499</ele>
        <time>2014-06-01T14:16:40Z</time>
      </trkpt>
      <trkpt lat="45.29298" lon="5.04739">
        <ele>302.22009126273</ele>
        <time>2014-06-01T14:16:45Z</time>
      </trkpt>
      <trkpt lat="45.29298" lon="5.04729">
        <ele>302.22009126273</ele>
        <time>2014-06-01T14:16:50Z</time>
      </trkpt>
      <trkpt lat="45.29297" lon="5.04719">
        <ele>301.10281433983</ele>
        <time>2014-06-01T14:16:55Z</time>
      </trkpt>
      <trkpt lat="45.29296" lon="5.04708">
        <ele>301.10281433983</ele>
        <time>2014-06-01T14:17:00Z</time>
      </trkpt>
      <trkpt lat="45.29295" lon="5.04698">
        <ele>299.91644110728</ele>
        <time>2014-06-01T14:17:05Z</time>
      </trkpt>
      <trkpt lat="45.29292" lon="5.04689">
        <ele>299.91644110728</ele>
        <time>2014-06-01T14:17:10Z</time>
      </trkpt>
      <trkpt lat="45.29291" lon="5.04679">
        <ele>298.79801302498</ele>
        <time>2014-06-01T14:17:15Z</time>
      </trkpt>
      <trkpt lat="45.2929" lon="5.04669">
        <ele>298.79801302498</ele>
        <time>2014-06-01T14:17:20Z</time>
      </trkpt>
      <trkpt lat="45.29288" lon="5.04659">
        <ele>297.91746891387</ele>
        <time>2014-06-01T14:17:25Z</time>
      </trkpt>
      <trkpt lat="45.29287" lon="5.04649">
        <ele>297.91746891387</ele>
        <time>2014-06-01T14:17:30Z</time>
      </trkpt>
      <trkpt lat="45.29286" lon="5.04638">
        <ele>297.30181919893</ele>
        <time>2014-06-01T14:17:35Z</time>
      </trkpt>
      <trkpt lat="45.29286" lon="5.04627">
        <ele>297.30181919893</ele>
        <time>2014-06-01T14:17:40Z</time>
      </trkpt>
      <trkpt lat="45.29286" lon="5.04616">
        <ele>296.75910503894</ele>
        <time>2014-06-01T14:17:45Z</time>
      </trkpt>
      <trkpt lat="45.29287" lon="5.04606">
        <ele>296.75910503894</ele>
        <time>2014-06-01T14:17:50Z</time>
      </trkpt>
      <trkpt lat="45.29288" lon="5.04595">
        <ele>296.29853703629</ele>
        <time>2014-06-01T14:17:55Z</time>
      </trkpt>
      <trkpt lat="45.29288" lon="5.04585">
        <ele>296.29853703629</ele>
        <time>2014-06-01T14:18:00Z</time>
      </trkpt>
      <trkpt lat="45.29288" lon="5.04576">
        <ele>295.62571790278</ele>
        <time>2014-06-01T14:18:05Z</time>
      </trkpt>
      <trkpt lat="45.29289" lon="5.04566">
        <ele>295.62571790278</ele>
        <time>2014-06-01T14:18:10Z</time>
      </trkpt>
      <trkpt lat="45.2929" lon="5.04556">
        <ele>295.27543228386</ele>
        <time>2014-06-01T14:18:15Z</time>
      </trkpt>
      <trkpt lat="45.29292" lon="5.04545">
        <ele>295.27543228386</ele>
        <time>2014-06-01T14:18:20Z</time>
      </trkpt>
      <trkpt lat="45.29295" lon="5.04536">
        <ele>295.16577366495</ele>
        <time>2014-06-01T14:18:25Z</time>
      </trkpt>
      <trkpt lat="45.293" lon="5.0453">
        <ele>295.16577366495</ele>
        <time>2014-06-01T14:18:30Z</time>
      </trkpt>
      <trkpt lat="45.29307" lon="5.04528">
        <ele>295.09042659293</ele>
        <time>2014-06-01T14:18:35Z</time>
      </trkpt>
      <trkpt lat="45.29315" lon="5.04529">
        <ele>295.09042659293</ele>
        <time>2014-06-01T14:18:40Z</time>
      </trkpt>
      <trkpt lat="45.29323" lon="5.04532">
        <ele>295.16072485959</ele>
        <time>2014-06-01T14:18:45Z</time>
      </trkpt>
      <trkpt lat="45.29331" lon="5.04534">
        <ele>295.16072485959</ele>
        <time>2014-06-01T14:18:50Z</time>
      </trkpt>
      <trkpt lat="45.29338" lon="5.04536">
        <ele>295.3064458115</ele>
        <time>2014-06-01T14:18:55Z</time>
      </trkpt>
      <trkpt lat="45.29345" lon="5.04538">
        <ele>295.3064458115</ele>
        <time>2014-06-01T14:19:00Z</time>
      </trkpt>
      <trkpt lat="45.29352" lon="5.04539">
        <ele>295.419052495</ele>
        <time>2014-06-01T14:19:05Z</time>
      </trkpt>
      <trkpt lat="45.2936" lon="5.04541">
        <ele>295.419052495</ele>
        <time>2014-06-01T14:19:10Z</time>
      </trkpt>
      <trkpt lat="45.29366" lon="5.04544">
        <ele>295.49893177612</ele>
        <time>2014-06-01T14:19:15Z</time>
      </trkpt>
      <trkpt lat="45.29373" lon="5.04545">
        <ele>295.49893177612</ele>
        <time>2014-06-01T14:19:20Z</time>
      </trkpt>
      <trkpt lat="45.29379" lon="5.0454">
        <ele>295.44564352887</ele>
        <time>2014-06-01T14:19:25Z</time>
      </trkpt>
      <trkpt lat="45.29383" lon="5.04532">
        <ele>295.44564352887</ele>
        <time>2014-06-01T14:19:30Z</time>
      </trkpt>
      <trkpt lat="45.29387" lon="5.04523">
        <ele>295.41148257999</ele>
        <time>2014-06-01T14:19:35Z</time>
      </trkpt>
      <trkpt lat="45.29391" lon="5.04516">
        <ele>295.41148257999</ele>
        <time>2014-06-01T14:19:40Z</time>
      </trkpt>
      <trkpt lat="45.29396" lon="5.0451">
        <ele>295.06193516605</ele>
        <time>2014-06-01T14:19:45Z</time>
      </trkpt>
      <trkpt lat="45.29398" lon="5.04513">
        <ele>295.06193516605</ele>
        <time>2014-06-01T14:19:50Z</time>
      </trkpt>
      <trkpt lat="45.29399" lon="5.04515">
        <ele>295.06193516605</ele>
        <time>2014-06-01T14:19:55Z</time>
      </trkpt>
      <trkpt lat="45.29399" lon="5.04514">
        <ele>295.06193516605</ele>
        <time>2014-06-01T14:20:00Z</time>
      </trkpt>
      <trkpt lat="45.29399" lon="5.04514">
        <ele>295.06193516605</ele>
        <time>2014-06-01T14:20:05Z</time>
      </trkpt>
      <trkpt lat="45.29401" lon="5.04516">
        <ele>295.06193516605</ele>
        <time>2014-06-01T14:20:10Z</time>
      </trkpt>
      <trkpt lat="45.29407" lon="5.04523">
        <ele>295.24083931903</ele>
        <time>2014-06-01T14:20:15Z</time>
      </trkpt>
      <trkpt lat="45.29413" lon="5.04532">
        <ele>295.24083931903</ele>
        <time>2014-06-01T14:20:20Z</time>
      </trkpt>
      <trkpt lat="45.29418" lon="5.04543">
        <ele>295.97919480947</ele>
        <time>2014-06-01T14:20:25Z</time>
      </trkpt>
      <trkpt lat="45.29424" lon="5.0455">
        <ele>295.97919480947</ele>
        <time>2014-06-01T14:20:30Z</time>
      </trkpt>
      <trkpt lat="45.29431" lon="5.04555">
        <ele>297.0447717193</ele>
        <time>2014-06-01T14:20:35Z</time>
      </trkpt>
      <trkpt lat="45.29437" lon="5.04559">
        <ele>297.0447717193</ele>
        <time>2014-06-01T14:20:40Z</time>
      </trkpt>
      <trkpt lat="45.29443" lon="5.04563">
        <ele>298.33679662029</ele>
        <time>2014-06-01T14:20:45Z</time>
      </trkpt>
      <trkpt lat="45.2945" lon="5.04565">
        <ele>298.33679662029</ele>
        <time>2014-06-01T14:20:50Z</time>
      </trkpt>
      <trkpt lat="45.29458" lon="5.04565">
        <ele>299.83335658097</ele>
        <time>2014-06-01T14:20:55Z</time>
      </trkpt>
      <trkpt lat="45.29464" lon="5.04562">
        <ele>299.83335658097</ele>
        <time>2014-06-01T14:21:00Z</time>
      </trkpt>
      <trkpt lat="45.29468" lon="5.04556">
        <ele>300.83630121408</ele>
        <time>2014-06-01T14:21:05Z</time>
      </trkpt>
      <trkpt lat="45.29473" lon="5.04549">
        <ele>300.83630121408</ele>
        <time>2014-06-01T14:21:10Z</time>
      </trkpt>
      <trkpt lat="45.29478" lon="5.04542">
        <ele>302.47277944063</ele>
        <time>2014-06-01T14:21:15Z</time>
      </trkpt>
      <trkpt lat="45.29482" lon="5.04535">
        <ele>302.47277944063</ele>
        <time>2014-06-01T14:21:20Z</time>
      </trkpt>
      <trkpt lat="45.29487" lon="5.04528">
        <ele>304.22903616734</ele>
        <time>2014-06-01T14:21:25Z</time>
      </trkpt>
      <trkpt lat="45.29493" lon="5.04522">
        <ele>304.22903616734</ele>
        <time>2014-06-01T14:21:30Z</time>
      </trkpt>
      <trkpt lat="45.29499" lon="5.04516">
        <ele>306.39259550797</ele>
        <time>2014-06-01T14:21:35Z</time>
      </trkpt>
      <trkpt lat="45.29506" lon="5.04511">
        <ele>306.39259550797</ele>
        <time>2014-06-01T14:21:40Z</time>
      </trkpt>
      <trkpt lat="45.29512" lon="5.04506">
        <ele>308.16239273188</ele>
        <time>2014-06-01T14:21:45Z</time>
      </trkpt>
      <trkpt lat="45.29517" lon="5.04503">
        <ele>308.16239273188</ele>
        <time>2014-06-01T14:21:50Z</time>
      </trkpt>
      <trkpt lat="45.29523" lon="5.04498">
        <ele>310.19530205512</ele>
        <time>2014-06-01T14:21:55Z</time>
      </trkpt>
      <trkpt lat="45.29528" lon="5.04494">
        <ele>310.19530205512</ele>
        <time>2014-06-01T14:22:00Z</time>
      </trkpt>
      <trkpt lat="45.29534" lon="5.04486">
        <ele>312.46523928955</ele>
        <time>2014-06-01T14:22:05Z</time>
      </trkpt>
      <trkpt lat="45.29539" lon="5.0448">
        <ele>312.46523928955</ele>
        <time>2014-06-01T14:22:10Z</time>
      </trkpt>
      <trkpt lat="45.29544" lon="5.04475">
        <ele>314.67369404231</ele>
        <time>2014-06-01T14:22:15Z</time>
      </trkpt>
      <trkpt lat="45.29549" lon="5.04475">
        <ele>314.67369404231</ele>
        <time>2014-06-01T14:22:20Z</time>
      </trkpt>
      <trkpt lat="45.29555" lon="5.04475">
        <ele>316.64527852295</ele>
        <time>2014-06-01T14:22:25Z</time>
      </trkpt>
      <trkpt lat="45.29561" lon="5.04472">
        <ele>316.64527852295</ele>
        <time>2014-06-01T14:22:30Z</time>
      </trkpt>
      <trkpt lat="45.29569" lon="5.04469">
        <ele>318.83798490367</ele>
        <time>2014-06-01T14:22:35Z</time>
      </trkpt>
      <trkpt lat="45.29574" lon="5.04463">
        <ele>318.83798490367</ele>
        <time>2014-06-01T14:22:40Z</time>
      </trkpt>
      <trkpt lat="45.2958" lon="5.04459">
        <ele>321.17131440954</ele>
        <time>2014-06-01T14:22:45Z</time>
      </trkpt>
      <trkpt lat="45.29586" lon="5.04455">
        <ele>321.17131440954</ele>
        <time>2014-06-01T14:22:50Z</time>
      </trkpt>
      <trkpt lat="45.29592" lon="5.0445">
        <ele>323.18135638556</ele>
        <time>2014-06-01T14:22:55Z</time>
      </trkpt>
      <trkpt lat="45.29596" lon="5.04446">
        <ele>323.18135638556</ele>
        <time>2014-06-01T14:23:00Z</time>
      </trkpt>
      <trkpt lat="45.29599" lon="5.04441">
        <ele>324.58347117786</ele>
        <time>2014-06-01T14:23:05Z</time>
      </trkpt>
      <trkpt lat="45.29603" lon="5.04439">
        <ele>324.58347117786</ele>
        <time>2014-06-01T14:23:10Z</time>
      </trkpt>
      <trkpt lat="45.29609" lon="5.04436">
        <ele>325.50491077971</ele>
        <time>2014-06-01T14:23:15Z</time>
      </trkpt>
      <trkpt lat="45.29613" lon="5.0443">
        <ele>325.50491077971</ele>
        <time>2014-06-01T14:23:20Z</time>
      </trkpt>
      <trkpt lat="45.29618" lon="5.04428">
        <ele>326.10833642883</ele>
        <time>2014-06-01T14:23:25Z</time>
      </trkpt>
      <trkpt lat="45.29624" lon="5.04422">
        <ele>326.10833642883</ele>
        <time>2014-06-01T14:23:30Z</time>
      </trkpt>
      <trkpt lat="45.29631" lon="5.04417">
        <ele>326.9202123951</ele>
        <time>2014-06-01T14:23:35Z</time>
      </trkpt>
      <trkpt lat="45.29638" lon="5.04413">
        <ele>326.9202123951</ele>
        <time>2014-06-01T14:23:40Z</time>
      </trkpt>
      <trkpt lat="45.29645" lon="5.04409">
        <ele>328.24056489322</ele>
        <time>2014-06-01T14:23:45Z</time>
      </trkpt>
      <trkpt lat="45.2965" lon="5.04406">
        <ele>328.24056489322</ele>
        <time>2014-06-01T14:23:50Z</time>
      </trkpt>
      <trkpt lat="45.29653" lon="5.04405">
        <ele>328.24056489322</ele>
        <time>2014-06-01T14:23:55Z</time>
      </trkpt>
      <trkpt lat="45.29658" lon="5.04399">
        <ele>330.02906907205</ele>
        <time>2014-06-01T14:24:00Z</time>
      </trkpt>
      <trkpt lat="45.29665" lon="5.04391">
        <ele>331.45459291995</ele>
        <time>2014-06-01T14:24:05Z</time>
      </trkpt>
      <trkpt lat="45.29671" lon="5.04383">
        <ele>331.45459291995</ele>
        <time>2014-06-01T14:24:10Z</time>
      </trkpt>
      <trkpt lat="45.2968" lon="5.04377">
        <ele>333.0308194029</ele>
        <time>2014-06-01T14:24:15Z</time>
      </trkpt>
      <trkpt lat="45.29688" lon="5.04369">
        <ele>334.51286907976</ele>
        <time>2014-06-01T14:24:20Z</time>
      </trkpt>
      <trkpt lat="45.29695" lon="5.04362">
        <ele>335.84719754402</ele>
        <time>2014-06-01T14:24:25Z</time>
      </trkpt>
      <trkpt lat="45.29701" lon="5.04359">
        <ele>335.84719754402</ele>
        <time>2014-06-01T14:24:30Z</time>
      </trkpt>
      <trkpt lat="45.29707" lon="5.04359">
        <ele>337.76295502504</ele>
        <time>2014-06-01T14:24:35Z</time>
      </trkpt>
      <trkpt lat="45.29712" lon="5.04364">
        <ele>337.76295502504</ele>
        <time>2014-06-01T14:24:40Z</time>
      </trkpt>
      <trkpt lat="45.29713" lon="5.04363">
        <ele>337.76295502504</ele>
        <time>2014-06-01T14:24:46Z</time>
      </trkpt>
      <trkpt lat="45.29713" lon="5.04363">
        <ele>337.76295502504</ele>
        <time>2014-06-01T14:24:50Z</time>
      </trkpt>
      <trkpt lat="45.29713" lon="5.04363">
        <ele>337.76295502504</ele>
        <time>2014-06-01T14:24:55Z</time>
      </trkpt>
      <trkpt lat="45.29713" lon="5.04362">
        <ele>337.76295502504</ele>
        <time>2014-06-01T14:25:00Z</time>
      </trkpt>
      <trkpt lat="45.29712" lon="5.04362">
        <ele>337.76295502504</ele>
        <time>2014-06-01T14:25:05Z</time>
      </trkpt>
      <trkpt lat="45.29712" lon="5.04362">
        <ele>337.76295502504</ele>
        <time>2014-06-01T14:25:10Z</time>
      </trkpt>
      <trkpt lat="45.29712" lon="5.04362">
        <ele>337.76295502504</ele>
        <time>2014-06-01T14:25:15Z</time>
      </trkpt>
      <trkpt lat="45.29713" lon="5.04362">
        <ele>340.32897661631</ele>
        <time>2014-06-01T14:25:20Z</time>
      </trkpt>
      <trkpt lat="45.29713" lon="5.04368">
        <ele>340.32897661631</ele>
        <time>2014-06-01T14:25:25Z</time>
      </trkpt>
      <trkpt lat="45.29715" lon="5.04377">
        <ele>342.56976193213</ele>
        <time>2014-06-01T14:25:30Z</time>
      </trkpt>
      <trkpt lat="45.29716" lon="5.04387">
        <ele>342.56976193213</ele>
        <time>2014-06-01T14:25:35Z</time>
      </trkpt>
      <trkpt lat="45.29719" lon="5.04396">
        <ele>344.69218544485</ele>
        <time>2014-06-01T14:25:40Z</time>
      </trkpt>
      <trkpt lat="45.29722" lon="5.04406">
        <ele>344.69218544485</ele>
        <time>2014-06-01T14:25:45Z</time>
      </trkpt>
      <trkpt lat="45.29724" lon="5.04416">
        <ele>346.97487242181</ele>
        <time>2014-06-01T14:25:50Z</time>
      </trkpt>
      <trkpt lat="45.29727" lon="5.04425">
        <ele>346.97487242181</ele>
        <time>2014-06-01T14:25:55Z</time>
      </trkpt>
      <trkpt lat="45.29729" lon="5.04436">
        <ele>349.02718089733</ele>
        <time>2014-06-01T14:26:00Z</time>
      </trkpt>
      <trkpt lat="45.29731" lon="5.04446">
        <ele>349.02718089733</ele>
        <time>2014-06-01T14:26:05Z</time>
      </trkpt>
      <trkpt lat="45.29733" lon="5.04456">
        <ele>350.70412796947</ele>
        <time>2014-06-01T14:26:10Z</time>
      </trkpt>
      <trkpt lat="45.29733" lon="5.04467">
        <ele>350.70412796947</ele>
        <time>2014-06-01T14:26:15Z</time>
      </trkpt>
      <trkpt lat="45.29737" lon="5.04475">
        <ele>352.49226023269</ele>
        <time>2014-06-01T14:26:20Z</time>
      </trkpt>
      <trkpt lat="45.29741" lon="5.04483">
        <ele>352.49226023269</ele>
        <time>2014-06-01T14:26:25Z</time>
      </trkpt>
      <trkpt lat="45.29746" lon="5.04491">
        <ele>354.15048246862</ele>
        <time>2014-06-01T14:26:30Z</time>
      </trkpt>
      <trkpt lat="45.29749" lon="5.04501">
        <ele>354.15048246862</ele>
        <time>2014-06-01T14:26:35Z</time>
      </trkpt>
      <trkpt lat="45.29753" lon="5.0451">
        <ele>355.34062576342</ele>
        <time>2014-06-01T14:26:40Z</time>
      </trkpt>
      <trkpt lat="45.29757" lon="5.0452">
        <ele>355.34062576342</ele>
        <time>2014-06-01T14:26:45Z</time>
      </trkpt>
      <trkpt lat="45.29761" lon="5.0453">
        <ele>356.06785358711</ele>
        <time>2014-06-01T14:26:50Z</time>
      </trkpt>
      <trkpt lat="45.29763" lon="5.04542">
        <ele>356.06785358711</ele>
        <time>2014-06-01T14:26:55Z</time>
      </trkpt>
      <trkpt lat="45.29766" lon="5.04553">
        <ele>356.68423973726</ele>
        <time>2014-06-01T14:27:00Z</time>
      </trkpt>
      <trkpt lat="45.29769" lon="5.04562">
        <ele>356.68423973726</ele>
        <time>2014-06-01T14:27:05Z</time>
      </trkpt>
      <trkpt lat="45.2977" lon="5.04573">
        <ele>357.05526315586</ele>
        <time>2014-06-01T14:27:10Z</time>
      </trkpt>
      <trkpt lat="45.2977" lon="5.04585">
        <ele>357.05526315586</ele>
        <time>2014-06-01T14:27:15Z</time>
      </trkpt>
      <trkpt lat="45.2977" lon="5.04596">
        <ele>356.97060575501</ele>
        <time>2014-06-01T14:27:20Z</time>
      </trkpt>
      <trkpt lat="45.29768" lon="5.04607">
        <ele>356.97060575501</ele>
        <time>2014-06-01T14:27:25Z</time>
      </trkpt>
      <trkpt lat="45.29768" lon="5.04617">
        <ele>356.64027318105</ele>
        <time>2014-06-01T14:27:30Z</time>
      </trkpt>
      <trkpt lat="45.29768" lon="5.04625">
        <ele>356.64027318105</ele>
        <time>2014-06-01T14:27:35Z</time>
      </trkpt>
      <trkpt lat="45.29767" lon="5.04634">
        <ele>356.3893016603</ele>
        <time>2014-06-01T14:27:40Z</time>
      </trkpt>
      <trkpt lat="45.29767" lon="5.04646">
        <ele>356.3893016603</ele>
        <time>2014-06-01T14:27:45Z</time>
      </trkpt>
      <trkpt lat="45.29768" lon="5.04657">
        <ele>356.47544658727</ele>
        <time>2014-06-01T14:27:50Z</time>
      </trkpt>
      <trkpt lat="45.2977" lon="5.04668">
        <ele>356.47544658727</ele>
        <time>2014-06-01T14:27:55Z</time>
      </trkpt>
      <trkpt lat="45.29771" lon="5.04679">
        <ele>356.21430760225</ele>
        <time>2014-06-01T14:28:00Z</time>
      </trkpt>
      <trkpt lat="45.29773" lon="5.04689">
        <ele>356.21430760225</ele>
        <time>2014-06-01T14:28:05Z</time>
      </trkpt>
      <trkpt lat="45.29777" lon="5.04699">
        <ele>355.96712232023</ele>
        <time>2014-06-01T14:28:10Z</time>
      </trkpt>
      <trkpt lat="45.2978" lon="5.04708">
        <ele>355.96712232023</ele>
        <time>2014-06-01T14:28:15Z</time>
      </trkpt>
      <trkpt lat="45.2978" lon="5.0472">
        <ele>355.65063766983</ele>
        <time>2014-06-01T14:28:20Z</time>
      </trkpt>
      <trkpt lat="45.2978" lon="5.04729">
        <ele>355.65063766983</ele>
        <time>2014-06-01T14:28:25Z</time>
      </trkpt>
      <trkpt lat="45.29781" lon="5.04739">
        <ele>355.6490609705</ele>
        <time>2014-06-01T14:28:30Z</time>
      </trkpt>
      <trkpt lat="45.29782" lon="5.0475">
        <ele>355.6490609705</ele>
        <time>2014-06-01T14:28:35Z</time>
      </trkpt>
      <trkpt lat="45.29784" lon="5.04759">
        <ele>355.27987418266</ele>
        <time>2014-06-01T14:28:40Z</time>
      </trkpt>
      <trkpt lat="45.29785" lon="5.04767">
        <ele>355.27987418266</ele>
        <time>2014-06-01T14:28:45Z</time>
      </trkpt>
      <trkpt lat="45.29788" lon="5.04775">
        <ele>354.81959878031</ele>
        <time>2014-06-01T14:28:50Z</time>
      </trkpt>
      <trkpt lat="45.29794" lon="5.04786">
        <ele>354.30849142825</ele>
        <time>2014-06-01T14:28:55Z</time>
      </trkpt>
      <trkpt lat="45.29798" lon="5.04794">
        <ele>354.30849142825</ele>
        <time>2014-06-01T14:29:00Z</time>
      </trkpt>
      <trkpt lat="45.298" lon="5.04802">
        <ele>353.6686538987</ele>
        <time>2014-06-01T14:29:05Z</time>
      </trkpt>
      <trkpt lat="45.29804" lon="5.04808">
        <ele>353.6686538987</ele>
        <time>2014-06-01T14:29:10Z</time>
      </trkpt>
      <trkpt lat="45.29804" lon="5.04818">
        <ele>352.39587470267</ele>
        <time>2014-06-01T14:29:15Z</time>
      </trkpt>
      <trkpt lat="45.29805" lon="5.04829">
        <ele>352.39587470267</ele>
        <time>2014-06-01T14:29:20Z</time>
      </trkpt>
      <trkpt lat="45.29806" lon="5.0484">
        <ele>351.2496267508</ele>
        <time>2014-06-01T14:29:25Z</time>
      </trkpt>
      <trkpt lat="45.29809" lon="5.0485">
        <ele>351.2496267508</ele>
        <time>2014-06-01T14:29:30Z</time>
      </trkpt>
      <trkpt lat="45.29811" lon="5.04859">
        <ele>350.02524963658</ele>
        <time>2014-06-01T14:29:35Z</time>
      </trkpt>
      <trkpt lat="45.29812" lon="5.04867">
        <ele>350.02524963658</ele>
        <time>2014-06-01T14:29:40Z</time>
      </trkpt>
      <trkpt lat="45.29812" lon="5.04879">
        <ele>348.89351439768</ele>
        <time>2014-06-01T14:29:45Z</time>
      </trkpt>
      <trkpt lat="45.29813" lon="5.04891">
        <ele>348.89351439768</ele>
        <time>2014-06-01T14:29:50Z</time>
      </trkpt>
      <trkpt lat="45.29815" lon="5.04902">
        <ele>347.68082003241</ele>
        <time>2014-06-01T14:29:55Z</time>
      </trkpt>
      <trkpt lat="45.29816" lon="5.04913">
        <ele>347.68082003241</ele>
        <time>2014-06-01T14:30:00Z</time>
      </trkpt>
      <trkpt lat="45.29819" lon="5.04923">
        <ele>346.74522372534</ele>
        <time>2014-06-01T14:30:05Z</time>
      </trkpt>
      <trkpt lat="45.29821" lon="5.04934">
        <ele>346.74522372534</ele>
        <time>2014-06-01T14:30:10Z</time>
      </trkpt>
      <trkpt lat="45.29822" lon="5.04945">
        <ele>345.9275945233</ele>
        <time>2014-06-01T14:30:15Z</time>
      </trkpt>
      <trkpt lat="45.29822" lon="5.04955">
        <ele>345.9275945233</ele>
        <time>2014-06-01T14:30:20Z</time>
      </trkpt>
      <trkpt lat="45.29822" lon="5.04966">
        <ele>344.95032304291</ele>
        <time>2014-06-01T14:30:25Z</time>
      </trkpt>
      <trkpt lat="45.2982" lon="5.04977">
        <ele>344.95032304291</ele>
        <time>2014-06-01T14:30:30Z</time>
      </trkpt>
      <trkpt lat="45.29822" lon="5.04986">
        <ele>344.83908900176</ele>
        <time>2014-06-01T14:30:35Z</time>
      </trkpt>
      <trkpt lat="45.29826" lon="5.04995">
        <ele>344.83908900176</ele>
        <time>2014-06-01T14:30:40Z</time>
      </trkpt>
      <trkpt lat="45.29828" lon="5.05004">
        <ele>344.4808636875</ele>
        <time>2014-06-01T14:30:45Z</time>
      </trkpt>
      <trkpt lat="45.2983" lon="5.05014">
        <ele>344.4808636875</ele>
        <time>2014-06-01T14:30:50Z</time>
      </trkpt>
      <trkpt lat="45.29831" lon="5.05024">
        <ele>344.14193042699</ele>
        <time>2014-06-01T14:30:55Z</time>
      </trkpt>
      <trkpt lat="45.29831" lon="5.05035">
        <ele>344.14193042699</ele>
        <time>2014-06-01T14:31:00Z</time>
      </trkpt>
      <trkpt lat="45.29831" lon="5.05045">
        <ele>343.62206984244</ele>
        <time>2014-06-01T14:31:05Z</time>
      </trkpt>
      <trkpt lat="45.29831" lon="5.05055">
        <ele>343.62206984244</ele>
        <time>2014-06-01T14:31:10Z</time>
      </trkpt>
      <trkpt lat="45.2983" lon="5.05065">
        <ele>343.22611501462</ele>
        <time>2014-06-01T14:31:15Z</time>
      </trkpt>
      <trkpt lat="45.29831" lon="5.05074">
        <ele>343.22611501462</ele>
        <time>2014-06-01T14:31:20Z</time>
      </trkpt>
      <trkpt lat="45.29832" lon="5.05083">
        <ele>342.7460410723</ele>
        <time>2014-06-01T14:31:25Z</time>
      </trkpt>
      <trkpt lat="45.2983" lon="5.05092">
        <ele>342.7460410723</ele>
        <time>2014-06-01T14:31:30Z</time>
      </trkpt>
      <trkpt lat="45.29829" lon="5.051">
        <ele>341.9171464223</ele>
        <time>2014-06-01T14:31:35Z</time>
      </trkpt>
      <trkpt lat="45.2983" lon="5.05108">
        <ele>341.9171464223</ele>
        <time>2014-06-01T14:31:40Z</time>
      </trkpt>
      <trkpt lat="45.2983" lon="5.05119">
        <ele>341.31644911626</ele>
        <time>2014-06-01T14:31:45Z</time>
      </trkpt>
      <trkpt lat="45.2983" lon="5.05131">
        <ele>341.31644911626</ele>
        <time>2014-06-01T14:31:50Z</time>
      </trkpt>
      <trkpt lat="45.2983" lon="5.05143">
        <ele>341.0454703875</ele>
        <time>2014-06-01T14:31:55Z</time>
      </trkpt>
      <trkpt lat="45.2983" lon="5.05153">
        <ele>341.0454703875</ele>
        <time>2014-06-01T14:32:00Z</time>
      </trkpt>
      <trkpt lat="45.29829" lon="5.05164">
        <ele>340.82252613195</ele>
        <time>2014-06-01T14:32:05Z</time>
      </trkpt>
      <trkpt lat="45.29829" lon="5.05173">
        <ele>340.82252613195</ele>
        <time>2014-06-01T14:32:10Z</time>
      </trkpt>
      <trkpt lat="45.2983" lon="5.05182">
        <ele>340.24224746221</ele>
        <time>2014-06-01T14:32:15Z</time>
      </trkpt>
      <trkpt lat="45.29831" lon="5.05193">
        <ele>340.24224746221</ele>
        <time>2014-06-01T14:32:20Z</time>
      </trkpt>
      <trkpt lat="45.29833" lon="5.05203">
        <ele>339.23255080731</ele>
        <time>2014-06-01T14:32:25Z</time>
      </trkpt>
      <trkpt lat="45.29832" lon="5.05213">
        <ele>339.23255080731</ele>
        <time>2014-06-01T14:32:30Z</time>
      </trkpt>
      <trkpt lat="45.29831" lon="5.05226">
        <ele>338.79414928534</ele>
        <time>2014-06-01T14:32:35Z</time>
      </trkpt>
      <trkpt lat="45.29832" lon="5.05237">
        <ele>338.79414928534</ele>
        <time>2014-06-01T14:32:40Z</time>
      </trkpt>
      <trkpt lat="45.29833" lon="5.05247">
        <ele>338.49787335565</ele>
        <time>2014-06-01T14:32:45Z</time>
      </trkpt>
      <trkpt lat="45.29833" lon="5.05257">
        <ele>338.49787335565</ele>
        <time>2014-06-01T14:32:50Z</time>
      </trkpt>
      <trkpt lat="45.29833" lon="5.05268">
        <ele>338.30583892986</ele>
        <time>2014-06-01T14:32:55Z</time>
      </trkpt>
      <trkpt lat="45.29833" lon="5.05273">
        <ele>338.30583892986</ele>
        <time>2014-06-01T14:33:00Z</time>
      </trkpt>
      <trkpt lat="45.29833" lon="5.05283">
        <ele>338.16812518036</ele>
        <time>2014-06-01T14:33:05Z</time>
      </trkpt>
      <trkpt lat="45.29832" lon="5.05297">
        <ele>338.44172743801</ele>
        <time>2014-06-01T14:33:10Z</time>
      </trkpt>
      <trkpt lat="45.2983" lon="5.0531">
        <ele>338.56267030905</ele>
        <time>2014-06-01T14:33:15Z</time>
      </trkpt>
      <trkpt lat="45.2983" lon="5.05319">
        <ele>338.56267030905</ele>
        <time>2014-06-01T14:33:20Z</time>
      </trkpt>
      <trkpt lat="45.29831" lon="5.05329">
        <ele>338.87340791204</ele>
        <time>2014-06-01T14:33:25Z</time>
      </trkpt>
      <trkpt lat="45.29829" lon="5.05341">
        <ele>338.87340791204</ele>
        <time>2014-06-01T14:33:30Z</time>
      </trkpt>
      <trkpt lat="45.29829" lon="5.05351">
        <ele>339.14299634856</ele>
        <time>2014-06-01T14:33:35Z</time>
      </trkpt>
      <trkpt lat="45.2983" lon="5.0536">
        <ele>339.14299634856</ele>
        <time>2014-06-01T14:33:40Z</time>
      </trkpt>
      <trkpt lat="45.29832" lon="5.0537">
        <ele>339.1719047617</ele>
        <time>2014-06-01T14:33:45Z</time>
      </trkpt>
      <trkpt lat="45.29835" lon="5.05379">
        <ele>339.1719047617</ele>
        <time>2014-06-01T14:33:50Z</time>
      </trkpt>
      <trkpt lat="45.29835" lon="5.05389">
        <ele>338.80468546394</ele>
        <time>2014-06-01T14:33:55Z</time>
      </trkpt>
      <trkpt lat="45.29837" lon="5.05401">
        <ele>338.80468546394</ele>
        <time>2014-06-01T14:34:00Z</time>
      </trkpt>
      <trkpt lat="45.29839" lon="5.05412">
        <ele>338.87831185101</ele>
        <time>2014-06-01T14:34:05Z</time>
      </trkpt>
      <trkpt lat="45.2984" lon="5.05421">
        <ele>338.87831185101</ele>
        <time>2014-06-01T14:34:10Z</time>
      </trkpt>
      <trkpt lat="45.29838" lon="5.05432">
        <ele>339.21584401023</ele>
        <time>2014-06-01T14:34:15Z</time>
      </trkpt>
      <trkpt lat="45.29839" lon="5.05441">
        <ele>339.21584401023</ele>
        <time>2014-06-01T14:34:20Z</time>
      </trkpt>
      <trkpt lat="45.29838" lon="5.0545">
        <ele>339.17697850268</ele>
        <time>2014-06-01T14:34:25Z</time>
      </trkpt>
      <trkpt lat="45.29837" lon="5.05458">
        <ele>339.17697850268</ele>
        <time>2014-06-01T14:34:30Z</time>
      </trkpt>
      <trkpt lat="45.29835" lon="5.05464">
        <ele>338.50090968322</ele>
        <time>2014-06-01T14:34:35Z</time>
      </trkpt>
      <trkpt lat="45.29834" lon="5.0547">
        <ele>338.50090968322</ele>
        <time>2014-06-01T14:34:40Z</time>
      </trkpt>
      <trkpt lat="45.29834" lon="5.05476">
        <ele>338.50090968322</ele>
        <time>2014-06-01T14:34:45Z</time>
      </trkpt>
      <trkpt lat="45.29835" lon="5.05486">
        <ele>337.99974325644</ele>
        <time>2014-06-01T14:34:50Z</time>
      </trkpt>
      <trkpt lat="45.29836" lon="5.05497">
        <ele>337.99974325644</ele>
        <time>2014-06-01T14:34:55Z</time>
      </trkpt>
      <trkpt lat="45.29836" lon="5.05502">
        <ele>337.99306064418</ele>
        <time>2014-06-01T14:35:00Z</time>
      </trkpt>
      <trkpt lat="45.29836" lon="5.05514">
        <ele>337.99306064418</ele>
        <time>2014-06-01T14:35:05Z</time>
      </trkpt>
      <trkpt lat="45.29836" lon="5.05527">
        <ele>338.31438350527</ele>
        <time>2014-06-01T14:35:10Z</time>
      </trkpt>
      <trkpt lat="45.29838" lon="5.05541">
        <ele>339.41377398994</ele>
        <time>2014-06-01T14:35:15Z</time>
      </trkpt>
      <trkpt lat="45.2984" lon="5.05553">
        <ele>339.41377398994</ele>
        <time>2014-06-01T14:35:20Z</time>
      </trkpt>
      <trkpt lat="45.29842" lon="5.05564">
        <ele>340.61077749582</ele>
        <time>2014-06-01T14:35:25Z</time>
      </trkpt>
      <trkpt lat="45.29844" lon="5.05576">
        <ele>340.61077749582</ele>
        <time>2014-06-01T14:35:30Z</time>
      </trkpt>
      <trkpt lat="45.29844" lon="5.05586">
        <ele>341.34668861523</ele>
        <time>2014-06-01T14:35:35Z</time>
      </trkpt>
      <trkpt lat="45.29846" lon="5.05597">
        <ele>341.34668861523</ele>
        <time>2014-06-01T14:35:40Z</time>
      </trkpt>
      <trkpt lat="45.29846" lon="5.05611">
        <ele>342.41654189152</ele>
        <time>2014-06-01T14:35:45Z</time>
      </trkpt>
      <trkpt lat="45.29847" lon="5.05624">
        <ele>343.64813583684</ele>
        <time>2014-06-01T14:35:50Z</time>
      </trkpt>
      <trkpt lat="45.29846" lon="5.05636">
        <ele>343.64813583684</ele>
        <time>2014-06-01T14:35:55Z</time>
      </trkpt>
      <trkpt lat="45.29844" lon="5.05645">
        <ele>344.59325659513</ele>
        <time>2014-06-01T14:36:00Z</time>
      </trkpt>
      <trkpt lat="45.2984" lon="5.05653">
        <ele>344.59325659513</ele>
        <time>2014-06-01T14:36:05Z</time>
      </trkpt>
      <trkpt lat="45.29838" lon="5.05662">
        <ele>345.58682066915</ele>
        <time>2014-06-01T14:36:10Z</time>
      </trkpt>
      <trkpt lat="45.29835" lon="5.05669">
        <ele>345.58682066915</ele>
        <time>2014-06-01T14:36:15Z</time>
      </trkpt>
      <trkpt lat="45.29832" lon="5.05677">
        <ele>345.77173589051</ele>
        <time>2014-06-01T14:36:20Z</time>
      </trkpt>
      <trkpt lat="45.2983" lon="5.05682">
        <ele>345.77173589051</ele>
        <time>2014-06-01T14:36:25Z</time>
      </trkpt>
      <trkpt lat="45.29827" lon="5.05687">
        <ele>344.60116248058</ele>
        <time>2014-06-01T14:36:30Z</time>
      </trkpt>
      <trkpt lat="45.29824" lon="5.05694">
        <ele>344.60116248058</ele>
        <time>2014-06-01T14:36:35Z</time>
      </trkpt>
      <trkpt lat="45.29819" lon="5.05704">
        <ele>343.38806665381</ele>
        <time>2014-06-01T14:36:40Z</time>
      </trkpt>
      <trkpt lat="45.29815" lon="5.05715">
        <ele>343.38806665381</ele>
        <time>2014-06-01T14:36:45Z</time>
      </trkpt>
      <trkpt lat="45.29814" lon="5.05725">
        <ele>342.42679978132</ele>
        <time>2014-06-01T14:36:50Z</time>
      </trkpt>
      <trkpt lat="45.29813" lon="5.05735">
        <ele>342.42679978132</ele>
        <time>2014-06-01T14:36:55Z</time>
      </trkpt>
      <trkpt lat="45.29813" lon="5.05742">
        <ele>341.77323634816</ele>
        <time>2014-06-01T14:37:00Z</time>
      </trkpt>
      <trkpt lat="45.29813" lon="5.05744">
        <ele>341.77323634816</ele>
        <time>2014-06-01T14:37:05Z</time>
      </trkpt>
      <trkpt lat="45.29816" lon="5.0575">
        <ele>341.77323634816</ele>
        <time>2014-06-01T14:37:10Z</time>
      </trkpt>
      <trkpt lat="45.29818" lon="5.05757">
        <ele>342.1412071553</ele>
        <time>2014-06-01T14:37:15Z</time>
      </trkpt>
      <trkpt lat="45.29819" lon="5.05765">
        <ele>342.1412071553</ele>
        <time>2014-06-01T14:37:20Z</time>
      </trkpt>
      <trkpt lat="45.29821" lon="5.05774">
        <ele>341.95552468698</ele>
        <time>2014-06-01T14:37:25Z</time>
      </trkpt>
      <trkpt lat="45.29823" lon="5.05783">
        <ele>341.95552468698</ele>
        <time>2014-06-01T14:37:30Z</time>
      </trkpt>
      <trkpt lat="45.29824" lon="5.05791">
        <ele>341.86229623367</ele>
        <time>2014-06-01T14:37:35Z</time>
      </trkpt>
      <trkpt lat="45.29821" lon="5.05798">
        <ele>341.86229623367</ele>
        <time>2014-06-01T14:37:40Z</time>
      </trkpt>
      <trkpt lat="45.29821" lon="5.05799">
        <ele>341.86229623367</ele>
        <time>2014-06-01T14:37:45Z</time>
      </trkpt>
      <trkpt lat="45.29823" lon="5.05803">
        <ele>342.83460397706</ele>
        <time>2014-06-01T14:37:50Z</time>
      </trkpt>
      <trkpt lat="45.29825" lon="5.05813">
        <ele>342.83460397706</ele>
        <time>2014-06-01T14:37:55Z</time>
      </trkpt>
      <trkpt lat="45.29826" lon="5.05824">
        <ele>344.45965968282</ele>
        <time>2014-06-01T14:38:00Z</time>
      </trkpt>
      <trkpt lat="45.29827" lon="5.05836">
        <ele>344.45965968282</ele>
        <time>2014-06-01T14:38:05Z</time>
      </trkpt>
      <trkpt lat="45.29829" lon="5.05848">
        <ele>346.61258717808</ele>
        <time>2014-06-01T14:38:10Z</time>
      </trkpt>
      <trkpt lat="45.29829" lon="5.0586">
        <ele>346.61258717808</ele>
        <time>2014-06-01T14:38:15Z</time>
      </trkpt>
      <trkpt lat="45.2983" lon="5.0587">
        <ele>348.96006751261</ele>
        <time>2014-06-01T14:38:20Z</time>
      </trkpt>
      <trkpt lat="45.29832" lon="5.05878">
        <ele>348.96006751261</ele>
        <time>2014-06-01T14:38:25Z</time>
      </trkpt>
      <trkpt lat="45.29832" lon="5.05887">
        <ele>351.26482302627</ele>
        <time>2014-06-01T14:38:30Z</time>
      </trkpt>
      <trkpt lat="45.29833" lon="5.05896">
        <ele>351.26482302627</ele>
        <time>2014-06-01T14:38:35Z</time>
      </trkpt>
      <trkpt lat="45.29835" lon="5.05906">
        <ele>353.22072057865</ele>
        <time>2014-06-01T14:38:40Z</time>
      </trkpt>
      <trkpt lat="45.29836" lon="5.05916">
        <ele>353.22072057865</ele>
        <time>2014-06-01T14:38:45Z</time>
      </trkpt>
      <trkpt lat="45.29838" lon="5.05925">
        <ele>355.23690306474</ele>
        <time>2014-06-01T14:38:50Z</time>
      </trkpt>
      <trkpt lat="45.29839" lon="5.05934">
        <ele>355.23690306474</ele>
        <time>2014-06-01T14:38:55Z</time>
      </trkpt>
      <trkpt lat="45.2984" lon="5.05944">
        <ele>356.78447568842</ele>
        <time>2014-06-01T14:39:00Z</time>
      </trkpt>
      <trkpt lat="45.29841" lon="5.05952">
        <ele>356.78447568842</ele>
        <time>2014-06-01T14:39:05Z</time>
      </trkpt>
      <trkpt lat="45.29841" lon="5.05959">
        <ele>357.43244994517</ele>
        <time>2014-06-01T14:39:10Z</time>
      </trkpt>
      <trkpt lat="45.2984" lon="5.05968">
        <ele>357.43244994517</ele>
        <time>2014-06-01T14:39:15Z</time>
      </trkpt>
      <trkpt lat="45.29839" lon="5.05978">
        <ele>357.93700950925</ele>
        <time>2014-06-01T14:39:20Z</time>
      </trkpt>
      <trkpt lat="45.2984" lon="5.05988">
        <ele>357.93700950925</ele>
        <time>2014-06-01T14:39:25Z</time>
      </trkpt>
      <trkpt lat="45.29841" lon="5.05994">
        <ele>357.7887562811</ele>
        <time>2014-06-01T14:39:30Z</time>
      </trkpt>
      <trkpt lat="45.29842" lon="5.06003">
        <ele>357.7887562811</ele>
        <time>2014-06-01T14:39:35Z</time>
      </trkpt>
      <trkpt lat="45.29842" lon="5.06013">
        <ele>357.58406023397</ele>
        <time>2014-06-01T14:39:40Z</time>
      </trkpt>
      <trkpt lat="45.29843" lon="5.06023">
        <ele>357.58406023397</ele>
        <time>2014-06-01T14:39:45Z</time>
      </trkpt>
      <trkpt lat="45.29846" lon="5.0603">
        <ele>357.55868310259</ele>
        <time>2014-06-01T14:39:50Z</time>
      </trkpt>
      <trkpt lat="45.29846" lon="5.06033">
        <ele>357.55868310259</ele>
        <time>2014-06-01T14:39:55Z</time>
      </trkpt>
      <trkpt lat="45.29848" lon="5.06043">
        <ele>357.55595450003</ele>
        <time>2014-06-01T14:40:00Z</time>
      </trkpt>
      <trkpt lat="45.29849" lon="5.06056">
        <ele>357.11367463434</ele>
        <time>2014-06-01T14:40:05Z</time>
      </trkpt>
      <trkpt lat="45.29849" lon="5.06072">
        <ele>356.6119130513</ele>
        <time>2014-06-01T14:40:10Z</time>
      </trkpt>
      <trkpt lat="45.2985" lon="5.06085">
        <ele>356.37421634168</ele>
        <time>2014-06-01T14:40:15Z</time>
      </trkpt>
      <trkpt lat="45.29855" lon="5.061">
        <ele>356.58437790304</ele>
        <time>2014-06-01T14:40:20Z</time>
      </trkpt>
      <trkpt lat="45.29859" lon="5.06112">
        <ele>356.80620345692</ele>
        <time>2014-06-01T14:40:25Z</time>
      </trkpt>
      <trkpt lat="45.29862" lon="5.06122">
        <ele>356.80620345692</ele>
        <time>2014-06-01T14:40:30Z</time>
      </trkpt>
      <trkpt lat="45.29863" lon="5.06132">
        <ele>356.69318411988</ele>
        <time>2014-06-01T14:40:35Z</time>
      </trkpt>
      <trkpt lat="45.29863" lon="5.06141">
        <ele>356.69318411988</ele>
        <time>2014-06-01T14:40:40Z</time>
      </trkpt>
      <trkpt lat="45.29864" lon="5.06149">
        <ele>356.22786389902</ele>
        <time>2014-06-01T14:40:45Z</time>
      </trkpt>
      <trkpt lat="45.29865" lon="5.06159">
        <ele>356.22786389902</ele>
        <time>2014-06-01T14:40:50Z</time>
      </trkpt>
      <trkpt lat="45.29865" lon="5.06168">
        <ele>355.7553555697</ele>
        <time>2014-06-01T14:40:55Z</time>
      </trkpt>
      <trkpt lat="45.29865" lon="5.06177">
        <ele>355.7553555697</ele>
        <time>2014-06-01T14:41:00Z</time>
      </trkpt>
      <trkpt lat="45.29865" lon="5.06188">
        <ele>355.6098656607</ele>
        <time>2014-06-01T14:41:05Z</time>
      </trkpt>
      <trkpt lat="45.29863" lon="5.062">
        <ele>355.6098656607</ele>
        <time>2014-06-01T14:41:10Z</time>
      </trkpt>
      <trkpt lat="45.29864" lon="5.06211">
        <ele>355.59575179817</ele>
        <time>2014-06-01T14:41:15Z</time>
      </trkpt>
      <trkpt lat="45.29864" lon="5.06221">
        <ele>355.59575179817</ele>
        <time>2014-06-01T14:41:20Z</time>
      </trkpt>
      <trkpt lat="45.29862" lon="5.06228">
        <ele>354.63788685815</ele>
        <time>2014-06-01T14:41:25Z</time>
      </trkpt>
      <trkpt lat="45.29863" lon="5.06237">
        <ele>354.63788685815</ele>
        <time>2014-06-01T14:41:30Z</time>
      </trkpt>
      <trkpt lat="45.29862" lon="5.06247">
        <ele>353.57297555783</ele>
        <time>2014-06-01T14:41:35Z</time>
      </trkpt>
      <trkpt lat="45.29862" lon="5.06258">
        <ele>353.57297555783</ele>
        <time>2014-06-01T14:41:40Z</time>
      </trkpt>
      <trkpt lat="45.29862" lon="5.06276">
        <ele>352.88832395205</ele>
        <time>2014-06-01T14:41:45Z</time>
      </trkpt>
      <trkpt lat="45.29862" lon="5.06288">
        <ele>352.88832395205</ele>
        <time>2014-06-01T14:41:50Z</time>
      </trkpt>
      <trkpt lat="45.29861" lon="5.06294">
        <ele>351.59324068191</ele>
        <time>2014-06-01T14:41:55Z</time>
      </trkpt>
      <trkpt lat="45.29859" lon="5.06299">
        <ele>351.59324068191</ele>
        <time>2014-06-01T14:42:00Z</time>
      </trkpt>
      <trkpt lat="45.29859" lon="5.06305">
        <ele>351.59324068191</ele>
        <time>2014-06-01T14:42:05Z</time>
      </trkpt>
      <trkpt lat="45.29861" lon="5.06311">
        <ele>349.83791269244</ele>
        <time>2014-06-01T14:42:10Z</time>
      </trkpt>
      <trkpt lat="45.29862" lon="5.06322">
        <ele>349.83791269244</ele>
        <time>2014-06-01T14:42:15Z</time>
      </trkpt>
      <trkpt lat="45.29862" lon="5.06332">
        <ele>349.0165108666</ele>
        <time>2014-06-01T14:42:20Z</time>
      </trkpt>
      <trkpt lat="45.2986" lon="5.06345">
        <ele>348.99142145126</ele>
        <time>2014-06-01T14:42:25Z</time>
      </trkpt>
      <trkpt lat="45.29861" lon="5.06363">
        <ele>349.3446294518</ele>
        <time>2014-06-01T14:42:30Z</time>
      </trkpt>
      <trkpt lat="45.29864" lon="5.06384">
        <ele>350.27856757317</ele>
        <time>2014-06-01T14:42:35Z</time>
      </trkpt>
      <trkpt lat="45.29864" lon="5.06403">
        <ele>351.08563000936</ele>
        <time>2014-06-01T14:42:40Z</time>
      </trkpt>
      <trkpt lat="45.29864" lon="5.0642">
        <ele>351.8166492817</ele>
        <time>2014-06-01T14:42:45Z</time>
      </trkpt>
      <trkpt lat="45.29865" lon="5.06431">
        <ele>351.8166492817</ele>
        <time>2014-06-01T14:42:50Z</time>
      </trkpt>
      <trkpt lat="45.29861" lon="5.06444">
        <ele>352.57654686605</ele>
        <time>2014-06-01T14:42:55Z</time>
      </trkpt>
      <trkpt lat="45.29862" lon="5.06457">
        <ele>353.31831768019</ele>
        <time>2014-06-01T14:43:00Z</time>
      </trkpt>
      <trkpt lat="45.29863" lon="5.0647">
        <ele>354.57488610708</ele>
        <time>2014-06-01T14:43:05Z</time>
      </trkpt>
      <trkpt lat="45.29863" lon="5.06483">
        <ele>354.57488610708</ele>
        <time>2014-06-01T14:43:10Z</time>
      </trkpt>
      <trkpt lat="45.29864" lon="5.06499">
        <ele>355.90185053655</ele>
        <time>2014-06-01T14:43:15Z</time>
      </trkpt>
      <trkpt lat="45.29867" lon="5.06524">
        <ele>357.27635530185</ele>
        <time>2014-06-01T14:43:20Z</time>
      </trkpt>
      <trkpt lat="45.29871" lon="5.06552">
        <ele>359.06619828655</ele>
        <time>2014-06-01T14:43:25Z</time>
      </trkpt>
      <trkpt lat="45.29874" lon="5.06576">
        <ele>360.50135592944</ele>
        <time>2014-06-01T14:43:30Z</time>
      </trkpt>
      <trkpt lat="45.29876" lon="5.06587">
        <ele>360.50135592944</ele>
        <time>2014-06-01T14:43:35Z</time>
      </trkpt>
      <trkpt lat="45.29879" lon="5.066">
        <ele>361.63318154269</ele>
        <time>2014-06-01T14:43:40Z</time>
      </trkpt>
      <trkpt lat="45.29882" lon="5.06614">
        <ele>362.58219775025</ele>
        <time>2014-06-01T14:43:45Z</time>
      </trkpt>
      <trkpt lat="45.29885" lon="5.06629">
        <ele>363.47503892056</ele>
        <time>2014-06-01T14:43:50Z</time>
      </trkpt>
      <trkpt lat="45.29886" lon="5.06642">
        <ele>363.9969057002</ele>
        <time>2014-06-01T14:43:55Z</time>
      </trkpt>
      <trkpt lat="45.29887" lon="5.06653">
        <ele>363.9969057002</ele>
        <time>2014-06-01T14:44:00Z</time>
      </trkpt>
      <trkpt lat="45.29884" lon="5.06662">
        <ele>363.58339781806</ele>
        <time>2014-06-01T14:44:05Z</time>
      </trkpt>
      <trkpt lat="45.29884" lon="5.06672">
        <ele>363.58339781806</ele>
        <time>2014-06-01T14:44:10Z</time>
      </trkpt>
      <trkpt lat="45.29884" lon="5.06681">
        <ele>363.14094209004</ele>
        <time>2014-06-01T14:44:15Z</time>
      </trkpt>
      <trkpt lat="45.29885" lon="5.0669">
        <ele>363.14094209004</ele>
        <time>2014-06-01T14:44:20Z</time>
      </trkpt>
      <trkpt lat="45.29887" lon="5.06703">
        <ele>362.47189687641</ele>
        <time>2014-06-01T14:44:25Z</time>
      </trkpt>
      <trkpt lat="45.29887" lon="5.06716">
        <ele>362.02789255328</ele>
        <time>2014-06-01T14:44:30Z</time>
      </trkpt>
      <trkpt lat="45.29887" lon="5.06729">
        <ele>362.02789255328</ele>
        <time>2014-06-01T14:44:35Z</time>
      </trkpt>
      <trkpt lat="45.29886" lon="5.06741">
        <ele>361.073881351</ele>
        <time>2014-06-01T14:44:40Z</time>
      </trkpt>
      <trkpt lat="45.29885" lon="5.06753">
        <ele>361.073881351</ele>
        <time>2014-06-01T14:44:45Z</time>
      </trkpt>
      <trkpt lat="45.29885" lon="5.06764">
        <ele>360.06872988</ele>
        <time>2014-06-01T14:44:50Z</time>
      </trkpt>
      <trkpt lat="45.29883" lon="5.06772">
        <ele>360.06872988</ele>
        <time>2014-06-01T14:44:56Z</time>
      </trkpt>
      <trkpt lat="45.29882" lon="5.0678">
        <ele>359.12069495375</ele>
        <time>2014-06-01T14:45:00Z</time>
      </trkpt>
      <trkpt lat="45.29883" lon="5.06811">
        <ele>358.44519958546</ele>
        <time>2014-06-01T14:45:05Z</time>
      </trkpt>
      <trkpt lat="45.29884" lon="5.06854">
        <ele>358.16900351008</ele>
        <time>2014-06-01T14:45:10Z</time>
      </trkpt>
      <trkpt lat="45.29886" lon="5.06891">
        <ele>358.33635506579</ele>
        <time>2014-06-01T14:45:15Z</time>
      </trkpt>
      <trkpt lat="45.29888" lon="5.069">
        <ele>358.33635506579</ele>
        <time>2014-06-01T14:45:20Z</time>
      </trkpt>
      <trkpt lat="45.29894" lon="5.06911">
        <ele>358.3384802198</ele>
        <time>2014-06-01T14:45:25Z</time>
      </trkpt>
      <trkpt lat="45.29903" lon="5.06918">
        <ele>358.30349356585</ele>
        <time>2014-06-01T14:45:30Z</time>
      </trkpt>
      <trkpt lat="45.29911" lon="5.06923">
        <ele>358.1051845934</ele>
        <time>2014-06-01T14:45:35Z</time>
      </trkpt>
      <trkpt lat="45.29919" lon="5.0693">
        <ele>357.88644311298</ele>
        <time>2014-06-01T14:45:40Z</time>
      </trkpt>
      <trkpt lat="45.29927" lon="5.06937">
        <ele>357.49146687862</ele>
        <time>2014-06-01T14:45:45Z</time>
      </trkpt>
      <trkpt lat="45.29931" lon="5.06946">
        <ele>357.49146687862</ele>
        <time>2014-06-01T14:45:50Z</time>
      </trkpt>
      <trkpt lat="45.29935" lon="5.06954">
        <ele>356.47372658206</ele>
        <time>2014-06-01T14:45:55Z</time>
      </trkpt>
      <trkpt lat="45.29939" lon="5.06961">
        <ele>356.47372658206</ele>
        <time>2014-06-01T14:46:00Z</time>
      </trkpt>
      <trkpt lat="45.29945" lon="5.06969">
        <ele>354.96882631631</ele>
        <time>2014-06-01T14:46:05Z</time>
      </trkpt>
      <trkpt lat="45.2995" lon="5.06976">
        <ele>354.96882631631</ele>
        <time>2014-06-01T14:46:10Z</time>
      </trkpt>
      <trkpt lat="45.29956" lon="5.06984">
        <ele>353.53606463588</ele>
        <time>2014-06-01T14:46:15Z</time>
      </trkpt>
      <trkpt lat="45.29962" lon="5.06994">
        <ele>352.419588865</ele>
        <time>2014-06-01T14:46:20Z</time>
      </trkpt>
      <trkpt lat="45.29966" lon="5.07004">
        <ele>352.419588865</ele>
        <time>2014-06-01T14:46:25Z</time>
      </trkpt>
      <trkpt lat="45.29971" lon="5.07011">
        <ele>350.60530684989</ele>
        <time>2014-06-01T14:46:30Z</time>
      </trkpt>
      <trkpt lat="45.29975" lon="5.07019">
        <ele>350.60530684989</ele>
        <time>2014-06-01T14:46:35Z</time>
      </trkpt>
      <trkpt lat="45.29979" lon="5.07024">
        <ele>348.59661942188</ele>
        <time>2014-06-01T14:46:40Z</time>
      </trkpt>
      <trkpt lat="45.2998" lon="5.07031">
        <ele>348.59661942188</ele>
        <time>2014-06-01T14:46:45Z</time>
      </trkpt>
      <trkpt lat="45.2998" lon="5.07037">
        <ele>348.59661942188</ele>
        <time>2014-06-01T14:46:50Z</time>
      </trkpt>
      <trkpt lat="45.29983" lon="5.07049">
        <ele>346.31278987481</ele>
        <time>2014-06-01T14:46:55Z</time>
      </trkpt>
      <trkpt lat="45.29989" lon="5.07058">
        <ele>346.31278987481</ele>
        <time>2014-06-01T14:47:00Z</time>
      </trkpt>
      <trkpt lat="45.29994" lon="5.07068">
        <ele>344.78934978227</ele>
        <time>2014-06-01T14:47:05Z</time>
      </trkpt>
      <trkpt lat="45.29999" lon="5.07079">
        <ele>343.52800593406</ele>
        <time>2014-06-01T14:47:10Z</time>
      </trkpt>
      <trkpt lat="45.30004" lon="5.07091">
        <ele>343.14706329144</ele>
        <time>2014-06-01T14:47:15Z</time>
      </trkpt>
      <trkpt lat="45.30008" lon="5.07103">
        <ele>341.91105019583</ele>
        <time>2014-06-01T14:47:20Z</time>
      </trkpt>
      <trkpt lat="45.3001" lon="5.07115">
        <ele>341.91105019583</ele>
        <time>2014-06-01T14:47:25Z</time>
      </trkpt>
      <trkpt lat="45.30011" lon="5.07127">
        <ele>340.80827340367</ele>
        <time>2014-06-01T14:47:30Z</time>
      </trkpt>
      <trkpt lat="45.30011" lon="5.07143">
        <ele>340.55220396336</ele>
        <time>2014-06-01T14:47:35Z</time>
      </trkpt>
      <trkpt lat="45.30013" lon="5.07156">
        <ele>340.0144448842</ele>
        <time>2014-06-01T14:47:40Z</time>
      </trkpt>
      <trkpt lat="45.30015" lon="5.07169">
        <ele>339.00043598533</ele>
        <time>2014-06-01T14:47:45Z</time>
      </trkpt>
      <trkpt lat="45.30015" lon="5.07178">
        <ele>339.00043598533</ele>
        <time>2014-06-01T14:47:50Z</time>
      </trkpt>
      <trkpt lat="45.30014" lon="5.07183">
        <ele>336.94204598195</ele>
        <time>2014-06-01T14:47:55Z</time>
      </trkpt>
      <trkpt lat="45.30016" lon="5.07192">
        <ele>336.94204598195</ele>
        <time>2014-06-01T14:48:00Z</time>
      </trkpt>
      <trkpt lat="45.30023" lon="5.07205">
        <ele>336.60144612982</ele>
        <time>2014-06-01T14:48:05Z</time>
      </trkpt>
      <trkpt lat="45.30026" lon="5.07212">
        <ele>336.60144612982</ele>
        <time>2014-06-01T14:48:10Z</time>
      </trkpt>
      <trkpt lat="45.3003" lon="5.07219">
        <ele>336.06554006585</ele>
        <time>2014-06-01T14:48:15Z</time>
      </trkpt>
      <trkpt lat="45.30031" lon="5.07225">
        <ele>336.06554006585</ele>
        <time>2014-06-01T14:48:20Z</time>
      </trkpt>
      <trkpt lat="45.30031" lon="5.07237">
        <ele>334.97450974451</ele>
        <time>2014-06-01T14:48:25Z</time>
      </trkpt>
      <trkpt lat="45.30033" lon="5.07252">
        <ele>334.48078073227</ele>
        <time>2014-06-01T14:48:30Z</time>
      </trkpt>
      <trkpt lat="45.30034" lon="5.07269">
        <ele>334.92980643819</ele>
        <time>2014-06-01T14:48:35Z</time>
      </trkpt>
      <trkpt lat="45.30033" lon="5.07286">
        <ele>335.06812967245</ele>
        <time>2014-06-01T14:48:40Z</time>
      </trkpt>
      <trkpt lat="45.30035" lon="5.07303">
        <ele>335.1186412682</ele>
        <time>2014-06-01T14:48:45Z</time>
      </trkpt>
      <trkpt lat="45.30037" lon="5.07317">
        <ele>335.14393460402</ele>
        <time>2014-06-01T14:48:50Z</time>
      </trkpt>
      <trkpt lat="45.3004" lon="5.07331">
        <ele>335.66318282297</ele>
        <time>2014-06-01T14:48:55Z</time>
      </trkpt>
      <trkpt lat="45.30043" lon="5.07345">
        <ele>336.9542422054</ele>
        <time>2014-06-01T14:49:00Z</time>
      </trkpt>
      <trkpt lat="45.30047" lon="5.07356">
        <ele>336.9542422054</ele>
        <time>2014-06-01T14:49:05Z</time>
      </trkpt>
      <trkpt lat="45.30048" lon="5.07366">
        <ele>337.98977789283</ele>
        <time>2014-06-01T14:49:10Z</time>
      </trkpt>
      <trkpt lat="45.3005" lon="5.07376">
        <ele>337.98977789283</ele>
        <time>2014-06-01T14:49:15Z</time>
      </trkpt>
      <trkpt lat="45.3005" lon="5.07389">
        <ele>338.98592750918</ele>
        <time>2014-06-01T14:49:20Z</time>
      </trkpt>
      <trkpt lat="45.30051" lon="5.07402">
        <ele>338.98592750918</ele>
        <time>2014-06-01T14:49:25Z</time>
      </trkpt>
      <trkpt lat="45.3005" lon="5.07415">
        <ele>339.4369178588</ele>
        <time>2014-06-01T14:49:30Z</time>
      </trkpt>
      <trkpt lat="45.30048" lon="5.07428">
        <ele>340.43207286112</ele>
        <time>2014-06-01T14:49:35Z</time>
      </trkpt>
      <trkpt lat="45.30047" lon="5.07441">
        <ele>340.91840242734</ele>
        <time>2014-06-01T14:49:40Z</time>
      </trkpt>
      <trkpt lat="45.30044" lon="5.07453">
        <ele>340.91840242734</ele>
        <time>2014-06-01T14:49:45Z</time>
      </trkpt>
      <trkpt lat="45.30042" lon="5.07463">
        <ele>340.18112558575</ele>
        <time>2014-06-01T14:49:50Z</time>
      </trkpt>
      <trkpt lat="45.30041" lon="5.07474">
        <ele>340.18112558575</ele>
        <time>2014-06-01T14:49:55Z</time>
      </trkpt>
      <trkpt lat="45.3004" lon="5.07485">
        <ele>338.87284489031</ele>
        <time>2014-06-01T14:50:00Z</time>
      </trkpt>
      <trkpt lat="45.30038" lon="5.07498">
        <ele>338.04660085618</ele>
        <time>2014-06-01T14:50:05Z</time>
      </trkpt>
      <trkpt lat="45.30037" lon="5.07514">
        <ele>337.79767586741</ele>
        <time>2014-06-01T14:50:10Z</time>
      </trkpt>
      <trkpt lat="45.3004" lon="5.07532">
        <ele>338.21275830285</ele>
        <time>2014-06-01T14:50:15Z</time>
      </trkpt>
      <trkpt lat="45.30042" lon="5.07545">
        <ele>338.47684054182</ele>
        <time>2014-06-01T14:50:20Z</time>
      </trkpt>
      <trkpt lat="45.30045" lon="5.07555">
        <ele>338.47684054182</ele>
        <time>2014-06-01T14:50:25Z</time>
      </trkpt>
      <trkpt lat="45.30048" lon="5.07565">
        <ele>338.25315620395</ele>
        <time>2014-06-01T14:50:30Z</time>
      </trkpt>
      <trkpt lat="45.30051" lon="5.07577">
        <ele>338.25315620395</ele>
        <time>2014-06-01T14:50:35Z</time>
      </trkpt>
      <trkpt lat="45.30053" lon="5.0759">
        <ele>339.04687584428</ele>
        <time>2014-06-01T14:50:40Z</time>
      </trkpt>
      <trkpt lat="45.30055" lon="5.07602">
        <ele>339.04687584428</ele>
        <time>2014-06-01T14:50:45Z</time>
      </trkpt>
      <trkpt lat="45.30056" lon="5.07614">
        <ele>340.56368135472</ele>
        <time>2014-06-01T14:50:50Z</time>
      </trkpt>
      <trkpt lat="45.30059" lon="5.07624">
        <ele>340.56368135472</ele>
        <time>2014-06-01T14:50:55Z</time>
      </trkpt>
      <trkpt lat="45.30063" lon="5.07636">
        <ele>342.44242270714</ele>
        <time>2014-06-01T14:51:00Z</time>
      </trkpt>
      <trkpt lat="45.30064" lon="5.07649">
        <ele>344.18899508944</ele>
        <time>2014-06-01T14:51:05Z</time>
      </trkpt>
      <trkpt lat="45.30068" lon="5.0766">
        <ele>344.18899508944</ele>
        <time>2014-06-01T14:51:10Z</time>
      </trkpt>
      <trkpt lat="45.3007" lon="5.07671">
        <ele>345.73512648945</ele>
        <time>2014-06-01T14:51:15Z</time>
      </trkpt>
      <trkpt lat="45.30076" lon="5.07681">
        <ele>345.73512648945</ele>
        <time>2014-06-01T14:51:20Z</time>
      </trkpt>
      <trkpt lat="45.3008" lon="5.07691">
        <ele>347.99815711167</ele>
        <time>2014-06-01T14:51:25Z</time>
      </trkpt>
      <trkpt lat="45.30083" lon="5.07702">
        <ele>347.99815711167</ele>
        <time>2014-06-01T14:51:30Z</time>
      </trkpt>
      <trkpt lat="45.30085" lon="5.07712">
        <ele>349.7509189012</ele>
        <time>2014-06-01T14:51:35Z</time>
      </trkpt>
      <trkpt lat="45.30084" lon="5.07722">
        <ele>349.7509189012</ele>
        <time>2014-06-01T14:51:40Z</time>
      </trkpt>
      <trkpt lat="45.30086" lon="5.07732">
        <ele>351.19815771002</ele>
        <time>2014-06-01T14:51:45Z</time>
      </trkpt>
      <trkpt lat="45.30086" lon="5.0774">
        <ele>351.19815771002</ele>
        <time>2014-06-01T14:51:50Z</time>
      </trkpt>
      <trkpt lat="45.30084" lon="5.07753">
        <ele>352.42966854489</ele>
        <time>2014-06-01T14:51:55Z</time>
      </trkpt>
      <trkpt lat="45.30084" lon="5.07766">
        <ele>353.48613891946</ele>
        <time>2014-06-01T14:52:00Z</time>
      </trkpt>
      <trkpt lat="45.30083" lon="5.07781">
        <ele>354.67969065614</ele>
        <time>2014-06-01T14:52:05Z</time>
      </trkpt>
      <trkpt lat="45.30084" lon="5.07794">
        <ele>355.57869960515</ele>
        <time>2014-06-01T14:52:10Z</time>
      </trkpt>
      <trkpt lat="45.30084" lon="5.07806">
        <ele>355.57869960515</ele>
        <time>2014-06-01T14:52:15Z</time>
      </trkpt>
      <trkpt lat="45.30083" lon="5.07816">
        <ele>355.95713045211</ele>
        <time>2014-06-01T14:52:20Z</time>
      </trkpt>
      <trkpt lat="45.30081" lon="5.07825">
        <ele>355.95713045211</ele>
        <time>2014-06-01T14:52:25Z</time>
      </trkpt>
      <trkpt lat="45.30079" lon="5.07839">
        <ele>356.3132776479</ele>
        <time>2014-06-01T14:52:30Z</time>
      </trkpt>
      <trkpt lat="45.30078" lon="5.0785">
        <ele>356.3132776479</ele>
        <time>2014-06-01T14:52:35Z</time>
      </trkpt>
      <trkpt lat="45.30077" lon="5.07862">
        <ele>356.35963162996</ele>
        <time>2014-06-01T14:52:40Z</time>
      </trkpt>
      <trkpt lat="45.3008" lon="5.07875">
        <ele>356.45046001362</ele>
        <time>2014-06-01T14:52:45Z</time>
      </trkpt>
      <trkpt lat="45.3008" lon="5.07884">
        <ele>356.45046001362</ele>
        <time>2014-06-01T14:52:50Z</time>
      </trkpt>
      <trkpt lat="45.30077" lon="5.0789">
        <ele>356.07813827178</ele>
        <time>2014-06-01T14:52:55Z</time>
      </trkpt>
      <trkpt lat="45.30073" lon="5.07898">
        <ele>356.07813827178</ele>
        <time>2014-06-01T14:53:00Z</time>
      </trkpt>
      <trkpt lat="45.30072" lon="5.07912">
        <ele>355.86896877262</ele>
        <time>2014-06-01T14:53:05Z</time>
      </trkpt>
      <trkpt lat="45.30079" lon="5.07926">
        <ele>356.25876182029</ele>
        <time>2014-06-01T14:53:10Z</time>
      </trkpt>
      <trkpt lat="45.30086" lon="5.07939">
        <ele>356.87151006519</ele>
        <time>2014-06-01T14:53:15Z</time>
      </trkpt>
      <trkpt lat="45.30088" lon="5.07953">
        <ele>357.2141618619</ele>
        <time>2014-06-01T14:53:20Z</time>
      </trkpt>
      <trkpt lat="45.30086" lon="5.07965">
        <ele>357.2141618619</ele>
        <time>2014-06-01T14:53:25Z</time>
      </trkpt>
      <trkpt lat="45.30088" lon="5.0798">
        <ele>357.26304212334</ele>
        <time>2014-06-01T14:53:30Z</time>
      </trkpt>
      <trkpt lat="45.3009" lon="5.07996">
        <ele>357.89059086439</ele>
        <time>2014-06-01T14:53:35Z</time>
      </trkpt>
      <trkpt lat="45.30092" lon="5.08005">
        <ele>357.89059086439</ele>
        <time>2014-06-01T14:53:40Z</time>
      </trkpt>
      <trkpt lat="45.30097" lon="5.08014">
        <ele>357.82839296579</ele>
        <time>2014-06-01T14:53:45Z</time>
      </trkpt>
      <trkpt lat="45.30103" lon="5.08021">
        <ele>357.82839296579</ele>
        <time>2014-06-01T14:53:50Z</time>
      </trkpt>
      <trkpt lat="45.30108" lon="5.08029">
        <ele>358.03604377103</ele>
        <time>2014-06-01T14:53:55Z</time>
      </trkpt>
      <trkpt lat="45.30113" lon="5.08038">
        <ele>358.03604377103</ele>
        <time>2014-06-01T14:54:00Z</time>
      </trkpt>
      <trkpt lat="45.30116" lon="5.08046">
        <ele>357.51408117682</ele>
        <time>2014-06-01T14:54:05Z</time>
      </trkpt>
      <trkpt lat="45.30117" lon="5.08058">
        <ele>357.51408117682</ele>
        <time>2014-06-01T14:54:10Z</time>
      </trkpt>
      <trkpt lat="45.30116" lon="5.0807">
        <ele>356.56349431012</ele>
        <time>2014-06-01T14:54:15Z</time>
      </trkpt>
      <trkpt lat="45.30115" lon="5.08083">
        <ele>355.23381580487</ele>
        <time>2014-06-01T14:54:20Z</time>
      </trkpt>
      <trkpt lat="45.30114" lon="5.08096">
        <ele>354.39345507567</ele>
        <time>2014-06-01T14:54:25Z</time>
      </trkpt>
      <trkpt lat="45.30114" lon="5.08105">
        <ele>354.39345507567</ele>
        <time>2014-06-01T14:54:30Z</time>
      </trkpt>
      <trkpt lat="45.30116" lon="5.08115">
        <ele>353.88011776047</ele>
        <time>2014-06-01T14:54:35Z</time>
      </trkpt>
      <trkpt lat="45.30118" lon="5.0813">
        <ele>354.04690022036</ele>
        <time>2014-06-01T14:54:40Z</time>
      </trkpt>
      <trkpt lat="45.30123" lon="5.08139">
        <ele>354.04690022036</ele>
        <time>2014-06-01T14:54:45Z</time>
      </trkpt>
      <trkpt lat="45.3013" lon="5.08147">
        <ele>354.42643178124</ele>
        <time>2014-06-01T14:54:50Z</time>
      </trkpt>
      <trkpt lat="45.30133" lon="5.08154">
        <ele>354.42643178124</ele>
        <time>2014-06-01T14:54:55Z</time>
      </trkpt>
      <trkpt lat="45.30138" lon="5.08161">
        <ele>354.95975468714</ele>
        <time>2014-06-01T14:55:00Z</time>
      </trkpt>
      <trkpt lat="45.30143" lon="5.08171">
        <ele>354.95975468714</ele>
        <time>2014-06-01T14:55:05Z</time>
      </trkpt>
      <trkpt lat="45.30148" lon="5.08181">
        <ele>355.47650977362</ele>
        <time>2014-06-01T14:55:10Z</time>
      </trkpt>
      <trkpt lat="45.30152" lon="5.08188">
        <ele>355.47650977362</ele>
        <time>2014-06-01T14:55:15Z</time>
      </trkpt>
      <trkpt lat="45.30155" lon="5.08196">
        <ele>355.34332050674</ele>
        <time>2014-06-01T14:55:20Z</time>
      </trkpt>
      <trkpt lat="45.30158" lon="5.08205">
        <ele>355.34332050674</ele>
        <time>2014-06-01T14:55:25Z</time>
      </trkpt>
      <trkpt lat="45.30161" lon="5.08214">
        <ele>354.6236491007</ele>
        <time>2014-06-01T14:55:30Z</time>
      </trkpt>
      <trkpt lat="45.30162" lon="5.08224">
        <ele>354.6236491007</ele>
        <time>2014-06-01T14:55:35Z</time>
      </trkpt>
      <trkpt lat="45.30162" lon="5.08234">
        <ele>353.32028076698</ele>
        <time>2014-06-01T14:55:40Z</time>
      </trkpt>
      <trkpt lat="45.30161" lon="5.08244">
        <ele>353.32028076698</ele>
        <time>2014-06-01T14:55:45Z</time>
      </trkpt>
      <trkpt lat="45.3016" lon="5.08256">
        <ele>351.82651086113</ele>
        <time>2014-06-01T14:55:50Z</time>
      </trkpt>
      <trkpt lat="45.3016" lon="5.08268">
        <ele>351.82651086113</ele>
        <time>2014-06-01T14:55:55Z</time>
      </trkpt>
      <trkpt lat="45.30158" lon="5.08279">
        <ele>350.08932211008</ele>
        <time>2014-06-01T14:56:00Z</time>
      </trkpt>
      <trkpt lat="45.30156" lon="5.0829">
        <ele>350.08932211008</ele>
        <time>2014-06-01T14:56:05Z</time>
      </trkpt>
      <trkpt lat="45.30157" lon="5.08301">
        <ele>348.73755266106</ele>
        <time>2014-06-01T14:56:10Z</time>
      </trkpt>
      <trkpt lat="45.30156" lon="5.08312">
        <ele>348.73755266106</ele>
        <time>2014-06-01T14:56:15Z</time>
      </trkpt>
      <trkpt lat="45.30157" lon="5.08322">
        <ele>347.01247476625</ele>
        <time>2014-06-01T14:56:20Z</time>
      </trkpt>
      <trkpt lat="45.30158" lon="5.08337">
        <ele>346.4313892563</ele>
        <time>2014-06-01T14:56:25Z</time>
      </trkpt>
      <trkpt lat="45.30157" lon="5.0835">
        <ele>346.03343113135</ele>
        <time>2014-06-01T14:56:30Z</time>
      </trkpt>
      <trkpt lat="45.30157" lon="5.08364">
        <ele>346.12385236513</ele>
        <time>2014-06-01T14:56:35Z</time>
      </trkpt>
      <trkpt lat="45.30158" lon="5.08376">
        <ele>346.12385236513</ele>
        <time>2014-06-01T14:56:40Z</time>
      </trkpt>
      <trkpt lat="45.3016" lon="5.08387">
        <ele>346.50846850611</ele>
        <time>2014-06-01T14:56:45Z</time>
      </trkpt>
      <trkpt lat="45.30163" lon="5.08395">
        <ele>346.50846850611</ele>
        <time>2014-06-01T14:56:50Z</time>
      </trkpt>
      <trkpt lat="45.30163" lon="5.08395">
        <ele>346.50846850611</ele>
        <time>2014-06-01T14:56:55Z</time>
      </trkpt>
      <trkpt lat="45.30163" lon="5.08396">
        <ele>346.50846850611</ele>
        <time>2014-06-01T14:57:00Z</time>
      </trkpt>
      <trkpt lat="45.30162" lon="5.084">
        <ele>346.71824010153</ele>
        <time>2014-06-01T14:57:05Z</time>
      </trkpt>
      <trkpt lat="45.30159" lon="5.08395">
        <ele>346.71824010153</ele>
        <time>2014-06-01T14:57:10Z</time>
      </trkpt>
      <trkpt lat="45.30161" lon="5.08396">
        <ele>346.71824010153</ele>
        <time>2014-06-01T14:57:15Z</time>
      </trkpt>
      <trkpt lat="45.3016" lon="5.08396">
        <ele>346.71824010153</ele>
        <time>2014-06-01T14:57:20Z</time>
      </trkpt>
      <trkpt lat="45.3016" lon="5.08395">
        <ele>346.71824010153</ele>
        <time>2014-06-01T14:57:25Z</time>
      </trkpt>
      <trkpt lat="45.30159" lon="5.08395">
        <ele>346.71824010153</ele>
        <time>2014-06-01T14:57:30Z</time>
      </trkpt>
      <trkpt lat="45.30159" lon="5.08395">
        <ele>346.71824010153</ele>
        <time>2014-06-01T14:57:35Z</time>
      </trkpt>
      <trkpt lat="45.30159" lon="5.08395">
        <ele>346.71824010153</ele>
        <time>2014-06-01T14:57:40Z</time>
      </trkpt>
      <trkpt lat="45.30159" lon="5.08395">
        <ele>346.71824010153</ele>
        <time>2014-06-01T14:57:45Z</time>
      </trkpt>
      <trkpt lat="45.30159" lon="5.08394">
        <ele>346.71824010153</ele>
        <time>2014-06-01T14:57:50Z</time>
      </trkpt>
      <trkpt lat="45.30159" lon="5.08392">
        <ele>346.1893055505</ele>
        <time>2014-06-01T14:57:55Z</time>
      </trkpt>
      <trkpt lat="45.30158" lon="5.08392">
        <ele>346.1893055505</ele>
        <time>2014-06-01T14:58:00Z</time>
      </trkpt>
      <trkpt lat="45.30158" lon="5.08391">
        <ele>346.1893055505</ele>
        <time>2014-06-01T14:58:05Z</time>
      </trkpt>
      <trkpt lat="45.30157" lon="5.0839">
        <ele>346.1893055505</ele>
        <time>2014-06-01T14:58:10Z</time>
      </trkpt>
      <trkpt lat="45.30157" lon="5.0839">
        <ele>346.1893055505</ele>
        <time>2014-06-01T14:58:15Z</time>
      </trkpt>
      <trkpt lat="45.30158" lon="5.08391">
        <ele>346.1893055505</ele>
        <time>2014-06-01T14:58:20Z</time>
      </trkpt>
      <trkpt lat="45.30157" lon="5.08391">
        <ele>346.1893055505</ele>
        <time>2014-06-01T14:58:25Z</time>
      </trkpt>
      <trkpt lat="45.30157" lon="5.08391">
        <ele>346.1893055505</ele>
        <time>2014-06-01T14:58:30Z</time>
      </trkpt>
      <trkpt lat="45.30157" lon="5.08391">
        <ele>346.1893055505</ele>
        <time>2014-06-01T14:58:35Z</time>
      </trkpt>
      <trkpt lat="45.30157" lon="5.08391">
        <ele>346.1893055505</ele>
        <time>2014-06-01T14:58:40Z</time>
      </trkpt>
      <trkpt lat="45.30157" lon="5.08391">
        <ele>346.1893055505</ele>
        <time>2014-06-01T14:58:45Z</time>
      </trkpt>
      <trkpt lat="45.30157" lon="5.08391">
        <ele>346.1893055505</ele>
        <time>2014-06-01T14:58:50Z</time>
      </trkpt>
      <trkpt lat="45.30157" lon="5.08391">
        <ele>346.1893055505</ele>
        <time>2014-06-01T14:58:55Z</time>
      </trkpt>
      <trkpt lat="45.30157" lon="5.08391">
        <ele>346.1893055505</ele>
        <time>2014-06-01T14:59:00Z</time>
      </trkpt>
      <trkpt lat="45.30157" lon="5.08391">
        <ele>346.1893055505</ele>
        <time>2014-06-01T14:59:05Z</time>
      </trkpt>
      <trkpt lat="45.30157" lon="5.08391">
        <ele>346.1893055505</ele>
        <time>2014-06-01T14:59:10Z</time>
      </trkpt>
      <trkpt lat="45.30158" lon="5.08391">
        <ele>346.1893055505</ele>
        <time>2014-06-01T14:59:15Z</time>
      </trkpt>
      <trkpt lat="45.30157" lon="5.08391">
        <ele>346.1893055505</ele>
        <time>2014-06-01T14:59:20Z</time>
      </trkpt>
      <trkpt lat="45.30156" lon="5.0839">
        <ele>346.1893055505</ele>
        <time>2014-06-01T14:59:25Z</time>
      </trkpt>
      <trkpt lat="45.30157" lon="5.0839">
        <ele>346.1893055505</ele>
        <time>2014-06-01T14:59:30Z</time>
      </trkpt>
      <trkpt lat="45.30157" lon="5.0839">
        <ele>346.1893055505</ele>
        <time>2014-06-01T14:59:35Z</time>
      </trkpt>
      <trkpt lat="45.30158" lon="5.08389">
        <ele>346.1893055505</ele>
        <time>2014-06-01T14:59:40Z</time>
      </trkpt>
      <trkpt lat="45.3016" lon="5.08389">
        <ele>345.74146640296</ele>
        <time>2014-06-01T14:59:45Z</time>
      </trkpt>
      <trkpt lat="45.30161" lon="5.0839">
        <ele>345.74146640296</ele>
        <time>2014-06-01T14:59:50Z</time>
      </trkpt>
      <trkpt lat="45.30161" lon="5.08391">
        <ele>345.74146640296</ele>
        <time>2014-06-01T14:59:55Z</time>
      </trkpt>
      <trkpt lat="45.30161" lon="5.08391">
        <ele>345.74146640296</ele>
        <time>2014-06-01T15:00:00Z</time>
      </trkpt>
      <trkpt lat="45.30161" lon="5.08391">
        <ele>345.74146640296</ele>
        <time>2014-06-01T15:00:05Z</time>
      </trkpt>
      <trkpt lat="45.30161" lon="5.08391">
        <ele>345.74146640296</ele>
        <time>2014-06-01T15:00:10Z</time>
      </trkpt>
      <trkpt lat="45.30161" lon="5.08391">
        <ele>345.74146640296</ele>
        <time>2014-06-01T15:00:15Z</time>
      </trkpt>
      <trkpt lat="45.30161" lon="5.08391">
        <ele>345.74146640296</ele>
        <time>2014-06-01T15:00:20Z</time>
      </trkpt>
      <trkpt lat="45.30161" lon="5.08391">
        <ele>345.74146640296</ele>
        <time>2014-06-01T15:00:25Z</time>
      </trkpt>
      <trkpt lat="45.30161" lon="5.08391">
        <ele>345.74146640296</ele>
        <time>2014-06-01T15:00:30Z</time>
      </trkpt>
      <trkpt lat="45.30161" lon="5.08391">
        <ele>345.74146640296</ele>
        <time>2014-06-01T15:00:35Z</time>
      </trkpt>
      <trkpt lat="45.30161" lon="5.08391">
        <ele>345.74146640296</ele>
        <time>2014-06-01T15:00:40Z</time>
      </trkpt>
      <trkpt lat="45.30161" lon="5.08391">
        <ele>345.74146640296</ele>
        <time>2014-06-01T15:00:45Z</time>
      </trkpt>
      <trkpt lat="45.3016" lon="5.08391">
        <ele>345.74146640296</ele>
        <time>2014-06-01T15:00:50Z</time>
      </trkpt>
      <trkpt lat="45.30161" lon="5.08392">
        <ele>345.74146640296</ele>
        <time>2014-06-01T15:00:55Z</time>
      </trkpt>
      <trkpt lat="45.30161" lon="5.08392">
        <ele>345.74146640296</ele>
        <time>2014-06-01T15:01:00Z</time>
      </trkpt>
      <trkpt lat="45.30161" lon="5.08392">
        <ele>345.74146640296</ele>
        <time>2014-06-01T15:01:05Z</time>
      </trkpt>
      <trkpt lat="45.30161" lon="5.08392">
        <ele>345.74146640296</ele>
        <time>2014-06-01T15:01:10Z</time>
      </trkpt>
      <trkpt lat="45.30161" lon="5.08392">
        <ele>345.74146640296</ele>
        <time>2014-06-01T15:01:15Z</time>
      </trkpt>
      <trkpt lat="45.30161" lon="5.08392">
        <ele>345.74146640296</ele>
        <time>2014-06-01T15:01:20Z</time>
      </trkpt>
      <trkpt lat="45.30161" lon="5.08392">
        <ele>345.74146640296</ele>
        <time>2014-06-01T15:01:25Z</time>
      </trkpt>
      <trkpt lat="45.30161" lon="5.08392">
        <ele>345.74146640296</ele>
        <time>2014-06-01T15:01:30Z</time>
      </trkpt>
      <trkpt lat="45.30161" lon="5.08392">
        <ele>345.74146640296</ele>
        <time>2014-06-01T15:01:35Z</time>
      </trkpt>
      <trkpt lat="45.30161" lon="5.08392">
        <ele>345.74146640296</ele>
        <time>2014-06-01T15:01:40Z</time>
      </trkpt>
      <trkpt lat="45.30161" lon="5.08392">
        <ele>345.74146640296</ele>
        <time>2014-06-01T15:01:45Z</time>
      </trkpt>
      <trkpt lat="45.30161" lon="5.08392">
        <ele>345.74146640296</ele>
        <time>2014-06-01T15:01:50Z</time>
      </trkpt>
      <trkpt lat="45.30161" lon="5.08392">
        <ele>345.74146640296</ele>
        <time>2014-06-01T15:01:55Z</time>
      </trkpt>
      <trkpt lat="45.30161" lon="5.08392">
        <ele>345.74146640296</ele>
        <time>2014-06-01T15:02:00Z</time>
      </trkpt>
      <trkpt lat="45.30161" lon="5.08392">
        <ele>345.74146640296</ele>
        <time>2014-06-01T15:02:05Z</time>
      </trkpt>
      <trkpt lat="45.30161" lon="5.08392">
        <ele>345.74146640296</ele>
        <time>2014-06-01T15:02:10Z</time>
      </trkpt>
      <trkpt lat="45.30161" lon="5.08392">
        <ele>345.74146640296</ele>
        <time>2014-06-01T15:02:15Z</time>
      </trkpt>
      <trkpt lat="45.30161" lon="5.08393">
        <ele>345.74146640296</ele>
        <time>2014-06-01T15:02:20Z</time>
      </trkpt>
      <trkpt lat="45.30162" lon="5.08394">
        <ele>345.74146640296</ele>
        <time>2014-06-01T15:02:25Z</time>
      </trkpt>
      <trkpt lat="45.30162" lon="5.08395">
        <ele>345.74146640296</ele>
        <time>2014-06-01T15:02:30Z</time>
      </trkpt>
      <trkpt lat="45.30162" lon="5.08395">
        <ele>345.74146640296</ele>
        <time>2014-06-01T15:02:35Z</time>
      </trkpt>
      <trkpt lat="45.30162" lon="5.08395">
        <ele>345.74146640296</ele>
        <time>2014-06-01T15:02:40Z</time>
      </trkpt>
      <trkpt lat="45.30162" lon="5.08395">
        <ele>345.74146640296</ele>
        <time>2014-06-01T15:02:45Z</time>
      </trkpt>
      <trkpt lat="45.30162" lon="5.08395">
        <ele>345.74146640296</ele>
        <time>2014-06-01T15:02:50Z</time>
      </trkpt>
      <trkpt lat="45.30162" lon="5.08395">
        <ele>345.74146640296</ele>
        <time>2014-06-01T15:02:55Z</time>
      </trkpt>
      <trkpt lat="45.30163" lon="5.08399">
        <ele>345.74146640296</ele>
        <time>2014-06-01T15:03:00Z</time>
      </trkpt>
      <trkpt lat="45.30167" lon="5.08408">
        <ele>345.55756898699</ele>
        <time>2014-06-01T15:03:05Z</time>
      </trkpt>
      <trkpt lat="45.30171" lon="5.08417">
        <ele>345.55756898699</ele>
        <time>2014-06-01T15:03:10Z</time>
      </trkpt>
      <trkpt lat="45.30174" lon="5.08426">
        <ele>345.114494218</ele>
        <time>2014-06-01T15:03:15Z</time>
      </trkpt>
      <trkpt lat="45.30177" lon="5.08435">
        <ele>345.114494218</ele>
        <time>2014-06-01T15:03:20Z</time>
      </trkpt>
      <trkpt lat="45.3018" lon="5.08444">
        <ele>344.43260792998</ele>
        <time>2014-06-01T15:03:25Z</time>
      </trkpt>
      <trkpt lat="45.30183" lon="5.08454">
        <ele>344.43260792998</ele>
        <time>2014-06-01T15:03:30Z</time>
      </trkpt>
      <trkpt lat="45.30184" lon="5.08461">
        <ele>343.19993421496</ele>
        <time>2014-06-01T15:03:35Z</time>
      </trkpt>
      <trkpt lat="45.30186" lon="5.08468">
        <ele>343.19993421496</ele>
        <time>2014-06-01T15:03:40Z</time>
      </trkpt>
      <trkpt lat="45.3019" lon="5.08479">
        <ele>341.93592056233</ele>
        <time>2014-06-01T15:03:45Z</time>
      </trkpt>
      <trkpt lat="45.30192" lon="5.08489">
        <ele>341.93592056233</ele>
        <time>2014-06-01T15:03:50Z</time>
      </trkpt>
      <trkpt lat="45.30194" lon="5.08493">
        <ele>340.61748950978</ele>
        <time>2014-06-01T15:03:55Z</time>
      </trkpt>
      <trkpt lat="45.30195" lon="5.08499">
        <ele>340.61748950978</ele>
        <time>2014-06-01T15:04:00Z</time>
      </trkpt>
      <trkpt lat="45.302" lon="5.08508">
        <ele>339.61244198455</ele>
        <time>2014-06-01T15:04:05Z</time>
      </trkpt>
      <trkpt lat="45.30207" lon="5.08514">
        <ele>339.61244198455</ele>
        <time>2014-06-01T15:04:10Z</time>
      </trkpt>
      <trkpt lat="45.30213" lon="5.08517">
        <ele>338.41035127619</ele>
        <time>2014-06-01T15:04:15Z</time>
      </trkpt>
      <trkpt lat="45.30219" lon="5.08521">
        <ele>338.41035127619</ele>
        <time>2014-06-01T15:04:20Z</time>
      </trkpt>
      <trkpt lat="45.30227" lon="5.08523">
        <ele>337.37460624671</ele>
        <time>2014-06-01T15:04:25Z</time>
      </trkpt>
      <trkpt lat="45.30233" lon="5.08526">
        <ele>337.37460624671</ele>
        <time>2014-06-01T15:04:30Z</time>
      </trkpt>
      <trkpt lat="45.30239" lon="5.08531">
        <ele>335.91904242072</ele>
        <time>2014-06-01T15:04:35Z</time>
      </trkpt>
      <trkpt lat="45.30244" lon="5.0854">
        <ele>335.91904242072</ele>
        <time>2014-06-01T15:04:40Z</time>
      </trkpt>
      <trkpt lat="45.30248" lon="5.08549">
        <ele>334.62571584635</ele>
        <time>2014-06-01T15:04:45Z</time>
      </trkpt>
      <trkpt lat="45.30253" lon="5.08559">
        <ele>334.62571584635</ele>
        <time>2014-06-01T15:04:50Z</time>
      </trkpt>
      <trkpt lat="45.30259" lon="5.08567">
        <ele>333.41370566885</ele>
        <time>2014-06-01T15:04:55Z</time>
      </trkpt>
      <trkpt lat="45.30264" lon="5.08576">
        <ele>333.41370566885</ele>
        <time>2014-06-01T15:05:00Z</time>
      </trkpt>
      <trkpt lat="45.30268" lon="5.08584">
        <ele>332.17889639168</ele>
        <time>2014-06-01T15:05:05Z</time>
      </trkpt>
      <trkpt lat="45.30273" lon="5.08592">
        <ele>332.17889639168</ele>
        <time>2014-06-01T15:05:10Z</time>
      </trkpt>
      <trkpt lat="45.30278" lon="5.08602">
        <ele>331.04096088826</ele>
        <time>2014-06-01T15:05:15Z</time>
      </trkpt>
      <trkpt lat="45.30282" lon="5.08611">
        <ele>331.04096088826</ele>
        <time>2014-06-01T15:05:20Z</time>
      </trkpt>
      <trkpt lat="45.30285" lon="5.08622">
        <ele>330.12482904939</ele>
        <time>2014-06-01T15:05:25Z</time>
      </trkpt>
      <trkpt lat="45.30288" lon="5.08632">
        <ele>330.12482904939</ele>
        <time>2014-06-01T15:05:30Z</time>
      </trkpt>
      <trkpt lat="45.30292" lon="5.0864">
        <ele>329.24290688092</ele>
        <time>2014-06-01T15:05:35Z</time>
      </trkpt>
      <trkpt lat="45.30296" lon="5.08649">
        <ele>329.24290688092</ele>
        <time>2014-06-01T15:05:40Z</time>
      </trkpt>
      <trkpt lat="45.30298" lon="5.08658">
        <ele>328.16355044367</ele>
        <time>2014-06-01T15:05:45Z</time>
      </trkpt>
      <trkpt lat="45.30299" lon="5.08667">
        <ele>328.16355044367</ele>
        <time>2014-06-01T15:05:50Z</time>
      </trkpt>
      <trkpt lat="45.30303" lon="5.08677">
        <ele>327.3499204414</ele>
        <time>2014-06-01T15:05:55Z</time>
      </trkpt>
      <trkpt lat="45.30302" lon="5.08679">
        <ele>327.3499204414</ele>
        <time>2014-06-01T15:06:00Z</time>
      </trkpt>
      <trkpt lat="45.30295" lon="5.08674">
        <ele>326.91327895018</ele>
        <time>2014-06-01T15:06:05Z</time>
      </trkpt>
      <trkpt lat="45.30288" lon="5.08672">
        <ele>326.91327895018</ele>
        <time>2014-06-01T15:06:10Z</time>
      </trkpt>
      <trkpt lat="45.3028" lon="5.08672">
        <ele>326.53765360505</ele>
        <time>2014-06-01T15:06:15Z</time>
      </trkpt>
      <trkpt lat="45.30273" lon="5.08673">
        <ele>326.53765360505</ele>
        <time>2014-06-01T15:06:20Z</time>
      </trkpt>
      <trkpt lat="45.30265" lon="5.08675">
        <ele>326.29031383918</ele>
        <time>2014-06-01T15:06:25Z</time>
      </trkpt>
      <trkpt lat="45.30259" lon="5.08679">
        <ele>326.29031383918</ele>
        <time>2014-06-01T15:06:30Z</time>
      </trkpt>
      <trkpt lat="45.30252" lon="5.08686">
        <ele>326.01699114557</ele>
        <time>2014-06-01T15:06:35Z</time>
      </trkpt>
      <trkpt lat="45.30247" lon="5.08696">
        <ele>326.01699114557</ele>
        <time>2014-06-01T15:06:40Z</time>
      </trkpt>
      <trkpt lat="45.30246" lon="5.08708">
        <ele>326.12238267841</ele>
        <time>2014-06-01T15:06:45Z</time>
      </trkpt>
      <trkpt lat="45.30245" lon="5.0872">
        <ele>326.12238267841</ele>
        <time>2014-06-01T15:06:50Z</time>
      </trkpt>
      <trkpt lat="45.30245" lon="5.0873">
        <ele>326.43271816483</ele>
        <time>2014-06-01T15:06:55Z</time>
      </trkpt>
      <trkpt lat="45.30245" lon="5.0874">
        <ele>326.43271816483</ele>
        <time>2014-06-01T15:07:00Z</time>
      </trkpt>
      <trkpt lat="45.30245" lon="5.08751">
        <ele>326.82960625495</ele>
        <time>2014-06-01T15:07:05Z</time>
      </trkpt>
      <trkpt lat="45.30246" lon="5.08762">
        <ele>326.82960625495</ele>
        <time>2014-06-01T15:07:10Z</time>
      </trkpt>
      <trkpt lat="45.30246" lon="5.08773">
        <ele>327.36159761243</ele>
        <time>2014-06-01T15:07:15Z</time>
      </trkpt>
      <trkpt lat="45.30247" lon="5.08776">
        <ele>327.36159761243</ele>
        <time>2014-06-01T15:07:20Z</time>
      </trkpt>
      <trkpt lat="45.30251" lon="5.08855">
        <ele>332.03633800356</ele>
        <time>2014-06-01T15:07:50Z</time>
      </trkpt>
      <trkpt lat="45.30252" lon="5.08868">
        <ele>337.23461236398</ele>
        <time>2014-06-01T15:07:55Z</time>
      </trkpt>
      <trkpt lat="45.30247" lon="5.08872">
        <ele>337.23461236398</ele>
        <time>2014-06-01T15:08:00Z</time>
      </trkpt>
      <trkpt lat="45.30247" lon="5.08878">
        <ele>339.39988043433</ele>
        <time>2014-06-01T15:08:05Z</time>
      </trkpt>
      <trkpt lat="45.30243" lon="5.08888">
        <ele>339.39988043433</ele>
        <time>2014-06-01T15:08:10Z</time>
      </trkpt>
      <trkpt lat="45.30241" lon="5.08894">
        <ele>340.89459171587</ele>
        <time>2014-06-01T15:08:15Z</time>
      </trkpt>
      <trkpt lat="45.3024" lon="5.08903">
        <ele>340.89459171587</ele>
        <time>2014-06-01T15:08:20Z</time>
      </trkpt>
      <trkpt lat="45.30239" lon="5.08913">
        <ele>342.00735247992</ele>
        <time>2014-06-01T15:08:25Z</time>
      </trkpt>
      <trkpt lat="45.30237" lon="5.08927">
        <ele>343.22290938609</ele>
        <time>2014-06-01T15:08:30Z</time>
      </trkpt>
      <trkpt lat="45.30239" lon="5.0894">
        <ele>344.52906711343</ele>
        <time>2014-06-01T15:08:35Z</time>
      </trkpt>
      <trkpt lat="45.30238" lon="5.08951">
        <ele>344.52906711343</ele>
        <time>2014-06-01T15:08:40Z</time>
      </trkpt>
      <trkpt lat="45.3024" lon="5.08962">
        <ele>346.0585009428</ele>
        <time>2014-06-01T15:08:45Z</time>
      </trkpt>
      <trkpt lat="45.30242" lon="5.08972">
        <ele>346.0585009428</ele>
        <time>2014-06-01T15:08:50Z</time>
      </trkpt>
      <trkpt lat="45.30244" lon="5.08984">
        <ele>347.6598259294</ele>
        <time>2014-06-01T15:08:55Z</time>
      </trkpt>
      <trkpt lat="45.30245" lon="5.08996">
        <ele>347.6598259294</ele>
        <time>2014-06-01T15:09:00Z</time>
      </trkpt>
      <trkpt lat="45.30246" lon="5.09006">
        <ele>348.70272667205</ele>
        <time>2014-06-01T15:09:05Z</time>
      </trkpt>
      <trkpt lat="45.30251" lon="5.09041">
        <ele>349.68572323778</ele>
        <time>2014-06-01T15:09:10Z</time>
      </trkpt>
      <trkpt lat="45.30258" lon="5.09069">
        <ele>350.32163920543</ele>
        <time>2014-06-01T15:09:15Z</time>
      </trkpt>
      <trkpt lat="45.30265" lon="5.09091">
        <ele>350.37432315172</ele>
        <time>2014-06-01T15:09:20Z</time>
      </trkpt>
      <trkpt lat="45.30269" lon="5.09109">
        <ele>350.39052583124</ele>
        <time>2014-06-01T15:09:25Z</time>
      </trkpt>
      <trkpt lat="45.30275" lon="5.09131">
        <ele>350.45913728396</ele>
        <time>2014-06-01T15:09:30Z</time>
      </trkpt>
      <trkpt lat="45.30277" lon="5.09153">
        <ele>350.24456360795</ele>
        <time>2014-06-01T15:09:35Z</time>
      </trkpt>
      <trkpt lat="45.30277" lon="5.09182">
        <ele>350.58965451228</ele>
        <time>2014-06-01T15:09:40Z</time>
      </trkpt>
      <trkpt lat="45.3028" lon="5.09216">
        <ele>351.78389783936</ele>
        <time>2014-06-01T15:09:45Z</time>
      </trkpt>
      <trkpt lat="45.30289" lon="5.09248">
        <ele>352.03243972716</ele>
        <time>2014-06-01T15:09:50Z</time>
      </trkpt>
      <trkpt lat="45.30297" lon="5.09294">
        <ele>352.51400997628</ele>
        <time>2014-06-01T15:09:55Z</time>
      </trkpt>
      <trkpt lat="45.30301" lon="5.0932">
        <ele>352.64849447695</ele>
        <time>2014-06-01T15:10:00Z</time>
      </trkpt>
      <trkpt lat="45.30296" lon="5.09337">
        <ele>350.25657970711</ele>
        <time>2014-06-01T15:10:05Z</time>
      </trkpt>
      <trkpt lat="45.303" lon="5.09365">
        <ele>348.81683373485</ele>
        <time>2014-06-01T15:10:10Z</time>
      </trkpt>
      <trkpt lat="45.30303" lon="5.09389">
        <ele>347.57220463133</ele>
        <time>2014-06-01T15:10:15Z</time>
      </trkpt>
      <trkpt lat="45.30309" lon="5.09415">
        <ele>347.60772207183</ele>
        <time>2014-06-01T15:10:20Z</time>
      </trkpt>
      <trkpt lat="45.30314" lon="5.0944">
        <ele>347.99405443286</ele>
        <time>2014-06-01T15:10:25Z</time>
      </trkpt>
      <trkpt lat="45.30318" lon="5.09456">
        <ele>348.89236237775</ele>
        <time>2014-06-01T15:10:30Z</time>
      </trkpt>
      <trkpt lat="45.3032" lon="5.09477">
        <ele>349.51382594982</ele>
        <time>2014-06-01T15:10:35Z</time>
      </trkpt>
      <trkpt lat="45.30328" lon="5.09505">
        <ele>349.51746532651</ele>
        <time>2014-06-01T15:10:40Z</time>
      </trkpt>
      <trkpt lat="45.30335" lon="5.0954">
        <ele>349.13672107871</ele>
        <time>2014-06-01T15:10:45Z</time>
      </trkpt>
      <trkpt lat="45.3034" lon="5.09557">
        <ele>348.25752157927</ele>
        <time>2014-06-01T15:10:50Z</time>
      </trkpt>
      <trkpt lat="45.30337" lon="5.09567">
        <ele>348.25752157927</ele>
        <time>2014-06-01T15:10:55Z</time>
      </trkpt>
      <trkpt lat="45.30336" lon="5.0958">
        <ele>346.34324553353</ele>
        <time>2014-06-01T15:11:00Z</time>
      </trkpt>
      <trkpt lat="45.30339" lon="5.09593">
        <ele>344.499224031</ele>
        <time>2014-06-01T15:11:05Z</time>
      </trkpt>
      <trkpt lat="45.30342" lon="5.09603">
        <ele>344.499224031</ele>
        <time>2014-06-01T15:11:10Z</time>
      </trkpt>
      <trkpt lat="45.30347" lon="5.0962">
        <ele>344.1817113922</ele>
        <time>2014-06-01T15:11:15Z</time>
      </trkpt>
      <trkpt lat="45.30349" lon="5.09633">
        <ele>343.60846435138</ele>
        <time>2014-06-01T15:11:20Z</time>
      </trkpt>
      <trkpt lat="45.30353" lon="5.09642">
        <ele>343.60846435138</ele>
        <time>2014-06-01T15:11:25Z</time>
      </trkpt>
      <trkpt lat="45.30353" lon="5.09651">
        <ele>342.64201008001</ele>
        <time>2014-06-01T15:11:30Z</time>
      </trkpt>
      <trkpt lat="45.30353" lon="5.09661">
        <ele>342.64201008001</ele>
        <time>2014-06-01T15:11:35Z</time>
      </trkpt>
      <trkpt lat="45.30354" lon="5.09672">
        <ele>341.84776814596</ele>
        <time>2014-06-01T15:11:40Z</time>
      </trkpt>
      <trkpt lat="45.30358" lon="5.09688">
        <ele>341.17264763689</ele>
        <time>2014-06-01T15:11:45Z</time>
      </trkpt>
      <trkpt lat="45.30359" lon="5.09693">
        <ele>341.17264763689</ele>
        <time>2014-06-01T15:11:50Z</time>
      </trkpt>
      <trkpt lat="45.3036" lon="5.09696">
        <ele>341.17264763689</ele>
        <time>2014-06-01T15:11:55Z</time>
      </trkpt>
      <trkpt lat="45.30358" lon="5.09695">
        <ele>341.17264763689</ele>
        <time>2014-06-01T15:12:00Z</time>
      </trkpt>
      <trkpt lat="45.30357" lon="5.09695">
        <ele>341.17264763689</ele>
        <time>2014-06-01T15:12:05Z</time>
      </trkpt>
      <trkpt lat="45.30357" lon="5.09695">
        <ele>340.35090465338</ele>
        <time>2014-06-01T15:12:10Z</time>
      </trkpt>
      <trkpt lat="45.30358" lon="5.09695">
        <ele>340.35090465338</ele>
        <time>2014-06-01T15:12:15Z</time>
      </trkpt>
      <trkpt lat="45.30359" lon="5.09693">
        <ele>340.35090465338</ele>
        <time>2014-06-01T15:12:20Z</time>
      </trkpt>
      <trkpt lat="45.30358" lon="5.09691">
        <ele>340.35090465338</ele>
        <time>2014-06-01T15:12:25Z</time>
      </trkpt>
      <trkpt lat="45.30358" lon="5.09687">
        <ele>340.35090465338</ele>
        <time>2014-06-01T15:12:30Z</time>
      </trkpt>
      <trkpt lat="45.3036" lon="5.09689">
        <ele>340.13103961163</ele>
        <time>2014-06-01T15:12:35Z</time>
      </trkpt>
      <trkpt lat="45.30361" lon="5.09692">
        <ele>340.13103961163</ele>
        <time>2014-06-01T15:12:40Z</time>
      </trkpt>
      <trkpt lat="45.30361" lon="5.09693">
        <ele>340.13103961163</ele>
        <time>2014-06-01T15:12:45Z</time>
      </trkpt>
      <trkpt lat="45.30361" lon="5.09694">
        <ele>340.13103961163</ele>
        <time>2014-06-01T15:12:50Z</time>
      </trkpt>
      <trkpt lat="45.30362" lon="5.09701">
        <ele>340.13103961163</ele>
        <time>2014-06-01T15:12:55Z</time>
      </trkpt>
      <trkpt lat="45.30364" lon="5.09718">
        <ele>339.85017761858</ele>
        <time>2014-06-01T15:13:00Z</time>
      </trkpt>
      <trkpt lat="45.30366" lon="5.09752">
        <ele>339.77332956938</ele>
        <time>2014-06-01T15:13:05Z</time>
      </trkpt>
      <trkpt lat="45.30366" lon="5.09765">
        <ele>339.33838650459</ele>
        <time>2014-06-01T15:13:10Z</time>
      </trkpt>
      <trkpt lat="45.30364" lon="5.09766">
        <ele>339.33838650459</ele>
        <time>2014-06-01T15:13:15Z</time>
      </trkpt>
      <trkpt lat="45.30364" lon="5.09767">
        <ele>339.33838650459</ele>
        <time>2014-06-01T15:13:20Z</time>
      </trkpt>
      <trkpt lat="45.30365" lon="5.09772">
        <ele>339.33838650459</ele>
        <time>2014-06-01T15:13:25Z</time>
      </trkpt>
      <trkpt lat="45.30366" lon="5.09789">
        <ele>339.19278087792</ele>
        <time>2014-06-01T15:13:30Z</time>
      </trkpt>
      <trkpt lat="45.30368" lon="5.09803">
        <ele>339.24378609363</ele>
        <time>2014-06-01T15:13:35Z</time>
      </trkpt>
      <trkpt lat="45.30371" lon="5.09818">
        <ele>340.08220818777</ele>
        <time>2014-06-01T15:13:40Z</time>
      </trkpt>
      <trkpt lat="45.30372" lon="5.09832">
        <ele>340.78326515374</ele>
        <time>2014-06-01T15:13:45Z</time>
      </trkpt>
      <trkpt lat="45.30374" lon="5.09844">
        <ele>340.78326515374</ele>
        <time>2014-06-01T15:13:50Z</time>
      </trkpt>
      <trkpt lat="45.30375" lon="5.09855">
        <ele>341.28306737217</ele>
        <time>2014-06-01T15:13:55Z</time>
      </trkpt>
      <trkpt lat="45.30378" lon="5.09865">
        <ele>341.28306737217</ele>
        <time>2014-06-01T15:14:00Z</time>
      </trkpt>
      <trkpt lat="45.30381" lon="5.09876">
        <ele>341.79676353399</ele>
        <time>2014-06-01T15:14:05Z</time>
      </trkpt>
      <trkpt lat="45.30385" lon="5.09886">
        <ele>341.79676353399</ele>
        <time>2014-06-01T15:14:10Z</time>
      </trkpt>
      <trkpt lat="45.30388" lon="5.09894">
        <ele>341.86072319075</ele>
        <time>2014-06-01T15:14:15Z</time>
      </trkpt>
      <trkpt lat="45.30393" lon="5.09899">
        <ele>341.86072319075</ele>
        <time>2014-06-01T15:14:20Z</time>
      </trkpt>
      <trkpt lat="45.30397" lon="5.0991">
        <ele>341.88246122915</ele>
        <time>2014-06-01T15:14:25Z</time>
      </trkpt>
      <trkpt lat="45.30402" lon="5.09918">
        <ele>341.88246122915</ele>
        <time>2014-06-01T15:14:30Z</time>
      </trkpt>
      <trkpt lat="45.30409" lon="5.09927">
        <ele>342.5567052371</ele>
        <time>2014-06-01T15:14:35Z</time>
      </trkpt>
      <trkpt lat="45.30415" lon="5.09936">
        <ele>342.5567052371</ele>
        <time>2014-06-01T15:14:40Z</time>
      </trkpt>
      <trkpt lat="45.30421" lon="5.09945">
        <ele>343.32918522811</ele>
        <time>2014-06-01T15:14:45Z</time>
      </trkpt>
      <trkpt lat="45.30423" lon="5.09958">
        <ele>343.51313226038</ele>
        <time>2014-06-01T15:14:50Z</time>
      </trkpt>
      <trkpt lat="45.30424" lon="5.09967">
        <ele>343.51313226038</ele>
        <time>2014-06-01T15:14:55Z</time>
      </trkpt>
      <trkpt lat="45.30424" lon="5.09979">
        <ele>343.72764312556</ele>
        <time>2014-06-01T15:15:00Z</time>
      </trkpt>
      <trkpt lat="45.30423" lon="5.09988">
        <ele>343.72764312556</ele>
        <time>2014-06-01T15:15:05Z</time>
      </trkpt>
      <trkpt lat="45.30423" lon="5.09999">
        <ele>344.12833011228</ele>
        <time>2014-06-01T15:15:10Z</time>
      </trkpt>
      <trkpt lat="45.30425" lon="5.10014">
        <ele>344.95973583684</ele>
        <time>2014-06-01T15:15:15Z</time>
      </trkpt>
      <trkpt lat="45.30427" lon="5.10023">
        <ele>344.95973583684</ele>
        <time>2014-06-01T15:15:20Z</time>
      </trkpt>
      <trkpt lat="45.30427" lon="5.10034">
        <ele>345.61139534425</ele>
        <time>2014-06-01T15:15:25Z</time>
      </trkpt>
      <trkpt lat="45.30427" lon="5.10047">
        <ele>345.61139534425</ele>
        <time>2014-06-01T15:15:30Z</time>
      </trkpt>
      <trkpt lat="45.30428" lon="5.10055">
        <ele>345.61908269044</ele>
        <time>2014-06-01T15:15:35Z</time>
      </trkpt>
      <trkpt lat="45.30429" lon="5.1007">
        <ele>345.66415154627</ele>
        <time>2014-06-01T15:15:40Z</time>
      </trkpt>
      <trkpt lat="45.30429" lon="5.1008">
        <ele>345.66415154627</ele>
        <time>2014-06-01T15:15:45Z</time>
      </trkpt>
      <trkpt lat="45.3043" lon="5.10093">
        <ele>345.7293154712</ele>
        <time>2014-06-01T15:15:50Z</time>
      </trkpt>
      <trkpt lat="45.3043" lon="5.10105">
        <ele>345.7293154712</ele>
        <time>2014-06-01T15:15:55Z</time>
      </trkpt>
      <trkpt lat="45.30431" lon="5.1012">
        <ele>345.88498512353</ele>
        <time>2014-06-01T15:16:00Z</time>
      </trkpt>
      <trkpt lat="45.30432" lon="5.10129">
        <ele>345.88498512353</ele>
        <time>2014-06-01T15:16:05Z</time>
      </trkpt>
      <trkpt lat="45.30434" lon="5.10143">
        <ele>346.22498379539</ele>
        <time>2014-06-01T15:16:10Z</time>
      </trkpt>
      <trkpt lat="45.30435" lon="5.10153">
        <ele>346.22498379539</ele>
        <time>2014-06-01T15:16:15Z</time>
      </trkpt>
      <trkpt lat="45.30437" lon="5.10164">
        <ele>346.74927591811</ele>
        <time>2014-06-01T15:16:20Z</time>
      </trkpt>
      <trkpt lat="45.3044" lon="5.10176">
        <ele>346.74927591811</ele>
        <time>2014-06-01T15:16:25Z</time>
      </trkpt>
      <trkpt lat="45.30441" lon="5.10185">
        <ele>346.76559545766</ele>
        <time>2014-06-01T15:16:30Z</time>
      </trkpt>
      <trkpt lat="45.30443" lon="5.10195">
        <ele>346.76559545766</ele>
        <time>2014-06-01T15:16:35Z</time>
      </trkpt>
      <trkpt lat="45.30444" lon="5.10206">
        <ele>346.83009561783</ele>
        <time>2014-06-01T15:16:40Z</time>
      </trkpt>
      <trkpt lat="45.30445" lon="5.10217">
        <ele>346.83009561783</ele>
        <time>2014-06-01T15:16:45Z</time>
      </trkpt>
      <trkpt lat="45.30447" lon="5.10227">
        <ele>346.6797572759</ele>
        <time>2014-06-01T15:16:50Z</time>
      </trkpt>
      <trkpt lat="45.30451" lon="5.10237">
        <ele>346.6797572759</ele>
        <time>2014-06-01T15:16:55Z</time>
      </trkpt>
      <trkpt lat="45.30452" lon="5.10246">
        <ele>346.72000237534</ele>
        <time>2014-06-01T15:17:00Z</time>
      </trkpt>
      <trkpt lat="45.30455" lon="5.10255">
        <ele>346.72000237534</ele>
        <time>2014-06-01T15:17:05Z</time>
      </trkpt>
      <trkpt lat="45.30458" lon="5.10265">
        <ele>346.50451728591</ele>
        <time>2014-06-01T15:17:10Z</time>
      </trkpt>
      <trkpt lat="45.30462" lon="5.10279">
        <ele>346.32664894809</ele>
        <time>2014-06-01T15:17:15Z</time>
      </trkpt>
      <trkpt lat="45.30464" lon="5.10287">
        <ele>346.32664894809</ele>
        <time>2014-06-01T15:17:20Z</time>
      </trkpt>
      <trkpt lat="45.30467" lon="5.10297">
        <ele>345.80959885277</ele>
        <time>2014-06-01T15:17:25Z</time>
      </trkpt>
      <trkpt lat="45.3047" lon="5.10305">
        <ele>345.80959885277</ele>
        <time>2014-06-01T15:17:30Z</time>
      </trkpt>
      <trkpt lat="45.30473" lon="5.10316">
        <ele>345.58516173295</ele>
        <time>2014-06-01T15:17:35Z</time>
      </trkpt>
      <trkpt lat="45.30476" lon="5.10327">
        <ele>345.58516173295</ele>
        <time>2014-06-01T15:17:40Z</time>
      </trkpt>
      <trkpt lat="45.30479" lon="5.10337">
        <ele>345.40205852139</ele>
        <time>2014-06-01T15:17:45Z</time>
      </trkpt>
      <trkpt lat="45.3048" lon="5.10348">
        <ele>345.40205852139</ele>
        <time>2014-06-01T15:17:50Z</time>
      </trkpt>
      <trkpt lat="45.30483" lon="5.10359">
        <ele>345.56056498865</ele>
        <time>2014-06-01T15:17:55Z</time>
      </trkpt>
      <trkpt lat="45.30486" lon="5.1037">
        <ele>345.56056498865</ele>
        <time>2014-06-01T15:18:00Z</time>
      </trkpt>
      <trkpt lat="45.30487" lon="5.1038">
        <ele>345.47327215616</ele>
        <time>2014-06-01T15:18:05Z</time>
      </trkpt>
      <trkpt lat="45.30488" lon="5.1039">
        <ele>345.47327215616</ele>
        <time>2014-06-01T15:18:10Z</time>
      </trkpt>
      <trkpt lat="45.30489" lon="5.10401">
        <ele>345.30275351698</ele>
        <time>2014-06-01T15:18:15Z</time>
      </trkpt>
      <trkpt lat="45.3049" lon="5.10412">
        <ele>345.30275351698</ele>
        <time>2014-06-01T15:18:20Z</time>
      </trkpt>
      <trkpt lat="45.30494" lon="5.10425">
        <ele>345.68984898288</ele>
        <time>2014-06-01T15:18:25Z</time>
      </trkpt>
      <trkpt lat="45.30498" lon="5.10436">
        <ele>345.68984898288</ele>
        <time>2014-06-01T15:18:30Z</time>
      </trkpt>
      <trkpt lat="45.30505" lon="5.10446">
        <ele>345.9297558395</ele>
        <time>2014-06-01T15:18:35Z</time>
      </trkpt>
      <trkpt lat="45.30509" lon="5.10455">
        <ele>345.9297558395</ele>
        <time>2014-06-01T15:18:40Z</time>
      </trkpt>
      <trkpt lat="45.30512" lon="5.10464">
        <ele>345.94630158403</ele>
        <time>2014-06-01T15:18:45Z</time>
      </trkpt>
      <trkpt lat="45.30517" lon="5.10472">
        <ele>345.94630158403</ele>
        <time>2014-06-01T15:18:50Z</time>
      </trkpt>
      <trkpt lat="45.30522" lon="5.10482">
        <ele>345.69835666299</ele>
        <time>2014-06-01T15:18:55Z</time>
      </trkpt>
      <trkpt lat="45.30527" lon="5.10492">
        <ele>345.69835666299</ele>
        <time>2014-06-01T15:19:00Z</time>
      </trkpt>
      <trkpt lat="45.30532" lon="5.10502">
        <ele>346.08527699316</ele>
        <time>2014-06-01T15:19:05Z</time>
      </trkpt>
      <trkpt lat="45.30537" lon="5.10512">
        <ele>346.08527699316</ele>
        <time>2014-06-01T15:19:10Z</time>
      </trkpt>
      <trkpt lat="45.3054" lon="5.10523">
        <ele>346.32452620052</ele>
        <time>2014-06-01T15:19:15Z</time>
      </trkpt>
      <trkpt lat="45.30542" lon="5.10534">
        <ele>346.32452620052</ele>
        <time>2014-06-01T15:19:20Z</time>
      </trkpt>
      <trkpt lat="45.30543" lon="5.10544">
        <ele>346.41202292334</ele>
        <time>2014-06-01T15:19:25Z</time>
      </trkpt>
      <trkpt lat="45.30544" lon="5.10554">
        <ele>346.41202292334</ele>
        <time>2014-06-01T15:19:30Z</time>
      </trkpt>
      <trkpt lat="45.30545" lon="5.10563">
        <ele>346.35882316686</ele>
        <time>2014-06-01T15:19:35Z</time>
      </trkpt>
      <trkpt lat="45.30547" lon="5.10575">
        <ele>346.33408901971</ele>
        <time>2014-06-01T15:19:40Z</time>
      </trkpt>
      <trkpt lat="45.30549" lon="5.10584">
        <ele>346.33408901971</ele>
        <time>2014-06-01T15:19:45Z</time>
      </trkpt>
      <trkpt lat="45.30551" lon="5.10594">
        <ele>346.29272152663</ele>
        <time>2014-06-01T15:19:50Z</time>
      </trkpt>
      <trkpt lat="45.30551" lon="5.10603">
        <ele>346.29272152663</ele>
        <time>2014-06-01T15:19:55Z</time>
      </trkpt>
      <trkpt lat="45.30552" lon="5.10609">
        <ele>345.57330241948</ele>
        <time>2014-06-01T15:20:00Z</time>
      </trkpt>
      <trkpt lat="45.30555" lon="5.10618">
        <ele>345.57330241948</ele>
        <time>2014-06-01T15:20:05Z</time>
      </trkpt>
      <trkpt lat="45.30558" lon="5.1063">
        <ele>345.61127911875</ele>
        <time>2014-06-01T15:20:10Z</time>
      </trkpt>
      <trkpt lat="45.30561" lon="5.10643">
        <ele>345.9619562326</ele>
        <time>2014-06-01T15:20:15Z</time>
      </trkpt>
      <trkpt lat="45.30562" lon="5.10652">
        <ele>345.9619562326</ele>
        <time>2014-06-01T15:20:20Z</time>
      </trkpt>
      <trkpt lat="45.30565" lon="5.10661">
        <ele>345.86655651014</ele>
        <time>2014-06-01T15:20:25Z</time>
      </trkpt>
      <trkpt lat="45.30566" lon="5.1067">
        <ele>345.86655651014</ele>
        <time>2014-06-01T15:20:30Z</time>
      </trkpt>
      <trkpt lat="45.30568" lon="5.10679">
        <ele>345.47354333225</ele>
        <time>2014-06-01T15:20:35Z</time>
      </trkpt>
      <trkpt lat="45.30569" lon="5.10689">
        <ele>345.47354333225</ele>
        <time>2014-06-01T15:20:40Z</time>
      </trkpt>
      <trkpt lat="45.3057" lon="5.10698">
        <ele>344.82042409301</ele>
        <time>2014-06-01T15:20:45Z</time>
      </trkpt>
      <trkpt lat="45.30572" lon="5.10709">
        <ele>344.82042409301</ele>
        <time>2014-06-01T15:20:50Z</time>
      </trkpt>
      <trkpt lat="45.30574" lon="5.10719">
        <ele>343.95708191442</ele>
        <time>2014-06-01T15:20:55Z</time>
      </trkpt>
      <trkpt lat="45.30576" lon="5.10731">
        <ele>343.95708191442</ele>
        <time>2014-06-01T15:21:00Z</time>
      </trkpt>
      <trkpt lat="45.30579" lon="5.10743">
        <ele>344.08320199478</ele>
        <time>2014-06-01T15:21:05Z</time>
      </trkpt>
      <trkpt lat="45.30581" lon="5.10754">
        <ele>344.08320199478</ele>
        <time>2014-06-01T15:21:10Z</time>
      </trkpt>
      <trkpt lat="45.30583" lon="5.10765">
        <ele>344.76556191517</ele>
        <time>2014-06-01T15:21:15Z</time>
      </trkpt>
      <trkpt lat="45.30583" lon="5.10774">
        <ele>344.76556191517</ele>
        <time>2014-06-01T15:21:20Z</time>
      </trkpt>
      <trkpt lat="45.30584" lon="5.10786">
        <ele>345.94705709105</ele>
        <time>2014-06-01T15:21:25Z</time>
      </trkpt>
      <trkpt lat="45.30585" lon="5.10798">
        <ele>345.94705709105</ele>
        <time>2014-06-01T15:21:30Z</time>
      </trkpt>
      <trkpt lat="45.30587" lon="5.1081">
        <ele>347.02574701257</ele>
        <time>2014-06-01T15:21:35Z</time>
      </trkpt>
      <trkpt lat="45.30592" lon="5.10839">
        <ele>347.97740840272</ele>
        <time>2014-06-01T15:21:40Z</time>
      </trkpt>
      <trkpt lat="45.30597" lon="5.10877">
        <ele>348.90966136593</ele>
        <time>2014-06-01T15:21:45Z</time>
      </trkpt>
      <trkpt lat="45.30605" lon="5.10916">
        <ele>350.21051303381</ele>
        <time>2014-06-01T15:21:50Z</time>
      </trkpt>
      <trkpt lat="45.30604" lon="5.10951">
        <ele>350.92704483858</ele>
        <time>2014-06-01T15:21:55Z</time>
      </trkpt>
      <trkpt lat="45.30606" lon="5.10993">
        <ele>351.67676309029</ele>
        <time>2014-06-01T15:22:00Z</time>
      </trkpt>
      <trkpt lat="45.30614" lon="5.11035">
        <ele>352.41207503363</ele>
        <time>2014-06-01T15:22:05Z</time>
      </trkpt>
      <trkpt lat="45.30618" lon="5.11062">
        <ele>352.90161710163</ele>
        <time>2014-06-01T15:22:10Z</time>
      </trkpt>
      <trkpt lat="45.30624" lon="5.11089">
        <ele>353.37849475839</ele>
        <time>2014-06-01T15:22:15Z</time>
      </trkpt>
      <trkpt lat="45.30629" lon="5.11106">
        <ele>354.54874469914</ele>
        <time>2014-06-01T15:22:20Z</time>
      </trkpt>
      <trkpt lat="45.30632" lon="5.11116">
        <ele>354.54874469914</ele>
        <time>2014-06-01T15:22:25Z</time>
      </trkpt>
      <trkpt lat="45.30633" lon="5.11127">
        <ele>356.09909332562</ele>
        <time>2014-06-01T15:22:30Z</time>
      </trkpt>
      <trkpt lat="45.30634" lon="5.11133">
        <ele>356.09909332562</ele>
        <time>2014-06-01T15:22:35Z</time>
      </trkpt>
      <trkpt lat="45.30634" lon="5.11139">
        <ele>356.09909332562</ele>
        <time>2014-06-01T15:22:40Z</time>
      </trkpt>
      <trkpt lat="45.30636" lon="5.11143">
        <ele>356.29714865566</ele>
        <time>2014-06-01T15:22:45Z</time>
      </trkpt>
      <trkpt lat="45.30638" lon="5.11153">
        <ele>356.29714865566</ele>
        <time>2014-06-01T15:22:50Z</time>
      </trkpt>
      <trkpt lat="45.30641" lon="5.11164">
        <ele>356.78412324827</ele>
        <time>2014-06-01T15:22:55Z</time>
      </trkpt>
      <trkpt lat="45.30645" lon="5.11182">
        <ele>357.55232949237</ele>
        <time>2014-06-01T15:23:00Z</time>
      </trkpt>
      <trkpt lat="45.30657" lon="5.11212">
        <ele>358.24804032691</ele>
        <time>2014-06-01T15:23:05Z</time>
      </trkpt>
      <trkpt lat="45.30663" lon="5.11232">
        <ele>357.63586496977</ele>
        <time>2014-06-01T15:23:10Z</time>
      </trkpt>
      <trkpt lat="45.30672" lon="5.11255">
        <ele>355.90069841727</ele>
        <time>2014-06-01T15:23:15Z</time>
      </trkpt>
      <trkpt lat="45.30684" lon="5.11309">
        <ele>354.15375986126</ele>
        <time>2014-06-01T15:23:20Z</time>
      </trkpt>
      <trkpt lat="45.30691" lon="5.11343">
        <ele>352.30062448756</ele>
        <time>2014-06-01T15:23:25Z</time>
      </trkpt>
      <trkpt lat="45.30697" lon="5.11368">
        <ele>350.3405707121</ele>
        <time>2014-06-01T15:23:30Z</time>
      </trkpt>
      <trkpt lat="45.30698" lon="5.11386">
        <ele>348.70554823928</ele>
        <time>2014-06-01T15:23:35Z</time>
      </trkpt>
      <trkpt lat="45.30701" lon="5.11398">
        <ele>348.70554823928</ele>
        <time>2014-06-01T15:23:40Z</time>
      </trkpt>
      <trkpt lat="45.30705" lon="5.11413">
        <ele>348.48656907732</ele>
        <time>2014-06-01T15:23:45Z</time>
      </trkpt>
      <trkpt lat="45.30712" lon="5.1143">
        <ele>348.93233369581</ele>
        <time>2014-06-01T15:23:50Z</time>
      </trkpt>
      <trkpt lat="45.30717" lon="5.1145">
        <ele>350.54095074238</ele>
        <time>2014-06-01T15:23:55Z</time>
      </trkpt>
      <trkpt lat="45.30722" lon="5.11463">
        <ele>351.85396172363</ele>
        <time>2014-06-01T15:24:00Z</time>
      </trkpt>
      <trkpt lat="45.30725" lon="5.11474">
        <ele>351.85396172363</ele>
        <time>2014-06-01T15:24:05Z</time>
      </trkpt>
      <trkpt lat="45.30726" lon="5.11485">
        <ele>353.32223810567</ele>
        <time>2014-06-01T15:24:10Z</time>
      </trkpt>
      <trkpt lat="45.30726" lon="5.11486">
        <ele>353.32223810567</ele>
        <time>2014-06-01T15:24:15Z</time>
      </trkpt>
      <trkpt lat="45.30726" lon="5.11485">
        <ele>353.32223810567</ele>
        <time>2014-06-01T15:24:20Z</time>
      </trkpt>
      <trkpt lat="45.30727" lon="5.11481">
        <ele>353.32223810567</ele>
        <time>2014-06-01T15:24:25Z</time>
      </trkpt>
      <trkpt lat="45.30733" lon="5.11485">
        <ele>353.96520041469</ele>
        <time>2014-06-01T15:24:30Z</time>
      </trkpt>
      <trkpt lat="45.3074" lon="5.11488">
        <ele>353.96520041469</ele>
        <time>2014-06-01T15:24:35Z</time>
      </trkpt>
      <trkpt lat="45.30748" lon="5.11494">
        <ele>354.28889935242</ele>
        <time>2014-06-01T15:24:40Z</time>
      </trkpt>
      <trkpt lat="45.30759" lon="5.11499">
        <ele>354.57576130945</ele>
        <time>2014-06-01T15:24:45Z</time>
      </trkpt>
      <trkpt lat="45.30769" lon="5.11501">
        <ele>354.6120040805</ele>
        <time>2014-06-01T15:24:50Z</time>
      </trkpt>
      <trkpt lat="45.30779" lon="5.11503">
        <ele>354.66141100501</ele>
        <time>2014-06-01T15:24:55Z</time>
      </trkpt>
      <trkpt lat="45.30789" lon="5.11504">
        <ele>354.52160819753</ele>
        <time>2014-06-01T15:25:00Z</time>
      </trkpt>
      <trkpt lat="45.30798" lon="5.11506">
        <ele>354.33707465252</ele>
        <time>2014-06-01T15:25:05Z</time>
      </trkpt>
      <trkpt lat="45.30807" lon="5.11509">
        <ele>354.08327704849</ele>
        <time>2014-06-01T15:25:10Z</time>
      </trkpt>
      <trkpt lat="45.30815" lon="5.11511">
        <ele>354.08327704849</ele>
        <time>2014-06-01T15:25:15Z</time>
      </trkpt>
      <trkpt lat="45.30824" lon="5.11513">
        <ele>353.8385515561</ele>
        <time>2014-06-01T15:25:20Z</time>
      </trkpt>
      <trkpt lat="45.30833" lon="5.11516">
        <ele>353.8385515561</ele>
        <time>2014-06-01T15:25:25Z</time>
      </trkpt>
      <trkpt lat="45.30841" lon="5.11519">
        <ele>353.41604620506</ele>
        <time>2014-06-01T15:25:30Z</time>
      </trkpt>
      <trkpt lat="45.30849" lon="5.11522">
        <ele>353.41604620506</ele>
        <time>2014-06-01T15:25:35Z</time>
      </trkpt>
      <trkpt lat="45.30856" lon="5.11525">
        <ele>352.96016685558</ele>
        <time>2014-06-01T15:25:40Z</time>
      </trkpt>
      <trkpt lat="45.30863" lon="5.11528">
        <ele>352.96016685558</ele>
        <time>2014-06-01T15:25:45Z</time>
      </trkpt>
      <trkpt lat="45.30871" lon="5.1153">
        <ele>352.67684578442</ele>
        <time>2014-06-01T15:25:50Z</time>
      </trkpt>
      <trkpt lat="45.30878" lon="5.11533">
        <ele>352.67684578442</ele>
        <time>2014-06-01T15:25:55Z</time>
      </trkpt>
      <trkpt lat="45.30887" lon="5.1153">
        <ele>352.19435160567</ele>
        <time>2014-06-01T15:26:00Z</time>
      </trkpt>
      <trkpt lat="45.30893" lon="5.1153">
        <ele>352.19435160567</ele>
        <time>2014-06-01T15:26:05Z</time>
      </trkpt>
      <trkpt lat="45.30901" lon="5.11528">
        <ele>351.75965288991</ele>
        <time>2014-06-01T15:26:10Z</time>
      </trkpt>
      <trkpt lat="45.30909" lon="5.11527">
        <ele>351.75965288991</ele>
        <time>2014-06-01T15:26:15Z</time>
      </trkpt>
      <trkpt lat="45.30916" lon="5.11526">
        <ele>351.25555021937</ele>
        <time>2014-06-01T15:26:20Z</time>
      </trkpt>
      <trkpt lat="45.30924" lon="5.11524">
        <ele>351.25555021937</ele>
        <time>2014-06-01T15:26:25Z</time>
      </trkpt>
      <trkpt lat="45.30933" lon="5.11522">
        <ele>350.7321425375</ele>
        <time>2014-06-01T15:26:30Z</time>
      </trkpt>
      <trkpt lat="45.3094" lon="5.11521">
        <ele>350.7321425375</ele>
        <time>2014-06-01T15:26:35Z</time>
      </trkpt>
      <trkpt lat="45.30948" lon="5.11517">
        <ele>350.29351619517</ele>
        <time>2014-06-01T15:26:40Z</time>
      </trkpt>
      <trkpt lat="45.30952" lon="5.11513">
        <ele>350.29351619517</ele>
        <time>2014-06-01T15:26:45Z</time>
      </trkpt>
      <trkpt lat="45.3095" lon="5.11506">
        <ele>349.80526201934</ele>
        <time>2014-06-01T15:26:50Z</time>
      </trkpt>
      <trkpt lat="45.30951" lon="5.11508">
        <ele>349.80526201934</ele>
        <time>2014-06-01T15:26:55Z</time>
      </trkpt>
      <trkpt lat="45.30953" lon="5.1151">
        <ele>349.80526201934</ele>
        <time>2014-06-01T15:27:00Z</time>
      </trkpt>
      <trkpt lat="45.30961" lon="5.11512">
        <ele>349.27264751314</ele>
        <time>2014-06-01T15:27:05Z</time>
      </trkpt>
      <trkpt lat="45.30969" lon="5.1151">
        <ele>349.27264751314</ele>
        <time>2014-06-01T15:27:10Z</time>
      </trkpt>
      <trkpt lat="45.30977" lon="5.11509">
        <ele>348.75828372866</ele>
        <time>2014-06-01T15:27:15Z</time>
      </trkpt>
      <trkpt lat="45.31042" lon="5.11494">
        <ele>347.78687865687</ele>
        <time>2014-06-01T15:27:50Z</time>
      </trkpt>
      <trkpt lat="45.31048" lon="5.11497">
        <ele>347.78687865687</ele>
        <time>2014-06-01T15:27:55Z</time>
      </trkpt>
      <trkpt lat="45.31055" lon="5.11497">
        <ele>347.34599423369</ele>
        <time>2014-06-01T15:28:00Z</time>
      </trkpt>
      <trkpt lat="45.31063" lon="5.11497">
        <ele>347.34599423369</ele>
        <time>2014-06-01T15:28:05Z</time>
      </trkpt>
      <trkpt lat="45.31073" lon="5.11497">
        <ele>347.31151311985</ele>
        <time>2014-06-01T15:28:10Z</time>
      </trkpt>
      <trkpt lat="45.31082" lon="5.11496">
        <ele>347.26461663994</ele>
        <time>2014-06-01T15:28:15Z</time>
      </trkpt>
      <trkpt lat="45.31091" lon="5.11496">
        <ele>347.36486534736</ele>
        <time>2014-06-01T15:28:20Z</time>
      </trkpt>
      <trkpt lat="45.31099" lon="5.11496">
        <ele>347.36486534736</ele>
        <time>2014-06-01T15:28:25Z</time>
      </trkpt>
      <trkpt lat="45.31107" lon="5.11497">
        <ele>347.39936648008</ele>
        <time>2014-06-01T15:28:30Z</time>
      </trkpt>
      <trkpt lat="45.31116" lon="5.11497">
        <ele>347.39936648008</ele>
        <time>2014-06-01T15:28:35Z</time>
      </trkpt>
      <trkpt lat="45.31124" lon="5.11499">
        <ele>347.45923515223</ele>
        <time>2014-06-01T15:28:40Z</time>
      </trkpt>
      <trkpt lat="45.31133" lon="5.115">
        <ele>347.45923515223</ele>
        <time>2014-06-01T15:28:45Z</time>
      </trkpt>
      <trkpt lat="45.31141" lon="5.11501">
        <ele>347.45585420229</ele>
        <time>2014-06-01T15:28:50Z</time>
      </trkpt>
      <trkpt lat="45.3115" lon="5.11502">
        <ele>347.45585420229</ele>
        <time>2014-06-01T15:28:55Z</time>
      </trkpt>
      <trkpt lat="45.31159" lon="5.11502">
        <ele>347.46578482855</ele>
        <time>2014-06-01T15:29:00Z</time>
      </trkpt>
      <trkpt lat="45.31168" lon="5.11503">
        <ele>347.46578482855</ele>
        <time>2014-06-01T15:29:05Z</time>
      </trkpt>
      <trkpt lat="45.31177" lon="5.11503">
        <ele>347.38696508731</ele>
        <time>2014-06-01T15:29:10Z</time>
      </trkpt>
      <trkpt lat="45.31185" lon="5.11504">
        <ele>347.38696508731</ele>
        <time>2014-06-01T15:29:15Z</time>
      </trkpt>
      <trkpt lat="45.31193" lon="5.11506">
        <ele>347.39886507858</ele>
        <time>2014-06-01T15:29:20Z</time>
      </trkpt>
      <trkpt lat="45.31201" lon="5.11507">
        <ele>347.39886507858</ele>
        <time>2014-06-01T15:29:25Z</time>
      </trkpt>
      <trkpt lat="45.3121" lon="5.11508">
        <ele>347.33603772733</ele>
        <time>2014-06-01T15:29:30Z</time>
      </trkpt>
      <trkpt lat="45.31218" lon="5.1151">
        <ele>347.33603772733</ele>
        <time>2014-06-01T15:29:35Z</time>
      </trkpt>
      <trkpt lat="45.31227" lon="5.11512">
        <ele>347.31918944966</ele>
        <time>2014-06-01T15:29:40Z</time>
      </trkpt>
      <trkpt lat="45.31232" lon="5.11519">
        <ele>347.31918944966</ele>
        <time>2014-06-01T15:29:45Z</time>
      </trkpt>
      <trkpt lat="45.31229" lon="5.11521">
        <ele>347.46001201428</ele>
        <time>2014-06-01T15:29:50Z</time>
      </trkpt>
      <trkpt lat="45.31228" lon="5.11523">
        <ele>347.46001201428</ele>
        <time>2014-06-01T15:29:55Z</time>
      </trkpt>
      <trkpt lat="45.31226" lon="5.11531">
        <ele>347.46001201428</ele>
        <time>2014-06-01T15:30:00Z</time>
      </trkpt>
      <trkpt lat="45.31221" lon="5.11541">
        <ele>347.67418955485</ele>
        <time>2014-06-01T15:30:05Z</time>
      </trkpt>
      <trkpt lat="45.31213" lon="5.11554">
        <ele>347.96984797054</ele>
        <time>2014-06-01T15:30:10Z</time>
      </trkpt>
      <trkpt lat="45.31198" lon="5.11581">
        <ele>348.21016694147</ele>
        <time>2014-06-01T15:30:15Z</time>
      </trkpt>
      <trkpt lat="45.31184" lon="5.11609">
        <ele>348.49910415059</ele>
        <time>2014-06-01T15:30:20Z</time>
      </trkpt>
      <trkpt lat="45.31165" lon="5.11644">
        <ele>349.00489798728</ele>
        <time>2014-06-01T15:30:25Z</time>
      </trkpt>
      <trkpt lat="45.31149" lon="5.11674">
        <ele>349.4937219227</ele>
        <time>2014-06-01T15:30:30Z</time>
      </trkpt>
      <trkpt lat="45.31134" lon="5.11703">
        <ele>349.84985786591</ele>
        <time>2014-06-01T15:30:35Z</time>
      </trkpt>
      <trkpt lat="45.31117" lon="5.11736">
        <ele>350.36998229327</ele>
        <time>2014-06-01T15:30:40Z</time>
      </trkpt>
      <trkpt lat="45.311" lon="5.11762">
        <ele>350.7809099182</ele>
        <time>2014-06-01T15:30:45Z</time>
      </trkpt>
      <trkpt lat="45.31081" lon="5.11785">
        <ele>351.07483643782</ele>
        <time>2014-06-01T15:30:50Z</time>
      </trkpt>
      <trkpt lat="45.31061" lon="5.11813">
        <ele>351.48986862475</ele>
        <time>2014-06-01T15:30:55Z</time>
      </trkpt>
      <trkpt lat="45.31049" lon="5.11847">
        <ele>351.94367208962</ele>
        <time>2014-06-01T15:31:00Z</time>
      </trkpt>
      <trkpt lat="45.31039" lon="5.11884">
        <ele>352.21576592621</ele>
        <time>2014-06-01T15:31:05Z</time>
      </trkpt>
      <trkpt lat="45.3103" lon="5.11919">
        <ele>352.50591351387</ele>
        <time>2014-06-01T15:31:10Z</time>
      </trkpt>
      <trkpt lat="45.3102" lon="5.11954">
        <ele>352.61008086044</ele>
        <time>2014-06-01T15:31:15Z</time>
      </trkpt>
      <trkpt lat="45.31011" lon="5.11985">
        <ele>352.82975037726</ele>
        <time>2014-06-01T15:31:20Z</time>
      </trkpt>
      <trkpt lat="45.31008" lon="5.11997">
        <ele>352.82975037726</ele>
        <time>2014-06-01T15:31:25Z</time>
      </trkpt>
      <trkpt lat="45.31002" lon="5.12006">
        <ele>353.4007294874</ele>
        <time>2014-06-01T15:31:30Z</time>
      </trkpt>
      <trkpt lat="45.30995" lon="5.12012">
        <ele>353.4007294874</ele>
        <time>2014-06-01T15:31:35Z</time>
      </trkpt>
      <trkpt lat="45.30988" lon="5.12016">
        <ele>353.90645850355</ele>
        <time>2014-06-01T15:31:40Z</time>
      </trkpt>
      <trkpt lat="45.3098" lon="5.12021">
        <ele>353.90645850355</ele>
        <time>2014-06-01T15:31:45Z</time>
      </trkpt>
      <trkpt lat="45.30972" lon="5.12027">
        <ele>354.33588092947</ele>
        <time>2014-06-01T15:31:50Z</time>
      </trkpt>
      <trkpt lat="45.30965" lon="5.12031">
        <ele>354.33588092947</ele>
        <time>2014-06-01T15:31:55Z</time>
      </trkpt>
      <trkpt lat="45.30958" lon="5.12036">
        <ele>354.76546562298</ele>
        <time>2014-06-01T15:32:00Z</time>
      </trkpt>
      <trkpt lat="45.30952" lon="5.12045">
        <ele>354.76546562298</ele>
        <time>2014-06-01T15:32:05Z</time>
      </trkpt>
      <trkpt lat="45.30951" lon="5.12056">
        <ele>355.23727534031</ele>
        <time>2014-06-01T15:32:10Z</time>
      </trkpt>
      <trkpt lat="45.30952" lon="5.12068">
        <ele>355.23727534031</ele>
        <time>2014-06-01T15:32:15Z</time>
      </trkpt>
      <trkpt lat="45.30951" lon="5.1208">
        <ele>355.48756573929</ele>
        <time>2014-06-01T15:32:20Z</time>
      </trkpt>
      <trkpt lat="45.3095" lon="5.12092">
        <ele>355.48756573929</ele>
        <time>2014-06-01T15:32:25Z</time>
      </trkpt>
      <trkpt lat="45.30949" lon="5.12105">
        <ele>355.76260141746</ele>
        <time>2014-06-01T15:32:30Z</time>
      </trkpt>
      <trkpt lat="45.30947" lon="5.12118">
        <ele>356.0887664624</ele>
        <time>2014-06-01T15:32:35Z</time>
      </trkpt>
      <trkpt lat="45.30946" lon="5.1213">
        <ele>356.0887664624</ele>
        <time>2014-06-01T15:32:40Z</time>
      </trkpt>
      <trkpt lat="45.30945" lon="5.12142">
        <ele>356.41834236982</ele>
        <time>2014-06-01T15:32:45Z</time>
      </trkpt>
      <trkpt lat="45.30943" lon="5.12154">
        <ele>356.41834236982</ele>
        <time>2014-06-01T15:32:50Z</time>
      </trkpt>
      <trkpt lat="45.3094" lon="5.12166">
        <ele>356.72155147005</ele>
        <time>2014-06-01T15:32:55Z</time>
      </trkpt>
      <trkpt lat="45.30939" lon="5.12179">
        <ele>357.02855528159</ele>
        <time>2014-06-01T15:33:00Z</time>
      </trkpt>
      <trkpt lat="45.30937" lon="5.12191">
        <ele>357.02855528159</ele>
        <time>2014-06-01T15:33:05Z</time>
      </trkpt>
      <trkpt lat="45.30936" lon="5.12202">
        <ele>357.12233234546</ele>
        <time>2014-06-01T15:33:10Z</time>
      </trkpt>
      <trkpt lat="45.30934" lon="5.12214">
        <ele>357.12233234546</ele>
        <time>2014-06-01T15:33:15Z</time>
      </trkpt>
      <trkpt lat="45.30932" lon="5.12227">
        <ele>357.62386693815</ele>
        <time>2014-06-01T15:33:20Z</time>
      </trkpt>
      <trkpt lat="45.30931" lon="5.12239">
        <ele>357.62386693815</ele>
        <time>2014-06-01T15:33:25Z</time>
      </trkpt>
      <trkpt lat="45.30928" lon="5.1225">
        <ele>358.28597998868</ele>
        <time>2014-06-01T15:33:30Z</time>
      </trkpt>
      <trkpt lat="45.30927" lon="5.12261">
        <ele>358.28597998868</ele>
        <time>2014-06-01T15:33:35Z</time>
      </trkpt>
      <trkpt lat="45.30925" lon="5.12273">
        <ele>358.82158645343</ele>
        <time>2014-06-01T15:33:40Z</time>
      </trkpt>
      <trkpt lat="45.30922" lon="5.12284">
        <ele>358.82158645343</ele>
        <time>2014-06-01T15:33:45Z</time>
      </trkpt>
      <trkpt lat="45.30919" lon="5.12296">
        <ele>359.55593333955</ele>
        <time>2014-06-01T15:33:50Z</time>
      </trkpt>
      <trkpt lat="45.30916" lon="5.12307">
        <ele>359.55593333955</ele>
        <time>2014-06-01T15:33:55Z</time>
      </trkpt>
      <trkpt lat="45.30913" lon="5.12319">
        <ele>360.31428480528</ele>
        <time>2014-06-01T15:34:00Z</time>
      </trkpt>
      <trkpt lat="45.30912" lon="5.1233">
        <ele>360.31428480528</ele>
        <time>2014-06-01T15:34:05Z</time>
      </trkpt>
      <trkpt lat="45.30914" lon="5.1234">
        <ele>360.90588699132</ele>
        <time>2014-06-01T15:34:10Z</time>
      </trkpt>
      <trkpt lat="45.30916" lon="5.1235">
        <ele>360.90588699132</ele>
        <time>2014-06-01T15:34:15Z</time>
      </trkpt>
      <trkpt lat="45.30919" lon="5.1236">
        <ele>361.39949226704</ele>
        <time>2014-06-01T15:34:20Z</time>
      </trkpt>
      <trkpt lat="45.30921" lon="5.12365">
        <ele>361.39949226704</ele>
        <time>2014-06-01T15:34:25Z</time>
      </trkpt>
      <trkpt lat="45.30922" lon="5.12373">
        <ele>361.45560304726</ele>
        <time>2014-06-01T15:34:30Z</time>
      </trkpt>
      <trkpt lat="45.30926" lon="5.12381">
        <ele>361.45560304726</ele>
        <time>2014-06-01T15:34:35Z</time>
      </trkpt>
      <trkpt lat="45.3093" lon="5.1239">
        <ele>361.15002367511</ele>
        <time>2014-06-01T15:34:40Z</time>
      </trkpt>
      <trkpt lat="45.30935" lon="5.12401">
        <ele>361.15002367511</ele>
        <time>2014-06-01T15:34:45Z</time>
      </trkpt>
      <trkpt lat="45.30938" lon="5.12411">
        <ele>360.56844691249</ele>
        <time>2014-06-01T15:34:50Z</time>
      </trkpt>
      <trkpt lat="45.3094" lon="5.12423">
        <ele>360.56844691249</ele>
        <time>2014-06-01T15:34:55Z</time>
      </trkpt>
      <trkpt lat="45.30939" lon="5.12436">
        <ele>360.41074888814</ele>
        <time>2014-06-01T15:35:00Z</time>
      </trkpt>
      <trkpt lat="45.30937" lon="5.12449">
        <ele>360.41074888814</ele>
        <time>2014-06-01T15:35:05Z</time>
      </trkpt>
      <trkpt lat="45.30935" lon="5.12461">
        <ele>360.37309052317</ele>
        <time>2014-06-01T15:35:10Z</time>
      </trkpt>
      <trkpt lat="45.30933" lon="5.12474">
        <ele>360.37309052317</ele>
        <time>2014-06-01T15:35:15Z</time>
      </trkpt>
      <trkpt lat="45.30931" lon="5.12486">
        <ele>360.62037546223</ele>
        <time>2014-06-01T15:35:20Z</time>
      </trkpt>
      <trkpt lat="45.3093" lon="5.125">
        <ele>361.07402815061</ele>
        <time>2014-06-01T15:35:25Z</time>
      </trkpt>
      <trkpt lat="45.3093" lon="5.12514">
        <ele>361.64626567683</ele>
        <time>2014-06-01T15:35:30Z</time>
      </trkpt>
      <trkpt lat="45.30928" lon="5.12527">
        <ele>362.45718775987</ele>
        <time>2014-06-01T15:35:35Z</time>
      </trkpt>
      <trkpt lat="45.30927" lon="5.12539">
        <ele>362.45718775987</ele>
        <time>2014-06-01T15:35:40Z</time>
      </trkpt>
      <trkpt lat="45.30924" lon="5.12551">
        <ele>363.55977120114</ele>
        <time>2014-06-01T15:35:45Z</time>
      </trkpt>
      <trkpt lat="45.30923" lon="5.12562">
        <ele>363.55977120114</ele>
        <time>2014-06-01T15:35:50Z</time>
      </trkpt>
      <trkpt lat="45.30921" lon="5.12571">
        <ele>364.84377815527</ele>
        <time>2014-06-01T15:35:55Z</time>
      </trkpt>
      <trkpt lat="45.30919" lon="5.12576">
        <ele>364.84377815527</ele>
        <time>2014-06-01T15:36:00Z</time>
      </trkpt>
      <trkpt lat="45.30919" lon="5.12577">
        <ele>364.84377815527</ele>
        <time>2014-06-01T15:36:05Z</time>
      </trkpt>
      <trkpt lat="45.30919" lon="5.12589">
        <ele>365.96159306622</ele>
        <time>2014-06-01T15:36:10Z</time>
      </trkpt>
      <trkpt lat="45.30921" lon="5.126">
        <ele>365.96159306622</ele>
        <time>2014-06-01T15:36:15Z</time>
      </trkpt>
      <trkpt lat="45.30923" lon="5.1261">
        <ele>366.49075096373</ele>
        <time>2014-06-01T15:36:20Z</time>
      </trkpt>
      <trkpt lat="45.30925" lon="5.12621">
        <ele>366.49075096373</ele>
        <time>2014-06-01T15:36:25Z</time>
      </trkpt>
      <trkpt lat="45.30928" lon="5.12631">
        <ele>366.56030176654</ele>
        <time>2014-06-01T15:36:30Z</time>
      </trkpt>
      <trkpt lat="45.3093" lon="5.12643">
        <ele>366.56030176654</ele>
        <time>2014-06-01T15:36:35Z</time>
      </trkpt>
      <trkpt lat="45.30933" lon="5.12654">
        <ele>366.62259031406</ele>
        <time>2014-06-01T15:36:40Z</time>
      </trkpt>
      <trkpt lat="45.30936" lon="5.12664">
        <ele>366.62259031406</ele>
        <time>2014-06-01T15:36:45Z</time>
      </trkpt>
      <trkpt lat="45.30938" lon="5.12674">
        <ele>366.41945776912</ele>
        <time>2014-06-01T15:36:50Z</time>
      </trkpt>
      <trkpt lat="45.3094" lon="5.12682">
        <ele>366.41945776912</ele>
        <time>2014-06-01T15:36:55Z</time>
      </trkpt>
      <trkpt lat="45.30944" lon="5.1269">
        <ele>365.88540991761</ele>
        <time>2014-06-01T15:37:00Z</time>
      </trkpt>
      <trkpt lat="45.30946" lon="5.12698">
        <ele>365.88540991761</ele>
        <time>2014-06-01T15:37:05Z</time>
      </trkpt>
      <trkpt lat="45.30948" lon="5.12708">
        <ele>365.07599662949</ele>
        <time>2014-06-01T15:37:10Z</time>
      </trkpt>
      <trkpt lat="45.30951" lon="5.12717">
        <ele>365.07599662949</ele>
        <time>2014-06-01T15:37:15Z</time>
      </trkpt>
      <trkpt lat="45.30956" lon="5.12727">
        <ele>364.20198954241</ele>
        <time>2014-06-01T15:37:20Z</time>
      </trkpt>
      <trkpt lat="45.30961" lon="5.12734">
        <ele>364.20198954241</ele>
        <time>2014-06-01T15:37:25Z</time>
      </trkpt>
      <trkpt lat="45.30965" lon="5.12743">
        <ele>363.32915686276</ele>
        <time>2014-06-01T15:37:30Z</time>
      </trkpt>
      <trkpt lat="45.3096" lon="5.12753">
        <ele>363.32915686276</ele>
        <time>2014-06-01T15:37:35Z</time>
      </trkpt>
      <trkpt lat="45.30954" lon="5.12762">
        <ele>363.00840018745</ele>
        <time>2014-06-01T15:37:40Z</time>
      </trkpt>
      <trkpt lat="45.30948" lon="5.1277">
        <ele>363.00840018745</ele>
        <time>2014-06-01T15:37:45Z</time>
      </trkpt>
      <trkpt lat="45.30943" lon="5.12778">
        <ele>362.5380517853</ele>
        <time>2014-06-01T15:37:50Z</time>
      </trkpt>
      <trkpt lat="45.30938" lon="5.12786">
        <ele>362.5380517853</ele>
        <time>2014-06-01T15:37:55Z</time>
      </trkpt>
      <trkpt lat="45.30932" lon="5.12795">
        <ele>362.52215133352</ele>
        <time>2014-06-01T15:38:00Z</time>
      </trkpt>
      <trkpt lat="45.30927" lon="5.12803">
        <ele>362.52215133352</ele>
        <time>2014-06-01T15:38:05Z</time>
      </trkpt>
      <trkpt lat="45.30923" lon="5.1281">
        <ele>362.40940791037</ele>
        <time>2014-06-01T15:38:10Z</time>
      </trkpt>
      <trkpt lat="45.30918" lon="5.12818">
        <ele>362.40940791037</ele>
        <time>2014-06-01T15:38:15Z</time>
      </trkpt>
      <trkpt lat="45.30913" lon="5.12825">
        <ele>362.4674707798</ele>
        <time>2014-06-01T15:38:20Z</time>
      </trkpt>
      <trkpt lat="45.30908" lon="5.12832">
        <ele>362.4674707798</ele>
        <time>2014-06-01T15:38:25Z</time>
      </trkpt>
      <trkpt lat="45.30904" lon="5.1284">
        <ele>362.33855120015</ele>
        <time>2014-06-01T15:38:30Z</time>
      </trkpt>
      <trkpt lat="45.30899" lon="5.12847">
        <ele>362.33855120015</ele>
        <time>2014-06-01T15:38:35Z</time>
      </trkpt>
      <trkpt lat="45.30895" lon="5.12855">
        <ele>362.35454837546</ele>
        <time>2014-06-01T15:38:40Z</time>
      </trkpt>
      <trkpt lat="45.30891" lon="5.12863">
        <ele>362.35454837546</ele>
        <time>2014-06-01T15:38:45Z</time>
      </trkpt>
      <trkpt lat="45.30887" lon="5.12871">
        <ele>362.33256472297</ele>
        <time>2014-06-01T15:38:50Z</time>
      </trkpt>
      <trkpt lat="45.30885" lon="5.12881">
        <ele>362.33256472297</ele>
        <time>2014-06-01T15:38:55Z</time>
      </trkpt>
      <trkpt lat="45.30884" lon="5.12892">
        <ele>362.5643697304</ele>
        <time>2014-06-01T15:39:00Z</time>
      </trkpt>
      <trkpt lat="45.30884" lon="5.12902">
        <ele>362.5643697304</ele>
        <time>2014-06-01T15:39:05Z</time>
      </trkpt>
      <trkpt lat="45.30884" lon="5.12912">
        <ele>362.49812355887</ele>
        <time>2014-06-01T15:39:10Z</time>
      </trkpt>
      <trkpt lat="45.30884" lon="5.12921">
        <ele>362.49812355887</ele>
        <time>2014-06-01T15:39:15Z</time>
      </trkpt>
      <trkpt lat="45.30884" lon="5.1293">
        <ele>362.35829719705</ele>
        <time>2014-06-01T15:39:20Z</time>
      </trkpt>
      <trkpt lat="45.30884" lon="5.12941">
        <ele>362.35829719705</ele>
        <time>2014-06-01T15:39:25Z</time>
      </trkpt>
      <trkpt lat="45.30883" lon="5.1295">
        <ele>362.19452638008</ele>
        <time>2014-06-01T15:39:30Z</time>
      </trkpt>
      <trkpt lat="45.30883" lon="5.1296">
        <ele>362.19452638008</ele>
        <time>2014-06-01T15:39:35Z</time>
      </trkpt>
      <trkpt lat="45.30882" lon="5.1297">
        <ele>361.89431524264</ele>
        <time>2014-06-01T15:39:40Z</time>
      </trkpt>
      <trkpt lat="45.30881" lon="5.12981">
        <ele>361.89431524264</ele>
        <time>2014-06-01T15:39:45Z</time>
      </trkpt>
      <trkpt lat="45.30881" lon="5.12995">
        <ele>362.37697386081</ele>
        <time>2014-06-01T15:39:50Z</time>
      </trkpt>
      <trkpt lat="45.30881" lon="5.13007">
        <ele>362.37697386081</ele>
        <time>2014-06-01T15:39:55Z</time>
      </trkpt>
      <trkpt lat="45.30881" lon="5.13018">
        <ele>362.95006584168</ele>
        <time>2014-06-01T15:40:00Z</time>
      </trkpt>
      <trkpt lat="45.30879" lon="5.13027">
        <ele>362.95006584168</ele>
        <time>2014-06-01T15:40:05Z</time>
      </trkpt>
      <trkpt lat="45.30878" lon="5.13036">
        <ele>363.07261784919</ele>
        <time>2014-06-01T15:40:10Z</time>
      </trkpt>
      <trkpt lat="45.30877" lon="5.13044">
        <ele>363.07261784919</ele>
        <time>2014-06-01T15:40:15Z</time>
      </trkpt>
      <trkpt lat="45.30876" lon="5.13053">
        <ele>362.90754654927</ele>
        <time>2014-06-01T15:40:20Z</time>
      </trkpt>
      <trkpt lat="45.30876" lon="5.13063">
        <ele>362.90754654927</ele>
        <time>2014-06-01T15:40:25Z</time>
      </trkpt>
      <trkpt lat="45.30875" lon="5.13072">
        <ele>362.70746265655</ele>
        <time>2014-06-01T15:40:30Z</time>
      </trkpt>
      <trkpt lat="45.30874" lon="5.13083">
        <ele>362.70746265655</ele>
        <time>2014-06-01T15:40:35Z</time>
      </trkpt>
      <trkpt lat="45.30872" lon="5.1309">
        <ele>362.02917276016</ele>
        <time>2014-06-01T15:40:40Z</time>
      </trkpt>
      <trkpt lat="45.30872" lon="5.13099">
        <ele>362.02917276016</ele>
        <time>2014-06-01T15:40:45Z</time>
      </trkpt>
      <trkpt lat="45.30871" lon="5.13109">
        <ele>361.27037869222</ele>
        <time>2014-06-01T15:40:50Z</time>
      </trkpt>
      <trkpt lat="45.3087" lon="5.1312">
        <ele>361.27037869222</ele>
        <time>2014-06-01T15:40:55Z</time>
      </trkpt>
      <trkpt lat="45.30871" lon="5.13128">
        <ele>361.0879873926</ele>
        <time>2014-06-01T15:41:00Z</time>
      </trkpt>
      <trkpt lat="45.30871" lon="5.13134">
        <ele>361.0879873926</ele>
        <time>2014-06-01T15:41:05Z</time>
      </trkpt>
      <trkpt lat="45.30871" lon="5.13139">
        <ele>361.0879873926</ele>
        <time>2014-06-01T15:41:10Z</time>
      </trkpt>
      <trkpt lat="45.30871" lon="5.1315">
        <ele>361.71431437173</ele>
        <time>2014-06-01T15:41:15Z</time>
      </trkpt>
      <trkpt lat="45.3087" lon="5.13161">
        <ele>361.71431437173</ele>
        <time>2014-06-01T15:41:20Z</time>
      </trkpt>
      <trkpt lat="45.30869" lon="5.1317">
        <ele>362.06531063958</ele>
        <time>2014-06-01T15:41:25Z</time>
      </trkpt>
      <trkpt lat="45.30869" lon="5.13179">
        <ele>362.06531063958</ele>
        <time>2014-06-01T15:41:30Z</time>
      </trkpt>
      <trkpt lat="45.30869" lon="5.13189">
        <ele>362.49195104517</ele>
        <time>2014-06-01T15:41:35Z</time>
      </trkpt>
      <trkpt lat="45.30868" lon="5.13198">
        <ele>362.49195104517</ele>
        <time>2014-06-01T15:41:40Z</time>
      </trkpt>
      <trkpt lat="45.30868" lon="5.13207">
        <ele>362.29600261363</ele>
        <time>2014-06-01T15:41:45Z</time>
      </trkpt>
      <trkpt lat="45.30869" lon="5.13216">
        <ele>362.29600261363</ele>
        <time>2014-06-01T15:41:50Z</time>
      </trkpt>
      <trkpt lat="45.30869" lon="5.13226">
        <ele>361.92749421331</ele>
        <time>2014-06-01T15:41:55Z</time>
      </trkpt>
      <trkpt lat="45.3087" lon="5.13235">
        <ele>361.92749421331</ele>
        <time>2014-06-01T15:42:00Z</time>
      </trkpt>
      <trkpt lat="45.30871" lon="5.13245">
        <ele>361.58769259913</ele>
        <time>2014-06-01T15:42:05Z</time>
      </trkpt>
      <trkpt lat="45.30874" lon="5.13257">
        <ele>361.58769259913</ele>
        <time>2014-06-01T15:42:10Z</time>
      </trkpt>
      <trkpt lat="45.30876" lon="5.13268">
        <ele>361.49180043732</ele>
        <time>2014-06-01T15:42:15Z</time>
      </trkpt>
      <trkpt lat="45.30879" lon="5.13279">
        <ele>361.49180043732</ele>
        <time>2014-06-01T15:42:20Z</time>
      </trkpt>
      <trkpt lat="45.3088" lon="5.13291">
        <ele>361.42058331693</ele>
        <time>2014-06-01T15:42:25Z</time>
      </trkpt>
      <trkpt lat="45.30881" lon="5.13303">
        <ele>361.42058331693</ele>
        <time>2014-06-01T15:42:30Z</time>
      </trkpt>
      <trkpt lat="45.30881" lon="5.13315">
        <ele>361.31493130281</ele>
        <time>2014-06-01T15:42:35Z</time>
      </trkpt>
      <trkpt lat="45.30881" lon="5.13326">
        <ele>361.31493130281</ele>
        <time>2014-06-01T15:42:40Z</time>
      </trkpt>
      <trkpt lat="45.30881" lon="5.13338">
        <ele>361.19220662345</ele>
        <time>2014-06-01T15:42:45Z</time>
      </trkpt>
      <trkpt lat="45.30881" lon="5.13352">
        <ele>361.41438962728</ele>
        <time>2014-06-01T15:42:50Z</time>
      </trkpt>
      <trkpt lat="45.30881" lon="5.13367">
        <ele>361.94119399649</ele>
        <time>2014-06-01T15:42:55Z</time>
      </trkpt>
      <trkpt lat="45.30882" lon="5.13379">
        <ele>361.94119399649</ele>
        <time>2014-06-01T15:43:00Z</time>
      </trkpt>
      <trkpt lat="45.30882" lon="5.1339">
        <ele>363.12352325636</ele>
        <time>2014-06-01T15:43:05Z</time>
      </trkpt>
      <trkpt lat="45.30883" lon="5.13403">
        <ele>363.12352325636</ele>
        <time>2014-06-01T15:43:10Z</time>
      </trkpt>
      <trkpt lat="45.30884" lon="5.13413">
        <ele>364.0020656991</ele>
        <time>2014-06-01T15:43:15Z</time>
      </trkpt>
      <trkpt lat="45.30885" lon="5.13423">
        <ele>364.0020656991</ele>
        <time>2014-06-01T15:43:20Z</time>
      </trkpt>
      <trkpt lat="45.30885" lon="5.13431">
        <ele>364.04910608171</ele>
        <time>2014-06-01T15:43:25Z</time>
      </trkpt>
      <trkpt lat="45.30885" lon="5.13439">
        <ele>364.04910608171</ele>
        <time>2014-06-01T15:43:30Z</time>
      </trkpt>
      <trkpt lat="45.30885" lon="5.13448">
        <ele>363.54181667419</ele>
        <time>2014-06-01T15:43:35Z</time>
      </trkpt>
      <trkpt lat="45.30885" lon="5.13459">
        <ele>363.54181667419</ele>
        <time>2014-06-01T15:43:40Z</time>
      </trkpt>
      <trkpt lat="45.30885" lon="5.1347">
        <ele>363.28618855107</ele>
        <time>2014-06-01T15:43:45Z</time>
      </trkpt>
      <trkpt lat="45.30884" lon="5.13482">
        <ele>363.28618855107</ele>
        <time>2014-06-01T15:43:50Z</time>
      </trkpt>
      <trkpt lat="45.30883" lon="5.13497">
        <ele>363.53832342482</ele>
        <time>2014-06-01T15:43:55Z</time>
      </trkpt>
      <trkpt lat="45.30881" lon="5.13514">
        <ele>363.89999773015</ele>
        <time>2014-06-01T15:44:00Z</time>
      </trkpt>
      <trkpt lat="45.30876" lon="5.13548">
        <ele>364.63602516874</ele>
        <time>2014-06-01T15:44:05Z</time>
      </trkpt>
      <trkpt lat="45.30862" lon="5.13596">
        <ele>365.41427658481</ele>
        <time>2014-06-01T15:44:10Z</time>
      </trkpt>
      <trkpt lat="45.30851" lon="5.13627">
        <ele>366.4601235865</ele>
        <time>2014-06-01T15:44:15Z</time>
      </trkpt>
      <trkpt lat="45.30833" lon="5.13673">
        <ele>367.57813596591</ele>
        <time>2014-06-01T15:44:20Z</time>
      </trkpt>
      <trkpt lat="45.30816" lon="5.13716">
        <ele>368.68793751662</ele>
        <time>2014-06-01T15:44:25Z</time>
      </trkpt>
      <trkpt lat="45.30802" lon="5.13753">
        <ele>369.81598654045</ele>
        <time>2014-06-01T15:44:30Z</time>
      </trkpt>
      <trkpt lat="45.30805" lon="5.13791">
        <ele>371.03001603961</ele>
        <time>2014-06-01T15:44:35Z</time>
      </trkpt>
      <trkpt lat="45.30812" lon="5.13826">
        <ele>372.10436224722</ele>
        <time>2014-06-01T15:44:40Z</time>
      </trkpt>
      <trkpt lat="45.30816" lon="5.13851">
        <ele>373.30594548911</ele>
        <time>2014-06-01T15:44:45Z</time>
      </trkpt>
      <trkpt lat="45.3082" lon="5.13861">
        <ele>373.30594548911</ele>
        <time>2014-06-01T15:44:50Z</time>
      </trkpt>
      <trkpt lat="45.30824" lon="5.13872">
        <ele>374.47826364637</ele>
        <time>2014-06-01T15:44:55Z</time>
      </trkpt>
      <trkpt lat="45.30831" lon="5.13879">
        <ele>374.47826364637</ele>
        <time>2014-06-01T15:45:00Z</time>
      </trkpt>
      <trkpt lat="45.30839" lon="5.13882">
        <ele>375.31792875918</ele>
        <time>2014-06-01T15:45:05Z</time>
      </trkpt>
      <trkpt lat="45.30849" lon="5.13886">
        <ele>376.03481158557</ele>
        <time>2014-06-01T15:45:10Z</time>
      </trkpt>
      <trkpt lat="45.30858" lon="5.1389">
        <ele>376.66525068524</ele>
        <time>2014-06-01T15:45:15Z</time>
      </trkpt>
      <trkpt lat="45.30867" lon="5.13894">
        <ele>377.17116490638</ele>
        <time>2014-06-01T15:45:20Z</time>
      </trkpt>
      <trkpt lat="45.30876" lon="5.13898">
        <ele>377.44562555114</ele>
        <time>2014-06-01T15:45:25Z</time>
      </trkpt>
      <trkpt lat="45.30884" lon="5.13901">
        <ele>377.44562555114</ele>
        <time>2014-06-01T15:45:30Z</time>
      </trkpt>
      <trkpt lat="45.30892" lon="5.13905">
        <ele>377.54878894183</ele>
        <time>2014-06-01T15:45:35Z</time>
      </trkpt>
      <trkpt lat="45.30901" lon="5.13909">
        <ele>377.54878894183</ele>
        <time>2014-06-01T15:45:40Z</time>
      </trkpt>
      <trkpt lat="45.30909" lon="5.13914">
        <ele>377.55133855115</ele>
        <time>2014-06-01T15:45:45Z</time>
      </trkpt>
      <trkpt lat="45.30916" lon="5.13918">
        <ele>377.55133855115</ele>
        <time>2014-06-01T15:45:50Z</time>
      </trkpt>
      <trkpt lat="45.30924" lon="5.13922">
        <ele>377.4038081259</ele>
        <time>2014-06-01T15:45:55Z</time>
      </trkpt>
      <trkpt lat="45.30932" lon="5.13926">
        <ele>377.4038081259</ele>
        <time>2014-06-01T15:46:00Z</time>
      </trkpt>
      <trkpt lat="45.30941" lon="5.1393">
        <ele>377.06082914051</ele>
        <time>2014-06-01T15:46:05Z</time>
      </trkpt>
      <trkpt lat="45.30949" lon="5.13933">
        <ele>377.06082914051</ele>
        <time>2014-06-01T15:46:10Z</time>
      </trkpt>
      <trkpt lat="45.30958" lon="5.13937">
        <ele>376.63947217595</ele>
        <time>2014-06-01T15:46:15Z</time>
      </trkpt>
      <trkpt lat="45.30966" lon="5.13941">
        <ele>376.63947217595</ele>
        <time>2014-06-01T15:46:20Z</time>
      </trkpt>
      <trkpt lat="45.30974" lon="5.13945">
        <ele>376.13316679174</ele>
        <time>2014-06-01T15:46:25Z</time>
      </trkpt>
      <trkpt lat="45.30982" lon="5.13949">
        <ele>376.13316679174</ele>
        <time>2014-06-01T15:46:30Z</time>
      </trkpt>
      <trkpt lat="45.3099" lon="5.13953">
        <ele>375.59372772656</ele>
        <time>2014-06-01T15:46:35Z</time>
      </trkpt>
      <trkpt lat="45.30998" lon="5.13957">
        <ele>375.59372772656</ele>
        <time>2014-06-01T15:46:40Z</time>
      </trkpt>
      <trkpt lat="45.31006" lon="5.13963">
        <ele>375.12691242665</ele>
        <time>2014-06-01T15:46:45Z</time>
      </trkpt>
      <trkpt lat="45.31007" lon="5.13976">
        <ele>375.12691242665</ele>
        <time>2014-06-01T15:46:50Z</time>
      </trkpt>
      <trkpt lat="45.31003" lon="5.13989">
        <ele>374.81609862019</ele>
        <time>2014-06-01T15:46:55Z</time>
      </trkpt>
      <trkpt lat="45.31" lon="5.14001">
        <ele>374.5507542781</ele>
        <time>2014-06-01T15:47:00Z</time>
      </trkpt>
      <trkpt lat="45.30997" lon="5.14013">
        <ele>374.34361999957</ele>
        <time>2014-06-01T15:47:05Z</time>
      </trkpt>
      <trkpt lat="45.30995" lon="5.14025">
        <ele>374.34361999957</ele>
        <time>2014-06-01T15:47:10Z</time>
      </trkpt>
      <trkpt lat="45.30992" lon="5.14037">
        <ele>374.33602460002</ele>
        <time>2014-06-01T15:47:15Z</time>
      </trkpt>
      <trkpt lat="45.3099" lon="5.14049">
        <ele>374.33602460002</ele>
        <time>2014-06-01T15:47:20Z</time>
      </trkpt>
      <trkpt lat="45.30988" lon="5.14061">
        <ele>374.54305081728</ele>
        <time>2014-06-01T15:47:25Z</time>
      </trkpt>
      <trkpt lat="45.30986" lon="5.14073">
        <ele>374.54305081728</ele>
        <time>2014-06-01T15:47:30Z</time>
      </trkpt>
      <trkpt lat="45.30984" lon="5.14085">
        <ele>374.96364346213</ele>
        <time>2014-06-01T15:47:35Z</time>
      </trkpt>
      <trkpt lat="45.30981" lon="5.14097">
        <ele>374.96364346213</ele>
        <time>2014-06-01T15:47:40Z</time>
      </trkpt>
      <trkpt lat="45.3098" lon="5.14108">
        <ele>375.30798655097</ele>
        <time>2014-06-01T15:47:45Z</time>
      </trkpt>
      <trkpt lat="45.30979" lon="5.1412">
        <ele>375.30798655097</ele>
        <time>2014-06-01T15:47:50Z</time>
      </trkpt>
      <trkpt lat="45.30978" lon="5.14131">
        <ele>375.2068732658</ele>
        <time>2014-06-01T15:47:55Z</time>
      </trkpt>
      <trkpt lat="45.30976" lon="5.14143">
        <ele>375.2068732658</ele>
        <time>2014-06-01T15:48:00Z</time>
      </trkpt>
      <trkpt lat="45.30974" lon="5.14154">
        <ele>375.14088544079</ele>
        <time>2014-06-01T15:48:05Z</time>
      </trkpt>
      <trkpt lat="45.30972" lon="5.14166">
        <ele>375.14088544079</ele>
        <time>2014-06-01T15:48:10Z</time>
      </trkpt>
      <trkpt lat="45.3097" lon="5.14178">
        <ele>375.07961950288</ele>
        <time>2014-06-01T15:48:15Z</time>
      </trkpt>
      <trkpt lat="45.30968" lon="5.14189">
        <ele>375.07961950288</ele>
        <time>2014-06-01T15:48:20Z</time>
      </trkpt>
      <trkpt lat="45.30967" lon="5.14201">
        <ele>374.89399602409</ele>
        <time>2014-06-01T15:48:25Z</time>
      </trkpt>
      <trkpt lat="45.30965" lon="5.14212">
        <ele>374.89399602409</ele>
        <time>2014-06-01T15:48:30Z</time>
      </trkpt>
      <trkpt lat="45.30963" lon="5.14224">
        <ele>374.63767960617</ele>
        <time>2014-06-01T15:48:35Z</time>
      </trkpt>
      <trkpt lat="45.30961" lon="5.14236">
        <ele>374.63767960617</ele>
        <time>2014-06-01T15:48:40Z</time>
      </trkpt>
      <trkpt lat="45.30956" lon="5.14246">
        <ele>374.54791329355</ele>
        <time>2014-06-01T15:48:45Z</time>
      </trkpt>
      <trkpt lat="45.30947" lon="5.14251">
        <ele>374.44050981699</ele>
        <time>2014-06-01T15:48:50Z</time>
      </trkpt>
      <trkpt lat="45.30938" lon="5.1425">
        <ele>374.37541387495</ele>
        <time>2014-06-01T15:48:55Z</time>
      </trkpt>
      <trkpt lat="45.3093" lon="5.14248">
        <ele>374.37541387495</ele>
        <time>2014-06-01T15:49:00Z</time>
      </trkpt>
      <trkpt lat="45.30923" lon="5.14247">
        <ele>374.19185423801</ele>
        <time>2014-06-01T15:49:05Z</time>
      </trkpt>
      <trkpt lat="45.30913" lon="5.14244">
        <ele>374.20233021804</ele>
        <time>2014-06-01T15:49:10Z</time>
      </trkpt>
      <trkpt lat="45.30905" lon="5.14242">
        <ele>374.20233021804</ele>
        <time>2014-06-01T15:49:15Z</time>
      </trkpt>
      <trkpt lat="45.30897" lon="5.14241">
        <ele>374.26347922192</ele>
        <time>2014-06-01T15:49:20Z</time>
      </trkpt>
      <trkpt lat="45.30888" lon="5.14238">
        <ele>374.29994421414</ele>
        <time>2014-06-01T15:49:25Z</time>
      </trkpt>
      <trkpt lat="45.30882" lon="5.14236">
        <ele>374.29994421414</ele>
        <time>2014-06-01T15:49:30Z</time>
      </trkpt>
      <trkpt lat="45.30872" lon="5.14235">
        <ele>374.53016802899</ele>
        <time>2014-06-01T15:49:35Z</time>
      </trkpt>
      <trkpt lat="45.30866" lon="5.14236">
        <ele>374.53016802899</ele>
        <time>2014-06-01T15:49:40Z</time>
      </trkpt>
      <trkpt lat="45.30865" lon="5.14236">
        <ele>374.53016802899</ele>
        <time>2014-06-01T15:49:45Z</time>
      </trkpt>
      <trkpt lat="45.30867" lon="5.14236">
        <ele>374.63717676052</ele>
        <time>2014-06-01T15:49:50Z</time>
      </trkpt>
      <trkpt lat="45.30865" lon="5.14238">
        <ele>374.63717676052</ele>
        <time>2014-06-01T15:49:55Z</time>
      </trkpt>
      <trkpt lat="45.30866" lon="5.14239">
        <ele>374.63717676052</ele>
        <time>2014-06-01T15:50:00Z</time>
      </trkpt>
      <trkpt lat="45.30864" lon="5.14238">
        <ele>374.63717676052</ele>
        <time>2014-06-01T15:50:05Z</time>
      </trkpt>
      <trkpt lat="45.30864" lon="5.14238">
        <ele>374.63717676052</ele>
        <time>2014-06-01T15:50:10Z</time>
      </trkpt>
      <trkpt lat="45.30864" lon="5.14239">
        <ele>374.63717676052</ele>
        <time>2014-06-01T15:50:16Z</time>
      </trkpt>
      <trkpt lat="45.30865" lon="5.14241">
        <ele>374.63717676052</ele>
        <time>2014-06-01T15:50:20Z</time>
      </trkpt>
      <trkpt lat="45.30865" lon="5.14242">
        <ele>374.63717676052</ele>
        <time>2014-06-01T15:50:25Z</time>
      </trkpt>
      <trkpt lat="45.30866" lon="5.14244">
        <ele>374.63717676052</ele>
        <time>2014-06-01T15:50:30Z</time>
      </trkpt>
      <trkpt lat="45.30865" lon="5.14244">
        <ele>374.22672318463</ele>
        <time>2014-06-01T15:50:35Z</time>
      </trkpt>
      <trkpt lat="45.30864" lon="5.14244">
        <ele>374.22672318463</ele>
        <time>2014-06-01T15:50:40Z</time>
      </trkpt>
      <trkpt lat="45.30864" lon="5.14244">
        <ele>374.22672318463</ele>
        <time>2014-06-01T15:50:45Z</time>
      </trkpt>
      <trkpt lat="45.30864" lon="5.14244">
        <ele>374.22672318463</ele>
        <time>2014-06-01T15:50:50Z</time>
      </trkpt>
      <trkpt lat="45.30864" lon="5.14244">
        <ele>374.22672318463</ele>
        <time>2014-06-01T15:50:55Z</time>
      </trkpt>
      <trkpt lat="45.30864" lon="5.14243">
        <ele>374.22672318463</ele>
        <time>2014-06-01T15:51:00Z</time>
      </trkpt>
      <trkpt lat="45.30863" lon="5.14245">
        <ele>374.22672318463</ele>
        <time>2014-06-01T15:51:05Z</time>
      </trkpt>
      <trkpt lat="45.30863" lon="5.14245">
        <ele>374.22672318463</ele>
        <time>2014-06-01T15:51:10Z</time>
      </trkpt>
      <trkpt lat="45.30863" lon="5.14245">
        <ele>374.22672318463</ele>
        <time>2014-06-01T15:51:15Z</time>
      </trkpt>
      <trkpt lat="45.30863" lon="5.14245">
        <ele>374.22672318463</ele>
        <time>2014-06-01T15:51:20Z</time>
      </trkpt>
      <trkpt lat="45.30864" lon="5.1424">
        <ele>374.22672318463</ele>
        <time>2014-06-01T15:51:25Z</time>
      </trkpt>
      <trkpt lat="45.30866" lon="5.1424">
        <ele>374.22672318463</ele>
        <time>2014-06-01T15:51:30Z</time>
      </trkpt>
      <trkpt lat="45.30867" lon="5.14239">
        <ele>373.81402500466</ele>
        <time>2014-06-01T15:51:35Z</time>
      </trkpt>
      <trkpt lat="45.30868" lon="5.14242">
        <ele>373.81402500466</ele>
        <time>2014-06-01T15:51:40Z</time>
      </trkpt>
      <trkpt lat="45.30867" lon="5.14247">
        <ele>373.81402500466</ele>
        <time>2014-06-01T15:51:45Z</time>
      </trkpt>
      <trkpt lat="45.30867" lon="5.14249">
        <ele>373.81402500466</ele>
        <time>2014-06-01T15:51:50Z</time>
      </trkpt>
      <trkpt lat="45.30867" lon="5.14249">
        <ele>373.81402500466</ele>
        <time>2014-06-01T15:51:55Z</time>
      </trkpt>
      <trkpt lat="45.30866" lon="5.1425">
        <ele>373.81402500466</ele>
        <time>2014-06-01T15:52:00Z</time>
      </trkpt>
      <trkpt lat="45.30867" lon="5.1425">
        <ele>373.81402500466</ele>
        <time>2014-06-01T15:52:05Z</time>
      </trkpt>
      <trkpt lat="45.30867" lon="5.1425">
        <ele>373.81402500466</ele>
        <time>2014-06-01T15:52:10Z</time>
      </trkpt>
      <trkpt lat="45.30868" lon="5.14254">
        <ele>373.60262069161</ele>
        <time>2014-06-01T15:52:15Z</time>
      </trkpt>
      <trkpt lat="45.30868" lon="5.14258">
        <ele>373.60262069161</ele>
        <time>2014-06-01T15:52:20Z</time>
      </trkpt>
      <trkpt lat="45.30868" lon="5.14268">
        <ele>373.65080436172</ele>
        <time>2014-06-01T15:52:25Z</time>
      </trkpt>
      <trkpt lat="45.30865" lon="5.14276">
        <ele>373.65080436172</ele>
        <time>2014-06-01T15:52:30Z</time>
      </trkpt>
      <trkpt lat="45.30865" lon="5.14285">
        <ele>373.85330898872</ele>
        <time>2014-06-01T15:52:35Z</time>
      </trkpt>
      <trkpt lat="45.30865" lon="5.14294">
        <ele>373.85330898872</ele>
        <time>2014-06-01T15:52:40Z</time>
      </trkpt>
      <trkpt lat="45.30865" lon="5.14303">
        <ele>373.92479503609</ele>
        <time>2014-06-01T15:52:45Z</time>
      </trkpt>
      <trkpt lat="45.30864" lon="5.14311">
        <ele>373.92479503609</ele>
        <time>2014-06-01T15:52:50Z</time>
      </trkpt>
      <trkpt lat="45.30866" lon="5.1432">
        <ele>373.96150274905</ele>
        <time>2014-06-01T15:52:55Z</time>
      </trkpt>
      <trkpt lat="45.30865" lon="5.14329">
        <ele>373.96150274905</ele>
        <time>2014-06-01T15:53:00Z</time>
      </trkpt>
      <trkpt lat="45.30864" lon="5.14339">
        <ele>373.95179742874</ele>
        <time>2014-06-01T15:53:05Z</time>
      </trkpt>
      <trkpt lat="45.3086" lon="5.14345">
        <ele>373.95179742874</ele>
        <time>2014-06-01T15:53:10Z</time>
      </trkpt>
      <trkpt lat="45.30857" lon="5.14346">
        <ele>373.95179742874</ele>
        <time>2014-06-01T15:53:15Z</time>
      </trkpt>
      <trkpt lat="45.30851" lon="5.14345">
        <ele>373.25091536574</ele>
        <time>2014-06-01T15:53:20Z</time>
      </trkpt>
      <trkpt lat="45.30845" lon="5.14344">
        <ele>373.25091536574</ele>
        <time>2014-06-01T15:53:25Z</time>
      </trkpt>
      <trkpt lat="45.30838" lon="5.14343">
        <ele>372.74771534073</ele>
        <time>2014-06-01T15:53:30Z</time>
      </trkpt>
      <trkpt lat="45.30832" lon="5.14341">
        <ele>372.74771534073</ele>
        <time>2014-06-01T15:53:35Z</time>
      </trkpt>
      <trkpt lat="45.30826" lon="5.14342">
        <ele>372.64550192131</ele>
        <time>2014-06-01T15:53:40Z</time>
      </trkpt>
      <trkpt lat="45.30821" lon="5.1434">
        <ele>372.64550192131</ele>
        <time>2014-06-01T15:53:45Z</time>
      </trkpt>
      <trkpt lat="45.30816" lon="5.14336">
        <ele>372.92973711486</ele>
        <time>2014-06-01T15:53:50Z</time>
      </trkpt>
      <trkpt lat="45.3081" lon="5.14336">
        <ele>372.92973711486</ele>
        <time>2014-06-01T15:53:55Z</time>
      </trkpt>
      <trkpt lat="45.30803" lon="5.14336">
        <ele>373.70112928474</ele>
        <time>2014-06-01T15:54:00Z</time>
      </trkpt>
      <trkpt lat="45.30797" lon="5.14335">
        <ele>373.70112928474</ele>
        <time>2014-06-01T15:54:05Z</time>
      </trkpt>
      <trkpt lat="45.30791" lon="5.14334">
        <ele>373.99958693476</ele>
        <time>2014-06-01T15:54:10Z</time>
      </trkpt>
      <trkpt lat="45.30786" lon="5.14336">
        <ele>373.99958693476</ele>
        <time>2014-06-01T15:54:15Z</time>
      </trkpt>
      <trkpt lat="45.30777" lon="5.14339">
        <ele>374.2482650572</ele>
        <time>2014-06-01T15:54:20Z</time>
      </trkpt>
      <trkpt lat="45.3077" lon="5.14343">
        <ele>374.2482650572</ele>
        <time>2014-06-01T15:54:25Z</time>
      </trkpt>
      <trkpt lat="45.30764" lon="5.14348">
        <ele>374.85377004907</ele>
        <time>2014-06-01T15:54:30Z</time>
      </trkpt>
      <trkpt lat="45.30759" lon="5.14353">
        <ele>374.85377004907</ele>
        <time>2014-06-01T15:54:35Z</time>
      </trkpt>
      <trkpt lat="45.30755" lon="5.14359">
        <ele>375.37039451546</ele>
        <time>2014-06-01T15:54:40Z</time>
      </trkpt>
      <trkpt lat="45.30759" lon="5.14359">
        <ele>375.37039451546</ele>
        <time>2014-06-01T15:54:45Z</time>
      </trkpt>
      <trkpt lat="45.30761" lon="5.14356">
        <ele>375.37039451546</ele>
        <time>2014-06-01T15:54:50Z</time>
      </trkpt>
      <trkpt lat="45.30762" lon="5.14356">
        <ele>375.37039451546</ele>
        <time>2014-06-01T15:54:55Z</time>
      </trkpt>
      <trkpt lat="45.30762" lon="5.14356">
        <ele>375.37039451546</ele>
        <time>2014-06-01T15:55:00Z</time>
      </trkpt>
      <trkpt lat="45.30762" lon="5.14356">
        <ele>375.37039451546</ele>
        <time>2014-06-01T15:55:05Z</time>
      </trkpt>
      <trkpt lat="45.3076" lon="5.14357">
        <ele>375.39982612427</ele>
        <time>2014-06-01T15:55:10Z</time>
      </trkpt>
      <trkpt lat="45.3076" lon="5.14356">
        <ele>375.39982612427</ele>
        <time>2014-06-01T15:55:15Z</time>
      </trkpt>
      <trkpt lat="45.30761" lon="5.14356">
        <ele>375.39982612427</ele>
        <time>2014-06-01T15:55:20Z</time>
      </trkpt>
      <trkpt lat="45.3076" lon="5.14357">
        <ele>375.39982612427</ele>
        <time>2014-06-01T15:55:25Z</time>
      </trkpt>
      <trkpt lat="45.3076" lon="5.14357">
        <ele>375.39982612427</ele>
        <time>2014-06-01T15:55:30Z</time>
      </trkpt>
      <trkpt lat="45.3076" lon="5.14356">
        <ele>375.39982612427</ele>
        <time>2014-06-01T15:55:35Z</time>
      </trkpt>
    </trkseg>
  </trk>
</gpx>